<?xml version="1.0" encoding="UTF-8" standalone="yes"?>
<gpx version="1.1" creator="outdooractive - http://www.outdooractive.com" xmlns="http://www.topografix.com/GPX/1/1" xmlns:xsi="http://www.w3.org/2001/XMLSchema-instance" xsi:schemaLocation="http://www.topografix.com/GPX/1/1 http://www.topografix.com/GPX/1/1/gpx.xsd" xmlns:oa="http://www.outdooractive.com/GPX/Extensions/1">
  <metadata>
    <name>Settimo Senge</name>
    <author>
      <name>Davide Vottero Reis - Community</name>
    </author>
    <link href="https://www.outdooractive.com/r/304151234"/>
    <time>2024-10-20T09:33:06.499Z</time>
    <extensions>
      <oa:oaCategory>trackHikingTourTrail</oa:oaCategory>
    </extensions>
  </metadata>
  <trk>
    <name>Settimo Senge</name>
    <type>trackHikingTourTrail</type>
    <trkseg>
      <trkpt lat="45.55091" lon="7.835055">
        <ele>411.60001</ele>
        <time>2024-10-19T12:03:32.200Z</time>
        <name>Chiesa di Santa Maria delle Grazie, Settimo Vittone</name>
        <extensions>
          <oa:address>{
  &quot;title&quot; : &quot;Chiesa di Santa Maria delle Grazie, Settimo Vittone&quot;
}</oa:address>
        </extensions>
      </trkpt>
      <trkpt lat="45.550928" lon="7.835072">
        <ele>411.54999</ele>
        <time>2024-10-19T12:03:43.000Z</time>
      </trkpt>
      <trkpt lat="45.550943" lon="7.835097">
        <ele>410.76669</ele>
        <time>2024-10-19T12:03:55.000Z</time>
      </trkpt>
      <trkpt lat="45.550948" lon="7.835122">
        <ele>410.10001</ele>
        <time>2024-10-19T12:03:57.000Z</time>
      </trkpt>
      <trkpt lat="45.550958" lon="7.835152">
        <ele>409.46002</ele>
        <time>2024-10-19T12:03:59.000Z</time>
      </trkpt>
      <trkpt lat="45.550938" lon="7.835182">
        <ele>408.96667</ele>
        <time>2024-10-19T12:04:00.000Z</time>
      </trkpt>
      <trkpt lat="45.550915" lon="7.835215">
        <ele>408.51431</ele>
        <time>2024-10-19T12:04:01.000Z</time>
      </trkpt>
      <trkpt lat="45.550912" lon="7.835258">
        <ele>408.01251</ele>
        <time>2024-10-19T12:04:03.000Z</time>
      </trkpt>
      <trkpt lat="45.550922" lon="7.835282">
        <ele>407.36667</ele>
        <time>2024-10-19T12:04:06.000Z</time>
      </trkpt>
      <trkpt lat="45.550948" lon="7.835302">
        <ele>406.74002</ele>
        <time>2024-10-19T12:04:09.000Z</time>
      </trkpt>
      <trkpt lat="45.550967" lon="7.835317">
        <ele>406.13635</ele>
        <time>2024-10-19T12:04:11.000Z</time>
      </trkpt>
      <trkpt lat="45.550965" lon="7.835343">
        <ele>405.58334</ele>
        <time>2024-10-19T12:04:13.000Z</time>
      </trkpt>
      <trkpt lat="45.550963" lon="7.835375">
        <ele>405.14615</ele>
        <time>2024-10-19T12:04:15.000Z</time>
      </trkpt>
      <trkpt lat="45.550993" lon="7.835382">
        <ele>404.95712</ele>
        <time>2024-10-19T12:04:16.000Z</time>
      </trkpt>
      <trkpt lat="45.551013" lon="7.835387">
        <ele>404.9133</ele>
        <time>2024-10-19T12:04:17.000Z</time>
      </trkpt>
      <trkpt lat="45.551032" lon="7.835385">
        <ele>404.98123</ele>
        <time>2024-10-19T12:04:18.000Z</time>
      </trkpt>
      <trkpt lat="45.551053" lon="7.835387">
        <ele>405.18234</ele>
        <time>2024-10-19T12:04:20.000Z</time>
      </trkpt>
      <trkpt lat="45.551077" lon="7.835385">
        <ele>405.4722</ele>
        <time>2024-10-19T12:04:22.000Z</time>
      </trkpt>
      <trkpt lat="45.5511" lon="7.835383">
        <ele>405.90524</ele>
        <time>2024-10-19T12:04:25.000Z</time>
      </trkpt>
      <trkpt lat="45.551122" lon="7.835388">
        <ele>406.32001</ele>
        <time>2024-10-19T12:04:26.000Z</time>
      </trkpt>
      <trkpt lat="45.551147" lon="7.835387">
        <ele>406.48499</ele>
        <time>2024-10-19T12:04:29.000Z</time>
      </trkpt>
      <trkpt lat="45.551168" lon="7.835397">
        <ele>406.67499</ele>
        <time>2024-10-19T12:04:31.000Z</time>
      </trkpt>
      <trkpt lat="45.551192" lon="7.835388">
        <ele>406.94998</ele>
        <time>2024-10-19T12:04:34.000Z</time>
      </trkpt>
      <trkpt lat="45.551218" lon="7.83539">
        <ele>407.28998</ele>
        <time>2024-10-19T12:04:36.000Z</time>
      </trkpt>
      <trkpt lat="45.55124" lon="7.835395">
        <ele>407.70499</ele>
        <time>2024-10-19T12:04:39.000Z</time>
      </trkpt>
      <trkpt lat="45.55126" lon="7.835387">
        <ele>408.15497</ele>
        <time>2024-10-19T12:04:41.000Z</time>
      </trkpt>
      <trkpt lat="45.551283" lon="7.835378">
        <ele>408.69</ele>
        <time>2024-10-19T12:04:43.000Z</time>
      </trkpt>
      <trkpt lat="45.551305" lon="7.835372">
        <ele>409.35001</ele>
        <time>2024-10-19T12:04:46.000Z</time>
      </trkpt>
      <trkpt lat="45.551327" lon="7.835383">
        <ele>410.09</ele>
        <time>2024-10-19T12:04:49.000Z</time>
      </trkpt>
      <trkpt lat="45.551347" lon="7.835392">
        <ele>410.88495</ele>
        <time>2024-10-19T12:04:51.000Z</time>
      </trkpt>
      <trkpt lat="45.551373" lon="7.835395">
        <ele>411.73993</ele>
        <time>2024-10-19T12:04:53.000Z</time>
      </trkpt>
      <trkpt lat="45.551402" lon="7.8354">
        <ele>412.62994</ele>
        <time>2024-10-19T12:04:55.000Z</time>
      </trkpt>
      <trkpt lat="45.551425" lon="7.835408">
        <ele>413.49994</ele>
        <time>2024-10-19T12:04:57.000Z</time>
      </trkpt>
      <trkpt lat="45.551452" lon="7.835413">
        <ele>414.22495</ele>
        <time>2024-10-19T12:04:59.000Z</time>
      </trkpt>
      <trkpt lat="45.551472" lon="7.835412">
        <ele>414.83496</ele>
        <time>2024-10-19T12:05:02.000Z</time>
      </trkpt>
      <trkpt lat="45.551488" lon="7.835425">
        <ele>415.35498</ele>
        <time>2024-10-19T12:05:04.000Z</time>
      </trkpt>
      <trkpt lat="45.551517" lon="7.835412">
        <ele>415.74496</ele>
        <time>2024-10-19T12:05:06.000Z</time>
      </trkpt>
      <trkpt lat="45.551535" lon="7.83543">
        <ele>416.16498</ele>
        <time>2024-10-19T12:05:09.000Z</time>
      </trkpt>
      <trkpt lat="45.551535" lon="7.8354">
        <ele>416.52997</ele>
        <time>2024-10-19T12:05:12.000Z</time>
      </trkpt>
      <trkpt lat="45.551553" lon="7.835378">
        <ele>416.77496</ele>
        <time>2024-10-19T12:05:13.000Z</time>
      </trkpt>
      <trkpt lat="45.551553" lon="7.835335">
        <ele>416.92999</ele>
        <time>2024-10-19T12:05:15.000Z</time>
      </trkpt>
      <trkpt lat="45.551538" lon="7.8353">
        <ele>417.02997</ele>
        <time>2024-10-19T12:05:16.000Z</time>
      </trkpt>
      <trkpt lat="45.551527" lon="7.835265">
        <ele>417.12997</ele>
        <time>2024-10-19T12:05:17.000Z</time>
      </trkpt>
      <trkpt lat="45.551553" lon="7.835245">
        <ele>417.215</ele>
        <time>2024-10-19T12:05:19.000Z</time>
      </trkpt>
      <trkpt lat="45.551577" lon="7.835208">
        <ele>417.32999</ele>
        <time>2024-10-19T12:05:21.000Z</time>
      </trkpt>
      <trkpt lat="45.551592" lon="7.835193">
        <ele>417.45996</ele>
        <time>2024-10-19T12:05:22.000Z</time>
      </trkpt>
      <trkpt lat="45.55161" lon="7.835183">
        <ele>417.55499</ele>
        <time>2024-10-19T12:05:24.000Z</time>
      </trkpt>
      <trkpt lat="45.551625" lon="7.835148">
        <ele>417.61996</ele>
        <time>2024-10-19T12:05:26.000Z</time>
      </trkpt>
      <trkpt lat="45.55164" lon="7.835108">
        <ele>417.77997</ele>
        <time>2024-10-19T12:05:28.000Z</time>
      </trkpt>
      <trkpt lat="45.551653" lon="7.835073">
        <ele>417.98999</ele>
        <time>2024-10-19T12:05:30.000Z</time>
      </trkpt>
      <trkpt lat="45.551662" lon="7.835045">
        <ele>418.19</ele>
        <time>2024-10-19T12:05:32.000Z</time>
      </trkpt>
      <trkpt lat="45.551668" lon="7.835013">
        <ele>418.44</ele>
        <time>2024-10-19T12:05:35.000Z</time>
      </trkpt>
      <trkpt lat="45.551673" lon="7.83498">
        <ele>418.69501</ele>
        <time>2024-10-19T12:05:45.000Z</time>
      </trkpt>
      <trkpt lat="45.551687" lon="7.834958">
        <ele>418.97003</ele>
        <time>2024-10-19T12:05:56.000Z</time>
      </trkpt>
      <trkpt lat="45.551693" lon="7.834915">
        <ele>419.24503</ele>
        <time>2024-10-19T12:05:58.000Z</time>
      </trkpt>
      <trkpt lat="45.551707" lon="7.834875">
        <ele>419.49503</ele>
        <time>2024-10-19T12:06:00.000Z</time>
      </trkpt>
      <trkpt lat="45.55173" lon="7.83484">
        <ele>419.73502</ele>
        <time>2024-10-19T12:06:02.000Z</time>
      </trkpt>
      <trkpt lat="45.55175" lon="7.834807">
        <ele>419.83502</ele>
        <time>2024-10-19T12:06:04.000Z</time>
      </trkpt>
      <trkpt lat="45.551765" lon="7.834777">
        <ele>419.81</ele>
        <time>2024-10-19T12:06:06.000Z</time>
      </trkpt>
      <trkpt lat="45.551787" lon="7.83476">
        <ele>419.85001</ele>
        <time>2024-10-19T12:06:08.000Z</time>
      </trkpt>
      <trkpt lat="45.551798" lon="7.834723">
        <ele>419.94501</ele>
        <time>2024-10-19T12:06:10.000Z</time>
      </trkpt>
      <trkpt lat="45.551798" lon="7.834685">
        <ele>420.08002</ele>
        <time>2024-10-19T12:06:12.000Z</time>
      </trkpt>
      <trkpt lat="45.55179" lon="7.834645">
        <ele>420.22501</ele>
        <time>2024-10-19T12:06:14.000Z</time>
      </trkpt>
      <trkpt lat="45.551788" lon="7.83461">
        <ele>420.32501</ele>
        <time>2024-10-19T12:06:16.000Z</time>
      </trkpt>
      <trkpt lat="45.551802" lon="7.834588">
        <ele>420.36002</ele>
        <time>2024-10-19T12:06:18.000Z</time>
      </trkpt>
      <trkpt lat="45.55181" lon="7.834543">
        <ele>420.36499</ele>
        <time>2024-10-19T12:06:20.000Z</time>
      </trkpt>
      <trkpt lat="45.551832" lon="7.834527">
        <ele>420.36002</ele>
        <time>2024-10-19T12:06:22.000Z</time>
      </trkpt>
      <trkpt lat="45.551857" lon="7.834518">
        <ele>420.32001</ele>
        <time>2024-10-19T12:06:24.000Z</time>
      </trkpt>
      <trkpt lat="45.551873" lon="7.834498">
        <ele>420.23999</ele>
        <time>2024-10-19T12:06:25.000Z</time>
      </trkpt>
      <trkpt lat="45.551895" lon="7.834497">
        <ele>420.125</ele>
        <time>2024-10-19T12:06:26.000Z</time>
      </trkpt>
      <trkpt lat="45.551913" lon="7.834488">
        <ele>420.02499</ele>
        <time>2024-10-19T12:06:27.000Z</time>
      </trkpt>
      <trkpt lat="45.551943" lon="7.834507">
        <ele>419.85504</ele>
        <time>2024-10-19T12:06:29.000Z</time>
      </trkpt>
      <trkpt lat="45.55196" lon="7.834525">
        <ele>419.67505</ele>
        <time>2024-10-19T12:06:31.000Z</time>
      </trkpt>
      <trkpt lat="45.551968" lon="7.834548">
        <ele>419.47504</ele>
        <time>2024-10-19T12:06:33.000Z</time>
      </trkpt>
      <trkpt lat="45.551985" lon="7.834527">
        <ele>419.30502</ele>
        <time>2024-10-19T12:06:36.000Z</time>
      </trkpt>
      <trkpt lat="45.552008" lon="7.834512">
        <ele>419.20004</ele>
        <time>2024-10-19T12:06:39.000Z</time>
      </trkpt>
      <trkpt lat="45.552025" lon="7.834502">
        <ele>419.12506</ele>
        <time>2024-10-19T12:06:41.000Z</time>
      </trkpt>
      <trkpt lat="45.552045" lon="7.834497">
        <ele>419.08008</ele>
        <time>2024-10-19T12:06:43.000Z</time>
      </trkpt>
      <trkpt lat="45.552072" lon="7.83449">
        <ele>419.08008</ele>
        <time>2024-10-19T12:06:45.000Z</time>
      </trkpt>
      <trkpt lat="45.552102" lon="7.834467">
        <ele>419.13007</ele>
        <time>2024-10-19T12:06:47.000Z</time>
      </trkpt>
      <trkpt lat="45.552118" lon="7.834438">
        <ele>419.2001</ele>
        <time>2024-10-19T12:06:49.000Z</time>
      </trkpt>
      <trkpt lat="45.552118" lon="7.8344">
        <ele>419.31012</ele>
        <time>2024-10-19T12:06:52.000Z</time>
      </trkpt>
      <trkpt lat="45.552122" lon="7.834368">
        <ele>419.45508</ele>
        <time>2024-10-19T12:06:54.000Z</time>
      </trkpt>
      <trkpt lat="45.552112" lon="7.834335">
        <ele>419.67007</ele>
        <time>2024-10-19T12:06:57.000Z</time>
      </trkpt>
      <trkpt lat="45.552108" lon="7.834303">
        <ele>419.93008</ele>
        <time>2024-10-19T12:06:59.000Z</time>
      </trkpt>
      <trkpt lat="45.5521" lon="7.834268">
        <ele>420.25006</ele>
        <time>2024-10-19T12:07:02.000Z</time>
      </trkpt>
      <trkpt lat="45.552095" lon="7.834237">
        <ele>420.67505</ele>
        <time>2024-10-19T12:07:04.000Z</time>
      </trkpt>
      <trkpt lat="45.552097" lon="7.834202">
        <ele>421.21503</ele>
        <time>2024-10-19T12:07:07.000Z</time>
      </trkpt>
      <trkpt lat="45.55209" lon="7.834173">
        <ele>421.80005</ele>
        <time>2024-10-19T12:07:11.000Z</time>
      </trkpt>
      <trkpt lat="45.552107" lon="7.834143">
        <ele>422.47504</ele>
        <time>2024-10-19T12:07:31.000Z</time>
      </trkpt>
      <trkpt lat="45.552092" lon="7.834115">
        <ele>423.19501</ele>
        <time>2024-10-19T12:07:34.000Z</time>
      </trkpt>
      <trkpt lat="45.552087" lon="7.834085">
        <ele>424.06503</ele>
        <time>2024-10-19T12:07:37.000Z</time>
      </trkpt>
      <trkpt lat="45.552098" lon="7.834062">
        <ele>424.91504</ele>
        <time>2024-10-19T12:07:40.000Z</time>
      </trkpt>
      <trkpt lat="45.552105" lon="7.834033">
        <ele>425.64005</ele>
        <time>2024-10-19T12:07:44.000Z</time>
      </trkpt>
      <trkpt lat="45.552115" lon="7.834007">
        <ele>426.20502</ele>
        <time>2024-10-19T12:07:47.000Z</time>
      </trkpt>
      <trkpt lat="45.552125" lon="7.833985">
        <ele>426.65503</ele>
        <time>2024-10-19T12:07:49.000Z</time>
      </trkpt>
      <trkpt lat="45.55213" lon="7.833953">
        <ele>426.98502</ele>
        <time>2024-10-19T12:07:53.000Z</time>
      </trkpt>
      <trkpt lat="45.552145" lon="7.833932">
        <ele>426.96503</ele>
        <time>2024-10-19T12:08:05.000Z</time>
      </trkpt>
      <trkpt lat="45.552158" lon="7.833905">
        <ele>426.91006</ele>
        <time>2024-10-19T12:08:07.000Z</time>
      </trkpt>
      <trkpt lat="45.552182" lon="7.833883">
        <ele>426.81503</ele>
        <time>2024-10-19T12:08:09.000Z</time>
      </trkpt>
      <trkpt lat="45.5522" lon="7.833862">
        <ele>426.64005</ele>
        <time>2024-10-19T12:08:11.000Z</time>
      </trkpt>
      <trkpt lat="45.55222" lon="7.83384">
        <ele>426.38501</ele>
        <time>2024-10-19T12:08:13.000Z</time>
      </trkpt>
      <trkpt lat="45.55222" lon="7.833805">
        <ele>426.04501</ele>
        <time>2024-10-19T12:08:16.000Z</time>
      </trkpt>
      <trkpt lat="45.552225" lon="7.83378">
        <ele>425.73502</ele>
        <time>2024-10-19T12:08:22.000Z</time>
      </trkpt>
      <trkpt lat="45.552223" lon="7.833735">
        <ele>425.41</ele>
        <time>2024-10-19T12:08:24.000Z</time>
      </trkpt>
      <trkpt lat="45.552232" lon="7.833697">
        <ele>424.98999</ele>
        <time>2024-10-19T12:08:26.000Z</time>
      </trkpt>
      <trkpt lat="45.552253" lon="7.83368">
        <ele>424.435</ele>
        <time>2024-10-19T12:08:28.000Z</time>
      </trkpt>
      <trkpt lat="45.552282" lon="7.833658">
        <ele>423.74503</ele>
        <time>2024-10-19T12:08:30.000Z</time>
      </trkpt>
      <trkpt lat="45.55231" lon="7.833637">
        <ele>422.96002</ele>
        <time>2024-10-19T12:08:32.000Z</time>
      </trkpt>
      <trkpt lat="45.552342" lon="7.833615">
        <ele>422.04004</ele>
        <time>2024-10-19T12:08:34.000Z</time>
      </trkpt>
      <trkpt lat="45.552367" lon="7.833592">
        <ele>420.99503</ele>
        <time>2024-10-19T12:08:36.000Z</time>
      </trkpt>
      <trkpt lat="45.552388" lon="7.83357">
        <ele>419.80005</ele>
        <time>2024-10-19T12:08:38.000Z</time>
      </trkpt>
      <trkpt lat="45.552405" lon="7.833548">
        <ele>418.63007</ele>
        <time>2024-10-19T12:08:40.000Z</time>
      </trkpt>
      <trkpt lat="45.552425" lon="7.833513">
        <ele>417.5751</ele>
        <time>2024-10-19T12:08:42.000Z</time>
      </trkpt>
      <trkpt lat="45.552437" lon="7.833477">
        <ele>416.64511</ele>
        <time>2024-10-19T12:08:44.000Z</time>
      </trkpt>
      <trkpt lat="45.55246" lon="7.833452">
        <ele>415.77515</ele>
        <time>2024-10-19T12:08:46.000Z</time>
      </trkpt>
      <trkpt lat="45.552482" lon="7.833422">
        <ele>414.98517</ele>
        <time>2024-10-19T12:08:48.000Z</time>
      </trkpt>
      <trkpt lat="45.552503" lon="7.833395">
        <ele>414.50015</ele>
        <time>2024-10-19T12:08:50.000Z</time>
      </trkpt>
      <trkpt lat="45.552525" lon="7.833382">
        <ele>414.02017</ele>
        <time>2024-10-19T12:08:52.000Z</time>
      </trkpt>
      <trkpt lat="45.55253" lon="7.833347">
        <ele>413.55518</ele>
        <time>2024-10-19T12:08:55.000Z</time>
      </trkpt>
      <trkpt lat="45.552555" lon="7.833337">
        <ele>413.16519</ele>
        <time>2024-10-19T12:08:57.000Z</time>
      </trkpt>
      <trkpt lat="45.552577" lon="7.833322">
        <ele>412.77521</ele>
        <time>2024-10-19T12:08:59.000Z</time>
      </trkpt>
      <trkpt lat="45.55257" lon="7.833295">
        <ele>412.43018</ele>
        <time>2024-10-19T12:09:05.000Z</time>
      </trkpt>
      <trkpt lat="45.552565" lon="7.833265">
        <ele>412.02017</ele>
        <time>2024-10-19T12:09:07.000Z</time>
      </trkpt>
      <trkpt lat="45.552582" lon="7.833285">
        <ele>411.60019</ele>
        <time>2024-10-19T12:09:15.000Z</time>
      </trkpt>
      <trkpt lat="45.552603" lon="7.833287">
        <ele>411.2002</ele>
        <time>2024-10-19T12:09:18.000Z</time>
      </trkpt>
      <trkpt lat="45.552623" lon="7.8333">
        <ele>410.94019</ele>
        <time>2024-10-19T12:09:45.000Z</time>
      </trkpt>
      <trkpt lat="45.552645" lon="7.833288">
        <ele>410.74518</ele>
        <time>2024-10-19T12:09:49.000Z</time>
      </trkpt>
      <trkpt lat="45.552663" lon="7.833292">
        <ele>410.63019</ele>
        <time>2024-10-19T12:09:53.000Z</time>
      </trkpt>
      <trkpt lat="45.552648" lon="7.833275">
        <ele>410.49017</ele>
        <time>2024-10-19T12:09:57.000Z</time>
      </trkpt>
      <trkpt lat="45.552675" lon="7.833252">
        <ele>410.28516</ele>
        <time>2024-10-19T12:10:11.000Z</time>
      </trkpt>
      <trkpt lat="45.552697" lon="7.833235">
        <ele>409.96515</ele>
        <time>2024-10-19T12:10:15.000Z</time>
      </trkpt>
      <trkpt lat="45.55271" lon="7.833258">
        <ele>409.73517</ele>
        <time>2024-10-19T12:10:21.000Z</time>
      </trkpt>
      <trkpt lat="45.552722" lon="7.833283">
        <ele>409.53516</ele>
        <time>2024-10-19T12:10:25.000Z</time>
      </trkpt>
      <trkpt lat="45.55273" lon="7.83333">
        <ele>409.36017</ele>
        <time>2024-10-19T12:10:43.000Z</time>
      </trkpt>
      <trkpt lat="45.55274" lon="7.8333">
        <ele>409.26517</ele>
        <time>2024-10-19T12:10:46.000Z</time>
      </trkpt>
      <trkpt lat="45.552738" lon="7.833273">
        <ele>409.23517</ele>
        <time>2024-10-19T12:10:49.000Z</time>
      </trkpt>
      <trkpt lat="45.552737" lon="7.833247">
        <ele>409.24518</ele>
        <time>2024-10-19T12:10:55.000Z</time>
      </trkpt>
      <trkpt lat="45.552748" lon="7.833268">
        <ele>409.28522</ele>
        <time>2024-10-19T12:11:05.000Z</time>
      </trkpt>
      <trkpt lat="45.552722" lon="7.833258">
        <ele>409.4202</ele>
        <time>2024-10-19T12:11:49.000Z</time>
      </trkpt>
      <trkpt lat="45.552763" lon="7.833252">
        <ele>409.4502</ele>
        <time>2024-10-19T12:12:48.000Z</time>
      </trkpt>
      <trkpt lat="45.552782" lon="7.833238">
        <ele>409.49521</ele>
        <time>2024-10-19T12:12:50.000Z</time>
      </trkpt>
      <trkpt lat="45.552802" lon="7.833223">
        <ele>409.54523</ele>
        <time>2024-10-19T12:12:52.000Z</time>
      </trkpt>
      <trkpt lat="45.552822" lon="7.8332">
        <ele>409.58023</ele>
        <time>2024-10-19T12:12:54.000Z</time>
      </trkpt>
      <trkpt lat="45.552845" lon="7.833188">
        <ele>409.55524</ele>
        <time>2024-10-19T12:12:56.000Z</time>
      </trkpt>
      <trkpt lat="45.552855" lon="7.83316">
        <ele>409.50522</ele>
        <time>2024-10-19T12:12:58.000Z</time>
      </trkpt>
      <trkpt lat="45.552867" lon="7.833137">
        <ele>409.30524</ele>
        <time>2024-10-19T12:13:00.000Z</time>
      </trkpt>
      <trkpt lat="45.552882" lon="7.833118">
        <ele>409.04523</ele>
        <time>2024-10-19T12:13:02.000Z</time>
      </trkpt>
      <trkpt lat="45.552905" lon="7.8331">
        <ele>408.72025</ele>
        <time>2024-10-19T12:13:04.000Z</time>
      </trkpt>
      <trkpt lat="45.55293" lon="7.833088">
        <ele>408.44525</ele>
        <time>2024-10-19T12:13:06.000Z</time>
      </trkpt>
      <trkpt lat="45.55295" lon="7.83307">
        <ele>408.27023</ele>
        <time>2024-10-19T12:13:08.000Z</time>
      </trkpt>
      <trkpt lat="45.552962" lon="7.83305">
        <ele>408.16522</ele>
        <time>2024-10-19T12:13:10.000Z</time>
      </trkpt>
      <trkpt lat="45.552995" lon="7.833037">
        <ele>407.93024</ele>
        <time>2024-10-19T12:13:12.000Z</time>
      </trkpt>
      <trkpt lat="45.553023" lon="7.833028">
        <ele>407.67523</ele>
        <time>2024-10-19T12:13:14.000Z</time>
      </trkpt>
      <trkpt lat="45.553042" lon="7.833027">
        <ele>407.54025</ele>
        <time>2024-10-19T12:13:18.000Z</time>
      </trkpt>
      <trkpt lat="45.553067" lon="7.833015">
        <ele>407.33527</ele>
        <time>2024-10-19T12:13:21.000Z</time>
      </trkpt>
      <trkpt lat="45.553087" lon="7.83299">
        <ele>407.11523</ele>
        <time>2024-10-19T12:13:23.000Z</time>
      </trkpt>
      <trkpt lat="45.553105" lon="7.832978">
        <ele>406.87024</ele>
        <time>2024-10-19T12:13:25.000Z</time>
      </trkpt>
      <trkpt lat="45.553127" lon="7.832965">
        <ele>406.51022</ele>
        <time>2024-10-19T12:13:28.000Z</time>
      </trkpt>
      <trkpt lat="45.553145" lon="7.832947">
        <ele>406.00522</ele>
        <time>2024-10-19T12:13:30.000Z</time>
      </trkpt>
      <trkpt lat="45.553172" lon="7.832912">
        <ele>405.20523</ele>
        <time>2024-10-19T12:13:55.000Z</time>
      </trkpt>
      <trkpt lat="45.55319" lon="7.832883">
        <ele>404.43024</ele>
        <time>2024-10-19T12:13:57.000Z</time>
      </trkpt>
      <trkpt lat="45.553213" lon="7.832868">
        <ele>403.68024</ele>
        <time>2024-10-19T12:13:59.000Z</time>
      </trkpt>
      <trkpt lat="45.553223" lon="7.832847">
        <ele>402.97021</ele>
        <time>2024-10-19T12:14:01.000Z</time>
      </trkpt>
      <trkpt lat="45.553242" lon="7.832842">
        <ele>402.32022</ele>
        <time>2024-10-19T12:14:03.000Z</time>
      </trkpt>
      <trkpt lat="45.55326" lon="7.832838">
        <ele>401.71521</ele>
        <time>2024-10-19T12:14:05.000Z</time>
      </trkpt>
      <trkpt lat="45.553285" lon="7.832822">
        <ele>401.16022</ele>
        <time>2024-10-19T12:14:07.000Z</time>
      </trkpt>
      <trkpt lat="45.553315" lon="7.832797">
        <ele>400.6702</ele>
        <time>2024-10-19T12:14:09.000Z</time>
      </trkpt>
      <trkpt lat="45.553332" lon="7.832787">
        <ele>400.22018</ele>
        <time>2024-10-19T12:14:10.000Z</time>
      </trkpt>
      <trkpt lat="45.55335" lon="7.832773">
        <ele>399.78018</ele>
        <time>2024-10-19T12:14:12.000Z</time>
      </trkpt>
      <trkpt lat="45.553367" lon="7.832755">
        <ele>399.47516</ele>
        <time>2024-10-19T12:14:15.000Z</time>
      </trkpt>
      <trkpt lat="45.553353" lon="7.832733">
        <ele>399.49017</ele>
        <time>2024-10-19T12:14:26.000Z</time>
      </trkpt>
      <trkpt lat="45.553357" lon="7.832707">
        <ele>399.54019</ele>
        <time>2024-10-19T12:14:28.000Z</time>
      </trkpt>
      <trkpt lat="45.553363" lon="7.832672">
        <ele>399.59518</ele>
        <time>2024-10-19T12:14:30.000Z</time>
      </trkpt>
      <trkpt lat="45.55338" lon="7.832643">
        <ele>399.53519</ele>
        <time>2024-10-19T12:14:33.000Z</time>
      </trkpt>
      <trkpt lat="45.553397" lon="7.832623">
        <ele>399.50519</ele>
        <time>2024-10-19T12:14:35.000Z</time>
      </trkpt>
      <trkpt lat="45.553422" lon="7.832617">
        <ele>399.44019</ele>
        <time>2024-10-19T12:14:37.000Z</time>
      </trkpt>
      <trkpt lat="45.553447" lon="7.832612">
        <ele>399.35516</ele>
        <time>2024-10-19T12:14:39.000Z</time>
      </trkpt>
      <trkpt lat="45.55347" lon="7.832598">
        <ele>399.35516</ele>
        <time>2024-10-19T12:14:41.000Z</time>
      </trkpt>
      <trkpt lat="45.553497" lon="7.832595">
        <ele>399.40021</ele>
        <time>2024-10-19T12:14:43.000Z</time>
      </trkpt>
      <trkpt lat="45.55352" lon="7.832585">
        <ele>399.79019</ele>
        <time>2024-10-19T12:14:46.000Z</time>
      </trkpt>
      <trkpt lat="45.553532" lon="7.832555">
        <ele>400.17017</ele>
        <time>2024-10-19T12:14:48.000Z</time>
      </trkpt>
      <trkpt lat="45.553548" lon="7.832537">
        <ele>400.56519</ele>
        <time>2024-10-19T12:14:50.000Z</time>
      </trkpt>
      <trkpt lat="45.553573" lon="7.832532">
        <ele>400.94519</ele>
        <time>2024-10-19T12:14:52.000Z</time>
      </trkpt>
      <trkpt lat="45.553597" lon="7.832518">
        <ele>401.31519</ele>
        <time>2024-10-19T12:14:54.000Z</time>
      </trkpt>
      <trkpt lat="45.553607" lon="7.83249">
        <ele>401.63519</ele>
        <time>2024-10-19T12:14:57.000Z</time>
      </trkpt>
      <trkpt lat="45.55363" lon="7.832488">
        <ele>401.8902</ele>
        <time>2024-10-19T12:14:59.000Z</time>
      </trkpt>
      <trkpt lat="45.55365" lon="7.83247">
        <ele>402.0502</ele>
        <time>2024-10-19T12:15:01.000Z</time>
      </trkpt>
      <trkpt lat="45.553672" lon="7.832455">
        <ele>402.18021</ele>
        <time>2024-10-19T12:15:03.000Z</time>
      </trkpt>
      <trkpt lat="45.55369" lon="7.832437">
        <ele>402.3002</ele>
        <time>2024-10-19T12:15:05.000Z</time>
      </trkpt>
      <trkpt lat="45.553698" lon="7.832405">
        <ele>402.31021</ele>
        <time>2024-10-19T12:15:09.000Z</time>
      </trkpt>
      <trkpt lat="45.553722" lon="7.832388">
        <ele>402.0802</ele>
        <time>2024-10-19T12:15:12.000Z</time>
      </trkpt>
      <trkpt lat="45.553743" lon="7.832395">
        <ele>401.84518</ele>
        <time>2024-10-19T12:15:14.000Z</time>
      </trkpt>
      <trkpt lat="45.553765" lon="7.832407">
        <ele>401.61517</ele>
        <time>2024-10-19T12:15:16.000Z</time>
      </trkpt>
      <trkpt lat="45.553785" lon="7.83241">
        <ele>401.40521</ele>
        <time>2024-10-19T12:15:20.000Z</time>
      </trkpt>
      <trkpt lat="45.553782" lon="7.832382">
        <ele>401.16022</ele>
        <time>2024-10-19T12:15:22.000Z</time>
      </trkpt>
      <trkpt lat="45.553803" lon="7.832387">
        <ele>400.96021</ele>
        <time>2024-10-19T12:15:25.000Z</time>
      </trkpt>
      <trkpt lat="45.553833" lon="7.832412">
        <ele>400.78021</ele>
        <time>2024-10-19T12:15:29.000Z</time>
      </trkpt>
      <trkpt lat="45.553857" lon="7.832403">
        <ele>400.56522</ele>
        <time>2024-10-19T12:15:32.000Z</time>
      </trkpt>
      <trkpt lat="45.553848" lon="7.832375">
        <ele>400.35519</ele>
        <time>2024-10-19T12:15:33.000Z</time>
      </trkpt>
      <trkpt lat="45.55385" lon="7.832348">
        <ele>400.17023</ele>
        <time>2024-10-19T12:15:35.000Z</time>
      </trkpt>
      <trkpt lat="45.553855" lon="7.832322">
        <ele>400.00021</ele>
        <time>2024-10-19T12:15:37.000Z</time>
      </trkpt>
      <trkpt lat="45.553882" lon="7.832308">
        <ele>399.80023</ele>
        <time>2024-10-19T12:15:40.000Z</time>
      </trkpt>
      <trkpt lat="45.553898" lon="7.832283">
        <ele>399.57523</ele>
        <time>2024-10-19T12:15:43.000Z</time>
      </trkpt>
      <trkpt lat="45.553898" lon="7.832255">
        <ele>399.24023</ele>
        <time>2024-10-19T12:15:49.000Z</time>
      </trkpt>
      <trkpt lat="45.553907" lon="7.832223">
        <ele>398.93524</ele>
        <time>2024-10-19T12:15:54.000Z</time>
      </trkpt>
      <trkpt lat="45.553913" lon="7.832192">
        <ele>398.71524</ele>
        <time>2024-10-19T12:15:57.000Z</time>
      </trkpt>
      <trkpt lat="45.553917" lon="7.832155">
        <ele>398.49524</ele>
        <time>2024-10-19T12:16:00.000Z</time>
      </trkpt>
      <trkpt lat="45.553933" lon="7.832138">
        <ele>398.46027</ele>
        <time>2024-10-19T12:16:19.000Z</time>
      </trkpt>
      <trkpt lat="45.553955" lon="7.832133">
        <ele>398.50528</ele>
        <time>2024-10-19T12:16:26.000Z</time>
      </trkpt>
      <trkpt lat="45.553978" lon="7.832137">
        <ele>398.60529</ele>
        <time>2024-10-19T12:16:29.000Z</time>
      </trkpt>
      <trkpt lat="45.553973" lon="7.83211">
        <ele>398.77026</ele>
        <time>2024-10-19T12:16:40.000Z</time>
      </trkpt>
      <trkpt lat="45.553983" lon="7.832082">
        <ele>398.94525</ele>
        <time>2024-10-19T12:16:42.000Z</time>
      </trkpt>
      <trkpt lat="45.554002" lon="7.832072">
        <ele>399.07526</ele>
        <time>2024-10-19T12:16:45.000Z</time>
      </trkpt>
      <trkpt lat="45.554007" lon="7.832047">
        <ele>399.24527</ele>
        <time>2024-10-19T12:16:53.000Z</time>
      </trkpt>
      <trkpt lat="45.554027" lon="7.83206">
        <ele>399.35529</ele>
        <time>2024-10-19T12:17:12.000Z</time>
      </trkpt>
      <trkpt lat="45.55404" lon="7.832033">
        <ele>399.44028</ele>
        <time>2024-10-19T12:17:15.000Z</time>
      </trkpt>
      <trkpt lat="45.554057" lon="7.832017">
        <ele>399.54028</ele>
        <time>2024-10-19T12:17:20.000Z</time>
      </trkpt>
      <trkpt lat="45.554048" lon="7.831992">
        <ele>399.66028</ele>
        <time>2024-10-19T12:17:21.000Z</time>
      </trkpt>
      <trkpt lat="45.554037" lon="7.831967">
        <ele>399.77527</ele>
        <time>2024-10-19T12:17:23.000Z</time>
      </trkpt>
      <trkpt lat="45.554078" lon="7.83202">
        <ele>399.82526</ele>
        <time>2024-10-19T12:17:41.000Z</time>
      </trkpt>
      <trkpt lat="45.554088" lon="7.831998">
        <ele>399.79028</ele>
        <time>2024-10-19T12:17:52.000Z</time>
      </trkpt>
      <trkpt lat="45.554112" lon="7.831952">
        <ele>399.75528</ele>
        <time>2024-10-19T12:17:58.000Z</time>
      </trkpt>
      <trkpt lat="45.554125" lon="7.831923">
        <ele>399.73029</ele>
        <time>2024-10-19T12:18:00.000Z</time>
      </trkpt>
      <trkpt lat="45.554132" lon="7.831882">
        <ele>399.80527</ele>
        <time>2024-10-19T12:18:02.000Z</time>
      </trkpt>
      <trkpt lat="45.554148" lon="7.831865">
        <ele>399.8703</ele>
        <time>2024-10-19T12:18:04.000Z</time>
      </trkpt>
      <trkpt lat="45.554158" lon="7.831843">
        <ele>399.88528</ele>
        <time>2024-10-19T12:18:07.000Z</time>
      </trkpt>
      <trkpt lat="45.554175" lon="7.831823">
        <ele>399.95026</ele>
        <time>2024-10-19T12:18:10.000Z</time>
      </trkpt>
      <trkpt lat="45.55421" lon="7.831788">
        <ele>399.81024</ele>
        <time>2024-10-19T12:18:19.000Z</time>
      </trkpt>
      <trkpt lat="45.554227" lon="7.831772">
        <ele>399.61026</ele>
        <time>2024-10-19T12:18:21.000Z</time>
      </trkpt>
      <trkpt lat="45.554253" lon="7.831768">
        <ele>399.32526</ele>
        <time>2024-10-19T12:18:24.000Z</time>
      </trkpt>
      <trkpt lat="45.554277" lon="7.831767">
        <ele>398.94025</ele>
        <time>2024-10-19T12:18:27.000Z</time>
      </trkpt>
      <trkpt lat="45.554305" lon="7.831768">
        <ele>398.54025</ele>
        <time>2024-10-19T12:18:29.000Z</time>
      </trkpt>
      <trkpt lat="45.554323" lon="7.831767">
        <ele>398.17526</ele>
        <time>2024-10-19T12:18:30.000Z</time>
      </trkpt>
      <trkpt lat="45.554347" lon="7.831763">
        <ele>397.70026</ele>
        <time>2024-10-19T12:18:32.000Z</time>
      </trkpt>
      <trkpt lat="45.55437" lon="7.83176">
        <ele>397.24527</ele>
        <time>2024-10-19T12:18:35.000Z</time>
      </trkpt>
      <trkpt lat="45.55439" lon="7.831755">
        <ele>396.80023</ele>
        <time>2024-10-19T12:18:37.000Z</time>
      </trkpt>
      <trkpt lat="45.554413" lon="7.831747">
        <ele>396.39026</ele>
        <time>2024-10-19T12:18:48.000Z</time>
      </trkpt>
      <trkpt lat="45.554438" lon="7.831738">
        <ele>395.99527</ele>
        <time>2024-10-19T12:18:51.000Z</time>
      </trkpt>
      <trkpt lat="45.554452" lon="7.831718">
        <ele>395.59528</ele>
        <time>2024-10-19T12:18:53.000Z</time>
      </trkpt>
      <trkpt lat="45.55446" lon="7.831695">
        <ele>395.23526</ele>
        <time>2024-10-19T12:18:55.000Z</time>
      </trkpt>
      <trkpt lat="45.554477" lon="7.831682">
        <ele>394.91025</ele>
        <time>2024-10-19T12:18:57.000Z</time>
      </trkpt>
      <trkpt lat="45.554498" lon="7.831667">
        <ele>394.55023</ele>
        <time>2024-10-19T12:18:59.000Z</time>
      </trkpt>
      <trkpt lat="45.554525" lon="7.831647">
        <ele>394.15524</ele>
        <time>2024-10-19T12:19:01.000Z</time>
      </trkpt>
      <trkpt lat="45.55455" lon="7.831607">
        <ele>393.71524</ele>
        <time>2024-10-19T12:19:03.000Z</time>
      </trkpt>
      <trkpt lat="45.554578" lon="7.831587">
        <ele>393.26022</ele>
        <time>2024-10-19T12:19:05.000Z</time>
      </trkpt>
      <trkpt lat="45.554603" lon="7.831557">
        <ele>392.78522</ele>
        <time>2024-10-19T12:19:08.000Z</time>
      </trkpt>
      <trkpt lat="45.554627" lon="7.831523">
        <ele>392.30524</ele>
        <time>2024-10-19T12:19:10.000Z</time>
      </trkpt>
      <trkpt lat="45.554643" lon="7.831512">
        <ele>391.87024</ele>
        <time>2024-10-19T12:19:12.000Z</time>
      </trkpt>
      <trkpt lat="45.554675" lon="7.831513">
        <ele>391.43524</ele>
        <time>2024-10-19T12:19:14.000Z</time>
      </trkpt>
      <trkpt lat="45.554705" lon="7.831497">
        <ele>391.07523</ele>
        <time>2024-10-19T12:19:16.000Z</time>
      </trkpt>
      <trkpt lat="45.554715" lon="7.831463">
        <ele>390.75519</ele>
        <time>2024-10-19T12:19:18.000Z</time>
      </trkpt>
      <trkpt lat="45.554733" lon="7.831465">
        <ele>390.44522</ele>
        <time>2024-10-19T12:19:20.000Z</time>
      </trkpt>
      <trkpt lat="45.554755" lon="7.83146">
        <ele>390.13019</ele>
        <time>2024-10-19T12:19:22.000Z</time>
      </trkpt>
      <trkpt lat="45.554777" lon="7.831457">
        <ele>389.86517</ele>
        <time>2024-10-19T12:19:24.000Z</time>
      </trkpt>
      <trkpt lat="45.554797" lon="7.831457">
        <ele>389.60516</ele>
        <time>2024-10-19T12:19:26.000Z</time>
      </trkpt>
      <trkpt lat="45.554823" lon="7.831448">
        <ele>389.34518</ele>
        <time>2024-10-19T12:19:29.000Z</time>
      </trkpt>
      <trkpt lat="45.554845" lon="7.831458">
        <ele>389.02521</ele>
        <time>2024-10-19T12:19:31.000Z</time>
      </trkpt>
      <trkpt lat="45.554863" lon="7.831458">
        <ele>388.73019</ele>
        <time>2024-10-19T12:19:33.000Z</time>
      </trkpt>
      <trkpt lat="45.554882" lon="7.831445">
        <ele>388.46021</ele>
        <time>2024-10-19T12:19:35.000Z</time>
      </trkpt>
      <trkpt lat="45.554897" lon="7.831413">
        <ele>388.22519</ele>
        <time>2024-10-19T12:19:38.000Z</time>
      </trkpt>
      <trkpt lat="45.554912" lon="7.831385">
        <ele>388.0452</ele>
        <time>2024-10-19T12:19:41.000Z</time>
      </trkpt>
      <trkpt lat="45.554935" lon="7.831378">
        <ele>387.9902</ele>
        <time>2024-10-19T12:19:45.000Z</time>
      </trkpt>
      <trkpt lat="45.554947" lon="7.831402">
        <ele>388.02521</ele>
        <time>2024-10-19T12:21:11.000Z</time>
      </trkpt>
      <trkpt lat="45.554963" lon="7.831377">
        <ele>388.1152</ele>
        <time>2024-10-19T12:21:15.000Z</time>
      </trkpt>
      <trkpt lat="45.554987" lon="7.831353">
        <ele>388.21521</ele>
        <time>2024-10-19T12:21:19.000Z</time>
      </trkpt>
      <trkpt lat="45.555008" lon="7.831353">
        <ele>388.32022</ele>
        <time>2024-10-19T12:21:21.000Z</time>
      </trkpt>
      <trkpt lat="45.555035" lon="7.831348">
        <ele>388.40521</ele>
        <time>2024-10-19T12:21:23.000Z</time>
      </trkpt>
      <trkpt lat="45.555048" lon="7.831328">
        <ele>388.45523</ele>
        <time>2024-10-19T12:21:26.000Z</time>
      </trkpt>
      <trkpt lat="45.555068" lon="7.831335">
        <ele>388.47522</ele>
        <time>2024-10-19T12:21:34.000Z</time>
      </trkpt>
      <trkpt lat="45.555083" lon="7.831315">
        <ele>388.42523</ele>
        <time>2024-10-19T12:21:36.000Z</time>
      </trkpt>
      <trkpt lat="45.555113" lon="7.831295">
        <ele>388.31525</ele>
        <time>2024-10-19T12:21:38.000Z</time>
      </trkpt>
      <trkpt lat="45.55514" lon="7.83129">
        <ele>388.18024</ele>
        <time>2024-10-19T12:21:40.000Z</time>
      </trkpt>
      <trkpt lat="45.555162" lon="7.831292">
        <ele>388.06525</ele>
        <time>2024-10-19T12:21:41.000Z</time>
      </trkpt>
      <trkpt lat="45.555182" lon="7.831278">
        <ele>387.93024</ele>
        <time>2024-10-19T12:21:43.000Z</time>
      </trkpt>
      <trkpt lat="45.555205" lon="7.831258">
        <ele>387.81525</ele>
        <time>2024-10-19T12:21:45.000Z</time>
      </trkpt>
      <trkpt lat="45.555227" lon="7.83124">
        <ele>387.65524</ele>
        <time>2024-10-19T12:21:47.000Z</time>
      </trkpt>
      <trkpt lat="45.555247" lon="7.831218">
        <ele>387.53024</ele>
        <time>2024-10-19T12:21:49.000Z</time>
      </trkpt>
      <trkpt lat="45.555267" lon="7.831218">
        <ele>387.39023</ele>
        <time>2024-10-19T12:21:51.000Z</time>
      </trkpt>
      <trkpt lat="45.55529" lon="7.831213">
        <ele>387.24023</ele>
        <time>2024-10-19T12:21:53.000Z</time>
      </trkpt>
      <trkpt lat="45.555317" lon="7.831225">
        <ele>387.08026</ele>
        <time>2024-10-19T12:21:55.000Z</time>
      </trkpt>
      <trkpt lat="45.555338" lon="7.831217">
        <ele>386.93024</ele>
        <time>2024-10-19T12:21:57.000Z</time>
      </trkpt>
      <trkpt lat="45.555363" lon="7.831217">
        <ele>386.73523</ele>
        <time>2024-10-19T12:21:59.000Z</time>
      </trkpt>
      <trkpt lat="45.555392" lon="7.831218">
        <ele>386.55023</ele>
        <time>2024-10-19T12:22:01.000Z</time>
      </trkpt>
      <trkpt lat="45.555417" lon="7.831227">
        <ele>386.37024</ele>
        <time>2024-10-19T12:22:03.000Z</time>
      </trkpt>
      <trkpt lat="45.555437" lon="7.831233">
        <ele>386.21524</ele>
        <time>2024-10-19T12:22:05.000Z</time>
      </trkpt>
      <trkpt lat="45.555455" lon="7.831222">
        <ele>386.11023</ele>
        <time>2024-10-19T12:22:11.000Z</time>
      </trkpt>
      <trkpt lat="45.555492" lon="7.831233">
        <ele>386.07025</ele>
        <time>2024-10-19T12:22:59.000Z</time>
      </trkpt>
      <trkpt lat="45.55551" lon="7.831247">
        <ele>386.04523</ele>
        <time>2024-10-19T12:23:00.000Z</time>
      </trkpt>
      <trkpt lat="45.555533" lon="7.831263">
        <ele>385.97525</ele>
        <time>2024-10-19T12:23:02.000Z</time>
      </trkpt>
      <trkpt lat="45.555553" lon="7.831277">
        <ele>385.91025</ele>
        <time>2024-10-19T12:23:04.000Z</time>
      </trkpt>
      <trkpt lat="45.555582" lon="7.831273">
        <ele>385.85025</ele>
        <time>2024-10-19T12:23:06.000Z</time>
      </trkpt>
      <trkpt lat="45.555605" lon="7.831267">
        <ele>385.81024</ele>
        <time>2024-10-19T12:23:09.000Z</time>
      </trkpt>
      <trkpt lat="45.555625" lon="7.83128">
        <ele>385.76025</ele>
        <time>2024-10-19T12:23:11.000Z</time>
      </trkpt>
      <trkpt lat="45.555645" lon="7.831298">
        <ele>385.68524</ele>
        <time>2024-10-19T12:23:13.000Z</time>
      </trkpt>
      <trkpt lat="45.555665" lon="7.831313">
        <ele>385.54526</ele>
        <time>2024-10-19T12:23:17.000Z</time>
      </trkpt>
      <trkpt lat="45.555688" lon="7.831322">
        <ele>385.41028</ele>
        <time>2024-10-19T12:23:19.000Z</time>
      </trkpt>
      <trkpt lat="45.55572" lon="7.831333">
        <ele>385.24527</ele>
        <time>2024-10-19T12:23:21.000Z</time>
      </trkpt>
      <trkpt lat="45.55575" lon="7.831347">
        <ele>385.07526</ele>
        <time>2024-10-19T12:23:23.000Z</time>
      </trkpt>
      <trkpt lat="45.555775" lon="7.83135">
        <ele>384.89029</ele>
        <time>2024-10-19T12:23:25.000Z</time>
      </trkpt>
      <trkpt lat="45.5558" lon="7.831355">
        <ele>384.73029</ele>
        <time>2024-10-19T12:23:27.000Z</time>
      </trkpt>
      <trkpt lat="45.55582" lon="7.831375">
        <ele>384.57526</ele>
        <time>2024-10-19T12:23:29.000Z</time>
      </trkpt>
      <trkpt lat="45.555835" lon="7.831392">
        <ele>384.39029</ele>
        <time>2024-10-19T12:23:30.000Z</time>
      </trkpt>
      <trkpt lat="45.555863" lon="7.83141">
        <ele>384.16528</ele>
        <time>2024-10-19T12:23:32.000Z</time>
      </trkpt>
      <trkpt lat="45.555888" lon="7.831423">
        <ele>383.91028</ele>
        <time>2024-10-19T12:23:34.000Z</time>
      </trkpt>
      <trkpt lat="45.555915" lon="7.83144">
        <ele>383.6153</ele>
        <time>2024-10-19T12:23:36.000Z</time>
      </trkpt>
      <trkpt lat="45.555938" lon="7.83145">
        <ele>383.28528</ele>
        <time>2024-10-19T12:23:38.000Z</time>
      </trkpt>
      <trkpt lat="45.555957" lon="7.831457">
        <ele>382.91525</ele>
        <time>2024-10-19T12:23:39.000Z</time>
      </trkpt>
      <trkpt lat="45.555982" lon="7.831462">
        <ele>382.54025</ele>
        <time>2024-10-19T12:23:41.000Z</time>
      </trkpt>
      <trkpt lat="45.556005" lon="7.831477">
        <ele>382.23526</ele>
        <time>2024-10-19T12:23:43.000Z</time>
      </trkpt>
      <trkpt lat="45.556025" lon="7.83149">
        <ele>381.92026</ele>
        <time>2024-10-19T12:23:45.000Z</time>
      </trkpt>
      <trkpt lat="45.556047" lon="7.831507">
        <ele>381.64026</ele>
        <time>2024-10-19T12:23:47.000Z</time>
      </trkpt>
      <trkpt lat="45.556072" lon="7.831517">
        <ele>381.37024</ele>
        <time>2024-10-19T12:23:49.000Z</time>
      </trkpt>
      <trkpt lat="45.556097" lon="7.831528">
        <ele>381.09024</ele>
        <time>2024-10-19T12:23:51.000Z</time>
      </trkpt>
      <trkpt lat="45.556127" lon="7.831542">
        <ele>380.82025</ele>
        <time>2024-10-19T12:23:53.000Z</time>
      </trkpt>
      <trkpt lat="45.55615" lon="7.831558">
        <ele>380.60522</ele>
        <time>2024-10-19T12:23:55.000Z</time>
      </trkpt>
      <trkpt lat="45.556177" lon="7.831572">
        <ele>380.35522</ele>
        <time>2024-10-19T12:23:57.000Z</time>
      </trkpt>
      <trkpt lat="45.556203" lon="7.831588">
        <ele>380.08023</ele>
        <time>2024-10-19T12:23:59.000Z</time>
      </trkpt>
      <trkpt lat="45.556232" lon="7.831608">
        <ele>379.74521</ele>
        <time>2024-10-19T12:24:01.000Z</time>
      </trkpt>
      <trkpt lat="45.556252" lon="7.831617">
        <ele>379.42023</ele>
        <time>2024-10-19T12:24:03.000Z</time>
      </trkpt>
      <trkpt lat="45.556277" lon="7.831612">
        <ele>379.04022</ele>
        <time>2024-10-19T12:24:05.000Z</time>
      </trkpt>
      <trkpt lat="45.556293" lon="7.831595">
        <ele>378.6102</ele>
        <time>2024-10-19T12:24:08.000Z</time>
      </trkpt>
      <trkpt lat="45.556317" lon="7.831603">
        <ele>378.16522</ele>
        <time>2024-10-19T12:24:10.000Z</time>
      </trkpt>
      <trkpt lat="45.556342" lon="7.831612">
        <ele>377.71521</ele>
        <time>2024-10-19T12:24:12.000Z</time>
      </trkpt>
      <trkpt lat="45.556363" lon="7.831615">
        <ele>377.28522</ele>
        <time>2024-10-19T12:24:14.000Z</time>
      </trkpt>
      <trkpt lat="45.556387" lon="7.831607">
        <ele>376.88519</ele>
        <time>2024-10-19T12:24:16.000Z</time>
      </trkpt>
      <trkpt lat="45.556408" lon="7.831598">
        <ele>376.48022</ele>
        <time>2024-10-19T12:24:18.000Z</time>
      </trkpt>
      <trkpt lat="45.55643" lon="7.831602">
        <ele>376.05023</ele>
        <time>2024-10-19T12:24:20.000Z</time>
      </trkpt>
      <trkpt lat="45.556457" lon="7.831623">
        <ele>375.58023</ele>
        <time>2024-10-19T12:24:22.000Z</time>
      </trkpt>
      <trkpt lat="45.556472" lon="7.831643">
        <ele>375.04022</ele>
        <time>2024-10-19T12:24:25.000Z</time>
      </trkpt>
      <trkpt lat="45.556493" lon="7.831663">
        <ele>374.47522</ele>
        <time>2024-10-19T12:24:27.000Z</time>
      </trkpt>
      <trkpt lat="45.556518" lon="7.831683">
        <ele>373.89023</ele>
        <time>2024-10-19T12:24:29.000Z</time>
      </trkpt>
      <trkpt lat="45.556542" lon="7.831688">
        <ele>373.28024</ele>
        <time>2024-10-19T12:24:31.000Z</time>
      </trkpt>
      <trkpt lat="45.556567" lon="7.831705">
        <ele>372.62524</ele>
        <time>2024-10-19T12:24:35.000Z</time>
      </trkpt>
      <trkpt lat="45.55659" lon="7.831718">
        <ele>371.95026</ele>
        <time>2024-10-19T12:24:38.000Z</time>
      </trkpt>
      <trkpt lat="45.556608" lon="7.831732">
        <ele>371.27023</ele>
        <time>2024-10-19T12:24:40.000Z</time>
      </trkpt>
      <trkpt lat="45.556625" lon="7.831752">
        <ele>370.61523</ele>
        <time>2024-10-19T12:24:42.000Z</time>
      </trkpt>
      <trkpt lat="45.556642" lon="7.831763">
        <ele>369.97525</ele>
        <time>2024-10-19T12:24:44.000Z</time>
      </trkpt>
      <trkpt lat="45.55666" lon="7.831777">
        <ele>369.35526</ele>
        <time>2024-10-19T12:24:46.000Z</time>
      </trkpt>
      <trkpt lat="45.556678" lon="7.83179">
        <ele>368.74524</ele>
        <time>2024-10-19T12:24:48.000Z</time>
      </trkpt>
      <trkpt lat="45.556698" lon="7.831805">
        <ele>368.20026</ele>
        <time>2024-10-19T12:24:50.000Z</time>
      </trkpt>
      <trkpt lat="45.556718" lon="7.831833">
        <ele>367.67523</ele>
        <time>2024-10-19T12:24:52.000Z</time>
      </trkpt>
      <trkpt lat="45.556742" lon="7.831872">
        <ele>367.15521</ele>
        <time>2024-10-19T12:24:54.000Z</time>
      </trkpt>
      <trkpt lat="45.556757" lon="7.831897">
        <ele>366.63022</ele>
        <time>2024-10-19T12:24:55.000Z</time>
      </trkpt>
      <trkpt lat="45.556772" lon="7.83192">
        <ele>366.10522</ele>
        <time>2024-10-19T12:24:56.000Z</time>
      </trkpt>
      <trkpt lat="45.556785" lon="7.831955">
        <ele>365.58023</ele>
        <time>2024-10-19T12:24:58.000Z</time>
      </trkpt>
      <trkpt lat="45.556798" lon="7.831993">
        <ele>365.03021</ele>
        <time>2024-10-19T12:25:00.000Z</time>
      </trkpt>
      <trkpt lat="45.556808" lon="7.832027">
        <ele>364.47021</ele>
        <time>2024-10-19T12:25:02.000Z</time>
      </trkpt>
      <trkpt lat="45.556812" lon="7.83206">
        <ele>363.97021</ele>
        <time>2024-10-19T12:25:04.000Z</time>
      </trkpt>
      <trkpt lat="45.556825" lon="7.832093">
        <ele>363.57022</ele>
        <time>2024-10-19T12:25:06.000Z</time>
      </trkpt>
      <trkpt lat="45.556838" lon="7.832117">
        <ele>363.24521</ele>
        <time>2024-10-19T12:25:08.000Z</time>
      </trkpt>
      <trkpt lat="45.556845" lon="7.832158">
        <ele>362.96521</ele>
        <time>2024-10-19T12:25:10.000Z</time>
      </trkpt>
      <trkpt lat="45.55685" lon="7.832193">
        <ele>362.72519</ele>
        <time>2024-10-19T12:25:12.000Z</time>
      </trkpt>
      <trkpt lat="45.556858" lon="7.832223">
        <ele>362.53522</ele>
        <time>2024-10-19T12:25:14.000Z</time>
      </trkpt>
      <trkpt lat="45.55687" lon="7.83226">
        <ele>362.38519</ele>
        <time>2024-10-19T12:25:17.000Z</time>
      </trkpt>
      <trkpt lat="45.556882" lon="7.832297">
        <ele>362.27521</ele>
        <time>2024-10-19T12:25:19.000Z</time>
      </trkpt>
      <trkpt lat="45.556893" lon="7.832332">
        <ele>362.24521</ele>
        <time>2024-10-19T12:25:21.000Z</time>
      </trkpt>
      <trkpt lat="45.556902" lon="7.832375">
        <ele>362.26019</ele>
        <time>2024-10-19T12:25:23.000Z</time>
      </trkpt>
      <trkpt lat="45.556905" lon="7.832402">
        <ele>362.32523</ele>
        <time>2024-10-19T12:25:24.000Z</time>
      </trkpt>
      <trkpt lat="45.556907" lon="7.83243">
        <ele>362.3652</ele>
        <time>2024-10-19T12:25:25.000Z</time>
      </trkpt>
      <trkpt lat="45.556912" lon="7.832472">
        <ele>362.38519</ele>
        <time>2024-10-19T12:25:27.000Z</time>
      </trkpt>
      <trkpt lat="45.556908" lon="7.832508">
        <ele>362.40521</ele>
        <time>2024-10-19T12:25:29.000Z</time>
      </trkpt>
      <trkpt lat="45.556905" lon="7.832552">
        <ele>362.43521</ele>
        <time>2024-10-19T12:25:31.000Z</time>
      </trkpt>
      <trkpt lat="45.556908" lon="7.832595">
        <ele>362.49518</ele>
        <time>2024-10-19T12:25:33.000Z</time>
      </trkpt>
      <trkpt lat="45.556913" lon="7.83264">
        <ele>362.5752</ele>
        <time>2024-10-19T12:25:35.000Z</time>
      </trkpt>
      <trkpt lat="45.556907" lon="7.832673">
        <ele>362.6752</ele>
        <time>2024-10-19T12:25:37.000Z</time>
      </trkpt>
      <trkpt lat="45.556905" lon="7.832722">
        <ele>362.81519</ele>
        <time>2024-10-19T12:25:39.000Z</time>
      </trkpt>
      <trkpt lat="45.556902" lon="7.832762">
        <ele>362.97018</ele>
        <time>2024-10-19T12:25:41.000Z</time>
      </trkpt>
      <trkpt lat="45.556893" lon="7.832792">
        <ele>363.09518</ele>
        <time>2024-10-19T12:25:43.000Z</time>
      </trkpt>
      <trkpt lat="45.556905" lon="7.832815">
        <ele>363.1752</ele>
        <time>2024-10-19T12:25:47.000Z</time>
      </trkpt>
      <trkpt lat="45.556928" lon="7.832828">
        <ele>363.25018</ele>
        <time>2024-10-19T12:25:49.000Z</time>
      </trkpt>
      <trkpt lat="45.556948" lon="7.832828">
        <ele>363.31519</ele>
        <time>2024-10-19T12:25:51.000Z</time>
      </trkpt>
      <trkpt lat="45.55697" lon="7.832822">
        <ele>363.3902</ele>
        <time>2024-10-19T12:25:53.000Z</time>
      </trkpt>
      <trkpt lat="45.55699" lon="7.832817">
        <ele>363.50018</ele>
        <time>2024-10-19T12:25:55.000Z</time>
      </trkpt>
      <trkpt lat="45.557012" lon="7.83282">
        <ele>363.7002</ele>
        <time>2024-10-19T12:26:02.000Z</time>
      </trkpt>
      <trkpt lat="45.557033" lon="7.832827">
        <ele>364.00519</ele>
        <time>2024-10-19T12:26:07.000Z</time>
      </trkpt>
      <trkpt lat="45.557055" lon="7.832823">
        <ele>364.2652</ele>
        <time>2024-10-19T12:26:09.000Z</time>
      </trkpt>
      <trkpt lat="45.557078" lon="7.832817">
        <ele>364.45023</ele>
        <time>2024-10-19T12:26:11.000Z</time>
      </trkpt>
      <trkpt lat="45.557097" lon="7.832832">
        <ele>364.6102</ele>
        <time>2024-10-19T12:26:14.000Z</time>
      </trkpt>
      <trkpt lat="45.557117" lon="7.83285">
        <ele>364.78522</ele>
        <time>2024-10-19T12:26:17.000Z</time>
      </trkpt>
      <trkpt lat="45.55715" lon="7.832868">
        <ele>364.94522</ele>
        <time>2024-10-19T12:26:19.000Z</time>
      </trkpt>
      <trkpt lat="45.557172" lon="7.832887">
        <ele>365.07022</ele>
        <time>2024-10-19T12:26:21.000Z</time>
      </trkpt>
      <trkpt lat="45.557205" lon="7.83288">
        <ele>365.07022</ele>
        <time>2024-10-19T12:26:23.000Z</time>
      </trkpt>
      <trkpt lat="45.557223" lon="7.832877">
        <ele>365.0152</ele>
        <time>2024-10-19T12:26:24.000Z</time>
      </trkpt>
      <trkpt lat="45.557257" lon="7.832882">
        <ele>364.91022</ele>
        <time>2024-10-19T12:26:26.000Z</time>
      </trkpt>
      <trkpt lat="45.557283" lon="7.832888">
        <ele>364.74518</ele>
        <time>2024-10-19T12:26:28.000Z</time>
      </trkpt>
      <trkpt lat="45.557305" lon="7.83288">
        <ele>364.5452</ele>
        <time>2024-10-19T12:26:30.000Z</time>
      </trkpt>
      <trkpt lat="45.55733" lon="7.832868">
        <ele>364.33017</ele>
        <time>2024-10-19T12:26:32.000Z</time>
      </trkpt>
      <trkpt lat="45.557352" lon="7.832857">
        <ele>364.1402</ele>
        <time>2024-10-19T12:26:34.000Z</time>
      </trkpt>
      <trkpt lat="45.557372" lon="7.83286">
        <ele>363.97015</ele>
        <time>2024-10-19T12:26:36.000Z</time>
      </trkpt>
      <trkpt lat="45.557393" lon="7.832862">
        <ele>363.77017</ele>
        <time>2024-10-19T12:26:38.000Z</time>
      </trkpt>
      <trkpt lat="45.557425" lon="7.832863">
        <ele>363.53018</ele>
        <time>2024-10-19T12:26:40.000Z</time>
      </trkpt>
      <trkpt lat="45.557443" lon="7.832862">
        <ele>363.2702</ele>
        <time>2024-10-19T12:26:41.000Z</time>
      </trkpt>
      <trkpt lat="45.557475" lon="7.832862">
        <ele>363.00519</ele>
        <time>2024-10-19T12:26:43.000Z</time>
      </trkpt>
      <trkpt lat="45.557503" lon="7.832867">
        <ele>362.65518</ele>
        <time>2024-10-19T12:26:45.000Z</time>
      </trkpt>
      <trkpt lat="45.557533" lon="7.832862">
        <ele>362.21515</ele>
        <time>2024-10-19T12:26:47.000Z</time>
      </trkpt>
      <trkpt lat="45.557557" lon="7.832823">
        <ele>361.78015</ele>
        <time>2024-10-19T12:26:49.000Z</time>
      </trkpt>
      <trkpt lat="45.557563" lon="7.832798">
        <ele>361.40515</ele>
        <time>2024-10-19T12:26:50.000Z</time>
      </trkpt>
      <trkpt lat="45.557567" lon="7.83277">
        <ele>361.02515</ele>
        <time>2024-10-19T12:26:51.000Z</time>
      </trkpt>
      <trkpt lat="45.55758" lon="7.832733">
        <ele>360.70514</ele>
        <time>2024-10-19T12:26:53.000Z</time>
      </trkpt>
      <trkpt lat="45.557592" lon="7.832707">
        <ele>360.44513</ele>
        <time>2024-10-19T12:26:55.000Z</time>
      </trkpt>
      <trkpt lat="45.557612" lon="7.832695">
        <ele>360.22516</ele>
        <time>2024-10-19T12:26:58.000Z</time>
      </trkpt>
      <trkpt lat="45.557635" lon="7.832693">
        <ele>360.09515</ele>
        <time>2024-10-19T12:27:00.000Z</time>
      </trkpt>
      <trkpt lat="45.557663" lon="7.832678">
        <ele>359.99017</ele>
        <time>2024-10-19T12:27:02.000Z</time>
      </trkpt>
      <trkpt lat="45.557678" lon="7.83266">
        <ele>359.90518</ele>
        <time>2024-10-19T12:27:04.000Z</time>
      </trkpt>
      <trkpt lat="45.557668" lon="7.832628">
        <ele>359.88519</ele>
        <time>2024-10-19T12:27:05.000Z</time>
      </trkpt>
      <trkpt lat="45.557673" lon="7.8326">
        <ele>359.88519</ele>
        <time>2024-10-19T12:27:08.000Z</time>
      </trkpt>
      <trkpt lat="45.557665" lon="7.832572">
        <ele>359.88019</ele>
        <time>2024-10-19T12:27:10.000Z</time>
      </trkpt>
      <trkpt lat="45.557655" lon="7.832542">
        <ele>359.88019</ele>
        <time>2024-10-19T12:27:13.000Z</time>
      </trkpt>
      <trkpt lat="45.557645" lon="7.832497">
        <ele>359.88019</ele>
        <time>2024-10-19T12:27:15.000Z</time>
      </trkpt>
      <trkpt lat="45.557632" lon="7.832472">
        <ele>359.90021</ele>
        <time>2024-10-19T12:27:16.000Z</time>
      </trkpt>
      <trkpt lat="45.557632" lon="7.832428">
        <ele>359.93021</ele>
        <time>2024-10-19T12:27:18.000Z</time>
      </trkpt>
      <trkpt lat="45.557642" lon="7.832388">
        <ele>359.96021</ele>
        <time>2024-10-19T12:27:20.000Z</time>
      </trkpt>
      <trkpt lat="45.557647" lon="7.832363">
        <ele>359.98019</ele>
        <time>2024-10-19T12:27:21.000Z</time>
      </trkpt>
      <trkpt lat="45.557663" lon="7.83233">
        <ele>360.02521</ele>
        <time>2024-10-19T12:27:23.000Z</time>
      </trkpt>
      <trkpt lat="45.557672" lon="7.83229">
        <ele>360.03522</ele>
        <time>2024-10-19T12:27:25.000Z</time>
      </trkpt>
      <trkpt lat="45.557687" lon="7.832253">
        <ele>360.03021</ele>
        <time>2024-10-19T12:27:27.000Z</time>
      </trkpt>
      <trkpt lat="45.557695" lon="7.832207">
        <ele>360.0152</ele>
        <time>2024-10-19T12:27:29.000Z</time>
      </trkpt>
      <trkpt lat="45.557695" lon="7.83218">
        <ele>360.0152</ele>
        <time>2024-10-19T12:27:30.000Z</time>
      </trkpt>
      <trkpt lat="45.557705" lon="7.832143">
        <ele>359.96518</ele>
        <time>2024-10-19T12:27:33.000Z</time>
      </trkpt>
      <trkpt lat="45.557712" lon="7.83211">
        <ele>359.90021</ele>
        <time>2024-10-19T12:27:35.000Z</time>
      </trkpt>
      <trkpt lat="45.557708" lon="7.832083">
        <ele>359.8302</ele>
        <time>2024-10-19T12:27:36.000Z</time>
      </trkpt>
      <trkpt lat="45.557705" lon="7.83203">
        <ele>359.79022</ele>
        <time>2024-10-19T12:27:38.000Z</time>
      </trkpt>
      <trkpt lat="45.557707" lon="7.832002">
        <ele>359.76019</ele>
        <time>2024-10-19T12:27:39.000Z</time>
      </trkpt>
      <trkpt lat="45.557715" lon="7.831973">
        <ele>359.77521</ele>
        <time>2024-10-19T12:27:40.000Z</time>
      </trkpt>
      <trkpt lat="45.557725" lon="7.831923">
        <ele>359.7702</ele>
        <time>2024-10-19T12:27:42.000Z</time>
      </trkpt>
      <trkpt lat="45.557745" lon="7.831897">
        <ele>359.76019</ele>
        <time>2024-10-19T12:27:44.000Z</time>
      </trkpt>
      <trkpt lat="45.557753" lon="7.831853">
        <ele>359.81018</ele>
        <time>2024-10-19T12:27:46.000Z</time>
      </trkpt>
      <trkpt lat="45.557763" lon="7.831808">
        <ele>359.86017</ele>
        <time>2024-10-19T12:27:48.000Z</time>
      </trkpt>
      <trkpt lat="45.557782" lon="7.831797">
        <ele>359.90521</ele>
        <time>2024-10-19T12:27:49.000Z</time>
      </trkpt>
      <trkpt lat="45.557805" lon="7.831775">
        <ele>359.96521</ele>
        <time>2024-10-19T12:27:51.000Z</time>
      </trkpt>
      <trkpt lat="45.557832" lon="7.83176">
        <ele>360.06522</ele>
        <time>2024-10-19T12:27:53.000Z</time>
      </trkpt>
      <trkpt lat="45.55785" lon="7.831737">
        <ele>360.18521</ele>
        <time>2024-10-19T12:27:55.000Z</time>
      </trkpt>
      <trkpt lat="45.557873" lon="7.831707">
        <ele>360.31021</ele>
        <time>2024-10-19T12:27:57.000Z</time>
      </trkpt>
      <trkpt lat="45.5579" lon="7.83167">
        <ele>360.3952</ele>
        <time>2024-10-19T12:27:59.000Z</time>
      </trkpt>
      <trkpt lat="45.557915" lon="7.83163">
        <ele>360.49518</ele>
        <time>2024-10-19T12:28:01.000Z</time>
      </trkpt>
      <trkpt lat="45.557928" lon="7.831595">
        <ele>360.61517</ele>
        <time>2024-10-19T12:28:04.000Z</time>
      </trkpt>
      <trkpt lat="45.557938" lon="7.831572">
        <ele>360.73019</ele>
        <time>2024-10-19T12:28:08.000Z</time>
      </trkpt>
      <trkpt lat="45.557918" lon="7.831488">
        <ele>360.85519</ele>
        <time>2024-10-19T12:28:22.000Z</time>
      </trkpt>
      <trkpt lat="45.557923" lon="7.831457">
        <ele>361.00519</ele>
        <time>2024-10-19T12:28:24.000Z</time>
      </trkpt>
      <trkpt lat="45.557948" lon="7.831435">
        <ele>361.1752</ele>
        <time>2024-10-19T12:28:26.000Z</time>
      </trkpt>
      <trkpt lat="45.557982" lon="7.831428">
        <ele>361.40021</ele>
        <time>2024-10-19T12:28:28.000Z</time>
      </trkpt>
      <trkpt lat="45.558002" lon="7.831432">
        <ele>361.65021</ele>
        <time>2024-10-19T12:28:29.000Z</time>
      </trkpt>
      <trkpt lat="45.558027" lon="7.831437">
        <ele>361.9502</ele>
        <time>2024-10-19T12:28:31.000Z</time>
      </trkpt>
      <trkpt lat="45.558057" lon="7.831442">
        <ele>362.26019</ele>
        <time>2024-10-19T12:28:33.000Z</time>
      </trkpt>
      <trkpt lat="45.558088" lon="7.831447">
        <ele>362.59521</ele>
        <time>2024-10-19T12:28:35.000Z</time>
      </trkpt>
      <trkpt lat="45.558107" lon="7.831455">
        <ele>362.95523</ele>
        <time>2024-10-19T12:28:36.000Z</time>
      </trkpt>
      <trkpt lat="45.558147" lon="7.831452">
        <ele>363.31522</ele>
        <time>2024-10-19T12:28:38.000Z</time>
      </trkpt>
      <trkpt lat="45.558165" lon="7.831462">
        <ele>363.66022</ele>
        <time>2024-10-19T12:28:39.000Z</time>
      </trkpt>
      <trkpt lat="45.558177" lon="7.831423">
        <ele>364.0202</ele>
        <time>2024-10-19T12:28:41.000Z</time>
      </trkpt>
      <trkpt lat="45.558172" lon="7.831398">
        <ele>364.38519</ele>
        <time>2024-10-19T12:28:42.000Z</time>
      </trkpt>
      <trkpt lat="45.558182" lon="7.831368">
        <ele>364.71017</ele>
        <time>2024-10-19T12:28:44.000Z</time>
      </trkpt>
      <trkpt lat="45.558202" lon="7.831343">
        <ele>364.97015</ele>
        <time>2024-10-19T12:28:46.000Z</time>
      </trkpt>
      <trkpt lat="45.558245" lon="7.831342">
        <ele>365.18018</ele>
        <time>2024-10-19T12:28:48.000Z</time>
      </trkpt>
      <trkpt lat="45.558272" lon="7.831335">
        <ele>365.3902</ele>
        <time>2024-10-19T12:28:49.000Z</time>
      </trkpt>
      <trkpt lat="45.558292" lon="7.831332">
        <ele>365.59518</ele>
        <time>2024-10-19T12:28:50.000Z</time>
      </trkpt>
      <trkpt lat="45.558315" lon="7.831338">
        <ele>365.72519</ele>
        <time>2024-10-19T12:28:51.000Z</time>
      </trkpt>
      <trkpt lat="45.558333" lon="7.831335">
        <ele>365.78021</ele>
        <time>2024-10-19T12:28:52.000Z</time>
      </trkpt>
      <trkpt lat="45.558357" lon="7.831325">
        <ele>365.72021</ele>
        <time>2024-10-19T12:28:54.000Z</time>
      </trkpt>
      <trkpt lat="45.55838" lon="7.831305">
        <ele>365.59021</ele>
        <time>2024-10-19T12:28:57.000Z</time>
      </trkpt>
      <trkpt lat="45.558405" lon="7.831288">
        <ele>365.37021</ele>
        <time>2024-10-19T12:28:59.000Z</time>
      </trkpt>
      <trkpt lat="45.558417" lon="7.831263">
        <ele>365.06522</ele>
        <time>2024-10-19T12:29:00.000Z</time>
      </trkpt>
      <trkpt lat="45.558443" lon="7.831235">
        <ele>364.67523</ele>
        <time>2024-10-19T12:29:02.000Z</time>
      </trkpt>
      <trkpt lat="45.558465" lon="7.83122">
        <ele>364.21021</ele>
        <time>2024-10-19T12:29:03.000Z</time>
      </trkpt>
      <trkpt lat="45.558482" lon="7.83121">
        <ele>363.68521</ele>
        <time>2024-10-19T12:29:04.000Z</time>
      </trkpt>
      <trkpt lat="45.558507" lon="7.831195">
        <ele>363.09021</ele>
        <time>2024-10-19T12:29:06.000Z</time>
      </trkpt>
      <trkpt lat="45.558528" lon="7.83117">
        <ele>362.4552</ele>
        <time>2024-10-19T12:29:08.000Z</time>
      </trkpt>
      <trkpt lat="45.558555" lon="7.831158">
        <ele>361.79523</ele>
        <time>2024-10-19T12:29:10.000Z</time>
      </trkpt>
      <trkpt lat="45.558582" lon="7.831167">
        <ele>361.11023</ele>
        <time>2024-10-19T12:29:12.000Z</time>
      </trkpt>
      <trkpt lat="45.558597" lon="7.831183">
        <ele>360.40024</ele>
        <time>2024-10-19T12:29:13.000Z</time>
      </trkpt>
      <trkpt lat="45.558615" lon="7.831207">
        <ele>359.66025</ele>
        <time>2024-10-19T12:29:15.000Z</time>
      </trkpt>
      <trkpt lat="45.558633" lon="7.831215">
        <ele>358.92523</ele>
        <time>2024-10-19T12:29:16.000Z</time>
      </trkpt>
      <trkpt lat="45.558647" lon="7.831233">
        <ele>358.22525</ele>
        <time>2024-10-19T12:29:17.000Z</time>
      </trkpt>
      <trkpt lat="45.558665" lon="7.831245">
        <ele>357.57025</ele>
        <time>2024-10-19T12:29:19.000Z</time>
      </trkpt>
      <trkpt lat="45.55868" lon="7.831227">
        <ele>356.93524</ele>
        <time>2024-10-19T12:29:21.000Z</time>
      </trkpt>
      <trkpt lat="45.558712" lon="7.831208">
        <ele>356.30023</ele>
        <time>2024-10-19T12:29:23.000Z</time>
      </trkpt>
      <trkpt lat="45.55874" lon="7.831205">
        <ele>355.71024</ele>
        <time>2024-10-19T12:29:24.000Z</time>
      </trkpt>
      <trkpt lat="45.558763" lon="7.831205">
        <ele>355.21024</ele>
        <time>2024-10-19T12:29:25.000Z</time>
      </trkpt>
      <trkpt lat="45.558785" lon="7.831208">
        <ele>354.81525</ele>
        <time>2024-10-19T12:29:26.000Z</time>
      </trkpt>
      <trkpt lat="45.558815" lon="7.831215">
        <ele>354.48026</ele>
        <time>2024-10-19T12:29:28.000Z</time>
      </trkpt>
      <trkpt lat="45.558833" lon="7.831195">
        <ele>354.22025</ele>
        <time>2024-10-19T12:29:31.000Z</time>
      </trkpt>
      <trkpt lat="45.558858" lon="7.831195">
        <ele>354.03024</ele>
        <time>2024-10-19T12:29:33.000Z</time>
      </trkpt>
      <trkpt lat="45.558892" lon="7.831188">
        <ele>353.95026</ele>
        <time>2024-10-19T12:29:35.000Z</time>
      </trkpt>
      <trkpt lat="45.558912" lon="7.831187">
        <ele>353.93524</ele>
        <time>2024-10-19T12:29:36.000Z</time>
      </trkpt>
      <trkpt lat="45.558938" lon="7.831192">
        <ele>354.03024</ele>
        <time>2024-10-19T12:29:38.000Z</time>
      </trkpt>
      <trkpt lat="45.558962" lon="7.831202">
        <ele>354.31024</ele>
        <time>2024-10-19T12:29:41.000Z</time>
      </trkpt>
      <trkpt lat="45.55898" lon="7.831212">
        <ele>354.70526</ele>
        <time>2024-10-19T12:29:43.000Z</time>
      </trkpt>
      <trkpt lat="45.558998" lon="7.831232">
        <ele>355.15527</ele>
        <time>2024-10-19T12:29:45.000Z</time>
      </trkpt>
      <trkpt lat="45.559025" lon="7.831272">
        <ele>355.67526</ele>
        <time>2024-10-19T12:29:47.000Z</time>
      </trkpt>
      <trkpt lat="45.559043" lon="7.831297">
        <ele>356.22028</ele>
        <time>2024-10-19T12:29:48.000Z</time>
      </trkpt>
      <trkpt lat="45.559065" lon="7.831332">
        <ele>356.82025</ele>
        <time>2024-10-19T12:29:50.000Z</time>
      </trkpt>
      <trkpt lat="45.559078" lon="7.831377">
        <ele>357.40527</ele>
        <time>2024-10-19T12:29:52.000Z</time>
      </trkpt>
      <trkpt lat="45.559088" lon="7.831402">
        <ele>358.00031</ele>
        <time>2024-10-19T12:29:53.000Z</time>
      </trkpt>
      <trkpt lat="45.559095" lon="7.83143">
        <ele>358.61029</ele>
        <time>2024-10-19T12:29:54.000Z</time>
      </trkpt>
      <trkpt lat="45.559102" lon="7.831455">
        <ele>359.23032</ele>
        <time>2024-10-19T12:29:55.000Z</time>
      </trkpt>
      <trkpt lat="45.559108" lon="7.83148">
        <ele>359.8703</ele>
        <time>2024-10-19T12:29:56.000Z</time>
      </trkpt>
      <trkpt lat="45.55911" lon="7.831513">
        <ele>360.54031</ele>
        <time>2024-10-19T12:29:57.000Z</time>
      </trkpt>
      <trkpt lat="45.559113" lon="7.831542">
        <ele>361.2103</ele>
        <time>2024-10-19T12:29:58.000Z</time>
      </trkpt>
      <trkpt lat="45.559107" lon="7.831573">
        <ele>361.8703</ele>
        <time>2024-10-19T12:30:00.000Z</time>
      </trkpt>
      <trkpt lat="45.559102" lon="7.8316">
        <ele>362.51529</ele>
        <time>2024-10-19T12:30:03.000Z</time>
      </trkpt>
      <trkpt lat="45.559092" lon="7.831632">
        <ele>363.12531</ele>
        <time>2024-10-19T12:30:06.000Z</time>
      </trkpt>
      <trkpt lat="45.559078" lon="7.831665">
        <ele>363.66028</ele>
        <time>2024-10-19T12:30:08.000Z</time>
      </trkpt>
      <trkpt lat="45.559067" lon="7.831688">
        <ele>364.1153</ele>
        <time>2024-10-19T12:30:09.000Z</time>
      </trkpt>
      <trkpt lat="45.559055" lon="7.83171">
        <ele>364.46027</ele>
        <time>2024-10-19T12:30:11.000Z</time>
      </trkpt>
      <trkpt lat="45.559053" lon="7.831748">
        <ele>364.67026</ele>
        <time>2024-10-19T12:30:13.000Z</time>
      </trkpt>
      <trkpt lat="45.559053" lon="7.831787">
        <ele>364.70526</ele>
        <time>2024-10-19T12:30:15.000Z</time>
      </trkpt>
      <trkpt lat="45.559048" lon="7.831812">
        <ele>364.65024</ele>
        <time>2024-10-19T12:30:16.000Z</time>
      </trkpt>
      <trkpt lat="45.559042" lon="7.831837">
        <ele>364.54523</ele>
        <time>2024-10-19T12:30:17.000Z</time>
      </trkpt>
      <trkpt lat="45.559043" lon="7.83187">
        <ele>364.38522</ele>
        <time>2024-10-19T12:30:19.000Z</time>
      </trkpt>
      <trkpt lat="45.559047" lon="7.8319">
        <ele>364.17523</ele>
        <time>2024-10-19T12:30:21.000Z</time>
      </trkpt>
      <trkpt lat="45.559055" lon="7.831923">
        <ele>363.88022</ele>
        <time>2024-10-19T12:30:24.000Z</time>
      </trkpt>
      <trkpt lat="45.559077" lon="7.831947">
        <ele>363.56024</ele>
        <time>2024-10-19T12:30:26.000Z</time>
      </trkpt>
      <trkpt lat="45.559105" lon="7.83196">
        <ele>363.24521</ele>
        <time>2024-10-19T12:30:28.000Z</time>
      </trkpt>
      <trkpt lat="45.559127" lon="7.831958">
        <ele>362.96521</ele>
        <time>2024-10-19T12:30:31.000Z</time>
      </trkpt>
      <trkpt lat="45.559148" lon="7.831952">
        <ele>362.72519</ele>
        <time>2024-10-19T12:30:33.000Z</time>
      </trkpt>
      <trkpt lat="45.559165" lon="7.831935">
        <ele>362.50018</ele>
        <time>2024-10-19T12:30:35.000Z</time>
      </trkpt>
      <trkpt lat="45.55918" lon="7.831913">
        <ele>362.28522</ele>
        <time>2024-10-19T12:30:37.000Z</time>
      </trkpt>
      <trkpt lat="45.559197" lon="7.831892">
        <ele>362.08521</ele>
        <time>2024-10-19T12:30:39.000Z</time>
      </trkpt>
      <trkpt lat="45.559215" lon="7.831865">
        <ele>361.94022</ele>
        <time>2024-10-19T12:30:41.000Z</time>
      </trkpt>
      <trkpt lat="45.55924" lon="7.831848">
        <ele>361.81021</ele>
        <time>2024-10-19T12:30:43.000Z</time>
      </trkpt>
      <trkpt lat="45.559258" lon="7.831845">
        <ele>361.68021</ele>
        <time>2024-10-19T12:30:44.000Z</time>
      </trkpt>
      <trkpt lat="45.55928" lon="7.831827">
        <ele>361.59021</ele>
        <time>2024-10-19T12:30:46.000Z</time>
      </trkpt>
      <trkpt lat="45.559303" lon="7.831813">
        <ele>361.5452</ele>
        <time>2024-10-19T12:30:48.000Z</time>
      </trkpt>
      <trkpt lat="45.559322" lon="7.83181">
        <ele>361.58521</ele>
        <time>2024-10-19T12:30:49.000Z</time>
      </trkpt>
      <trkpt lat="45.559352" lon="7.831805">
        <ele>361.7352</ele>
        <time>2024-10-19T12:30:51.000Z</time>
      </trkpt>
      <trkpt lat="45.55938" lon="7.831807">
        <ele>361.9902</ele>
        <time>2024-10-19T12:30:53.000Z</time>
      </trkpt>
      <trkpt lat="45.559403" lon="7.83182">
        <ele>362.31021</ele>
        <time>2024-10-19T12:30:55.000Z</time>
      </trkpt>
      <trkpt lat="45.559427" lon="7.831837">
        <ele>362.68021</ele>
        <time>2024-10-19T12:30:57.000Z</time>
      </trkpt>
      <trkpt lat="45.559443" lon="7.831847">
        <ele>363.0802</ele>
        <time>2024-10-19T12:30:58.000Z</time>
      </trkpt>
      <trkpt lat="45.559472" lon="7.831857">
        <ele>363.57022</ele>
        <time>2024-10-19T12:31:00.000Z</time>
      </trkpt>
      <trkpt lat="45.559503" lon="7.831872">
        <ele>364.12021</ele>
        <time>2024-10-19T12:31:02.000Z</time>
      </trkpt>
      <trkpt lat="45.559522" lon="7.831873">
        <ele>364.72519</ele>
        <time>2024-10-19T12:31:03.000Z</time>
      </trkpt>
      <trkpt lat="45.559545" lon="7.831878">
        <ele>365.3252</ele>
        <time>2024-10-19T12:31:05.000Z</time>
      </trkpt>
      <trkpt lat="45.559563" lon="7.831883">
        <ele>365.8902</ele>
        <time>2024-10-19T12:31:07.000Z</time>
      </trkpt>
      <trkpt lat="45.559585" lon="7.831897">
        <ele>366.38519</ele>
        <time>2024-10-19T12:31:10.000Z</time>
      </trkpt>
      <trkpt lat="45.559607" lon="7.831915">
        <ele>366.8952</ele>
        <time>2024-10-19T12:31:12.000Z</time>
      </trkpt>
      <trkpt lat="45.559632" lon="7.831938">
        <ele>367.40018</ele>
        <time>2024-10-19T12:31:14.000Z</time>
      </trkpt>
      <trkpt lat="45.559658" lon="7.831955">
        <ele>367.89517</ele>
        <time>2024-10-19T12:31:16.000Z</time>
      </trkpt>
      <trkpt lat="45.559682" lon="7.83196">
        <ele>368.35516</ele>
        <time>2024-10-19T12:31:18.000Z</time>
      </trkpt>
      <trkpt lat="45.559697" lon="7.831975">
        <ele>368.81018</ele>
        <time>2024-10-19T12:31:22.000Z</time>
      </trkpt>
      <trkpt lat="45.559717" lon="7.831978">
        <ele>369.11017</ele>
        <time>2024-10-19T12:31:36.000Z</time>
      </trkpt>
      <trkpt lat="45.55973" lon="7.831955">
        <ele>369.34518</ele>
        <time>2024-10-19T12:31:39.000Z</time>
      </trkpt>
      <trkpt lat="45.55975" lon="7.831937">
        <ele>369.56021</ele>
        <time>2024-10-19T12:31:41.000Z</time>
      </trkpt>
      <trkpt lat="45.559765" lon="7.831922">
        <ele>369.75519</ele>
        <time>2024-10-19T12:31:42.000Z</time>
      </trkpt>
      <trkpt lat="45.55978" lon="7.831902">
        <ele>369.91022</ele>
        <time>2024-10-19T12:31:44.000Z</time>
      </trkpt>
      <trkpt lat="45.55978" lon="7.83186">
        <ele>370.03021</ele>
        <time>2024-10-19T12:31:46.000Z</time>
      </trkpt>
      <trkpt lat="45.559785" lon="7.831832">
        <ele>370.09518</ele>
        <time>2024-10-19T12:31:48.000Z</time>
      </trkpt>
      <trkpt lat="45.55979" lon="7.831797">
        <ele>370.11017</ele>
        <time>2024-10-19T12:31:50.000Z</time>
      </trkpt>
      <trkpt lat="45.559787" lon="7.831767">
        <ele>370.09518</ele>
        <time>2024-10-19T12:31:52.000Z</time>
      </trkpt>
      <trkpt lat="45.559793" lon="7.831725">
        <ele>370.03519</ele>
        <time>2024-10-19T12:31:54.000Z</time>
      </trkpt>
      <trkpt lat="45.559807" lon="7.831692">
        <ele>369.96518</ele>
        <time>2024-10-19T12:31:57.000Z</time>
      </trkpt>
      <trkpt lat="45.559815" lon="7.83166">
        <ele>369.87018</ele>
        <time>2024-10-19T12:31:59.000Z</time>
      </trkpt>
      <trkpt lat="45.559817" lon="7.83163">
        <ele>369.78522</ele>
        <time>2024-10-19T12:32:02.000Z</time>
      </trkpt>
      <trkpt lat="45.559823" lon="7.831598">
        <ele>369.73022</ele>
        <time>2024-10-19T12:32:04.000Z</time>
      </trkpt>
      <trkpt lat="45.55984" lon="7.831572">
        <ele>369.74023</ele>
        <time>2024-10-19T12:32:06.000Z</time>
      </trkpt>
      <trkpt lat="45.559855" lon="7.83155">
        <ele>369.76022</ele>
        <time>2024-10-19T12:32:08.000Z</time>
      </trkpt>
      <trkpt lat="45.559877" lon="7.831522">
        <ele>369.81525</ele>
        <time>2024-10-19T12:32:11.000Z</time>
      </trkpt>
      <trkpt lat="45.559898" lon="7.83149">
        <ele>369.84525</ele>
        <time>2024-10-19T12:32:13.000Z</time>
      </trkpt>
      <trkpt lat="45.559907" lon="7.831455">
        <ele>369.88022</ele>
        <time>2024-10-19T12:32:15.000Z</time>
      </trkpt>
      <trkpt lat="45.559907" lon="7.831417">
        <ele>369.91022</ele>
        <time>2024-10-19T12:32:17.000Z</time>
      </trkpt>
      <trkpt lat="45.559918" lon="7.831377">
        <ele>370.10025</ele>
        <time>2024-10-19T12:32:19.000Z</time>
      </trkpt>
      <trkpt lat="45.559927" lon="7.831353">
        <ele>370.36523</ele>
        <time>2024-10-19T12:32:20.000Z</time>
      </trkpt>
      <trkpt lat="45.559952" lon="7.83132">
        <ele>370.66022</ele>
        <time>2024-10-19T12:32:22.000Z</time>
      </trkpt>
      <trkpt lat="45.55997" lon="7.831278">
        <ele>370.96524</ele>
        <time>2024-10-19T12:32:24.000Z</time>
      </trkpt>
      <trkpt lat="45.559985" lon="7.831242">
        <ele>371.28024</ele>
        <time>2024-10-19T12:32:26.000Z</time>
      </trkpt>
      <trkpt lat="45.559998" lon="7.83121">
        <ele>371.61526</ele>
        <time>2024-10-19T12:32:28.000Z</time>
      </trkpt>
      <trkpt lat="45.560008" lon="7.83118">
        <ele>372.00528</ele>
        <time>2024-10-19T12:32:30.000Z</time>
      </trkpt>
      <trkpt lat="45.560017" lon="7.831143">
        <ele>372.48529</ele>
        <time>2024-10-19T12:32:32.000Z</time>
      </trkpt>
      <trkpt lat="45.56003" lon="7.831117">
        <ele>373.09528</ele>
        <time>2024-10-19T12:32:34.000Z</time>
      </trkpt>
      <trkpt lat="45.560038" lon="7.831093">
        <ele>373.74527</ele>
        <time>2024-10-19T12:32:37.000Z</time>
      </trkpt>
      <trkpt lat="45.56005" lon="7.831063">
        <ele>374.45526</ele>
        <time>2024-10-19T12:32:41.000Z</time>
      </trkpt>
      <trkpt lat="45.560063" lon="7.831038">
        <ele>375.19525</ele>
        <time>2024-10-19T12:32:43.000Z</time>
      </trkpt>
      <trkpt lat="45.560087" lon="7.831013">
        <ele>375.96027</ele>
        <time>2024-10-19T12:32:46.000Z</time>
      </trkpt>
      <trkpt lat="45.560103" lon="7.830993">
        <ele>376.68524</ele>
        <time>2024-10-19T12:32:48.000Z</time>
      </trkpt>
      <trkpt lat="45.560113" lon="7.830972">
        <ele>377.39526</ele>
        <time>2024-10-19T12:32:51.000Z</time>
      </trkpt>
      <trkpt lat="45.560128" lon="7.830947">
        <ele>378.11029</ele>
        <time>2024-10-19T12:32:54.000Z</time>
      </trkpt>
      <trkpt lat="45.56015" lon="7.830923">
        <ele>378.79529</ele>
        <time>2024-10-19T12:32:56.000Z</time>
      </trkpt>
      <trkpt lat="45.560155" lon="7.830897">
        <ele>379.51529</ele>
        <time>2024-10-19T12:32:58.000Z</time>
      </trkpt>
      <trkpt lat="45.560163" lon="7.830868">
        <ele>380.25031</ele>
        <time>2024-10-19T12:33:01.000Z</time>
      </trkpt>
      <trkpt lat="45.560178" lon="7.830847">
        <ele>381.02029</ele>
        <time>2024-10-19T12:33:04.000Z</time>
      </trkpt>
      <trkpt lat="45.560182" lon="7.830873">
        <ele>381.72528</ele>
        <time>2024-10-19T12:33:07.000Z</time>
      </trkpt>
      <trkpt lat="45.560198" lon="7.830893">
        <ele>382.37027</ele>
        <time>2024-10-19T12:33:09.000Z</time>
      </trkpt>
      <trkpt lat="45.560192" lon="7.830857">
        <ele>383.00528</ele>
        <time>2024-10-19T12:33:12.000Z</time>
      </trkpt>
      <trkpt lat="45.560178" lon="7.830837">
        <ele>383.64026</ele>
        <time>2024-10-19T12:33:13.000Z</time>
      </trkpt>
      <trkpt lat="45.560163" lon="7.830853">
        <ele>384.29025</ele>
        <time>2024-10-19T12:33:16.000Z</time>
      </trkpt>
      <trkpt lat="45.560155" lon="7.83083">
        <ele>384.89526</ele>
        <time>2024-10-19T12:33:20.000Z</time>
      </trkpt>
      <trkpt lat="45.560157" lon="7.830802">
        <ele>385.47028</ele>
        <time>2024-10-19T12:33:22.000Z</time>
      </trkpt>
      <trkpt lat="45.560162" lon="7.83077">
        <ele>385.94525</ele>
        <time>2024-10-19T12:33:25.000Z</time>
      </trkpt>
      <trkpt lat="45.560163" lon="7.830742">
        <ele>386.28528</ele>
        <time>2024-10-19T12:33:27.000Z</time>
      </trkpt>
      <trkpt lat="45.56016" lon="7.830707">
        <ele>386.53027</ele>
        <time>2024-10-19T12:33:31.000Z</time>
      </trkpt>
      <trkpt lat="45.56014" lon="7.830677">
        <ele>386.70526</ele>
        <time>2024-10-19T12:33:33.000Z</time>
      </trkpt>
      <trkpt lat="45.560122" lon="7.83066">
        <ele>386.88028</ele>
        <time>2024-10-19T12:33:35.000Z</time>
      </trkpt>
      <trkpt lat="45.560108" lon="7.83068">
        <ele>387.01529</ele>
        <time>2024-10-19T12:33:39.000Z</time>
      </trkpt>
      <trkpt lat="45.560102" lon="7.830718">
        <ele>387.14029</ele>
        <time>2024-10-19T12:33:42.000Z</time>
      </trkpt>
      <trkpt lat="45.560093" lon="7.83075">
        <ele>387.23529</ele>
        <time>2024-10-19T12:33:44.000Z</time>
      </trkpt>
      <trkpt lat="45.560108" lon="7.83073">
        <ele>387.29025</ele>
        <time>2024-10-19T12:33:47.000Z</time>
      </trkpt>
      <trkpt lat="45.560128" lon="7.83073">
        <ele>387.32526</ele>
        <time>2024-10-19T12:33:49.000Z</time>
      </trkpt>
      <trkpt lat="45.560158" lon="7.830747">
        <ele>387.35526</ele>
        <time>2024-10-19T12:33:51.000Z</time>
      </trkpt>
      <trkpt lat="45.560173" lon="7.830727">
        <ele>387.37524</ele>
        <time>2024-10-19T12:33:52.000Z</time>
      </trkpt>
      <trkpt lat="45.560197" lon="7.830745">
        <ele>387.35526</ele>
        <time>2024-10-19T12:33:54.000Z</time>
      </trkpt>
      <trkpt lat="45.560225" lon="7.830757">
        <ele>387.43524</ele>
        <time>2024-10-19T12:33:57.000Z</time>
      </trkpt>
      <trkpt lat="45.560238" lon="7.830728">
        <ele>387.56525</ele>
        <time>2024-10-19T12:33:59.000Z</time>
      </trkpt>
      <trkpt lat="45.560245" lon="7.830678">
        <ele>387.66525</ele>
        <time>2024-10-19T12:34:00.000Z</time>
      </trkpt>
      <trkpt lat="45.560248" lon="7.830647">
        <ele>387.77026</ele>
        <time>2024-10-19T12:34:01.000Z</time>
      </trkpt>
      <trkpt lat="45.560258" lon="7.830617">
        <ele>387.85025</ele>
        <time>2024-10-19T12:34:03.000Z</time>
      </trkpt>
      <trkpt lat="45.56026" lon="7.830578">
        <ele>387.94025</ele>
        <time>2024-10-19T12:34:05.000Z</time>
      </trkpt>
      <trkpt lat="45.560268" lon="7.830552">
        <ele>388.03522</ele>
        <time>2024-10-19T12:34:07.000Z</time>
      </trkpt>
      <trkpt lat="45.560282" lon="7.830525">
        <ele>388.17523</ele>
        <time>2024-10-19T12:34:10.000Z</time>
      </trkpt>
      <trkpt lat="45.560307" lon="7.830522">
        <ele>388.37024</ele>
        <time>2024-10-19T12:34:15.000Z</time>
      </trkpt>
      <trkpt lat="45.560325" lon="7.83052">
        <ele>388.61026</ele>
        <time>2024-10-19T12:34:17.000Z</time>
      </trkpt>
      <trkpt lat="45.560342" lon="7.830538">
        <ele>388.91025</ele>
        <time>2024-10-19T12:34:20.000Z</time>
      </trkpt>
      <trkpt lat="45.560362" lon="7.830525">
        <ele>389.39523</ele>
        <time>2024-10-19T12:34:27.000Z</time>
      </trkpt>
      <trkpt lat="45.560367" lon="7.830498">
        <ele>389.91522</ele>
        <time>2024-10-19T12:34:30.000Z</time>
      </trkpt>
      <trkpt lat="45.560383" lon="7.830488">
        <ele>390.3952</ele>
        <time>2024-10-19T12:34:33.000Z</time>
      </trkpt>
      <trkpt lat="45.560398" lon="7.830465">
        <ele>390.85022</ele>
        <time>2024-10-19T12:34:37.000Z</time>
      </trkpt>
      <trkpt lat="45.560403" lon="7.830438">
        <ele>391.32523</ele>
        <time>2024-10-19T12:34:40.000Z</time>
      </trkpt>
      <trkpt lat="45.560418" lon="7.830418">
        <ele>391.84024</ele>
        <time>2024-10-19T12:34:43.000Z</time>
      </trkpt>
      <trkpt lat="45.560425" lon="7.83038">
        <ele>392.62024</ele>
        <time>2024-10-19T12:34:55.000Z</time>
      </trkpt>
      <trkpt lat="45.560447" lon="7.83038">
        <ele>393.44525</ele>
        <time>2024-10-19T12:34:58.000Z</time>
      </trkpt>
      <trkpt lat="45.56047" lon="7.830372">
        <ele>394.28021</ele>
        <time>2024-10-19T12:35:01.000Z</time>
      </trkpt>
      <trkpt lat="45.560488" lon="7.830365">
        <ele>395.11023</ele>
        <time>2024-10-19T12:35:03.000Z</time>
      </trkpt>
      <trkpt lat="45.560517" lon="7.830373">
        <ele>395.97025</ele>
        <time>2024-10-19T12:35:05.000Z</time>
      </trkpt>
      <trkpt lat="45.560538" lon="7.830373">
        <ele>396.84525</ele>
        <time>2024-10-19T12:35:07.000Z</time>
      </trkpt>
      <trkpt lat="45.560562" lon="7.830377">
        <ele>397.70526</ele>
        <time>2024-10-19T12:35:09.000Z</time>
      </trkpt>
      <trkpt lat="45.560592" lon="7.830387">
        <ele>398.56024</ele>
        <time>2024-10-19T12:35:11.000Z</time>
      </trkpt>
      <trkpt lat="45.560608" lon="7.830398">
        <ele>399.40024</ele>
        <time>2024-10-19T12:35:13.000Z</time>
      </trkpt>
      <trkpt lat="45.560627" lon="7.83038">
        <ele>400.24023</ele>
        <time>2024-10-19T12:35:17.000Z</time>
      </trkpt>
      <trkpt lat="45.560652" lon="7.830385">
        <ele>401.05023</ele>
        <time>2024-10-19T12:35:20.000Z</time>
      </trkpt>
      <trkpt lat="45.56068" lon="7.830382">
        <ele>401.80023</ele>
        <time>2024-10-19T12:35:22.000Z</time>
      </trkpt>
      <trkpt lat="45.560703" lon="7.83038">
        <ele>402.49521</ele>
        <time>2024-10-19T12:35:24.000Z</time>
      </trkpt>
      <trkpt lat="45.56072" lon="7.830368">
        <ele>403.09021</ele>
        <time>2024-10-19T12:35:26.000Z</time>
      </trkpt>
      <trkpt lat="45.560742" lon="7.830355">
        <ele>403.45523</ele>
        <time>2024-10-19T12:35:28.000Z</time>
      </trkpt>
      <trkpt lat="45.560768" lon="7.830338">
        <ele>403.73523</ele>
        <time>2024-10-19T12:35:31.000Z</time>
      </trkpt>
      <trkpt lat="45.560787" lon="7.830332">
        <ele>404.04022</ele>
        <time>2024-10-19T12:35:32.000Z</time>
      </trkpt>
      <trkpt lat="45.560802" lon="7.830317">
        <ele>404.37521</ele>
        <time>2024-10-19T12:35:33.000Z</time>
      </trkpt>
      <trkpt lat="45.560807" lon="7.830292">
        <ele>404.67023</ele>
        <time>2024-10-19T12:35:34.000Z</time>
      </trkpt>
      <trkpt lat="45.56083" lon="7.830258">
        <ele>404.91022</ele>
        <time>2024-10-19T12:35:36.000Z</time>
      </trkpt>
      <trkpt lat="45.560847" lon="7.830237">
        <ele>404.84521</ele>
        <time>2024-10-19T12:35:38.000Z</time>
      </trkpt>
      <trkpt lat="45.56087" lon="7.830213">
        <ele>404.71521</ele>
        <time>2024-10-19T12:35:41.000Z</time>
      </trkpt>
      <trkpt lat="45.56089" lon="7.830185">
        <ele>404.57523</ele>
        <time>2024-10-19T12:35:43.000Z</time>
      </trkpt>
      <trkpt lat="45.560912" lon="7.830172">
        <ele>404.41022</ele>
        <time>2024-10-19T12:35:45.000Z</time>
      </trkpt>
      <trkpt lat="45.560928" lon="7.830138">
        <ele>404.29523</ele>
        <time>2024-10-19T12:35:48.000Z</time>
      </trkpt>
      <trkpt lat="45.560937" lon="7.83011">
        <ele>404.3002</ele>
        <time>2024-10-19T12:35:51.000Z</time>
      </trkpt>
      <trkpt lat="45.560958" lon="7.830082">
        <ele>404.3252</ele>
        <time>2024-10-19T12:35:54.000Z</time>
      </trkpt>
      <trkpt lat="45.560975" lon="7.830055">
        <ele>404.3602</ele>
        <time>2024-10-19T12:35:56.000Z</time>
      </trkpt>
      <trkpt lat="45.560992" lon="7.83004">
        <ele>404.40521</ele>
        <time>2024-10-19T12:35:58.000Z</time>
      </trkpt>
      <trkpt lat="45.561017" lon="7.830025">
        <ele>404.48523</ele>
        <time>2024-10-19T12:36:01.000Z</time>
      </trkpt>
      <trkpt lat="45.561035" lon="7.83001">
        <ele>404.62024</ele>
        <time>2024-10-19T12:36:04.000Z</time>
      </trkpt>
      <trkpt lat="45.561063" lon="7.830002">
        <ele>404.87024</ele>
        <time>2024-10-19T12:36:07.000Z</time>
      </trkpt>
      <trkpt lat="45.561083" lon="7.829983">
        <ele>405.25522</ele>
        <time>2024-10-19T12:36:09.000Z</time>
      </trkpt>
      <trkpt lat="45.561105" lon="7.829968">
        <ele>405.75024</ele>
        <time>2024-10-19T12:36:11.000Z</time>
      </trkpt>
      <trkpt lat="45.561123" lon="7.829948">
        <ele>406.34024</ele>
        <time>2024-10-19T12:36:13.000Z</time>
      </trkpt>
      <trkpt lat="45.561145" lon="7.829927">
        <ele>407.05023</ele>
        <time>2024-10-19T12:36:16.000Z</time>
      </trkpt>
      <trkpt lat="45.56117" lon="7.829922">
        <ele>407.81024</ele>
        <time>2024-10-19T12:36:18.000Z</time>
      </trkpt>
      <trkpt lat="45.561187" lon="7.829908">
        <ele>408.57025</ele>
        <time>2024-10-19T12:36:19.000Z</time>
      </trkpt>
      <trkpt lat="45.561212" lon="7.829898">
        <ele>409.29022</ele>
        <time>2024-10-19T12:36:21.000Z</time>
      </trkpt>
      <trkpt lat="45.561237" lon="7.829897">
        <ele>410.03021</ele>
        <time>2024-10-19T12:36:24.000Z</time>
      </trkpt>
      <trkpt lat="45.56126" lon="7.829883">
        <ele>410.80023</ele>
        <time>2024-10-19T12:36:26.000Z</time>
      </trkpt>
      <trkpt lat="45.561282" lon="7.829873">
        <ele>411.63028</ele>
        <time>2024-10-19T12:36:29.000Z</time>
      </trkpt>
      <trkpt lat="45.561307" lon="7.829852">
        <ele>412.46027</ele>
        <time>2024-10-19T12:36:32.000Z</time>
      </trkpt>
      <trkpt lat="45.561322" lon="7.829835">
        <ele>413.27026</ele>
        <time>2024-10-19T12:36:34.000Z</time>
      </trkpt>
      <trkpt lat="45.561342" lon="7.829827">
        <ele>413.9903</ele>
        <time>2024-10-19T12:36:36.000Z</time>
      </trkpt>
      <trkpt lat="45.561365" lon="7.829815">
        <ele>414.62531</ele>
        <time>2024-10-19T12:36:39.000Z</time>
      </trkpt>
      <trkpt lat="45.561388" lon="7.829818">
        <ele>415.27026</ele>
        <time>2024-10-19T12:36:41.000Z</time>
      </trkpt>
      <trkpt lat="45.561418" lon="7.829815">
        <ele>415.97028</ele>
        <time>2024-10-19T12:36:43.000Z</time>
      </trkpt>
      <trkpt lat="45.56144" lon="7.829802">
        <ele>416.73029</ele>
        <time>2024-10-19T12:36:45.000Z</time>
      </trkpt>
      <trkpt lat="45.561465" lon="7.829792">
        <ele>417.53027</ele>
        <time>2024-10-19T12:36:48.000Z</time>
      </trkpt>
      <trkpt lat="45.561495" lon="7.829775">
        <ele>418.26529</ele>
        <time>2024-10-19T12:36:50.000Z</time>
      </trkpt>
      <trkpt lat="45.561523" lon="7.829755">
        <ele>418.9003</ele>
        <time>2024-10-19T12:36:52.000Z</time>
      </trkpt>
      <trkpt lat="45.561547" lon="7.829743">
        <ele>419.46527</ele>
        <time>2024-10-19T12:36:54.000Z</time>
      </trkpt>
      <trkpt lat="45.561565" lon="7.829738">
        <ele>419.9903</ele>
        <time>2024-10-19T12:36:56.000Z</time>
      </trkpt>
      <trkpt lat="45.561583" lon="7.82972">
        <ele>420.48029</ele>
        <time>2024-10-19T12:36:58.000Z</time>
      </trkpt>
      <trkpt lat="45.561602" lon="7.829688">
        <ele>420.92529</ele>
        <time>2024-10-19T12:37:00.000Z</time>
      </trkpt>
      <trkpt lat="45.561625" lon="7.829683">
        <ele>421.35529</ele>
        <time>2024-10-19T12:37:02.000Z</time>
      </trkpt>
      <trkpt lat="45.561643" lon="7.829675">
        <ele>421.81024</ele>
        <time>2024-10-19T12:37:04.000Z</time>
      </trkpt>
      <trkpt lat="45.561663" lon="7.829662">
        <ele>422.35025</ele>
        <time>2024-10-19T12:37:07.000Z</time>
      </trkpt>
      <trkpt lat="45.561688" lon="7.829642">
        <ele>422.89023</ele>
        <time>2024-10-19T12:37:09.000Z</time>
      </trkpt>
      <trkpt lat="45.561705" lon="7.829628">
        <ele>423.42026</ele>
        <time>2024-10-19T12:37:10.000Z</time>
      </trkpt>
      <trkpt lat="45.561735" lon="7.829615">
        <ele>423.87027</ele>
        <time>2024-10-19T12:37:12.000Z</time>
      </trkpt>
      <trkpt lat="45.561747" lon="7.829593">
        <ele>424.33026</ele>
        <time>2024-10-19T12:37:15.000Z</time>
      </trkpt>
      <trkpt lat="45.561765" lon="7.82959">
        <ele>424.81024</ele>
        <time>2024-10-19T12:37:24.000Z</time>
      </trkpt>
      <trkpt lat="45.561798" lon="7.829575">
        <ele>425.25024</ele>
        <time>2024-10-19T12:37:26.000Z</time>
      </trkpt>
      <trkpt lat="45.561815" lon="7.829553">
        <ele>425.58023</ele>
        <time>2024-10-19T12:37:28.000Z</time>
      </trkpt>
      <trkpt lat="45.56184" lon="7.829533">
        <ele>425.85019</ele>
        <time>2024-10-19T12:37:30.000Z</time>
      </trkpt>
      <trkpt lat="45.561855" lon="7.829515">
        <ele>426.02521</ele>
        <time>2024-10-19T12:37:32.000Z</time>
      </trkpt>
      <trkpt lat="45.561865" lon="7.829492">
        <ele>426.11517</ele>
        <time>2024-10-19T12:37:34.000Z</time>
      </trkpt>
      <trkpt lat="45.561877" lon="7.82947">
        <ele>426.07022</ele>
        <time>2024-10-19T12:37:36.000Z</time>
      </trkpt>
      <trkpt lat="45.561895" lon="7.82946">
        <ele>426.01019</ele>
        <time>2024-10-19T12:37:39.000Z</time>
      </trkpt>
      <trkpt lat="45.561918" lon="7.829442">
        <ele>426.00018</ele>
        <time>2024-10-19T12:37:42.000Z</time>
      </trkpt>
      <trkpt lat="45.561938" lon="7.829428">
        <ele>425.99017</ele>
        <time>2024-10-19T12:37:44.000Z</time>
      </trkpt>
      <trkpt lat="45.561958" lon="7.82941">
        <ele>425.98016</ele>
        <time>2024-10-19T12:37:46.000Z</time>
      </trkpt>
      <trkpt lat="45.561983" lon="7.829398">
        <ele>425.93521</ele>
        <time>2024-10-19T12:37:48.000Z</time>
      </trkpt>
      <trkpt lat="45.562002" lon="7.829392">
        <ele>425.8952</ele>
        <time>2024-10-19T12:37:50.000Z</time>
      </trkpt>
      <trkpt lat="45.562022" lon="7.829378">
        <ele>425.85019</ele>
        <time>2024-10-19T12:37:55.000Z</time>
      </trkpt>
      <trkpt lat="45.562052" lon="7.82938">
        <ele>425.79517</ele>
        <time>2024-10-19T12:37:58.000Z</time>
      </trkpt>
      <trkpt lat="45.562063" lon="7.829417">
        <ele>425.7652</ele>
        <time>2024-10-19T12:37:59.000Z</time>
      </trkpt>
      <trkpt lat="45.562088" lon="7.829412">
        <ele>425.71518</ele>
        <time>2024-10-19T12:38:01.000Z</time>
      </trkpt>
      <trkpt lat="45.562105" lon="7.829397">
        <ele>425.69522</ele>
        <time>2024-10-19T12:38:03.000Z</time>
      </trkpt>
      <trkpt lat="45.562123" lon="7.82937">
        <ele>425.72519</ele>
        <time>2024-10-19T12:38:05.000Z</time>
      </trkpt>
      <trkpt lat="45.562137" lon="7.829348">
        <ele>425.75018</ele>
        <time>2024-10-19T12:38:08.000Z</time>
      </trkpt>
      <trkpt lat="45.562155" lon="7.829337">
        <ele>425.75018</ele>
        <time>2024-10-19T12:38:11.000Z</time>
      </trkpt>
      <trkpt lat="45.562173" lon="7.829317">
        <ele>425.78018</ele>
        <time>2024-10-19T12:38:13.000Z</time>
      </trkpt>
      <trkpt lat="45.56219" lon="7.829277">
        <ele>425.84515</ele>
        <time>2024-10-19T12:38:15.000Z</time>
      </trkpt>
      <trkpt lat="45.562198" lon="7.82925">
        <ele>425.92514</ele>
        <time>2024-10-19T12:38:16.000Z</time>
      </trkpt>
      <trkpt lat="45.562222" lon="7.829235">
        <ele>425.98517</ele>
        <time>2024-10-19T12:38:19.000Z</time>
      </trkpt>
      <trkpt lat="45.56224" lon="7.829227">
        <ele>426.06015</ele>
        <time>2024-10-19T12:38:21.000Z</time>
      </trkpt>
      <trkpt lat="45.562258" lon="7.829218">
        <ele>426.18018</ele>
        <time>2024-10-19T12:38:23.000Z</time>
      </trkpt>
      <trkpt lat="45.562282" lon="7.829212">
        <ele>426.37018</ele>
        <time>2024-10-19T12:38:26.000Z</time>
      </trkpt>
      <trkpt lat="45.562298" lon="7.829195">
        <ele>426.59018</ele>
        <time>2024-10-19T12:38:30.000Z</time>
      </trkpt>
      <trkpt lat="45.562315" lon="7.829168">
        <ele>426.84521</ele>
        <time>2024-10-19T12:38:32.000Z</time>
      </trkpt>
      <trkpt lat="45.562335" lon="7.829135">
        <ele>427.08521</ele>
        <time>2024-10-19T12:38:34.000Z</time>
      </trkpt>
      <trkpt lat="45.56235" lon="7.829118">
        <ele>427.31021</ele>
        <time>2024-10-19T12:38:36.000Z</time>
      </trkpt>
      <trkpt lat="45.562368" lon="7.829113">
        <ele>427.49017</ele>
        <time>2024-10-19T12:38:42.000Z</time>
      </trkpt>
      <trkpt lat="45.562385" lon="7.82909">
        <ele>427.66519</ele>
        <time>2024-10-19T12:38:45.000Z</time>
      </trkpt>
      <trkpt lat="45.562397" lon="7.829067">
        <ele>427.86017</ele>
        <time>2024-10-19T12:38:48.000Z</time>
      </trkpt>
      <trkpt lat="45.56242" lon="7.829047">
        <ele>428.03516</ele>
        <time>2024-10-19T12:38:50.000Z</time>
      </trkpt>
      <trkpt lat="45.562433" lon="7.829025">
        <ele>428.32016</ele>
        <time>2024-10-19T12:38:53.000Z</time>
      </trkpt>
      <trkpt lat="45.562458" lon="7.829007">
        <ele>428.6402</ele>
        <time>2024-10-19T12:38:56.000Z</time>
      </trkpt>
      <trkpt lat="45.562475" lon="7.828997">
        <ele>428.98016</ele>
        <time>2024-10-19T12:38:58.000Z</time>
      </trkpt>
      <trkpt lat="45.562495" lon="7.828982">
        <ele>429.34515</ele>
        <time>2024-10-19T12:39:00.000Z</time>
      </trkpt>
      <trkpt lat="45.562512" lon="7.828963">
        <ele>429.77017</ele>
        <time>2024-10-19T12:39:03.000Z</time>
      </trkpt>
      <trkpt lat="45.562518" lon="7.828938">
        <ele>430.22516</ele>
        <time>2024-10-19T12:39:07.000Z</time>
      </trkpt>
      <trkpt lat="45.56253" lon="7.8289">
        <ele>430.74518</ele>
        <time>2024-10-19T12:39:11.000Z</time>
      </trkpt>
      <trkpt lat="45.562555" lon="7.828883">
        <ele>431.29517</ele>
        <time>2024-10-19T12:39:13.000Z</time>
      </trkpt>
      <trkpt lat="45.562577" lon="7.828865">
        <ele>431.9252</ele>
        <time>2024-10-19T12:39:15.000Z</time>
      </trkpt>
      <trkpt lat="45.562585" lon="7.828838">
        <ele>432.58521</ele>
        <time>2024-10-19T12:39:17.000Z</time>
      </trkpt>
      <trkpt lat="45.562597" lon="7.828813">
        <ele>433.26019</ele>
        <time>2024-10-19T12:39:19.000Z</time>
      </trkpt>
      <trkpt lat="45.562617" lon="7.828783">
        <ele>433.91022</ele>
        <time>2024-10-19T12:39:22.000Z</time>
      </trkpt>
      <trkpt lat="45.562632" lon="7.828768">
        <ele>434.50519</ele>
        <time>2024-10-19T12:39:24.000Z</time>
      </trkpt>
      <trkpt lat="45.562655" lon="7.828763">
        <ele>435.04517</ele>
        <time>2024-10-19T12:39:27.000Z</time>
      </trkpt>
      <trkpt lat="45.562673" lon="7.82876">
        <ele>435.61517</ele>
        <time>2024-10-19T12:39:29.000Z</time>
      </trkpt>
      <trkpt lat="45.562692" lon="7.828743">
        <ele>436.28018</ele>
        <time>2024-10-19T12:39:32.000Z</time>
      </trkpt>
      <trkpt lat="45.562708" lon="7.82873">
        <ele>436.9852</ele>
        <time>2024-10-19T12:39:35.000Z</time>
      </trkpt>
      <trkpt lat="45.562732" lon="7.828718">
        <ele>437.69025</ele>
        <time>2024-10-19T12:39:39.000Z</time>
      </trkpt>
      <trkpt lat="45.562752" lon="7.828712">
        <ele>438.38022</ele>
        <time>2024-10-19T12:39:42.000Z</time>
      </trkpt>
      <trkpt lat="45.562762" lon="7.82869">
        <ele>439.08023</ele>
        <time>2024-10-19T12:39:44.000Z</time>
      </trkpt>
      <trkpt lat="45.562778" lon="7.828665">
        <ele>439.72519</ele>
        <time>2024-10-19T12:39:47.000Z</time>
      </trkpt>
      <trkpt lat="45.562797" lon="7.828665">
        <ele>440.31519</ele>
        <time>2024-10-19T12:39:49.000Z</time>
      </trkpt>
      <trkpt lat="45.56282" lon="7.828652">
        <ele>440.86017</ele>
        <time>2024-10-19T12:39:51.000Z</time>
      </trkpt>
      <trkpt lat="45.562845" lon="7.828637">
        <ele>441.40021</ele>
        <time>2024-10-19T12:39:53.000Z</time>
      </trkpt>
      <trkpt lat="45.562862" lon="7.828625">
        <ele>441.96518</ele>
        <time>2024-10-19T12:39:56.000Z</time>
      </trkpt>
      <trkpt lat="45.562885" lon="7.828603">
        <ele>442.49017</ele>
        <time>2024-10-19T12:40:00.000Z</time>
      </trkpt>
      <trkpt lat="45.562902" lon="7.82858">
        <ele>443.00519</ele>
        <time>2024-10-19T12:40:02.000Z</time>
      </trkpt>
      <trkpt lat="45.562912" lon="7.828555">
        <ele>443.52521</ele>
        <time>2024-10-19T12:40:04.000Z</time>
      </trkpt>
      <trkpt lat="45.562932" lon="7.828533">
        <ele>444.03516</ele>
        <time>2024-10-19T12:40:06.000Z</time>
      </trkpt>
      <trkpt lat="45.562955" lon="7.82853">
        <ele>444.5451</ele>
        <time>2024-10-19T12:40:08.000Z</time>
      </trkpt>
      <trkpt lat="45.562975" lon="7.828532">
        <ele>445.06012</ele>
        <time>2024-10-19T12:40:10.000Z</time>
      </trkpt>
      <trkpt lat="45.562993" lon="7.828528">
        <ele>445.54507</ele>
        <time>2024-10-19T12:40:12.000Z</time>
      </trkpt>
      <trkpt lat="45.56301" lon="7.828515">
        <ele>446.02008</ele>
        <time>2024-10-19T12:40:14.000Z</time>
      </trkpt>
      <trkpt lat="45.56303" lon="7.82852">
        <ele>446.50507</ele>
        <time>2024-10-19T12:40:16.000Z</time>
      </trkpt>
      <trkpt lat="45.563053" lon="7.828518">
        <ele>446.91006</ele>
        <time>2024-10-19T12:40:20.000Z</time>
      </trkpt>
      <trkpt lat="45.563067" lon="7.828537">
        <ele>447.23004</ele>
        <time>2024-10-19T12:40:23.000Z</time>
      </trkpt>
      <trkpt lat="45.563078" lon="7.828557">
        <ele>447.52499</ele>
        <time>2024-10-19T12:40:25.000Z</time>
      </trkpt>
      <trkpt lat="45.563092" lon="7.82858">
        <ele>447.81998</ele>
        <time>2024-10-19T12:40:27.000Z</time>
      </trkpt>
      <trkpt lat="45.563108" lon="7.828612">
        <ele>448.09</ele>
        <time>2024-10-19T12:40:29.000Z</time>
      </trkpt>
      <trkpt lat="45.563127" lon="7.82863">
        <ele>448.32501</ele>
        <time>2024-10-19T12:40:31.000Z</time>
      </trkpt>
      <trkpt lat="45.56315" lon="7.828658">
        <ele>448.57501</ele>
        <time>2024-10-19T12:40:33.000Z</time>
      </trkpt>
      <trkpt lat="45.563168" lon="7.828672">
        <ele>448.84497</ele>
        <time>2024-10-19T12:40:35.000Z</time>
      </trkpt>
      <trkpt lat="45.563187" lon="7.828675">
        <ele>449.12997</ele>
        <time>2024-10-19T12:40:37.000Z</time>
      </trkpt>
      <trkpt lat="45.563208" lon="7.828675">
        <ele>449.42496</ele>
        <time>2024-10-19T12:40:39.000Z</time>
      </trkpt>
      <trkpt lat="45.563227" lon="7.828668">
        <ele>449.63495</ele>
        <time>2024-10-19T12:40:41.000Z</time>
      </trkpt>
      <trkpt lat="45.563247" lon="7.828653">
        <ele>449.90997</ele>
        <time>2024-10-19T12:40:43.000Z</time>
      </trkpt>
      <trkpt lat="45.563282" lon="7.828652">
        <ele>450.24496</ele>
        <time>2024-10-19T12:40:45.000Z</time>
      </trkpt>
      <trkpt lat="45.563305" lon="7.828662">
        <ele>450.60498</ele>
        <time>2024-10-19T12:40:47.000Z</time>
      </trkpt>
      <trkpt lat="45.563323" lon="7.828657">
        <ele>450.95499</ele>
        <time>2024-10-19T12:40:49.000Z</time>
      </trkpt>
      <trkpt lat="45.563352" lon="7.828653">
        <ele>451.29501</ele>
        <time>2024-10-19T12:40:52.000Z</time>
      </trkpt>
      <trkpt lat="45.563373" lon="7.828645">
        <ele>451.63004</ele>
        <time>2024-10-19T12:40:54.000Z</time>
      </trkpt>
      <trkpt lat="45.563383" lon="7.82861">
        <ele>451.99005</ele>
        <time>2024-10-19T12:40:56.000Z</time>
      </trkpt>
      <trkpt lat="45.563387" lon="7.828577">
        <ele>452.37506</ele>
        <time>2024-10-19T12:40:58.000Z</time>
      </trkpt>
      <trkpt lat="45.563407" lon="7.828558">
        <ele>452.75006</ele>
        <time>2024-10-19T12:41:00.000Z</time>
      </trkpt>
      <trkpt lat="45.56343" lon="7.82855">
        <ele>453.17505</ele>
        <time>2024-10-19T12:41:02.000Z</time>
      </trkpt>
      <trkpt lat="45.563452" lon="7.828543">
        <ele>453.61005</ele>
        <time>2024-10-19T12:41:04.000Z</time>
      </trkpt>
      <trkpt lat="45.56347" lon="7.828533">
        <ele>454.05508</ele>
        <time>2024-10-19T12:41:06.000Z</time>
      </trkpt>
      <trkpt lat="45.563492" lon="7.828528">
        <ele>454.49506</ele>
        <time>2024-10-19T12:41:08.000Z</time>
      </trkpt>
      <trkpt lat="45.563513" lon="7.828512">
        <ele>454.98007</ele>
        <time>2024-10-19T12:41:11.000Z</time>
      </trkpt>
      <trkpt lat="45.563533" lon="7.828507">
        <ele>455.4501</ele>
        <time>2024-10-19T12:41:13.000Z</time>
      </trkpt>
      <trkpt lat="45.563557" lon="7.828498">
        <ele>455.91513</ele>
        <time>2024-10-19T12:41:15.000Z</time>
      </trkpt>
      <trkpt lat="45.563585" lon="7.828505">
        <ele>456.36017</ele>
        <time>2024-10-19T12:41:17.000Z</time>
      </trkpt>
      <trkpt lat="45.563602" lon="7.828515">
        <ele>456.77017</ele>
        <time>2024-10-19T12:41:18.000Z</time>
      </trkpt>
      <trkpt lat="45.56363" lon="7.82851">
        <ele>457.13516</ele>
        <time>2024-10-19T12:41:20.000Z</time>
      </trkpt>
      <trkpt lat="45.563652" lon="7.8285">
        <ele>457.56512</ele>
        <time>2024-10-19T12:41:22.000Z</time>
      </trkpt>
      <trkpt lat="45.563677" lon="7.828505">
        <ele>458.01514</ele>
        <time>2024-10-19T12:41:25.000Z</time>
      </trkpt>
      <trkpt lat="45.5637" lon="7.828495">
        <ele>458.39517</ele>
        <time>2024-10-19T12:41:28.000Z</time>
      </trkpt>
      <trkpt lat="45.563722" lon="7.828487">
        <ele>458.76514</ele>
        <time>2024-10-19T12:41:31.000Z</time>
      </trkpt>
      <trkpt lat="45.563742" lon="7.828473">
        <ele>459.11514</ele>
        <time>2024-10-19T12:41:33.000Z</time>
      </trkpt>
      <trkpt lat="45.56376" lon="7.828463">
        <ele>459.46011</ele>
        <time>2024-10-19T12:41:35.000Z</time>
      </trkpt>
      <trkpt lat="45.563782" lon="7.82846">
        <ele>459.78009</ele>
        <time>2024-10-19T12:41:38.000Z</time>
      </trkpt>
      <trkpt lat="45.563807" lon="7.828458">
        <ele>460.08008</ele>
        <time>2024-10-19T12:41:40.000Z</time>
      </trkpt>
      <trkpt lat="45.563832" lon="7.828463">
        <ele>460.37006</ele>
        <time>2024-10-19T12:41:42.000Z</time>
      </trkpt>
      <trkpt lat="45.563852" lon="7.828472">
        <ele>460.6651</ele>
        <time>2024-10-19T12:41:44.000Z</time>
      </trkpt>
      <trkpt lat="45.56387" lon="7.828478">
        <ele>460.94009</ele>
        <time>2024-10-19T12:41:46.000Z</time>
      </trkpt>
      <trkpt lat="45.563897" lon="7.828488">
        <ele>461.20508</ele>
        <time>2024-10-19T12:41:48.000Z</time>
      </trkpt>
      <trkpt lat="45.56392" lon="7.828498">
        <ele>461.4751</ele>
        <time>2024-10-19T12:41:50.000Z</time>
      </trkpt>
      <trkpt lat="45.56394" lon="7.8285">
        <ele>461.80511</ele>
        <time>2024-10-19T12:41:52.000Z</time>
      </trkpt>
      <trkpt lat="45.563958" lon="7.828508">
        <ele>462.11508</ele>
        <time>2024-10-19T12:41:54.000Z</time>
      </trkpt>
      <trkpt lat="45.563977" lon="7.828522">
        <ele>462.45508</ele>
        <time>2024-10-19T12:41:56.000Z</time>
      </trkpt>
      <trkpt lat="45.563992" lon="7.828543">
        <ele>462.76505</ele>
        <time>2024-10-19T12:41:58.000Z</time>
      </trkpt>
      <trkpt lat="45.56401" lon="7.82856">
        <ele>463.06503</ele>
        <time>2024-10-19T12:42:01.000Z</time>
      </trkpt>
      <trkpt lat="45.56403" lon="7.82857">
        <ele>463.40005</ele>
        <time>2024-10-19T12:42:03.000Z</time>
      </trkpt>
      <trkpt lat="45.56402" lon="7.828542">
        <ele>463.76508</ele>
        <time>2024-10-19T12:42:09.000Z</time>
      </trkpt>
      <trkpt lat="45.56404" lon="7.828543">
        <ele>464.30511</ele>
        <time>2024-10-19T12:42:44.000Z</time>
      </trkpt>
      <trkpt lat="45.564057" lon="7.828575">
        <ele>464.78012</ele>
        <time>2024-10-19T12:42:46.000Z</time>
      </trkpt>
      <trkpt lat="45.564068" lon="7.828595">
        <ele>465.25009</ele>
        <time>2024-10-19T12:42:47.000Z</time>
      </trkpt>
      <trkpt lat="45.564077" lon="7.82862">
        <ele>465.67511</ele>
        <time>2024-10-19T12:42:49.000Z</time>
      </trkpt>
      <trkpt lat="45.564097" lon="7.82863">
        <ele>466.1601</ele>
        <time>2024-10-19T12:42:51.000Z</time>
      </trkpt>
      <trkpt lat="45.564115" lon="7.828652">
        <ele>466.67511</ele>
        <time>2024-10-19T12:42:53.000Z</time>
      </trkpt>
      <trkpt lat="45.564135" lon="7.82867">
        <ele>467.23013</ele>
        <time>2024-10-19T12:42:55.000Z</time>
      </trkpt>
      <trkpt lat="45.564158" lon="7.828687">
        <ele>467.81512</ele>
        <time>2024-10-19T12:42:57.000Z</time>
      </trkpt>
      <trkpt lat="45.564183" lon="7.828688">
        <ele>468.41513</ele>
        <time>2024-10-19T12:43:00.000Z</time>
      </trkpt>
      <trkpt lat="45.564208" lon="7.828692">
        <ele>469.02011</ele>
        <time>2024-10-19T12:43:02.000Z</time>
      </trkpt>
      <trkpt lat="45.564235" lon="7.828692">
        <ele>469.58014</ele>
        <time>2024-10-19T12:43:04.000Z</time>
      </trkpt>
      <trkpt lat="45.564248" lon="7.828712">
        <ele>470.14014</ele>
        <time>2024-10-19T12:43:06.000Z</time>
      </trkpt>
      <trkpt lat="45.564262" lon="7.828732">
        <ele>470.68011</ele>
        <time>2024-10-19T12:43:08.000Z</time>
      </trkpt>
      <trkpt lat="45.564282" lon="7.82874">
        <ele>471.15009</ele>
        <time>2024-10-19T12:43:10.000Z</time>
      </trkpt>
      <trkpt lat="45.5643" lon="7.82874">
        <ele>471.61011</ele>
        <time>2024-10-19T12:43:12.000Z</time>
      </trkpt>
      <trkpt lat="45.564322" lon="7.828728">
        <ele>472.08511</ele>
        <time>2024-10-19T12:43:14.000Z</time>
      </trkpt>
      <trkpt lat="45.564348" lon="7.828723">
        <ele>472.57013</ele>
        <time>2024-10-19T12:43:18.000Z</time>
      </trkpt>
      <trkpt lat="45.56437" lon="7.828722">
        <ele>473.05511</ele>
        <time>2024-10-19T12:43:20.000Z</time>
      </trkpt>
      <trkpt lat="45.564393" lon="7.82871">
        <ele>473.52011</ele>
        <time>2024-10-19T12:43:22.000Z</time>
      </trkpt>
      <trkpt lat="45.564417" lon="7.82871">
        <ele>473.9501</ele>
        <time>2024-10-19T12:43:25.000Z</time>
      </trkpt>
      <trkpt lat="45.564437" lon="7.82871">
        <ele>474.13507</ele>
        <time>2024-10-19T12:43:27.000Z</time>
      </trkpt>
      <trkpt lat="45.564458" lon="7.828692">
        <ele>474.35507</ele>
        <time>2024-10-19T12:43:30.000Z</time>
      </trkpt>
      <trkpt lat="45.564475" lon="7.828677">
        <ele>474.56509</ele>
        <time>2024-10-19T12:43:32.000Z</time>
      </trkpt>
      <trkpt lat="45.564493" lon="7.828662">
        <ele>474.78012</ele>
        <time>2024-10-19T12:43:34.000Z</time>
      </trkpt>
      <trkpt lat="45.564512" lon="7.828652">
        <ele>474.96014</ele>
        <time>2024-10-19T12:43:37.000Z</time>
      </trkpt>
      <trkpt lat="45.564528" lon="7.828638">
        <ele>475.11517</ele>
        <time>2024-10-19T12:43:39.000Z</time>
      </trkpt>
      <trkpt lat="45.564547" lon="7.828625">
        <ele>475.22516</ele>
        <time>2024-10-19T12:43:42.000Z</time>
      </trkpt>
      <trkpt lat="45.564568" lon="7.828583">
        <ele>475.36514</ele>
        <time>2024-10-19T12:43:57.000Z</time>
      </trkpt>
      <trkpt lat="45.564585" lon="7.828557">
        <ele>475.42514</ele>
        <time>2024-10-19T12:44:00.000Z</time>
      </trkpt>
      <trkpt lat="45.564603" lon="7.828538">
        <ele>475.44012</ele>
        <time>2024-10-19T12:44:02.000Z</time>
      </trkpt>
      <trkpt lat="45.564627" lon="7.828532">
        <ele>475.33014</ele>
        <time>2024-10-19T12:44:12.000Z</time>
      </trkpt>
      <trkpt lat="45.564647" lon="7.828528">
        <ele>475.25513</ele>
        <time>2024-10-19T12:44:14.000Z</time>
      </trkpt>
      <trkpt lat="45.564672" lon="7.82853">
        <ele>475.21515</ele>
        <time>2024-10-19T12:44:17.000Z</time>
      </trkpt>
      <trkpt lat="45.5647" lon="7.828523">
        <ele>475.18515</ele>
        <time>2024-10-19T12:44:19.000Z</time>
      </trkpt>
      <trkpt lat="45.564732" lon="7.82853">
        <ele>475.13516</ele>
        <time>2024-10-19T12:44:21.000Z</time>
      </trkpt>
      <trkpt lat="45.56476" lon="7.828542">
        <ele>475.03012</ele>
        <time>2024-10-19T12:44:23.000Z</time>
      </trkpt>
      <trkpt lat="45.564777" lon="7.828557">
        <ele>474.88013</ele>
        <time>2024-10-19T12:44:24.000Z</time>
      </trkpt>
      <trkpt lat="45.564798" lon="7.828565">
        <ele>474.74014</ele>
        <time>2024-10-19T12:44:26.000Z</time>
      </trkpt>
      <trkpt lat="45.564818" lon="7.82859">
        <ele>474.56012</ele>
        <time>2024-10-19T12:44:28.000Z</time>
      </trkpt>
      <trkpt lat="45.56484" lon="7.828603">
        <ele>474.36508</ele>
        <time>2024-10-19T12:44:31.000Z</time>
      </trkpt>
      <trkpt lat="45.564857" lon="7.828615">
        <ele>474.1601</ele>
        <time>2024-10-19T12:44:33.000Z</time>
      </trkpt>
      <trkpt lat="45.564875" lon="7.828633">
        <ele>473.90509</ele>
        <time>2024-10-19T12:44:35.000Z</time>
      </trkpt>
      <trkpt lat="45.564895" lon="7.82864">
        <ele>473.67007</ele>
        <time>2024-10-19T12:44:38.000Z</time>
      </trkpt>
      <trkpt lat="45.564913" lon="7.828642">
        <ele>473.46005</ele>
        <time>2024-10-19T12:44:40.000Z</time>
      </trkpt>
      <trkpt lat="45.564938" lon="7.828657">
        <ele>473.24005</ele>
        <time>2024-10-19T12:44:42.000Z</time>
      </trkpt>
      <trkpt lat="45.564957" lon="7.828658">
        <ele>473.03003</ele>
        <time>2024-10-19T12:44:44.000Z</time>
      </trkpt>
      <trkpt lat="45.564982" lon="7.828682">
        <ele>472.86505</ele>
        <time>2024-10-19T12:44:46.000Z</time>
      </trkpt>
      <trkpt lat="45.565007" lon="7.82869">
        <ele>472.65503</ele>
        <time>2024-10-19T12:44:48.000Z</time>
      </trkpt>
      <trkpt lat="45.565032" lon="7.828693">
        <ele>472.53003</ele>
        <time>2024-10-19T12:44:50.000Z</time>
      </trkpt>
      <trkpt lat="45.565053" lon="7.828697">
        <ele>472.47003</ele>
        <time>2024-10-19T12:44:52.000Z</time>
      </trkpt>
      <trkpt lat="45.565077" lon="7.828693">
        <ele>472.65005</ele>
        <time>2024-10-19T12:44:55.000Z</time>
      </trkpt>
      <trkpt lat="45.565097" lon="7.828715">
        <ele>472.82007</ele>
        <time>2024-10-19T12:44:58.000Z</time>
      </trkpt>
      <trkpt lat="45.565107" lon="7.828738">
        <ele>472.95004</ele>
        <time>2024-10-19T12:45:00.000Z</time>
      </trkpt>
      <trkpt lat="45.565127" lon="7.828753">
        <ele>473.07504</ele>
        <time>2024-10-19T12:45:02.000Z</time>
      </trkpt>
      <trkpt lat="45.56515" lon="7.828763">
        <ele>473.27008</ele>
        <time>2024-10-19T12:45:06.000Z</time>
      </trkpt>
      <trkpt lat="45.565168" lon="7.828768">
        <ele>473.51508</ele>
        <time>2024-10-19T12:45:09.000Z</time>
      </trkpt>
      <trkpt lat="45.565193" lon="7.828787">
        <ele>473.81012</ele>
        <time>2024-10-19T12:45:12.000Z</time>
      </trkpt>
      <trkpt lat="45.56521" lon="7.8288">
        <ele>474.13007</ele>
        <time>2024-10-19T12:45:15.000Z</time>
      </trkpt>
      <trkpt lat="45.565242" lon="7.828785">
        <ele>474.60507</ele>
        <time>2024-10-19T12:45:18.000Z</time>
      </trkpt>
      <trkpt lat="45.565258" lon="7.828765">
        <ele>475.19009</ele>
        <time>2024-10-19T12:45:21.000Z</time>
      </trkpt>
      <trkpt lat="45.565277" lon="7.828757">
        <ele>475.7901</ele>
        <time>2024-10-19T12:45:23.000Z</time>
      </trkpt>
      <trkpt lat="45.565297" lon="7.828777">
        <ele>476.4101</ele>
        <time>2024-10-19T12:45:26.000Z</time>
      </trkpt>
      <trkpt lat="45.56532" lon="7.828815">
        <ele>477.03012</ele>
        <time>2024-10-19T12:45:28.000Z</time>
      </trkpt>
      <trkpt lat="45.56534" lon="7.82884">
        <ele>477.61011</ele>
        <time>2024-10-19T12:45:30.000Z</time>
      </trkpt>
      <trkpt lat="45.565362" lon="7.828857">
        <ele>478.19009</ele>
        <time>2024-10-19T12:45:32.000Z</time>
      </trkpt>
      <trkpt lat="45.565378" lon="7.828877">
        <ele>478.73007</ele>
        <time>2024-10-19T12:45:35.000Z</time>
      </trkpt>
      <trkpt lat="45.565395" lon="7.828897">
        <ele>479.19009</ele>
        <time>2024-10-19T12:45:39.000Z</time>
      </trkpt>
      <trkpt lat="45.565417" lon="7.828908">
        <ele>479.61508</ele>
        <time>2024-10-19T12:45:42.000Z</time>
      </trkpt>
      <trkpt lat="45.565465" lon="7.828942">
        <ele>479.97006</ele>
        <time>2024-10-19T12:45:51.000Z</time>
      </trkpt>
      <trkpt lat="45.565485" lon="7.828963">
        <ele>480.31509</ele>
        <time>2024-10-19T12:45:56.000Z</time>
      </trkpt>
      <trkpt lat="45.565502" lon="7.828975">
        <ele>480.67007</ele>
        <time>2024-10-19T12:45:59.000Z</time>
      </trkpt>
      <trkpt lat="45.565523" lon="7.828942">
        <ele>481.09003</ele>
        <time>2024-10-19T12:46:14.000Z</time>
      </trkpt>
      <trkpt lat="45.565503" lon="7.828953">
        <ele>481.44003</ele>
        <time>2024-10-19T12:46:25.000Z</time>
      </trkpt>
      <trkpt lat="45.565525" lon="7.828942">
        <ele>481.78506</ele>
        <time>2024-10-19T12:46:38.000Z</time>
      </trkpt>
      <trkpt lat="45.565552" lon="7.828937">
        <ele>482.08002</ele>
        <time>2024-10-19T12:46:40.000Z</time>
      </trkpt>
      <trkpt lat="45.565575" lon="7.828935">
        <ele>482.33502</ele>
        <time>2024-10-19T12:46:41.000Z</time>
      </trkpt>
      <trkpt lat="45.565605" lon="7.828928">
        <ele>482.565</ele>
        <time>2024-10-19T12:46:43.000Z</time>
      </trkpt>
      <trkpt lat="45.565625" lon="7.828915">
        <ele>482.79501</ele>
        <time>2024-10-19T12:46:46.000Z</time>
      </trkpt>
      <trkpt lat="45.56565" lon="7.82891">
        <ele>482.92505</ele>
        <time>2024-10-19T12:46:48.000Z</time>
      </trkpt>
      <trkpt lat="45.56567" lon="7.8289">
        <ele>482.98505</ele>
        <time>2024-10-19T12:46:50.000Z</time>
      </trkpt>
      <trkpt lat="45.565687" lon="7.82891">
        <ele>483.06503</ele>
        <time>2024-10-19T12:46:51.000Z</time>
      </trkpt>
      <trkpt lat="45.565712" lon="7.82891">
        <ele>483.14502</ele>
        <time>2024-10-19T12:46:53.000Z</time>
      </trkpt>
      <trkpt lat="45.565733" lon="7.828913">
        <ele>483.25504</ele>
        <time>2024-10-19T12:46:55.000Z</time>
      </trkpt>
      <trkpt lat="45.565757" lon="7.828903">
        <ele>483.43506</ele>
        <time>2024-10-19T12:46:58.000Z</time>
      </trkpt>
      <trkpt lat="45.565787" lon="7.828903">
        <ele>483.58008</ele>
        <time>2024-10-19T12:47:00.000Z</time>
      </trkpt>
      <trkpt lat="45.565812" lon="7.828903">
        <ele>483.73511</ele>
        <time>2024-10-19T12:47:02.000Z</time>
      </trkpt>
      <trkpt lat="45.565832" lon="7.828892">
        <ele>483.89511</ele>
        <time>2024-10-19T12:47:04.000Z</time>
      </trkpt>
      <trkpt lat="45.56585" lon="7.828878">
        <ele>484.06512</ele>
        <time>2024-10-19T12:47:06.000Z</time>
      </trkpt>
      <trkpt lat="45.565872" lon="7.828862">
        <ele>484.24518</ele>
        <time>2024-10-19T12:47:08.000Z</time>
      </trkpt>
      <trkpt lat="45.565893" lon="7.828847">
        <ele>484.38516</ele>
        <time>2024-10-19T12:47:10.000Z</time>
      </trkpt>
      <trkpt lat="45.56592" lon="7.828838">
        <ele>484.39517</ele>
        <time>2024-10-19T12:47:12.000Z</time>
      </trkpt>
      <trkpt lat="45.565942" lon="7.828828">
        <ele>484.27017</ele>
        <time>2024-10-19T12:47:14.000Z</time>
      </trkpt>
      <trkpt lat="45.565962" lon="7.828805">
        <ele>484.19019</ele>
        <time>2024-10-19T12:47:17.000Z</time>
      </trkpt>
      <trkpt lat="45.565992" lon="7.828797">
        <ele>484.10016</ele>
        <time>2024-10-19T12:47:19.000Z</time>
      </trkpt>
      <trkpt lat="45.566025" lon="7.828787">
        <ele>483.94019</ele>
        <time>2024-10-19T12:47:21.000Z</time>
      </trkpt>
      <trkpt lat="45.566043" lon="7.828788">
        <ele>483.78021</ele>
        <time>2024-10-19T12:47:22.000Z</time>
      </trkpt>
      <trkpt lat="45.566063" lon="7.828785">
        <ele>483.59024</ele>
        <time>2024-10-19T12:47:23.000Z</time>
      </trkpt>
      <trkpt lat="45.566082" lon="7.82878">
        <ele>483.36523</ele>
        <time>2024-10-19T12:47:24.000Z</time>
      </trkpt>
      <trkpt lat="45.566108" lon="7.82876">
        <ele>483.1102</ele>
        <time>2024-10-19T12:47:26.000Z</time>
      </trkpt>
      <trkpt lat="45.566135" lon="7.82874">
        <ele>482.85522</ele>
        <time>2024-10-19T12:47:28.000Z</time>
      </trkpt>
      <trkpt lat="45.566155" lon="7.828717">
        <ele>482.61523</ele>
        <time>2024-10-19T12:47:30.000Z</time>
      </trkpt>
      <trkpt lat="45.56617" lon="7.8287">
        <ele>482.40024</ele>
        <time>2024-10-19T12:47:32.000Z</time>
      </trkpt>
      <trkpt lat="45.56618" lon="7.828673">
        <ele>482.19025</ele>
        <time>2024-10-19T12:47:35.000Z</time>
      </trkpt>
      <trkpt lat="45.566197" lon="7.828658">
        <ele>482.03021</ele>
        <time>2024-10-19T12:47:38.000Z</time>
      </trkpt>
      <trkpt lat="45.566215" lon="7.828645">
        <ele>481.95026</ele>
        <time>2024-10-19T12:47:41.000Z</time>
      </trkpt>
      <trkpt lat="45.566235" lon="7.828642">
        <ele>481.90521</ele>
        <time>2024-10-19T12:47:43.000Z</time>
      </trkpt>
      <trkpt lat="45.566263" lon="7.828625">
        <ele>481.86523</ele>
        <time>2024-10-19T12:47:45.000Z</time>
      </trkpt>
      <trkpt lat="45.566285" lon="7.828617">
        <ele>481.82526</ele>
        <time>2024-10-19T12:47:47.000Z</time>
      </trkpt>
      <trkpt lat="45.566308" lon="7.828607">
        <ele>481.76025</ele>
        <time>2024-10-19T12:47:49.000Z</time>
      </trkpt>
      <trkpt lat="45.56633" lon="7.828565">
        <ele>481.70026</ele>
        <time>2024-10-19T12:47:51.000Z</time>
      </trkpt>
      <trkpt lat="45.566342" lon="7.828542">
        <ele>481.68524</ele>
        <time>2024-10-19T12:47:53.000Z</time>
      </trkpt>
      <trkpt lat="45.566363" lon="7.828528">
        <ele>481.70526</ele>
        <time>2024-10-19T12:47:55.000Z</time>
      </trkpt>
      <trkpt lat="45.566393" lon="7.82853">
        <ele>481.71027</ele>
        <time>2024-10-19T12:47:58.000Z</time>
      </trkpt>
      <trkpt lat="45.566418" lon="7.828532">
        <ele>481.66528</ele>
        <time>2024-10-19T12:48:00.000Z</time>
      </trkpt>
      <trkpt lat="45.566442" lon="7.828518">
        <ele>481.49527</ele>
        <time>2024-10-19T12:48:05.000Z</time>
      </trkpt>
      <trkpt lat="45.566465" lon="7.828503">
        <ele>481.26025</ele>
        <time>2024-10-19T12:48:07.000Z</time>
      </trkpt>
      <trkpt lat="45.566487" lon="7.82849">
        <ele>480.99527</ele>
        <time>2024-10-19T12:48:09.000Z</time>
      </trkpt>
      <trkpt lat="45.566505" lon="7.828483">
        <ele>480.73022</ele>
        <time>2024-10-19T12:48:10.000Z</time>
      </trkpt>
      <trkpt lat="45.566527" lon="7.828467">
        <ele>480.46524</ele>
        <time>2024-10-19T12:48:12.000Z</time>
      </trkpt>
      <trkpt lat="45.566548" lon="7.828453">
        <ele>480.19025</ele>
        <time>2024-10-19T12:48:14.000Z</time>
      </trkpt>
      <trkpt lat="45.566565" lon="7.828438">
        <ele>479.92523</ele>
        <time>2024-10-19T12:48:16.000Z</time>
      </trkpt>
      <trkpt lat="45.566592" lon="7.828428">
        <ele>479.65527</ele>
        <time>2024-10-19T12:48:18.000Z</time>
      </trkpt>
      <trkpt lat="45.566612" lon="7.828417">
        <ele>479.34027</ele>
        <time>2024-10-19T12:48:20.000Z</time>
      </trkpt>
      <trkpt lat="45.566633" lon="7.828393">
        <ele>478.91528</ele>
        <time>2024-10-19T12:48:23.000Z</time>
      </trkpt>
      <trkpt lat="45.566638" lon="7.828363">
        <ele>478.40527</ele>
        <time>2024-10-19T12:48:29.000Z</time>
      </trkpt>
      <trkpt lat="45.566655" lon="7.828348">
        <ele>477.81528</ele>
        <time>2024-10-19T12:48:45.000Z</time>
      </trkpt>
      <trkpt lat="45.566673" lon="7.82834">
        <ele>477.24527</ele>
        <time>2024-10-19T12:48:48.000Z</time>
      </trkpt>
      <trkpt lat="45.566695" lon="7.828343">
        <ele>476.69525</ele>
        <time>2024-10-19T12:48:50.000Z</time>
      </trkpt>
      <trkpt lat="45.566715" lon="7.828325">
        <ele>476.20523</ele>
        <time>2024-10-19T12:48:52.000Z</time>
      </trkpt>
      <trkpt lat="45.566735" lon="7.828295">
        <ele>475.74023</ele>
        <time>2024-10-19T12:48:54.000Z</time>
      </trkpt>
      <trkpt lat="45.566738" lon="7.828262">
        <ele>475.30524</ele>
        <time>2024-10-19T12:48:56.000Z</time>
      </trkpt>
      <trkpt lat="45.566747" lon="7.828233">
        <ele>474.97525</ele>
        <time>2024-10-19T12:48:59.000Z</time>
      </trkpt>
      <trkpt lat="45.56677" lon="7.828207">
        <ele>474.80023</ele>
        <time>2024-10-19T12:49:03.000Z</time>
      </trkpt>
      <trkpt lat="45.566792" lon="7.828193">
        <ele>474.72525</ele>
        <time>2024-10-19T12:49:05.000Z</time>
      </trkpt>
      <trkpt lat="45.566802" lon="7.82817">
        <ele>474.85025</ele>
        <time>2024-10-19T12:49:08.000Z</time>
      </trkpt>
      <trkpt lat="45.566807" lon="7.828203">
        <ele>475.08023</ele>
        <time>2024-10-19T12:49:13.000Z</time>
      </trkpt>
      <trkpt lat="45.566817" lon="7.828225">
        <ele>475.39023</ele>
        <time>2024-10-19T12:49:52.000Z</time>
      </trkpt>
      <trkpt lat="45.566813" lon="7.828257">
        <ele>475.68027</ele>
        <time>2024-10-19T12:49:55.000Z</time>
      </trkpt>
      <trkpt lat="45.566797" lon="7.828277">
        <ele>475.98529</ele>
        <time>2024-10-19T12:49:58.000Z</time>
      </trkpt>
      <trkpt lat="45.566738" lon="7.828282">
        <ele>476.32025</ele>
        <time>2024-10-19T12:50:17.000Z</time>
      </trkpt>
      <trkpt lat="45.566715" lon="7.828282">
        <ele>476.69028</ele>
        <time>2024-10-19T12:50:19.000Z</time>
      </trkpt>
      <trkpt lat="45.566693" lon="7.828273">
        <ele>477.07526</ele>
        <time>2024-10-19T12:50:21.000Z</time>
      </trkpt>
      <trkpt lat="45.566673" lon="7.828265">
        <ele>477.51523</ele>
        <time>2024-10-19T12:50:25.000Z</time>
      </trkpt>
      <trkpt lat="45.566653" lon="7.828248">
        <ele>478.00024</ele>
        <time>2024-10-19T12:50:28.000Z</time>
      </trkpt>
      <trkpt lat="45.566633" lon="7.828232">
        <ele>478.5202</ele>
        <time>2024-10-19T12:50:30.000Z</time>
      </trkpt>
      <trkpt lat="45.566623" lon="7.82821">
        <ele>479.1102</ele>
        <time>2024-10-19T12:50:32.000Z</time>
      </trkpt>
      <trkpt lat="45.566613" lon="7.828183">
        <ele>479.7002</ele>
        <time>2024-10-19T12:50:35.000Z</time>
      </trkpt>
      <trkpt lat="45.566625" lon="7.828235">
        <ele>480.39517</ele>
        <time>2024-10-19T12:51:01.000Z</time>
      </trkpt>
      <trkpt lat="45.566618" lon="7.828263">
        <ele>481.04517</ele>
        <time>2024-10-19T12:51:08.000Z</time>
      </trkpt>
      <trkpt lat="45.566607" lon="7.828238">
        <ele>481.73016</ele>
        <time>2024-10-19T12:51:13.000Z</time>
      </trkpt>
      <trkpt lat="45.566598" lon="7.828205">
        <ele>482.41016</ele>
        <time>2024-10-19T12:51:15.000Z</time>
      </trkpt>
      <trkpt lat="45.566627" lon="7.828185">
        <ele>483.24014</ele>
        <time>2024-10-19T12:52:08.000Z</time>
      </trkpt>
      <trkpt lat="45.566645" lon="7.828203">
        <ele>483.96515</ele>
        <time>2024-10-19T12:52:10.000Z</time>
      </trkpt>
      <trkpt lat="45.566653" lon="7.828233">
        <ele>484.66513</ele>
        <time>2024-10-19T12:52:13.000Z</time>
      </trkpt>
      <trkpt lat="45.566672" lon="7.828232">
        <ele>485.34512</ele>
        <time>2024-10-19T12:52:21.000Z</time>
      </trkpt>
      <trkpt lat="45.566638" lon="7.82821">
        <ele>485.96011</ele>
        <time>2024-10-19T12:52:29.000Z</time>
      </trkpt>
      <trkpt lat="45.566657" lon="7.828215">
        <ele>486.4501</ele>
        <time>2024-10-19T12:52:40.000Z</time>
      </trkpt>
      <trkpt lat="45.566677" lon="7.828213">
        <ele>486.5751</ele>
        <time>2024-10-19T12:53:10.000Z</time>
      </trkpt>
      <trkpt lat="45.566698" lon="7.828228">
        <ele>486.76007</ele>
        <time>2024-10-19T12:53:17.000Z</time>
      </trkpt>
      <trkpt lat="45.566718" lon="7.828247">
        <ele>486.98505</ele>
        <time>2024-10-19T12:53:21.000Z</time>
      </trkpt>
      <trkpt lat="45.566737" lon="7.828275">
        <ele>487.14502</ele>
        <time>2024-10-19T12:53:24.000Z</time>
      </trkpt>
      <trkpt lat="45.566757" lon="7.828288">
        <ele>487.25504</ele>
        <time>2024-10-19T12:53:27.000Z</time>
      </trkpt>
      <trkpt lat="45.566775" lon="7.828285">
        <ele>487.30502</ele>
        <time>2024-10-19T12:53:29.000Z</time>
      </trkpt>
      <trkpt lat="45.566797" lon="7.828255">
        <ele>487.32501</ele>
        <time>2024-10-19T12:53:33.000Z</time>
      </trkpt>
      <trkpt lat="45.566808" lon="7.828232">
        <ele>487.35001</ele>
        <time>2024-10-19T12:53:35.000Z</time>
      </trkpt>
      <trkpt lat="45.566822" lon="7.828202">
        <ele>487.38998</ele>
        <time>2024-10-19T12:53:38.000Z</time>
      </trkpt>
      <trkpt lat="45.56684" lon="7.828222">
        <ele>487.38501</ele>
        <time>2024-10-19T12:53:59.000Z</time>
      </trkpt>
      <trkpt lat="45.566828" lon="7.828202">
        <ele>487.00006</ele>
        <time>2024-10-19T12:54:20.000Z</time>
      </trkpt>
      <trkpt lat="45.566828" lon="7.828167">
        <ele>486.64008</ele>
        <time>2024-10-19T12:54:22.000Z</time>
      </trkpt>
      <trkpt lat="45.566833" lon="7.828137">
        <ele>486.23007</ele>
        <time>2024-10-19T12:54:24.000Z</time>
      </trkpt>
      <trkpt lat="45.566828" lon="7.828107">
        <ele>485.7851</ele>
        <time>2024-10-19T12:54:26.000Z</time>
      </trkpt>
      <trkpt lat="45.566825" lon="7.828077">
        <ele>485.08014</ele>
        <time>2024-10-19T12:54:28.000Z</time>
      </trkpt>
      <trkpt lat="45.566833" lon="7.828037">
        <ele>484.35513</ele>
        <time>2024-10-19T12:54:31.000Z</time>
      </trkpt>
      <trkpt lat="45.56685" lon="7.828">
        <ele>483.63013</ele>
        <time>2024-10-19T12:54:33.000Z</time>
      </trkpt>
      <trkpt lat="45.566848" lon="7.827967">
        <ele>482.92017</ele>
        <time>2024-10-19T12:54:36.000Z</time>
      </trkpt>
      <trkpt lat="45.56684" lon="7.827942">
        <ele>482.2652</ele>
        <time>2024-10-19T12:54:39.000Z</time>
      </trkpt>
      <trkpt lat="45.566822" lon="7.827933">
        <ele>481.83514</ele>
        <time>2024-10-19T12:54:42.000Z</time>
      </trkpt>
      <trkpt lat="45.566825" lon="7.827897">
        <ele>481.96515</ele>
        <time>2024-10-19T12:54:56.000Z</time>
      </trkpt>
      <trkpt lat="45.566838" lon="7.827868">
        <ele>482.02515</ele>
        <time>2024-10-19T12:54:58.000Z</time>
      </trkpt>
      <trkpt lat="45.566858" lon="7.827873">
        <ele>482.02515</ele>
        <time>2024-10-19T12:55:01.000Z</time>
      </trkpt>
      <trkpt lat="45.566878" lon="7.827885">
        <ele>482.03516</ele>
        <time>2024-10-19T12:55:03.000Z</time>
      </trkpt>
      <trkpt lat="45.566903" lon="7.827883">
        <ele>482.05014</ele>
        <time>2024-10-19T12:55:06.000Z</time>
      </trkpt>
      <trkpt lat="45.566925" lon="7.827887">
        <ele>482.06015</ele>
        <time>2024-10-19T12:55:09.000Z</time>
      </trkpt>
      <trkpt lat="45.566973" lon="7.827872">
        <ele>482.07016</ele>
        <time>2024-10-19T12:55:20.000Z</time>
      </trkpt>
      <trkpt lat="45.566983" lon="7.827847">
        <ele>482.06021</ele>
        <time>2024-10-19T12:55:23.000Z</time>
      </trkpt>
      <trkpt lat="45.567" lon="7.82783">
        <ele>482.01019</ele>
        <time>2024-10-19T12:55:26.000Z</time>
      </trkpt>
      <trkpt lat="45.567027" lon="7.827812">
        <ele>481.97021</ele>
        <time>2024-10-19T12:55:28.000Z</time>
      </trkpt>
      <trkpt lat="45.567047" lon="7.827788">
        <ele>482.16519</ele>
        <time>2024-10-19T12:55:30.000Z</time>
      </trkpt>
      <trkpt lat="45.567068" lon="7.827773">
        <ele>482.36517</ele>
        <time>2024-10-19T12:55:32.000Z</time>
      </trkpt>
      <trkpt lat="45.567082" lon="7.82775">
        <ele>482.56519</ele>
        <time>2024-10-19T12:55:34.000Z</time>
      </trkpt>
      <trkpt lat="45.567098" lon="7.82774">
        <ele>482.77515</ele>
        <time>2024-10-19T12:55:38.000Z</time>
      </trkpt>
      <trkpt lat="45.567115" lon="7.827708">
        <ele>483.0451</ele>
        <time>2024-10-19T12:55:42.000Z</time>
      </trkpt>
      <trkpt lat="45.567125" lon="7.827687">
        <ele>483.34512</ele>
        <time>2024-10-19T12:55:44.000Z</time>
      </trkpt>
      <trkpt lat="45.567142" lon="7.827665">
        <ele>483.58511</ele>
        <time>2024-10-19T12:55:47.000Z</time>
      </trkpt>
      <trkpt lat="45.567158" lon="7.82765">
        <ele>483.7851</ele>
        <time>2024-10-19T12:55:49.000Z</time>
      </trkpt>
      <trkpt lat="45.56717" lon="7.827617">
        <ele>483.93011</ele>
        <time>2024-10-19T12:55:51.000Z</time>
      </trkpt>
      <trkpt lat="45.567188" lon="7.827602">
        <ele>483.95514</ele>
        <time>2024-10-19T12:55:55.000Z</time>
      </trkpt>
      <trkpt lat="45.567193" lon="7.827567">
        <ele>483.87012</ele>
        <time>2024-10-19T12:55:58.000Z</time>
      </trkpt>
      <trkpt lat="45.567203" lon="7.827538">
        <ele>483.8851</ele>
        <time>2024-10-19T12:56:01.000Z</time>
      </trkpt>
      <trkpt lat="45.567208" lon="7.827563">
        <ele>483.94012</ele>
        <time>2024-10-19T12:56:08.000Z</time>
      </trkpt>
      <trkpt lat="45.567223" lon="7.82752">
        <ele>483.96515</ele>
        <time>2024-10-19T12:57:59.000Z</time>
      </trkpt>
      <trkpt lat="45.567243" lon="7.827545">
        <ele>483.96515</ele>
        <time>2024-10-19T12:58:01.000Z</time>
      </trkpt>
      <trkpt lat="45.567258" lon="7.827562">
        <ele>483.98511</ele>
        <time>2024-10-19T12:58:03.000Z</time>
      </trkpt>
      <trkpt lat="45.567285" lon="7.827585">
        <ele>484.0101</ele>
        <time>2024-10-19T12:58:05.000Z</time>
      </trkpt>
      <trkpt lat="45.567313" lon="7.827588">
        <ele>484.03009</ele>
        <time>2024-10-19T12:58:07.000Z</time>
      </trkpt>
      <trkpt lat="45.567338" lon="7.82759">
        <ele>484.05508</ele>
        <time>2024-10-19T12:58:09.000Z</time>
      </trkpt>
      <trkpt lat="45.567358" lon="7.827573">
        <ele>484.10004</ele>
        <time>2024-10-19T12:58:12.000Z</time>
      </trkpt>
      <trkpt lat="45.567378" lon="7.827568">
        <ele>484.22006</ele>
        <time>2024-10-19T12:58:15.000Z</time>
      </trkpt>
      <trkpt lat="45.567397" lon="7.827547">
        <ele>484.36005</ele>
        <time>2024-10-19T12:58:17.000Z</time>
      </trkpt>
      <trkpt lat="45.56741" lon="7.82752">
        <ele>484.53009</ele>
        <time>2024-10-19T12:58:19.000Z</time>
      </trkpt>
      <trkpt lat="45.567427" lon="7.827495">
        <ele>484.71509</ele>
        <time>2024-10-19T12:58:21.000Z</time>
      </trkpt>
      <trkpt lat="45.567447" lon="7.827477">
        <ele>484.86011</ele>
        <time>2024-10-19T12:58:24.000Z</time>
      </trkpt>
      <trkpt lat="45.567462" lon="7.827445">
        <ele>484.98013</ele>
        <time>2024-10-19T12:58:26.000Z</time>
      </trkpt>
      <trkpt lat="45.567477" lon="7.827423">
        <ele>485.12515</ele>
        <time>2024-10-19T12:58:28.000Z</time>
      </trkpt>
      <trkpt lat="45.567498" lon="7.827418">
        <ele>485.27515</ele>
        <time>2024-10-19T12:58:30.000Z</time>
      </trkpt>
      <trkpt lat="45.56752" lon="7.827408">
        <ele>485.46515</ele>
        <time>2024-10-19T12:58:32.000Z</time>
      </trkpt>
      <trkpt lat="45.56753" lon="7.827375">
        <ele>485.68018</ele>
        <time>2024-10-19T12:58:34.000Z</time>
      </trkpt>
      <trkpt lat="45.567552" lon="7.82736">
        <ele>485.83521</ele>
        <time>2024-10-19T12:58:36.000Z</time>
      </trkpt>
      <trkpt lat="45.567562" lon="7.827318">
        <ele>485.87524</ele>
        <time>2024-10-19T12:58:38.000Z</time>
      </trkpt>
      <trkpt lat="45.567572" lon="7.82729">
        <ele>485.87021</ele>
        <time>2024-10-19T12:58:40.000Z</time>
      </trkpt>
      <trkpt lat="45.5676" lon="7.827275">
        <ele>485.91522</ele>
        <time>2024-10-19T12:58:43.000Z</time>
      </trkpt>
      <trkpt lat="45.567617" lon="7.82726">
        <ele>486.02524</ele>
        <time>2024-10-19T12:58:45.000Z</time>
      </trkpt>
      <trkpt lat="45.56763" lon="7.827237">
        <ele>486.14526</ele>
        <time>2024-10-19T12:58:47.000Z</time>
      </trkpt>
      <trkpt lat="45.56765" lon="7.827207">
        <ele>486.27026</ele>
        <time>2024-10-19T12:58:49.000Z</time>
      </trkpt>
      <trkpt lat="45.56767" lon="7.827177">
        <ele>486.44525</ele>
        <time>2024-10-19T12:58:51.000Z</time>
      </trkpt>
      <trkpt lat="45.567683" lon="7.827147">
        <ele>486.64526</ele>
        <time>2024-10-19T12:58:53.000Z</time>
      </trkpt>
      <trkpt lat="45.567702" lon="7.82712">
        <ele>486.92026</ele>
        <time>2024-10-19T12:58:55.000Z</time>
      </trkpt>
      <trkpt lat="45.567715" lon="7.827102">
        <ele>487.20026</ele>
        <time>2024-10-19T12:58:57.000Z</time>
      </trkpt>
      <trkpt lat="45.567735" lon="7.827078">
        <ele>487.51025</ele>
        <time>2024-10-19T12:58:59.000Z</time>
      </trkpt>
      <trkpt lat="45.567753" lon="7.82705">
        <ele>487.83023</ele>
        <time>2024-10-19T12:59:01.000Z</time>
      </trkpt>
      <trkpt lat="45.567772" lon="7.82703">
        <ele>488.18024</ele>
        <time>2024-10-19T12:59:03.000Z</time>
      </trkpt>
      <trkpt lat="45.567783" lon="7.827008">
        <ele>488.58023</ele>
        <time>2024-10-19T12:59:05.000Z</time>
      </trkpt>
      <trkpt lat="45.567792" lon="7.826975">
        <ele>489.01019</ele>
        <time>2024-10-19T12:59:08.000Z</time>
      </trkpt>
      <trkpt lat="45.567807" lon="7.826953">
        <ele>489.47519</ele>
        <time>2024-10-19T12:59:10.000Z</time>
      </trkpt>
      <trkpt lat="45.567823" lon="7.826925">
        <ele>489.99017</ele>
        <time>2024-10-19T12:59:12.000Z</time>
      </trkpt>
      <trkpt lat="45.567842" lon="7.826907">
        <ele>490.50018</ele>
        <time>2024-10-19T12:59:14.000Z</time>
      </trkpt>
      <trkpt lat="45.567858" lon="7.826893">
        <ele>491.03018</ele>
        <time>2024-10-19T12:59:16.000Z</time>
      </trkpt>
      <trkpt lat="45.567872" lon="7.82687">
        <ele>491.60016</ele>
        <time>2024-10-19T12:59:18.000Z</time>
      </trkpt>
      <trkpt lat="45.56788" lon="7.826842">
        <ele>492.23511</ele>
        <time>2024-10-19T12:59:20.000Z</time>
      </trkpt>
      <trkpt lat="45.567893" lon="7.826802">
        <ele>492.96011</ele>
        <time>2024-10-19T12:59:23.000Z</time>
      </trkpt>
      <trkpt lat="45.567903" lon="7.82677">
        <ele>493.71011</ele>
        <time>2024-10-19T12:59:25.000Z</time>
      </trkpt>
      <trkpt lat="45.567907" lon="7.826743">
        <ele>494.46515</ele>
        <time>2024-10-19T12:59:27.000Z</time>
      </trkpt>
      <trkpt lat="45.567912" lon="7.826705">
        <ele>495.24014</ele>
        <time>2024-10-19T12:59:29.000Z</time>
      </trkpt>
      <trkpt lat="45.567912" lon="7.826672">
        <ele>496.14014</ele>
        <time>2024-10-19T12:59:32.000Z</time>
      </trkpt>
      <trkpt lat="45.56792" lon="7.826597">
        <ele>496.80511</ele>
        <time>2024-10-19T13:00:02.000Z</time>
      </trkpt>
      <trkpt lat="45.56794" lon="7.826602">
        <ele>497.45514</ele>
        <time>2024-10-19T13:00:07.000Z</time>
      </trkpt>
      <trkpt lat="45.567935" lon="7.82664">
        <ele>498.17514</ele>
        <time>2024-10-19T13:00:33.000Z</time>
      </trkpt>
      <trkpt lat="45.567915" lon="7.826613">
        <ele>498.84015</ele>
        <time>2024-10-19T13:00:37.000Z</time>
      </trkpt>
      <trkpt lat="45.567895" lon="7.826597">
        <ele>499.45514</ele>
        <time>2024-10-19T13:00:39.000Z</time>
      </trkpt>
      <trkpt lat="45.567875" lon="7.826562">
        <ele>500.01514</ele>
        <time>2024-10-19T13:00:42.000Z</time>
      </trkpt>
      <trkpt lat="45.567867" lon="7.826538">
        <ele>500.49014</ele>
        <time>2024-10-19T13:00:45.000Z</time>
      </trkpt>
      <trkpt lat="45.567883" lon="7.826523">
        <ele>500.85513</ele>
        <time>2024-10-19T13:00:47.000Z</time>
      </trkpt>
      <trkpt lat="45.56791" lon="7.826488">
        <ele>501.12012</ele>
        <time>2024-10-19T13:00:49.000Z</time>
      </trkpt>
      <trkpt lat="45.567938" lon="7.826457">
        <ele>501.2601</ele>
        <time>2024-10-19T13:00:51.000Z</time>
      </trkpt>
      <trkpt lat="45.567962" lon="7.826425">
        <ele>501.2851</ele>
        <time>2024-10-19T13:00:53.000Z</time>
      </trkpt>
      <trkpt lat="45.567965" lon="7.826398">
        <ele>501.20508</ele>
        <time>2024-10-19T13:00:56.000Z</time>
      </trkpt>
      <trkpt lat="45.567998" lon="7.82632">
        <ele>501.08008</ele>
        <time>2024-10-19T13:01:26.000Z</time>
      </trkpt>
      <trkpt lat="45.568" lon="7.826272">
        <ele>500.87006</ele>
        <time>2024-10-19T13:01:28.000Z</time>
      </trkpt>
      <trkpt lat="45.568" lon="7.82624">
        <ele>500.61011</ele>
        <time>2024-10-19T13:01:34.000Z</time>
      </trkpt>
      <trkpt lat="45.567985" lon="7.826265">
        <ele>500.0451</ele>
        <time>2024-10-19T13:01:57.000Z</time>
      </trkpt>
      <trkpt lat="45.567998" lon="7.826242">
        <ele>499.34512</ele>
        <time>2024-10-19T13:01:59.000Z</time>
      </trkpt>
      <trkpt lat="45.56802" lon="7.82621">
        <ele>498.60507</ele>
        <time>2024-10-19T13:02:01.000Z</time>
      </trkpt>
      <trkpt lat="45.568025" lon="7.82618">
        <ele>497.82007</ele>
        <time>2024-10-19T13:02:02.000Z</time>
      </trkpt>
      <trkpt lat="45.568027" lon="7.826132">
        <ele>496.92007</ele>
        <time>2024-10-19T13:02:04.000Z</time>
      </trkpt>
      <trkpt lat="45.568038" lon="7.82611">
        <ele>496.22006</ele>
        <time>2024-10-19T13:02:05.000Z</time>
      </trkpt>
      <trkpt lat="45.568055" lon="7.826088">
        <ele>495.5401</ele>
        <time>2024-10-19T13:02:06.000Z</time>
      </trkpt>
      <trkpt lat="45.568068" lon="7.82606">
        <ele>494.76007</ele>
        <time>2024-10-19T13:02:08.000Z</time>
      </trkpt>
      <trkpt lat="45.568068" lon="7.82603">
        <ele>494.02509</ele>
        <time>2024-10-19T13:02:11.000Z</time>
      </trkpt>
      <trkpt lat="45.568073" lon="7.826003">
        <ele>493.2601</ele>
        <time>2024-10-19T13:02:13.000Z</time>
      </trkpt>
      <trkpt lat="45.56809" lon="7.82598">
        <ele>492.45514</ele>
        <time>2024-10-19T13:02:15.000Z</time>
      </trkpt>
      <trkpt lat="45.568113" lon="7.825962">
        <ele>491.68011</ele>
        <time>2024-10-19T13:02:17.000Z</time>
      </trkpt>
      <trkpt lat="45.568133" lon="7.825935">
        <ele>490.94513</ele>
        <time>2024-10-19T13:02:19.000Z</time>
      </trkpt>
      <trkpt lat="45.568155" lon="7.825907">
        <ele>490.25513</ele>
        <time>2024-10-19T13:02:22.000Z</time>
      </trkpt>
      <trkpt lat="45.568167" lon="7.825877">
        <ele>489.64014</ele>
        <time>2024-10-19T13:02:24.000Z</time>
      </trkpt>
      <trkpt lat="45.568178" lon="7.825847">
        <ele>489.06512</ele>
        <time>2024-10-19T13:02:26.000Z</time>
      </trkpt>
      <trkpt lat="45.568197" lon="7.825815">
        <ele>488.53012</ele>
        <time>2024-10-19T13:02:28.000Z</time>
      </trkpt>
      <trkpt lat="45.568212" lon="7.825793">
        <ele>487.93512</ele>
        <time>2024-10-19T13:02:30.000Z</time>
      </trkpt>
      <trkpt lat="45.568223" lon="7.82577">
        <ele>487.40512</ele>
        <time>2024-10-19T13:02:33.000Z</time>
      </trkpt>
      <trkpt lat="45.568233" lon="7.825747">
        <ele>486.90009</ele>
        <time>2024-10-19T13:02:35.000Z</time>
      </trkpt>
      <trkpt lat="45.568243" lon="7.825723">
        <ele>486.58511</ele>
        <time>2024-10-19T13:02:37.000Z</time>
      </trkpt>
      <trkpt lat="45.56826" lon="7.825698">
        <ele>486.34512</ele>
        <time>2024-10-19T13:02:39.000Z</time>
      </trkpt>
      <trkpt lat="45.568287" lon="7.82568">
        <ele>486.11017</ele>
        <time>2024-10-19T13:02:41.000Z</time>
      </trkpt>
      <trkpt lat="45.568312" lon="7.825665">
        <ele>485.88516</ele>
        <time>2024-10-19T13:02:43.000Z</time>
      </trkpt>
      <trkpt lat="45.568328" lon="7.825643">
        <ele>485.63516</ele>
        <time>2024-10-19T13:02:46.000Z</time>
      </trkpt>
      <trkpt lat="45.568347" lon="7.825622">
        <ele>485.41519</ele>
        <time>2024-10-19T13:02:48.000Z</time>
      </trkpt>
      <trkpt lat="45.568375" lon="7.825603">
        <ele>485.2002</ele>
        <time>2024-10-19T13:02:50.000Z</time>
      </trkpt>
      <trkpt lat="45.56839" lon="7.825588">
        <ele>484.98022</ele>
        <time>2024-10-19T13:02:51.000Z</time>
      </trkpt>
      <trkpt lat="45.568408" lon="7.825565">
        <ele>484.74521</ele>
        <time>2024-10-19T13:02:53.000Z</time>
      </trkpt>
      <trkpt lat="45.56842" lon="7.825543">
        <ele>484.58521</ele>
        <time>2024-10-19T13:02:56.000Z</time>
      </trkpt>
      <trkpt lat="45.56845" lon="7.825523">
        <ele>484.6402</ele>
        <time>2024-10-19T13:03:27.000Z</time>
      </trkpt>
      <trkpt lat="45.56846" lon="7.825493">
        <ele>484.7002</ele>
        <time>2024-10-19T13:03:30.000Z</time>
      </trkpt>
      <trkpt lat="45.568472" lon="7.825472">
        <ele>484.78522</ele>
        <time>2024-10-19T13:03:32.000Z</time>
      </trkpt>
      <trkpt lat="45.568483" lon="7.82544">
        <ele>484.88022</ele>
        <time>2024-10-19T13:03:35.000Z</time>
      </trkpt>
      <trkpt lat="45.568502" lon="7.825413">
        <ele>485.01523</ele>
        <time>2024-10-19T13:03:38.000Z</time>
      </trkpt>
      <trkpt lat="45.568515" lon="7.825392">
        <ele>485.16022</ele>
        <time>2024-10-19T13:03:41.000Z</time>
      </trkpt>
      <trkpt lat="45.56852" lon="7.825362">
        <ele>485.34521</ele>
        <time>2024-10-19T13:03:47.000Z</time>
      </trkpt>
      <trkpt lat="45.56853" lon="7.825338">
        <ele>485.58023</ele>
        <time>2024-10-19T13:03:49.000Z</time>
      </trkpt>
      <trkpt lat="45.568537" lon="7.825297">
        <ele>485.85522</ele>
        <time>2024-10-19T13:03:51.000Z</time>
      </trkpt>
      <trkpt lat="45.568543" lon="7.825258">
        <ele>486.17023</ele>
        <time>2024-10-19T13:03:53.000Z</time>
      </trkpt>
      <trkpt lat="45.568547" lon="7.82523">
        <ele>486.56021</ele>
        <time>2024-10-19T13:03:55.000Z</time>
      </trkpt>
      <trkpt lat="45.568552" lon="7.825195">
        <ele>486.99518</ele>
        <time>2024-10-19T13:03:58.000Z</time>
      </trkpt>
      <trkpt lat="45.568558" lon="7.825165">
        <ele>487.51514</ele>
        <time>2024-10-19T13:04:01.000Z</time>
      </trkpt>
      <trkpt lat="45.56857" lon="7.825138">
        <ele>488.05014</ele>
        <time>2024-10-19T13:04:03.000Z</time>
      </trkpt>
      <trkpt lat="45.568585" lon="7.825098">
        <ele>488.61017</ele>
        <time>2024-10-19T13:04:05.000Z</time>
      </trkpt>
      <trkpt lat="45.568593" lon="7.825055">
        <ele>489.16513</ele>
        <time>2024-10-19T13:04:07.000Z</time>
      </trkpt>
      <trkpt lat="45.568595" lon="7.82502">
        <ele>489.7251</ele>
        <time>2024-10-19T13:04:09.000Z</time>
      </trkpt>
      <trkpt lat="45.568587" lon="7.824982">
        <ele>490.34506</ele>
        <time>2024-10-19T13:04:12.000Z</time>
      </trkpt>
      <trkpt lat="45.568582" lon="7.824952">
        <ele>490.98007</ele>
        <time>2024-10-19T13:04:14.000Z</time>
      </trkpt>
      <trkpt lat="45.568578" lon="7.824912">
        <ele>491.60507</ele>
        <time>2024-10-19T13:04:16.000Z</time>
      </trkpt>
      <trkpt lat="45.568582" lon="7.824875">
        <ele>492.10507</ele>
        <time>2024-10-19T13:04:18.000Z</time>
      </trkpt>
      <trkpt lat="45.568588" lon="7.824842">
        <ele>492.63507</ele>
        <time>2024-10-19T13:04:20.000Z</time>
      </trkpt>
      <trkpt lat="45.568598" lon="7.824798">
        <ele>493.17007</ele>
        <time>2024-10-19T13:04:22.000Z</time>
      </trkpt>
      <trkpt lat="45.5686" lon="7.82477">
        <ele>493.72006</ele>
        <time>2024-10-19T13:04:25.000Z</time>
      </trkpt>
      <trkpt lat="45.568598" lon="7.82474">
        <ele>494.24005</ele>
        <time>2024-10-19T13:04:27.000Z</time>
      </trkpt>
      <trkpt lat="45.568608" lon="7.824713">
        <ele>494.72504</ele>
        <time>2024-10-19T13:04:29.000Z</time>
      </trkpt>
      <trkpt lat="45.568605" lon="7.82468">
        <ele>495.17505</ele>
        <time>2024-10-19T13:04:32.000Z</time>
      </trkpt>
      <trkpt lat="45.56861" lon="7.824655">
        <ele>495.61505</ele>
        <time>2024-10-19T13:04:34.000Z</time>
      </trkpt>
      <trkpt lat="45.568623" lon="7.824623">
        <ele>495.95004</ele>
        <time>2024-10-19T13:04:36.000Z</time>
      </trkpt>
      <trkpt lat="45.568643" lon="7.824578">
        <ele>496.15005</ele>
        <time>2024-10-19T13:04:38.000Z</time>
      </trkpt>
      <trkpt lat="45.568655" lon="7.82455">
        <ele>496.24506</ele>
        <time>2024-10-19T13:04:39.000Z</time>
      </trkpt>
      <trkpt lat="45.568667" lon="7.824525">
        <ele>496.26508</ele>
        <time>2024-10-19T13:04:40.000Z</time>
      </trkpt>
      <trkpt lat="45.568673" lon="7.824497">
        <ele>496.1651</ele>
        <time>2024-10-19T13:04:41.000Z</time>
      </trkpt>
      <trkpt lat="45.568688" lon="7.824453">
        <ele>495.95508</ele>
        <time>2024-10-19T13:04:43.000Z</time>
      </trkpt>
      <trkpt lat="45.568707" lon="7.82443">
        <ele>495.64508</ele>
        <time>2024-10-19T13:04:45.000Z</time>
      </trkpt>
      <trkpt lat="45.568728" lon="7.824412">
        <ele>495.25507</ele>
        <time>2024-10-19T13:04:47.000Z</time>
      </trkpt>
      <trkpt lat="45.568757" lon="7.824398">
        <ele>494.82013</ele>
        <time>2024-10-19T13:04:49.000Z</time>
      </trkpt>
      <trkpt lat="45.568778" lon="7.824387">
        <ele>494.33514</ele>
        <time>2024-10-19T13:04:51.000Z</time>
      </trkpt>
      <trkpt lat="45.568792" lon="7.824368">
        <ele>493.84015</ele>
        <time>2024-10-19T13:04:53.000Z</time>
      </trkpt>
      <trkpt lat="45.56881" lon="7.824363">
        <ele>493.29013</ele>
        <time>2024-10-19T13:04:55.000Z</time>
      </trkpt>
      <trkpt lat="45.568835" lon="7.824353">
        <ele>492.67514</ele>
        <time>2024-10-19T13:04:57.000Z</time>
      </trkpt>
      <trkpt lat="45.568852" lon="7.82434">
        <ele>492.05518</ele>
        <time>2024-10-19T13:04:58.000Z</time>
      </trkpt>
      <trkpt lat="45.568875" lon="7.824323">
        <ele>491.43515</ele>
        <time>2024-10-19T13:05:00.000Z</time>
      </trkpt>
      <trkpt lat="45.568888" lon="7.824297">
        <ele>490.93515</ele>
        <time>2024-10-19T13:05:03.000Z</time>
      </trkpt>
      <trkpt lat="45.568888" lon="7.82426">
        <ele>490.53516</ele>
        <time>2024-10-19T13:05:06.000Z</time>
      </trkpt>
      <trkpt lat="45.568902" lon="7.824228">
        <ele>490.21518</ele>
        <time>2024-10-19T13:05:09.000Z</time>
      </trkpt>
      <trkpt lat="45.568913" lon="7.824208">
        <ele>490.00018</ele>
        <time>2024-10-19T13:05:12.000Z</time>
      </trkpt>
      <trkpt lat="45.568912" lon="7.824172">
        <ele>489.76523</ele>
        <time>2024-10-19T13:06:10.000Z</time>
      </trkpt>
      <trkpt lat="45.568932" lon="7.82414">
        <ele>489.59024</ele>
        <time>2024-10-19T13:06:12.000Z</time>
      </trkpt>
      <trkpt lat="45.56895" lon="7.824123">
        <ele>489.50024</ele>
        <time>2024-10-19T13:06:14.000Z</time>
      </trkpt>
      <trkpt lat="45.568967" lon="7.824107">
        <ele>489.47021</ele>
        <time>2024-10-19T13:06:16.000Z</time>
      </trkpt>
      <trkpt lat="45.568982" lon="7.824078">
        <ele>489.49023</ele>
        <time>2024-10-19T13:06:18.000Z</time>
      </trkpt>
      <trkpt lat="45.569" lon="7.824057">
        <ele>489.57025</ele>
        <time>2024-10-19T13:06:21.000Z</time>
      </trkpt>
      <trkpt lat="45.569017" lon="7.824042">
        <ele>489.88525</ele>
        <time>2024-10-19T13:06:25.000Z</time>
      </trkpt>
      <trkpt lat="45.569032" lon="7.824015">
        <ele>490.33026</ele>
        <time>2024-10-19T13:06:29.000Z</time>
      </trkpt>
      <trkpt lat="45.569045" lon="7.82397">
        <ele>490.81024</ele>
        <time>2024-10-19T13:06:31.000Z</time>
      </trkpt>
      <trkpt lat="45.569058" lon="7.823947">
        <ele>491.2702</ele>
        <time>2024-10-19T13:06:32.000Z</time>
      </trkpt>
      <trkpt lat="45.56906" lon="7.823907">
        <ele>491.63519</ele>
        <time>2024-10-19T13:06:34.000Z</time>
      </trkpt>
      <trkpt lat="45.569057" lon="7.823867">
        <ele>491.94019</ele>
        <time>2024-10-19T13:06:37.000Z</time>
      </trkpt>
      <trkpt lat="45.569057" lon="7.823833">
        <ele>492.23517</ele>
        <time>2024-10-19T13:06:39.000Z</time>
      </trkpt>
      <trkpt lat="45.569068" lon="7.823803">
        <ele>492.51514</ele>
        <time>2024-10-19T13:06:41.000Z</time>
      </trkpt>
      <trkpt lat="45.569088" lon="7.823772">
        <ele>492.71515</ele>
        <time>2024-10-19T13:06:43.000Z</time>
      </trkpt>
      <trkpt lat="45.569107" lon="7.82374">
        <ele>492.75015</ele>
        <time>2024-10-19T13:06:45.000Z</time>
      </trkpt>
      <trkpt lat="45.569127" lon="7.823705">
        <ele>492.59015</ele>
        <time>2024-10-19T13:06:47.000Z</time>
      </trkpt>
      <trkpt lat="45.569135" lon="7.82368">
        <ele>492.31512</ele>
        <time>2024-10-19T13:06:48.000Z</time>
      </trkpt>
      <trkpt lat="45.569153" lon="7.823632">
        <ele>491.93011</ele>
        <time>2024-10-19T13:06:50.000Z</time>
      </trkpt>
      <trkpt lat="45.56916" lon="7.823605">
        <ele>491.43011</ele>
        <time>2024-10-19T13:06:51.000Z</time>
      </trkpt>
      <trkpt lat="45.569177" lon="7.823588">
        <ele>490.90512</ele>
        <time>2024-10-19T13:06:52.000Z</time>
      </trkpt>
      <trkpt lat="45.569193" lon="7.823553">
        <ele>490.24014</ele>
        <time>2024-10-19T13:06:54.000Z</time>
      </trkpt>
      <trkpt lat="45.569215" lon="7.823528">
        <ele>489.48517</ele>
        <time>2024-10-19T13:06:56.000Z</time>
      </trkpt>
      <trkpt lat="45.569223" lon="7.823487">
        <ele>488.65021</ele>
        <time>2024-10-19T13:06:59.000Z</time>
      </trkpt>
      <trkpt lat="45.56923" lon="7.82346">
        <ele>487.77521</ele>
        <time>2024-10-19T13:07:00.000Z</time>
      </trkpt>
      <trkpt lat="45.569223" lon="7.823428">
        <ele>486.87018</ele>
        <time>2024-10-19T13:07:01.000Z</time>
      </trkpt>
      <trkpt lat="45.569225" lon="7.8234">
        <ele>485.81015</ele>
        <time>2024-10-19T13:07:02.000Z</time>
      </trkpt>
      <trkpt lat="45.569225" lon="7.823372">
        <ele>484.68515</ele>
        <time>2024-10-19T13:07:03.000Z</time>
      </trkpt>
      <trkpt lat="45.569225" lon="7.82333">
        <ele>483.5502</ele>
        <time>2024-10-19T13:07:05.000Z</time>
      </trkpt>
      <trkpt lat="45.569227" lon="7.823303">
        <ele>482.40521</ele>
        <time>2024-10-19T13:07:07.000Z</time>
      </trkpt>
      <trkpt lat="45.569232" lon="7.823275">
        <ele>481.31021</ele>
        <time>2024-10-19T13:07:09.000Z</time>
      </trkpt>
      <trkpt lat="45.569245" lon="7.823225">
        <ele>480.23022</ele>
        <time>2024-10-19T13:07:11.000Z</time>
      </trkpt>
      <trkpt lat="45.569245" lon="7.823173">
        <ele>479.22525</ele>
        <time>2024-10-19T13:07:13.000Z</time>
      </trkpt>
      <trkpt lat="45.569252" lon="7.823133">
        <ele>478.28027</ele>
        <time>2024-10-19T13:07:15.000Z</time>
      </trkpt>
      <trkpt lat="45.569253" lon="7.823102">
        <ele>477.41025</ele>
        <time>2024-10-19T13:07:17.000Z</time>
      </trkpt>
      <trkpt lat="45.56925" lon="7.823053">
        <ele>476.71524</ele>
        <time>2024-10-19T13:07:19.000Z</time>
      </trkpt>
      <trkpt lat="45.569242" lon="7.82302">
        <ele>476.14023</ele>
        <time>2024-10-19T13:07:21.000Z</time>
      </trkpt>
      <trkpt lat="45.56923" lon="7.822985">
        <ele>475.63022</ele>
        <time>2024-10-19T13:07:23.000Z</time>
      </trkpt>
      <trkpt lat="45.569212" lon="7.822947">
        <ele>475.3002</ele>
        <time>2024-10-19T13:07:25.000Z</time>
      </trkpt>
      <trkpt lat="45.569217" lon="7.822912">
        <ele>475.08017</ele>
        <time>2024-10-19T13:07:28.000Z</time>
      </trkpt>
      <trkpt lat="45.569242" lon="7.822878">
        <ele>474.85516</ele>
        <time>2024-10-19T13:07:30.000Z</time>
      </trkpt>
      <trkpt lat="45.56927" lon="7.822858">
        <ele>474.75519</ele>
        <time>2024-10-19T13:07:32.000Z</time>
      </trkpt>
      <trkpt lat="45.56929" lon="7.822857">
        <ele>474.74017</ele>
        <time>2024-10-19T13:07:33.000Z</time>
      </trkpt>
      <trkpt lat="45.569317" lon="7.822857">
        <ele>474.74017</ele>
        <time>2024-10-19T13:07:35.000Z</time>
      </trkpt>
      <trkpt lat="45.569342" lon="7.822835">
        <ele>474.83017</ele>
        <time>2024-10-19T13:07:38.000Z</time>
      </trkpt>
      <trkpt lat="45.569353" lon="7.822798">
        <ele>474.93018</ele>
        <time>2024-10-19T13:07:40.000Z</time>
      </trkpt>
      <trkpt lat="45.569372" lon="7.822763">
        <ele>475.03018</ele>
        <time>2024-10-19T13:07:42.000Z</time>
      </trkpt>
      <trkpt lat="45.569383" lon="7.822742">
        <ele>475.14014</ele>
        <time>2024-10-19T13:07:43.000Z</time>
      </trkpt>
      <trkpt lat="45.569407" lon="7.822717">
        <ele>475.24512</ele>
        <time>2024-10-19T13:07:45.000Z</time>
      </trkpt>
      <trkpt lat="45.569422" lon="7.822688">
        <ele>475.37012</ele>
        <time>2024-10-19T13:07:47.000Z</time>
      </trkpt>
      <trkpt lat="45.569437" lon="7.822662">
        <ele>475.47516</ele>
        <time>2024-10-19T13:07:49.000Z</time>
      </trkpt>
      <trkpt lat="45.569432" lon="7.822632">
        <ele>475.58014</ele>
        <time>2024-10-19T13:07:51.000Z</time>
      </trkpt>
      <trkpt lat="45.569418" lon="7.822598">
        <ele>475.6351</ele>
        <time>2024-10-19T13:07:53.000Z</time>
      </trkpt>
      <trkpt lat="45.569397" lon="7.822567">
        <ele>475.69009</ele>
        <time>2024-10-19T13:07:55.000Z</time>
      </trkpt>
      <trkpt lat="45.569388" lon="7.822543">
        <ele>475.74008</ele>
        <time>2024-10-19T13:07:56.000Z</time>
      </trkpt>
      <trkpt lat="45.569383" lon="7.822518">
        <ele>475.77509</ele>
        <time>2024-10-19T13:07:57.000Z</time>
      </trkpt>
      <trkpt lat="45.56937" lon="7.822472">
        <ele>475.73511</ele>
        <time>2024-10-19T13:07:59.000Z</time>
      </trkpt>
      <trkpt lat="45.56936" lon="7.822435">
        <ele>475.64511</ele>
        <time>2024-10-19T13:08:01.000Z</time>
      </trkpt>
      <trkpt lat="45.569342" lon="7.822405">
        <ele>475.44012</ele>
        <time>2024-10-19T13:08:03.000Z</time>
      </trkpt>
      <trkpt lat="45.569323" lon="7.822373">
        <ele>475.17514</ele>
        <time>2024-10-19T13:08:05.000Z</time>
      </trkpt>
      <trkpt lat="45.569323" lon="7.822337">
        <ele>474.93512</ele>
        <time>2024-10-19T13:08:07.000Z</time>
      </trkpt>
      <trkpt lat="45.56932" lon="7.822307">
        <ele>474.64508</ele>
        <time>2024-10-19T13:08:10.000Z</time>
      </trkpt>
      <trkpt lat="45.569312" lon="7.82228">
        <ele>474.31006</ele>
        <time>2024-10-19T13:08:11.000Z</time>
      </trkpt>
      <trkpt lat="45.569302" lon="7.822252">
        <ele>474.00504</ele>
        <time>2024-10-19T13:08:12.000Z</time>
      </trkpt>
      <trkpt lat="45.569293" lon="7.822227">
        <ele>473.61505</ele>
        <time>2024-10-19T13:08:13.000Z</time>
      </trkpt>
      <trkpt lat="45.569277" lon="7.822182">
        <ele>473.20502</ele>
        <time>2024-10-19T13:08:15.000Z</time>
      </trkpt>
      <trkpt lat="45.569262" lon="7.822145">
        <ele>472.81503</ele>
        <time>2024-10-19T13:08:17.000Z</time>
      </trkpt>
      <trkpt lat="45.569252" lon="7.822098">
        <ele>472.39508</ele>
        <time>2024-10-19T13:08:19.000Z</time>
      </trkpt>
      <trkpt lat="45.56923" lon="7.822067">
        <ele>471.96005</ele>
        <time>2024-10-19T13:08:21.000Z</time>
      </trkpt>
      <trkpt lat="45.569213" lon="7.822083">
        <ele>471.47504</ele>
        <time>2024-10-19T13:08:26.000Z</time>
      </trkpt>
      <trkpt lat="45.569215" lon="7.822122">
        <ele>471.01505</ele>
        <time>2024-10-19T13:08:28.000Z</time>
      </trkpt>
      <trkpt lat="45.569212" lon="7.822152">
        <ele>470.52505</ele>
        <time>2024-10-19T13:08:30.000Z</time>
      </trkpt>
      <trkpt lat="45.569205" lon="7.822177">
        <ele>470.00507</ele>
        <time>2024-10-19T13:08:32.000Z</time>
      </trkpt>
      <trkpt lat="45.569197" lon="7.822207">
        <ele>469.43512</ele>
        <time>2024-10-19T13:08:35.000Z</time>
      </trkpt>
      <trkpt lat="45.569182" lon="7.822228">
        <ele>468.85513</ele>
        <time>2024-10-19T13:08:38.000Z</time>
      </trkpt>
      <trkpt lat="45.569167" lon="7.822262">
        <ele>468.28516</ele>
        <time>2024-10-19T13:08:40.000Z</time>
      </trkpt>
      <trkpt lat="45.569153" lon="7.822293">
        <ele>467.74512</ele>
        <time>2024-10-19T13:08:42.000Z</time>
      </trkpt>
      <trkpt lat="45.569135" lon="7.82232">
        <ele>467.23511</ele>
        <time>2024-10-19T13:08:44.000Z</time>
      </trkpt>
      <trkpt lat="45.569108" lon="7.822343">
        <ele>466.74512</ele>
        <time>2024-10-19T13:08:46.000Z</time>
      </trkpt>
      <trkpt lat="45.569088" lon="7.822338">
        <ele>466.25513</ele>
        <time>2024-10-19T13:08:48.000Z</time>
      </trkpt>
      <trkpt lat="45.569072" lon="7.822352">
        <ele>465.80511</ele>
        <time>2024-10-19T13:08:50.000Z</time>
      </trkpt>
      <trkpt lat="45.569052" lon="7.822368">
        <ele>465.38516</ele>
        <time>2024-10-19T13:08:56.000Z</time>
      </trkpt>
      <trkpt lat="45.569027" lon="7.822373">
        <ele>465.00015</ele>
        <time>2024-10-19T13:08:58.000Z</time>
      </trkpt>
      <trkpt lat="45.569008" lon="7.822372">
        <ele>464.64517</ele>
        <time>2024-10-19T13:08:59.000Z</time>
      </trkpt>
      <trkpt lat="45.568987" lon="7.82237">
        <ele>464.31512</ele>
        <time>2024-10-19T13:09:01.000Z</time>
      </trkpt>
      <trkpt lat="45.568973" lon="7.8224">
        <ele>463.99518</ele>
        <time>2024-10-19T13:09:04.000Z</time>
      </trkpt>
      <trkpt lat="45.56899" lon="7.822418">
        <ele>463.66519</ele>
        <time>2024-10-19T13:09:09.000Z</time>
      </trkpt>
      <trkpt lat="45.56896" lon="7.82239">
        <ele>463.36517</ele>
        <time>2024-10-19T13:09:34.000Z</time>
      </trkpt>
      <trkpt lat="45.568945" lon="7.822373">
        <ele>463.09018</ele>
        <time>2024-10-19T13:09:36.000Z</time>
      </trkpt>
      <trkpt lat="45.568932" lon="7.822348">
        <ele>462.85516</ele>
        <time>2024-10-19T13:09:39.000Z</time>
      </trkpt>
      <trkpt lat="45.56891" lon="7.822343">
        <ele>462.56519</ele>
        <time>2024-10-19T13:09:43.000Z</time>
      </trkpt>
      <trkpt lat="45.568887" lon="7.822348">
        <ele>462.3002</ele>
        <time>2024-10-19T13:09:45.000Z</time>
      </trkpt>
      <trkpt lat="45.568863" lon="7.822343">
        <ele>462.03522</ele>
        <time>2024-10-19T13:09:47.000Z</time>
      </trkpt>
      <trkpt lat="45.568845" lon="7.822333">
        <ele>461.78018</ele>
        <time>2024-10-19T13:09:49.000Z</time>
      </trkpt>
      <trkpt lat="45.568825" lon="7.822317">
        <ele>461.48517</ele>
        <time>2024-10-19T13:09:51.000Z</time>
      </trkpt>
      <trkpt lat="45.568805" lon="7.822308">
        <ele>461.15512</ele>
        <time>2024-10-19T13:09:53.000Z</time>
      </trkpt>
      <trkpt lat="45.56879" lon="7.822283">
        <ele>460.82513</ele>
        <time>2024-10-19T13:09:55.000Z</time>
      </trkpt>
      <trkpt lat="45.568777" lon="7.822258">
        <ele>460.49017</ele>
        <time>2024-10-19T13:09:57.000Z</time>
      </trkpt>
      <trkpt lat="45.568762" lon="7.822232">
        <ele>460.18515</ele>
        <time>2024-10-19T13:09:59.000Z</time>
      </trkpt>
      <trkpt lat="45.568738" lon="7.822205">
        <ele>459.88019</ele>
        <time>2024-10-19T13:10:01.000Z</time>
      </trkpt>
      <trkpt lat="45.568712" lon="7.822183">
        <ele>459.56519</ele>
        <time>2024-10-19T13:10:03.000Z</time>
      </trkpt>
      <trkpt lat="45.568692" lon="7.8222">
        <ele>459.25018</ele>
        <time>2024-10-19T13:10:07.000Z</time>
      </trkpt>
      <trkpt lat="45.568675" lon="7.822218">
        <ele>458.93018</ele>
        <time>2024-10-19T13:10:11.000Z</time>
      </trkpt>
      <trkpt lat="45.56866" lon="7.822242">
        <ele>458.57016</ele>
        <time>2024-10-19T13:10:14.000Z</time>
      </trkpt>
      <trkpt lat="45.568652" lon="7.822272">
        <ele>458.18018</ele>
        <time>2024-10-19T13:10:16.000Z</time>
      </trkpt>
      <trkpt lat="45.56863" lon="7.822285">
        <ele>457.77515</ele>
        <time>2024-10-19T13:10:19.000Z</time>
      </trkpt>
      <trkpt lat="45.568618" lon="7.822307">
        <ele>457.34015</ele>
        <time>2024-10-19T13:10:23.000Z</time>
      </trkpt>
      <trkpt lat="45.568613" lon="7.822333">
        <ele>456.93011</ele>
        <time>2024-10-19T13:10:25.000Z</time>
      </trkpt>
      <trkpt lat="45.568607" lon="7.82236">
        <ele>456.58014</ele>
        <time>2024-10-19T13:10:28.000Z</time>
      </trkpt>
      <trkpt lat="45.568607" lon="7.822387">
        <ele>456.25015</ele>
        <time>2024-10-19T13:10:31.000Z</time>
      </trkpt>
      <trkpt lat="45.568622" lon="7.82241">
        <ele>456.00513</ele>
        <time>2024-10-19T13:10:35.000Z</time>
      </trkpt>
      <trkpt lat="45.56864" lon="7.822427">
        <ele>455.7601</ele>
        <time>2024-10-19T13:10:38.000Z</time>
      </trkpt>
      <trkpt lat="45.568657" lon="7.822437">
        <ele>455.5101</ele>
        <time>2024-10-19T13:10:40.000Z</time>
      </trkpt>
      <trkpt lat="45.568672" lon="7.822462">
        <ele>455.26514</ele>
        <time>2024-10-19T13:10:43.000Z</time>
      </trkpt>
      <trkpt lat="45.568678" lon="7.822493">
        <ele>455.04013</ele>
        <time>2024-10-19T13:10:46.000Z</time>
      </trkpt>
      <trkpt lat="45.568673" lon="7.82252">
        <ele>454.80511</ele>
        <time>2024-10-19T13:10:49.000Z</time>
      </trkpt>
      <trkpt lat="45.56867" lon="7.822558">
        <ele>454.56012</ele>
        <time>2024-10-19T13:10:53.000Z</time>
      </trkpt>
      <trkpt lat="45.568673" lon="7.822587">
        <ele>454.29507</ele>
        <time>2024-10-19T13:10:55.000Z</time>
      </trkpt>
      <trkpt lat="45.568662" lon="7.822615">
        <ele>454.0101</ele>
        <time>2024-10-19T13:10:58.000Z</time>
      </trkpt>
      <trkpt lat="45.568642" lon="7.822613">
        <ele>453.74506</ele>
        <time>2024-10-19T13:11:01.000Z</time>
      </trkpt>
      <trkpt lat="45.56859" lon="7.822637">
        <ele>453.58008</ele>
        <time>2024-10-19T13:11:17.000Z</time>
      </trkpt>
      <trkpt lat="45.568575" lon="7.82268">
        <ele>453.41006</ele>
        <time>2024-10-19T13:11:28.000Z</time>
      </trkpt>
      <trkpt lat="45.568557" lon="7.8227">
        <ele>453.2251</ele>
        <time>2024-10-19T13:11:30.000Z</time>
      </trkpt>
      <trkpt lat="45.568543" lon="7.822725">
        <ele>453.05011</ele>
        <time>2024-10-19T13:11:33.000Z</time>
      </trkpt>
      <trkpt lat="45.568533" lon="7.822747">
        <ele>452.87509</ele>
        <time>2024-10-19T13:11:35.000Z</time>
      </trkpt>
      <trkpt lat="45.56852" lon="7.822773">
        <ele>452.71515</ele>
        <time>2024-10-19T13:11:37.000Z</time>
      </trkpt>
      <trkpt lat="45.568512" lon="7.822802">
        <ele>452.58514</ele>
        <time>2024-10-19T13:11:41.000Z</time>
      </trkpt>
      <trkpt lat="45.568493" lon="7.822818">
        <ele>452.40518</ele>
        <time>2024-10-19T13:11:44.000Z</time>
      </trkpt>
      <trkpt lat="45.568475" lon="7.822833">
        <ele>452.18018</ele>
        <time>2024-10-19T13:11:46.000Z</time>
      </trkpt>
      <trkpt lat="45.568457" lon="7.82284">
        <ele>451.95013</ele>
        <time>2024-10-19T13:11:48.000Z</time>
      </trkpt>
      <trkpt lat="45.56844" lon="7.82286">
        <ele>451.71014</ele>
        <time>2024-10-19T13:11:50.000Z</time>
      </trkpt>
      <trkpt lat="45.56843" lon="7.822895">
        <ele>451.48016</ele>
        <time>2024-10-19T13:11:52.000Z</time>
      </trkpt>
      <trkpt lat="45.56842" lon="7.822922">
        <ele>451.19516</ele>
        <time>2024-10-19T13:11:56.000Z</time>
      </trkpt>
      <trkpt lat="45.568398" lon="7.822935">
        <ele>450.85513</ele>
        <time>2024-10-19T13:11:59.000Z</time>
      </trkpt>
      <trkpt lat="45.568385" lon="7.822958">
        <ele>450.47012</ele>
        <time>2024-10-19T13:12:02.000Z</time>
      </trkpt>
      <trkpt lat="45.568373" lon="7.82298">
        <ele>450.05014</ele>
        <time>2024-10-19T13:12:05.000Z</time>
      </trkpt>
      <trkpt lat="45.568363" lon="7.82301">
        <ele>449.53018</ele>
        <time>2024-10-19T13:12:10.000Z</time>
      </trkpt>
      <trkpt lat="45.568357" lon="7.823037">
        <ele>448.98016</ele>
        <time>2024-10-19T13:12:12.000Z</time>
      </trkpt>
      <trkpt lat="45.568333" lon="7.823062">
        <ele>448.37018</ele>
        <time>2024-10-19T13:12:15.000Z</time>
      </trkpt>
      <trkpt lat="45.568315" lon="7.823073">
        <ele>447.70517</ele>
        <time>2024-10-19T13:12:17.000Z</time>
      </trkpt>
      <trkpt lat="45.568297" lon="7.823073">
        <ele>446.82016</ele>
        <time>2024-10-19T13:12:20.000Z</time>
      </trkpt>
      <trkpt lat="45.568275" lon="7.82309">
        <ele>445.90518</ele>
        <time>2024-10-19T13:12:24.000Z</time>
      </trkpt>
      <trkpt lat="45.568255" lon="7.82312">
        <ele>444.97516</ele>
        <time>2024-10-19T13:12:26.000Z</time>
      </trkpt>
      <trkpt lat="45.568238" lon="7.823133">
        <ele>444.04517</ele>
        <time>2024-10-19T13:12:27.000Z</time>
      </trkpt>
      <trkpt lat="45.568215" lon="7.823148">
        <ele>443.09515</ele>
        <time>2024-10-19T13:12:29.000Z</time>
      </trkpt>
      <trkpt lat="45.568193" lon="7.82316">
        <ele>442.04013</ele>
        <time>2024-10-19T13:12:33.000Z</time>
      </trkpt>
      <trkpt lat="45.568172" lon="7.823172">
        <ele>440.95514</ele>
        <time>2024-10-19T13:12:35.000Z</time>
      </trkpt>
      <trkpt lat="45.568147" lon="7.823173">
        <ele>439.89511</ele>
        <time>2024-10-19T13:12:37.000Z</time>
      </trkpt>
      <trkpt lat="45.56813" lon="7.8232">
        <ele>438.77011</ele>
        <time>2024-10-19T13:12:40.000Z</time>
      </trkpt>
      <trkpt lat="45.568117" lon="7.823237">
        <ele>437.61514</ele>
        <time>2024-10-19T13:12:42.000Z</time>
      </trkpt>
      <trkpt lat="45.568103" lon="7.82326">
        <ele>436.43011</ele>
        <time>2024-10-19T13:12:44.000Z</time>
      </trkpt>
      <trkpt lat="45.568092" lon="7.823285">
        <ele>435.23511</ele>
        <time>2024-10-19T13:12:46.000Z</time>
      </trkpt>
      <trkpt lat="45.568073" lon="7.823288">
        <ele>434.09009</ele>
        <time>2024-10-19T13:12:48.000Z</time>
      </trkpt>
      <trkpt lat="45.568052" lon="7.823292">
        <ele>432.9751</ele>
        <time>2024-10-19T13:12:50.000Z</time>
      </trkpt>
      <trkpt lat="45.568032" lon="7.823295">
        <ele>431.8501</ele>
        <time>2024-10-19T13:12:54.000Z</time>
      </trkpt>
      <trkpt lat="45.568017" lon="7.823332">
        <ele>430.72006</ele>
        <time>2024-10-19T13:12:56.000Z</time>
      </trkpt>
      <trkpt lat="45.568003" lon="7.823352">
        <ele>429.64005</ele>
        <time>2024-10-19T13:12:58.000Z</time>
      </trkpt>
      <trkpt lat="45.567988" lon="7.823375">
        <ele>428.57001</ele>
        <time>2024-10-19T13:13:00.000Z</time>
      </trkpt>
      <trkpt lat="45.567968" lon="7.823385">
        <ele>427.50504</ele>
        <time>2024-10-19T13:13:02.000Z</time>
      </trkpt>
      <trkpt lat="45.567948" lon="7.8234">
        <ele>426.41504</ele>
        <time>2024-10-19T13:13:04.000Z</time>
      </trkpt>
      <trkpt lat="45.567933" lon="7.823425">
        <ele>425.34506</ele>
        <time>2024-10-19T13:13:08.000Z</time>
      </trkpt>
      <trkpt lat="45.567918" lon="7.82344">
        <ele>424.26505</ele>
        <time>2024-10-19T13:13:13.000Z</time>
      </trkpt>
      <trkpt lat="45.567935" lon="7.823465">
        <ele>422.91504</ele>
        <time>2024-10-19T13:14:00.000Z</time>
      </trkpt>
      <trkpt lat="45.567922" lon="7.823493">
        <ele>421.60504</ele>
        <time>2024-10-19T13:14:02.000Z</time>
      </trkpt>
      <trkpt lat="45.56792" lon="7.823528">
        <ele>420.35004</ele>
        <time>2024-10-19T13:14:04.000Z</time>
      </trkpt>
      <trkpt lat="45.567907" lon="7.823563">
        <ele>419.23505</ele>
        <time>2024-10-19T13:14:06.000Z</time>
      </trkpt>
      <trkpt lat="45.567897" lon="7.82359">
        <ele>418.15005</ele>
        <time>2024-10-19T13:14:09.000Z</time>
      </trkpt>
      <trkpt lat="45.567883" lon="7.823612">
        <ele>417.10004</ele>
        <time>2024-10-19T13:14:12.000Z</time>
      </trkpt>
      <trkpt lat="45.56787" lon="7.823632">
        <ele>416.14508</ele>
        <time>2024-10-19T13:14:15.000Z</time>
      </trkpt>
      <trkpt lat="45.567845" lon="7.823645">
        <ele>415.28009</ele>
        <time>2024-10-19T13:14:20.000Z</time>
      </trkpt>
      <trkpt lat="45.567825" lon="7.823665">
        <ele>414.47006</ele>
        <time>2024-10-19T13:14:22.000Z</time>
      </trkpt>
      <trkpt lat="45.567805" lon="7.823683">
        <ele>413.69507</ele>
        <time>2024-10-19T13:14:24.000Z</time>
      </trkpt>
      <trkpt lat="45.56779" lon="7.82371">
        <ele>412.9751</ele>
        <time>2024-10-19T13:14:26.000Z</time>
      </trkpt>
      <trkpt lat="45.567782" lon="7.823742">
        <ele>412.31012</ele>
        <time>2024-10-19T13:14:28.000Z</time>
      </trkpt>
      <trkpt lat="45.567757" lon="7.823738">
        <ele>411.74512</ele>
        <time>2024-10-19T13:14:31.000Z</time>
      </trkpt>
      <trkpt lat="45.567728" lon="7.82374">
        <ele>411.2251</ele>
        <time>2024-10-19T13:14:34.000Z</time>
      </trkpt>
      <trkpt lat="45.56771" lon="7.823745">
        <ele>410.77509</ele>
        <time>2024-10-19T13:14:36.000Z</time>
      </trkpt>
      <trkpt lat="45.56769" lon="7.823765">
        <ele>410.02509</ele>
        <time>2024-10-19T13:15:05.000Z</time>
      </trkpt>
      <trkpt lat="45.567678" lon="7.823788">
        <ele>409.31512</ele>
        <time>2024-10-19T13:15:07.000Z</time>
      </trkpt>
      <trkpt lat="45.567658" lon="7.823773">
        <ele>408.6651</ele>
        <time>2024-10-19T13:15:10.000Z</time>
      </trkpt>
      <trkpt lat="45.56764" lon="7.823757">
        <ele>408.11511</ele>
        <time>2024-10-19T13:15:12.000Z</time>
      </trkpt>
      <trkpt lat="45.567613" lon="7.823738">
        <ele>407.6351</ele>
        <time>2024-10-19T13:15:14.000Z</time>
      </trkpt>
      <trkpt lat="45.56759" lon="7.82372">
        <ele>407.48013</ele>
        <time>2024-10-19T13:15:16.000Z</time>
      </trkpt>
      <trkpt lat="45.567567" lon="7.823725">
        <ele>407.28012</ele>
        <time>2024-10-19T13:15:19.000Z</time>
      </trkpt>
      <trkpt lat="45.567555" lon="7.823695">
        <ele>407.05011</ele>
        <time>2024-10-19T13:15:21.000Z</time>
      </trkpt>
      <trkpt lat="45.56753" lon="7.823683">
        <ele>406.78513</ele>
        <time>2024-10-19T13:15:23.000Z</time>
      </trkpt>
      <trkpt lat="45.567512" lon="7.823662">
        <ele>406.50012</ele>
        <time>2024-10-19T13:15:26.000Z</time>
      </trkpt>
      <trkpt lat="45.567498" lon="7.823635">
        <ele>406.12512</ele>
        <time>2024-10-19T13:15:28.000Z</time>
      </trkpt>
      <trkpt lat="45.567477" lon="7.823615">
        <ele>405.69513</ele>
        <time>2024-10-19T13:15:30.000Z</time>
      </trkpt>
      <trkpt lat="45.567457" lon="7.823603">
        <ele>405.1651</ele>
        <time>2024-10-19T13:15:33.000Z</time>
      </trkpt>
      <trkpt lat="45.56744" lon="7.823627">
        <ele>404.40512</ele>
        <time>2024-10-19T13:15:40.000Z</time>
      </trkpt>
      <trkpt lat="45.567422" lon="7.823625">
        <ele>403.56012</ele>
        <time>2024-10-19T13:15:44.000Z</time>
      </trkpt>
      <trkpt lat="45.567402" lon="7.823628">
        <ele>402.59515</ele>
        <time>2024-10-19T13:15:47.000Z</time>
      </trkpt>
      <trkpt lat="45.567385" lon="7.82365">
        <ele>401.52515</ele>
        <time>2024-10-19T13:15:50.000Z</time>
      </trkpt>
      <trkpt lat="45.567357" lon="7.823655">
        <ele>400.39017</ele>
        <time>2024-10-19T13:15:53.000Z</time>
      </trkpt>
      <trkpt lat="45.567333" lon="7.823663">
        <ele>399.26016</ele>
        <time>2024-10-19T13:15:55.000Z</time>
      </trkpt>
      <trkpt lat="45.56731" lon="7.823663">
        <ele>398.05014</ele>
        <time>2024-10-19T13:15:59.000Z</time>
      </trkpt>
      <trkpt lat="45.56729" lon="7.823652">
        <ele>397.16513</ele>
        <time>2024-10-19T13:16:02.000Z</time>
      </trkpt>
      <trkpt lat="45.56727" lon="7.823635">
        <ele>396.23514</ele>
        <time>2024-10-19T13:16:06.000Z</time>
      </trkpt>
      <trkpt lat="45.567252" lon="7.823633">
        <ele>395.15512</ele>
        <time>2024-10-19T13:16:12.000Z</time>
      </trkpt>
      <trkpt lat="45.567233" lon="7.823613">
        <ele>394.03012</ele>
        <time>2024-10-19T13:16:15.000Z</time>
      </trkpt>
      <trkpt lat="45.567228" lon="7.823578">
        <ele>392.84512</ele>
        <time>2024-10-19T13:16:18.000Z</time>
      </trkpt>
      <trkpt lat="45.56722" lon="7.823553">
        <ele>391.6051</ele>
        <time>2024-10-19T13:16:20.000Z</time>
      </trkpt>
      <trkpt lat="45.567205" lon="7.823537">
        <ele>390.3251</ele>
        <time>2024-10-19T13:16:23.000Z</time>
      </trkpt>
      <trkpt lat="45.567187" lon="7.823553">
        <ele>389.02011</ele>
        <time>2024-10-19T13:16:25.000Z</time>
      </trkpt>
      <trkpt lat="45.567168" lon="7.823562">
        <ele>387.71011</ele>
        <time>2024-10-19T13:16:27.000Z</time>
      </trkpt>
      <trkpt lat="45.56715" lon="7.823563">
        <ele>386.48511</ele>
        <time>2024-10-19T13:16:33.000Z</time>
      </trkpt>
      <trkpt lat="45.56715" lon="7.823535">
        <ele>385.3251</ele>
        <time>2024-10-19T13:16:35.000Z</time>
      </trkpt>
      <trkpt lat="45.567147" lon="7.823495">
        <ele>384.21008</ele>
        <time>2024-10-19T13:16:39.000Z</time>
      </trkpt>
      <trkpt lat="45.567155" lon="7.823472">
        <ele>383.14508</ele>
        <time>2024-10-19T13:16:41.000Z</time>
      </trkpt>
      <trkpt lat="45.56715" lon="7.823442">
        <ele>382.26007</ele>
        <time>2024-10-19T13:16:44.000Z</time>
      </trkpt>
      <trkpt lat="45.567138" lon="7.823403">
        <ele>381.41504</ele>
        <time>2024-10-19T13:16:47.000Z</time>
      </trkpt>
      <trkpt lat="45.567148" lon="7.823375">
        <ele>380.62503</ele>
        <time>2024-10-19T13:16:50.000Z</time>
      </trkpt>
      <trkpt lat="45.567145" lon="7.82334">
        <ele>379.93002</ele>
        <time>2024-10-19T13:16:53.000Z</time>
      </trkpt>
      <trkpt lat="45.567147" lon="7.82331">
        <ele>379.28003</ele>
        <time>2024-10-19T13:16:56.000Z</time>
      </trkpt>
      <trkpt lat="45.567147" lon="7.823277">
        <ele>378.67001</ele>
        <time>2024-10-19T13:16:58.000Z</time>
      </trkpt>
      <trkpt lat="45.567145" lon="7.823233">
        <ele>378.15503</ele>
        <time>2024-10-19T13:17:00.000Z</time>
      </trkpt>
      <trkpt lat="45.567138" lon="7.823205">
        <ele>377.66504</ele>
        <time>2024-10-19T13:17:03.000Z</time>
      </trkpt>
      <trkpt lat="45.567145" lon="7.82318">
        <ele>377.22003</ele>
        <time>2024-10-19T13:17:05.000Z</time>
      </trkpt>
      <trkpt lat="45.567152" lon="7.823155">
        <ele>376.91504</ele>
        <time>2024-10-19T13:17:07.000Z</time>
      </trkpt>
      <trkpt lat="45.567152" lon="7.823125">
        <ele>376.57504</ele>
        <time>2024-10-19T13:17:10.000Z</time>
      </trkpt>
      <trkpt lat="45.567157" lon="7.8231">
        <ele>376.26007</ele>
        <time>2024-10-19T13:17:15.000Z</time>
      </trkpt>
      <trkpt lat="45.56716" lon="7.823062">
        <ele>375.97006</ele>
        <time>2024-10-19T13:17:17.000Z</time>
      </trkpt>
      <trkpt lat="45.567167" lon="7.823017">
        <ele>375.72006</ele>
        <time>2024-10-19T13:17:19.000Z</time>
      </trkpt>
      <trkpt lat="45.567172" lon="7.822985">
        <ele>375.51007</ele>
        <time>2024-10-19T13:17:21.000Z</time>
      </trkpt>
      <trkpt lat="45.56718" lon="7.822947">
        <ele>375.30005</ele>
        <time>2024-10-19T13:17:23.000Z</time>
      </trkpt>
      <trkpt lat="45.567187" lon="7.822917">
        <ele>375.00006</ele>
        <time>2024-10-19T13:17:25.000Z</time>
      </trkpt>
      <trkpt lat="45.567193" lon="7.822887">
        <ele>374.62506</ele>
        <time>2024-10-19T13:17:29.000Z</time>
      </trkpt>
      <trkpt lat="45.567208" lon="7.822863">
        <ele>374.21005</ele>
        <time>2024-10-19T13:17:34.000Z</time>
      </trkpt>
      <trkpt lat="45.567207" lon="7.82282">
        <ele>373.75507</ele>
        <time>2024-10-19T13:17:42.000Z</time>
      </trkpt>
      <trkpt lat="45.567212" lon="7.822793">
        <ele>373.31509</ele>
        <time>2024-10-19T13:17:44.000Z</time>
      </trkpt>
      <trkpt lat="45.567218" lon="7.822765">
        <ele>372.8851</ele>
        <time>2024-10-19T13:17:47.000Z</time>
      </trkpt>
      <trkpt lat="45.567217" lon="7.822737">
        <ele>372.50513</ele>
        <time>2024-10-19T13:17:51.000Z</time>
      </trkpt>
      <trkpt lat="45.567217" lon="7.822702">
        <ele>372.12012</ele>
        <time>2024-10-19T13:17:53.000Z</time>
      </trkpt>
      <trkpt lat="45.567218" lon="7.822662">
        <ele>371.7551</ele>
        <time>2024-10-19T13:17:55.000Z</time>
      </trkpt>
      <trkpt lat="45.567218" lon="7.822633">
        <ele>371.34512</ele>
        <time>2024-10-19T13:17:58.000Z</time>
      </trkpt>
      <trkpt lat="45.56723" lon="7.822613">
        <ele>370.87512</ele>
        <time>2024-10-19T13:18:02.000Z</time>
      </trkpt>
      <trkpt lat="45.567245" lon="7.822588">
        <ele>370.25012</ele>
        <time>2024-10-19T13:18:07.000Z</time>
      </trkpt>
      <trkpt lat="45.567258" lon="7.82254">
        <ele>369.58011</ele>
        <time>2024-10-19T13:18:10.000Z</time>
      </trkpt>
      <trkpt lat="45.567267" lon="7.822515">
        <ele>368.9101</ele>
        <time>2024-10-19T13:18:11.000Z</time>
      </trkpt>
      <trkpt lat="45.567272" lon="7.822485">
        <ele>368.2951</ele>
        <time>2024-10-19T13:18:12.000Z</time>
      </trkpt>
      <trkpt lat="45.567273" lon="7.822437">
        <ele>367.71509</ele>
        <time>2024-10-19T13:18:14.000Z</time>
      </trkpt>
      <trkpt lat="45.567268" lon="7.822407">
        <ele>367.22009</ele>
        <time>2024-10-19T13:18:17.000Z</time>
      </trkpt>
      <trkpt lat="45.567265" lon="7.822372">
        <ele>366.7901</ele>
        <time>2024-10-19T13:18:19.000Z</time>
      </trkpt>
      <trkpt lat="45.567273" lon="7.822338">
        <ele>366.36508</ele>
        <time>2024-10-19T13:18:21.000Z</time>
      </trkpt>
      <trkpt lat="45.567287" lon="7.822308">
        <ele>365.96011</ele>
        <time>2024-10-19T13:18:22.000Z</time>
      </trkpt>
      <trkpt lat="45.567295" lon="7.822285">
        <ele>365.59012</ele>
        <time>2024-10-19T13:18:23.000Z</time>
      </trkpt>
      <trkpt lat="45.56731" lon="7.822247">
        <ele>365.26511</ele>
        <time>2024-10-19T13:18:25.000Z</time>
      </trkpt>
      <trkpt lat="45.567313" lon="7.822217">
        <ele>364.97012</ele>
        <time>2024-10-19T13:18:26.000Z</time>
      </trkpt>
      <trkpt lat="45.567317" lon="7.822178">
        <ele>364.69513</ele>
        <time>2024-10-19T13:18:28.000Z</time>
      </trkpt>
      <trkpt lat="45.56732" lon="7.822125">
        <ele>364.4101</ele>
        <time>2024-10-19T13:18:30.000Z</time>
      </trkpt>
      <trkpt lat="45.567317" lon="7.822095">
        <ele>364.12509</ele>
        <time>2024-10-19T13:18:31.000Z</time>
      </trkpt>
      <trkpt lat="45.56731" lon="7.82207">
        <ele>363.84009</ele>
        <time>2024-10-19T13:18:32.000Z</time>
      </trkpt>
      <trkpt lat="45.567297" lon="7.822032">
        <ele>363.5751</ele>
        <time>2024-10-19T13:18:34.000Z</time>
      </trkpt>
      <trkpt lat="45.567318" lon="7.822007">
        <ele>363.21512</ele>
        <time>2024-10-19T13:18:37.000Z</time>
      </trkpt>
      <trkpt lat="45.567335" lon="7.821962">
        <ele>362.90509</ele>
        <time>2024-10-19T13:18:39.000Z</time>
      </trkpt>
      <trkpt lat="45.567345" lon="7.821935">
        <ele>362.6951</ele>
        <time>2024-10-19T13:18:40.000Z</time>
      </trkpt>
      <trkpt lat="45.567347" lon="7.821902">
        <ele>362.65009</ele>
        <time>2024-10-19T13:18:42.000Z</time>
      </trkpt>
      <trkpt lat="45.567345" lon="7.821863">
        <ele>362.65509</ele>
        <time>2024-10-19T13:18:44.000Z</time>
      </trkpt>
      <trkpt lat="45.567355" lon="7.821838">
        <ele>362.63507</ele>
        <time>2024-10-19T13:18:46.000Z</time>
      </trkpt>
      <trkpt lat="45.567367" lon="7.821815">
        <ele>362.62509</ele>
        <time>2024-10-19T13:18:48.000Z</time>
      </trkpt>
      <trkpt lat="45.567358" lon="7.821782">
        <ele>362.5701</ele>
        <time>2024-10-19T13:18:50.000Z</time>
      </trkpt>
      <trkpt lat="45.567352" lon="7.821748">
        <ele>362.42508</ele>
        <time>2024-10-19T13:18:52.000Z</time>
      </trkpt>
      <trkpt lat="45.56736" lon="7.82171">
        <ele>362.20508</ele>
        <time>2024-10-19T13:18:55.000Z</time>
      </trkpt>
      <trkpt lat="45.567377" lon="7.82169">
        <ele>362.01508</ele>
        <time>2024-10-19T13:19:00.000Z</time>
      </trkpt>
      <trkpt lat="45.567393" lon="7.821677">
        <ele>361.82507</ele>
        <time>2024-10-19T13:19:03.000Z</time>
      </trkpt>
      <trkpt lat="45.567407" lon="7.821657">
        <ele>361.60007</ele>
        <time>2024-10-19T13:19:05.000Z</time>
      </trkpt>
      <trkpt lat="45.567388" lon="7.821643">
        <ele>361.56506</ele>
        <time>2024-10-19T13:19:15.000Z</time>
      </trkpt>
      <trkpt lat="45.5674" lon="7.821617">
        <ele>361.62006</ele>
        <time>2024-10-19T13:19:43.000Z</time>
      </trkpt>
      <trkpt lat="45.567408" lon="7.821582">
        <ele>361.68506</ele>
        <time>2024-10-19T13:19:47.000Z</time>
      </trkpt>
      <trkpt lat="45.567413" lon="7.821548">
        <ele>361.72507</ele>
        <time>2024-10-19T13:19:50.000Z</time>
      </trkpt>
      <trkpt lat="45.567415" lon="7.821518">
        <ele>361.75006</ele>
        <time>2024-10-19T13:19:52.000Z</time>
      </trkpt>
      <trkpt lat="45.567408" lon="7.821467">
        <ele>361.73007</ele>
        <time>2024-10-19T13:20:06.000Z</time>
      </trkpt>
      <trkpt lat="45.567412" lon="7.821428">
        <ele>361.75006</ele>
        <time>2024-10-19T13:20:08.000Z</time>
      </trkpt>
      <trkpt lat="45.567413" lon="7.821393">
        <ele>361.90009</ele>
        <time>2024-10-19T13:20:10.000Z</time>
      </trkpt>
      <trkpt lat="45.567425" lon="7.82142">
        <ele>362.18509</ele>
        <time>2024-10-19T13:20:18.000Z</time>
      </trkpt>
      <trkpt lat="45.56741" lon="7.82146">
        <ele>362.43509</ele>
        <time>2024-10-19T13:20:21.000Z</time>
      </trkpt>
      <trkpt lat="45.567378" lon="7.821482">
        <ele>362.7851</ele>
        <time>2024-10-19T13:20:42.000Z</time>
      </trkpt>
      <trkpt lat="45.56738" lon="7.821517">
        <ele>363.2951</ele>
        <time>2024-10-19T13:20:49.000Z</time>
      </trkpt>
      <trkpt lat="45.567302" lon="7.821553">
        <ele>363.80011</ele>
        <time>2024-10-19T13:21:04.000Z</time>
      </trkpt>
      <trkpt lat="45.567297" lon="7.821518">
        <ele>364.42511</ele>
        <time>2024-10-19T13:21:10.000Z</time>
      </trkpt>
      <trkpt lat="45.567322" lon="7.821485">
        <ele>365.06512</ele>
        <time>2024-10-19T13:21:12.000Z</time>
      </trkpt>
      <trkpt lat="45.567328" lon="7.821452">
        <ele>365.67511</ele>
        <time>2024-10-19T13:21:14.000Z</time>
      </trkpt>
      <trkpt lat="45.56733" lon="7.821423">
        <ele>366.27512</ele>
        <time>2024-10-19T13:21:16.000Z</time>
      </trkpt>
      <trkpt lat="45.567335" lon="7.821382">
        <ele>366.78009</ele>
        <time>2024-10-19T13:21:19.000Z</time>
      </trkpt>
      <trkpt lat="45.56735" lon="7.821358">
        <ele>367.2001</ele>
        <time>2024-10-19T13:21:21.000Z</time>
      </trkpt>
      <trkpt lat="45.567358" lon="7.821325">
        <ele>367.5751</ele>
        <time>2024-10-19T13:21:23.000Z</time>
      </trkpt>
      <trkpt lat="45.567365" lon="7.821295">
        <ele>367.7001</ele>
        <time>2024-10-19T13:21:25.000Z</time>
      </trkpt>
      <trkpt lat="45.567365" lon="7.821268">
        <ele>367.68008</ele>
        <time>2024-10-19T13:21:27.000Z</time>
      </trkpt>
      <trkpt lat="45.567367" lon="7.821242">
        <ele>367.59009</ele>
        <time>2024-10-19T13:21:31.000Z</time>
      </trkpt>
      <trkpt lat="45.567358" lon="7.821192">
        <ele>367.38007</ele>
        <time>2024-10-19T13:22:02.000Z</time>
      </trkpt>
      <trkpt lat="45.567343" lon="7.821158">
        <ele>367.15009</ele>
        <time>2024-10-19T13:22:05.000Z</time>
      </trkpt>
      <trkpt lat="45.567325" lon="7.821138">
        <ele>366.96005</ele>
        <time>2024-10-19T13:22:08.000Z</time>
      </trkpt>
      <trkpt lat="45.56731" lon="7.821115">
        <ele>366.67505</ele>
        <time>2024-10-19T13:22:11.000Z</time>
      </trkpt>
      <trkpt lat="45.567288" lon="7.82112">
        <ele>366.30005</ele>
        <time>2024-10-19T13:22:15.000Z</time>
      </trkpt>
      <trkpt lat="45.56727" lon="7.821122">
        <ele>365.77005</ele>
        <time>2024-10-19T13:22:20.000Z</time>
      </trkpt>
      <trkpt lat="45.56725" lon="7.821127">
        <ele>365.28006</ele>
        <time>2024-10-19T13:22:24.000Z</time>
      </trkpt>
      <trkpt lat="45.567227" lon="7.821118">
        <ele>364.67508</ele>
        <time>2024-10-19T13:22:26.000Z</time>
      </trkpt>
      <trkpt lat="45.567207" lon="7.821102">
        <ele>363.93506</ele>
        <time>2024-10-19T13:22:29.000Z</time>
      </trkpt>
      <trkpt lat="45.567175" lon="7.821105">
        <ele>363.25006</ele>
        <time>2024-10-19T13:22:31.000Z</time>
      </trkpt>
      <trkpt lat="45.567153" lon="7.821112">
        <ele>362.46503</ele>
        <time>2024-10-19T13:22:32.000Z</time>
      </trkpt>
      <trkpt lat="45.567133" lon="7.821103">
        <ele>361.69003</ele>
        <time>2024-10-19T13:22:34.000Z</time>
      </trkpt>
      <trkpt lat="45.567102" lon="7.821092">
        <ele>360.92505</ele>
        <time>2024-10-19T13:22:36.000Z</time>
      </trkpt>
      <trkpt lat="45.567068" lon="7.82109">
        <ele>360.16003</ele>
        <time>2024-10-19T13:22:38.000Z</time>
      </trkpt>
      <trkpt lat="45.567048" lon="7.821102">
        <ele>359.40005</ele>
        <time>2024-10-19T13:22:40.000Z</time>
      </trkpt>
      <trkpt lat="45.567032" lon="7.821122">
        <ele>358.66507</ele>
        <time>2024-10-19T13:22:42.000Z</time>
      </trkpt>
      <trkpt lat="45.567013" lon="7.821127">
        <ele>357.95508</ele>
        <time>2024-10-19T13:22:44.000Z</time>
      </trkpt>
      <trkpt lat="45.566993" lon="7.821115">
        <ele>357.24008</ele>
        <time>2024-10-19T13:22:46.000Z</time>
      </trkpt>
      <trkpt lat="45.567003" lon="7.821083">
        <ele>356.47009</ele>
        <time>2024-10-19T13:22:51.000Z</time>
      </trkpt>
      <trkpt lat="45.567015" lon="7.821055">
        <ele>355.71509</ele>
        <time>2024-10-19T13:22:54.000Z</time>
      </trkpt>
      <trkpt lat="45.567017" lon="7.821015">
        <ele>355.05508</ele>
        <time>2024-10-19T13:22:57.000Z</time>
      </trkpt>
      <trkpt lat="45.567017" lon="7.820975">
        <ele>354.4201</ele>
        <time>2024-10-19T13:23:00.000Z</time>
      </trkpt>
      <trkpt lat="45.56702" lon="7.82094">
        <ele>353.78009</ele>
        <time>2024-10-19T13:23:02.000Z</time>
      </trkpt>
      <trkpt lat="45.56701" lon="7.820905">
        <ele>353.19513</ele>
        <time>2024-10-19T13:23:04.000Z</time>
      </trkpt>
      <trkpt lat="45.567" lon="7.820878">
        <ele>352.6351</ele>
        <time>2024-10-19T13:23:06.000Z</time>
      </trkpt>
      <trkpt lat="45.566997" lon="7.82085">
        <ele>352.0451</ele>
        <time>2024-10-19T13:23:08.000Z</time>
      </trkpt>
      <trkpt lat="45.566997" lon="7.820813">
        <ele>351.36508</ele>
        <time>2024-10-19T13:23:10.000Z</time>
      </trkpt>
      <trkpt lat="45.566998" lon="7.82078">
        <ele>350.6651</ele>
        <time>2024-10-19T13:23:12.000Z</time>
      </trkpt>
      <trkpt lat="45.566998" lon="7.82074">
        <ele>349.92511</ele>
        <time>2024-10-19T13:23:14.000Z</time>
      </trkpt>
      <trkpt lat="45.567" lon="7.82071">
        <ele>349.12009</ele>
        <time>2024-10-19T13:23:16.000Z</time>
      </trkpt>
      <trkpt lat="45.567008" lon="7.820672">
        <ele>348.2601</ele>
        <time>2024-10-19T13:23:18.000Z</time>
      </trkpt>
      <trkpt lat="45.567018" lon="7.820643">
        <ele>347.3501</ele>
        <time>2024-10-19T13:23:20.000Z</time>
      </trkpt>
      <trkpt lat="45.567015" lon="7.820603">
        <ele>346.4451</ele>
        <time>2024-10-19T13:23:23.000Z</time>
      </trkpt>
      <trkpt lat="45.567003" lon="7.820562">
        <ele>345.55511</ele>
        <time>2024-10-19T13:23:26.000Z</time>
      </trkpt>
      <trkpt lat="45.566983" lon="7.820532">
        <ele>344.7251</ele>
        <time>2024-10-19T13:23:28.000Z</time>
      </trkpt>
      <trkpt lat="45.566968" lon="7.820515">
        <ele>343.94009</ele>
        <time>2024-10-19T13:23:29.000Z</time>
      </trkpt>
      <trkpt lat="45.566935" lon="7.820497">
        <ele>343.18008</ele>
        <time>2024-10-19T13:23:31.000Z</time>
      </trkpt>
      <trkpt lat="45.566898" lon="7.820478">
        <ele>342.51508</ele>
        <time>2024-10-19T13:23:33.000Z</time>
      </trkpt>
      <trkpt lat="45.566872" lon="7.820473">
        <ele>341.9751</ele>
        <time>2024-10-19T13:23:35.000Z</time>
      </trkpt>
      <trkpt lat="45.56685" lon="7.820457">
        <ele>341.4751</ele>
        <time>2024-10-19T13:23:38.000Z</time>
      </trkpt>
      <trkpt lat="45.566823" lon="7.820447">
        <ele>341.0051</ele>
        <time>2024-10-19T13:23:40.000Z</time>
      </trkpt>
      <trkpt lat="45.566802" lon="7.82044">
        <ele>340.5701</ele>
        <time>2024-10-19T13:23:41.000Z</time>
      </trkpt>
      <trkpt lat="45.566775" lon="7.820422">
        <ele>340.13507</ele>
        <time>2024-10-19T13:23:43.000Z</time>
      </trkpt>
      <trkpt lat="45.566752" lon="7.820407">
        <ele>339.6601</ele>
        <time>2024-10-19T13:23:45.000Z</time>
      </trkpt>
      <trkpt lat="45.56673" lon="7.82038">
        <ele>339.18008</ele>
        <time>2024-10-19T13:23:47.000Z</time>
      </trkpt>
      <trkpt lat="45.56671" lon="7.820368">
        <ele>338.6951</ele>
        <time>2024-10-19T13:23:49.000Z</time>
      </trkpt>
      <trkpt lat="45.566683" lon="7.820367">
        <ele>338.21008</ele>
        <time>2024-10-19T13:23:51.000Z</time>
      </trkpt>
      <trkpt lat="45.566667" lon="7.820388">
        <ele>337.67508</ele>
        <time>2024-10-19T13:23:53.000Z</time>
      </trkpt>
      <trkpt lat="45.566658" lon="7.82043">
        <ele>337.16507</ele>
        <time>2024-10-19T13:23:55.000Z</time>
      </trkpt>
      <trkpt lat="45.566645" lon="7.820465">
        <ele>336.70508</ele>
        <time>2024-10-19T13:23:57.000Z</time>
      </trkpt>
      <trkpt lat="45.566627" lon="7.820505">
        <ele>336.30008</ele>
        <time>2024-10-19T13:23:59.000Z</time>
      </trkpt>
      <trkpt lat="45.566603" lon="7.820535">
        <ele>335.94507</ele>
        <time>2024-10-19T13:24:01.000Z</time>
      </trkpt>
      <trkpt lat="45.566583" lon="7.820558">
        <ele>335.60504</ele>
        <time>2024-10-19T13:24:03.000Z</time>
      </trkpt>
      <trkpt lat="45.56657" lon="7.820578">
        <ele>335.29007</ele>
        <time>2024-10-19T13:24:04.000Z</time>
      </trkpt>
      <trkpt lat="45.566555" lon="7.820597">
        <ele>334.97507</ele>
        <time>2024-10-19T13:24:05.000Z</time>
      </trkpt>
      <trkpt lat="45.566533" lon="7.820627">
        <ele>334.6651</ele>
        <time>2024-10-19T13:24:07.000Z</time>
      </trkpt>
      <trkpt lat="45.566518" lon="7.820657">
        <ele>334.3251</ele>
        <time>2024-10-19T13:24:09.000Z</time>
      </trkpt>
      <trkpt lat="45.566488" lon="7.820665">
        <ele>333.9501</ele>
        <time>2024-10-19T13:24:11.000Z</time>
      </trkpt>
      <trkpt lat="45.566465" lon="7.82066">
        <ele>333.5701</ele>
        <time>2024-10-19T13:24:13.000Z</time>
      </trkpt>
      <trkpt lat="45.566445" lon="7.820642">
        <ele>333.21008</ele>
        <time>2024-10-19T13:24:15.000Z</time>
      </trkpt>
      <trkpt lat="45.566427" lon="7.820622">
        <ele>332.87009</ele>
        <time>2024-10-19T13:24:20.000Z</time>
      </trkpt>
      <trkpt lat="45.566412" lon="7.82064">
        <ele>332.56009</ele>
        <time>2024-10-19T13:24:24.000Z</time>
      </trkpt>
      <trkpt lat="45.5664" lon="7.82067">
        <ele>332.28009</ele>
        <time>2024-10-19T13:24:26.000Z</time>
      </trkpt>
      <trkpt lat="45.566373" lon="7.820692">
        <ele>332.0451</ele>
        <time>2024-10-19T13:24:28.000Z</time>
      </trkpt>
      <trkpt lat="45.56635" lon="7.820693">
        <ele>331.87509</ele>
        <time>2024-10-19T13:24:30.000Z</time>
      </trkpt>
      <trkpt lat="45.566332" lon="7.820682">
        <ele>331.77008</ele>
        <time>2024-10-19T13:24:33.000Z</time>
      </trkpt>
      <trkpt lat="45.566313" lon="7.820648">
        <ele>331.71509</ele>
        <time>2024-10-19T13:24:36.000Z</time>
      </trkpt>
      <trkpt lat="45.566287" lon="7.820617">
        <ele>331.73007</ele>
        <time>2024-10-19T13:24:38.000Z</time>
      </trkpt>
      <trkpt lat="45.56626" lon="7.82061">
        <ele>331.71509</ele>
        <time>2024-10-19T13:24:40.000Z</time>
      </trkpt>
      <trkpt lat="45.56623" lon="7.820608">
        <ele>331.71509</ele>
        <time>2024-10-19T13:24:42.000Z</time>
      </trkpt>
      <trkpt lat="45.566212" lon="7.820602">
        <ele>331.6951</ele>
        <time>2024-10-19T13:24:43.000Z</time>
      </trkpt>
      <trkpt lat="45.566185" lon="7.820593">
        <ele>331.6651</ele>
        <time>2024-10-19T13:24:45.000Z</time>
      </trkpt>
      <trkpt lat="45.56615" lon="7.820582">
        <ele>331.68512</ele>
        <time>2024-10-19T13:24:47.000Z</time>
      </trkpt>
      <trkpt lat="45.566132" lon="7.820582">
        <ele>331.73013</ele>
        <time>2024-10-19T13:24:48.000Z</time>
      </trkpt>
      <trkpt lat="45.566102" lon="7.820573">
        <ele>331.7901</ele>
        <time>2024-10-19T13:24:50.000Z</time>
      </trkpt>
      <trkpt lat="45.566075" lon="7.820548">
        <ele>331.89508</ele>
        <time>2024-10-19T13:24:52.000Z</time>
      </trkpt>
      <trkpt lat="45.56605" lon="7.820537">
        <ele>332.05508</ele>
        <time>2024-10-19T13:24:54.000Z</time>
      </trkpt>
      <trkpt lat="45.566023" lon="7.820527">
        <ele>332.30008</ele>
        <time>2024-10-19T13:24:56.000Z</time>
      </trkpt>
      <trkpt lat="45.565995" lon="7.820522">
        <ele>332.55008</ele>
        <time>2024-10-19T13:24:58.000Z</time>
      </trkpt>
      <trkpt lat="45.565967" lon="7.820523">
        <ele>332.77509</ele>
        <time>2024-10-19T13:25:00.000Z</time>
      </trkpt>
      <trkpt lat="45.565932" lon="7.82052">
        <ele>333.00006</ele>
        <time>2024-10-19T13:25:02.000Z</time>
      </trkpt>
      <trkpt lat="45.565913" lon="7.82052">
        <ele>333.1951</ele>
        <time>2024-10-19T13:25:03.000Z</time>
      </trkpt>
      <trkpt lat="45.565882" lon="7.820502">
        <ele>333.34009</ele>
        <time>2024-10-19T13:25:05.000Z</time>
      </trkpt>
      <trkpt lat="45.565863" lon="7.820498">
        <ele>333.4751</ele>
        <time>2024-10-19T13:25:06.000Z</time>
      </trkpt>
      <trkpt lat="45.565832" lon="7.820483">
        <ele>333.58011</ele>
        <time>2024-10-19T13:25:08.000Z</time>
      </trkpt>
      <trkpt lat="45.565803" lon="7.820467">
        <ele>333.67511</ele>
        <time>2024-10-19T13:25:10.000Z</time>
      </trkpt>
      <trkpt lat="45.565785" lon="7.820448">
        <ele>333.76511</ele>
        <time>2024-10-19T13:25:12.000Z</time>
      </trkpt>
      <trkpt lat="45.565763" lon="7.820447">
        <ele>333.88013</ele>
        <time>2024-10-19T13:25:14.000Z</time>
      </trkpt>
      <trkpt lat="45.565742" lon="7.820432">
        <ele>334.06512</ele>
        <time>2024-10-19T13:25:16.000Z</time>
      </trkpt>
      <trkpt lat="45.565713" lon="7.820415">
        <ele>334.25513</ele>
        <time>2024-10-19T13:25:18.000Z</time>
      </trkpt>
      <trkpt lat="45.565697" lon="7.820387">
        <ele>334.44012</ele>
        <time>2024-10-19T13:25:20.000Z</time>
      </trkpt>
      <trkpt lat="45.565683" lon="7.820362">
        <ele>334.62509</ele>
        <time>2024-10-19T13:25:22.000Z</time>
      </trkpt>
      <trkpt lat="45.565663" lon="7.820337">
        <ele>334.75507</ele>
        <time>2024-10-19T13:25:24.000Z</time>
      </trkpt>
      <trkpt lat="45.565643" lon="7.820313">
        <ele>334.82507</ele>
        <time>2024-10-19T13:25:26.000Z</time>
      </trkpt>
      <trkpt lat="45.565628" lon="7.82029">
        <ele>334.86508</ele>
        <time>2024-10-19T13:25:28.000Z</time>
      </trkpt>
      <trkpt lat="45.565608" lon="7.82027">
        <ele>334.8501</ele>
        <time>2024-10-19T13:25:30.000Z</time>
      </trkpt>
      <trkpt lat="45.565587" lon="7.820242">
        <ele>334.81512</ele>
        <time>2024-10-19T13:25:32.000Z</time>
      </trkpt>
      <trkpt lat="45.565573" lon="7.820222">
        <ele>334.72012</ele>
        <time>2024-10-19T13:25:33.000Z</time>
      </trkpt>
      <trkpt lat="45.56555" lon="7.820195">
        <ele>334.56012</ele>
        <time>2024-10-19T13:25:35.000Z</time>
      </trkpt>
      <trkpt lat="45.565528" lon="7.820172">
        <ele>334.39011</ele>
        <time>2024-10-19T13:25:37.000Z</time>
      </trkpt>
      <trkpt lat="45.565515" lon="7.820143">
        <ele>334.18011</ele>
        <time>2024-10-19T13:25:39.000Z</time>
      </trkpt>
      <trkpt lat="45.565505" lon="7.820122">
        <ele>333.94009</ele>
        <time>2024-10-19T13:25:41.000Z</time>
      </trkpt>
      <trkpt lat="45.56548" lon="7.8201">
        <ele>333.72009</ele>
        <time>2024-10-19T13:25:44.000Z</time>
      </trkpt>
      <trkpt lat="45.565453" lon="7.82008">
        <ele>333.48508</ele>
        <time>2024-10-19T13:25:46.000Z</time>
      </trkpt>
      <trkpt lat="45.565438" lon="7.82006">
        <ele>333.23007</ele>
        <time>2024-10-19T13:25:47.000Z</time>
      </trkpt>
      <trkpt lat="45.565427" lon="7.82004">
        <ele>332.95508</ele>
        <time>2024-10-19T13:25:48.000Z</time>
      </trkpt>
      <trkpt lat="45.565422" lon="7.819997">
        <ele>332.66507</ele>
        <time>2024-10-19T13:25:50.000Z</time>
      </trkpt>
      <trkpt lat="45.565405" lon="7.819977">
        <ele>332.34506</ele>
        <time>2024-10-19T13:25:51.000Z</time>
      </trkpt>
      <trkpt lat="45.565387" lon="7.819997">
        <ele>331.96506</ele>
        <time>2024-10-19T13:25:54.000Z</time>
      </trkpt>
      <trkpt lat="45.56536" lon="7.81998">
        <ele>331.55008</ele>
        <time>2024-10-19T13:25:56.000Z</time>
      </trkpt>
      <trkpt lat="45.565343" lon="7.81997">
        <ele>331.15509</ele>
        <time>2024-10-19T13:25:57.000Z</time>
      </trkpt>
      <trkpt lat="45.565322" lon="7.819955">
        <ele>330.78009</ele>
        <time>2024-10-19T13:25:58.000Z</time>
      </trkpt>
      <trkpt lat="45.565298" lon="7.819938">
        <ele>330.43008</ele>
        <time>2024-10-19T13:25:59.000Z</time>
      </trkpt>
      <trkpt lat="45.56528" lon="7.819922">
        <ele>330.12006</ele>
        <time>2024-10-19T13:26:00.000Z</time>
      </trkpt>
      <trkpt lat="45.565267" lon="7.819903">
        <ele>329.82007</ele>
        <time>2024-10-19T13:26:01.000Z</time>
      </trkpt>
      <trkpt lat="45.565243" lon="7.819867">
        <ele>329.49506</ele>
        <time>2024-10-19T13:26:03.000Z</time>
      </trkpt>
      <trkpt lat="45.565228" lon="7.81985">
        <ele>329.15005</ele>
        <time>2024-10-19T13:26:04.000Z</time>
      </trkpt>
      <trkpt lat="45.565213" lon="7.819825">
        <ele>328.79004</ele>
        <time>2024-10-19T13:26:05.000Z</time>
      </trkpt>
      <trkpt lat="45.565197" lon="7.819795">
        <ele>328.48004</ele>
        <time>2024-10-19T13:26:07.000Z</time>
      </trkpt>
      <trkpt lat="45.565175" lon="7.819783">
        <ele>328.19006</ele>
        <time>2024-10-19T13:26:09.000Z</time>
      </trkpt>
      <trkpt lat="45.565152" lon="7.819777">
        <ele>327.94507</ele>
        <time>2024-10-19T13:26:11.000Z</time>
      </trkpt>
      <trkpt lat="45.56513" lon="7.819755">
        <ele>327.73508</ele>
        <time>2024-10-19T13:26:14.000Z</time>
      </trkpt>
      <trkpt lat="45.565105" lon="7.819732">
        <ele>327.54507</ele>
        <time>2024-10-19T13:26:16.000Z</time>
      </trkpt>
      <trkpt lat="45.565092" lon="7.8197">
        <ele>327.38007</ele>
        <time>2024-10-19T13:26:18.000Z</time>
      </trkpt>
      <trkpt lat="45.565075" lon="7.819672">
        <ele>327.24509</ele>
        <time>2024-10-19T13:26:20.000Z</time>
      </trkpt>
      <trkpt lat="45.56505" lon="7.81965">
        <ele>327.15509</ele>
        <time>2024-10-19T13:26:22.000Z</time>
      </trkpt>
      <trkpt lat="45.565035" lon="7.819633">
        <ele>327.14011</ele>
        <time>2024-10-19T13:26:26.000Z</time>
      </trkpt>
      <trkpt lat="45.565053" lon="7.819617">
        <ele>327.24509</ele>
        <time>2024-10-19T13:26:39.000Z</time>
      </trkpt>
      <trkpt lat="45.565038" lon="7.819643">
        <ele>327.4501</ele>
        <time>2024-10-19T13:26:55.000Z</time>
      </trkpt>
      <trkpt lat="45.565023" lon="7.819628">
        <ele>327.68011</ele>
        <time>2024-10-19T13:26:59.000Z</time>
      </trkpt>
      <trkpt lat="45.565007" lon="7.819603">
        <ele>327.90009</ele>
        <time>2024-10-19T13:27:03.000Z</time>
      </trkpt>
      <trkpt lat="45.564985" lon="7.819587">
        <ele>328.1051</ele>
        <time>2024-10-19T13:27:05.000Z</time>
      </trkpt>
      <trkpt lat="45.564965" lon="7.81958">
        <ele>328.26511</ele>
        <time>2024-10-19T13:27:07.000Z</time>
      </trkpt>
      <trkpt lat="45.564942" lon="7.819583">
        <ele>328.36014</ele>
        <time>2024-10-19T13:27:09.000Z</time>
      </trkpt>
      <trkpt lat="45.564917" lon="7.819582">
        <ele>328.43512</ele>
        <time>2024-10-19T13:27:11.000Z</time>
      </trkpt>
      <trkpt lat="45.564885" lon="7.819577">
        <ele>328.52512</ele>
        <time>2024-10-19T13:27:13.000Z</time>
      </trkpt>
      <trkpt lat="45.56486" lon="7.81958">
        <ele>328.67014</ele>
        <time>2024-10-19T13:27:15.000Z</time>
      </trkpt>
      <trkpt lat="45.564845" lon="7.819562">
        <ele>328.82013</ele>
        <time>2024-10-19T13:27:17.000Z</time>
      </trkpt>
      <trkpt lat="45.564822" lon="7.819573">
        <ele>328.92514</ele>
        <time>2024-10-19T13:27:20.000Z</time>
      </trkpt>
      <trkpt lat="45.564795" lon="7.81959">
        <ele>329.06012</ele>
        <time>2024-10-19T13:27:22.000Z</time>
      </trkpt>
      <trkpt lat="45.564777" lon="7.819587">
        <ele>329.23013</ele>
        <time>2024-10-19T13:27:24.000Z</time>
      </trkpt>
      <trkpt lat="45.564752" lon="7.819577">
        <ele>329.46512</ele>
        <time>2024-10-19T13:27:27.000Z</time>
      </trkpt>
      <trkpt lat="45.564732" lon="7.819573">
        <ele>329.75012</ele>
        <time>2024-10-19T13:27:29.000Z</time>
      </trkpt>
      <trkpt lat="45.564752" lon="7.819555">
        <ele>330.0351</ele>
        <time>2024-10-19T13:27:33.000Z</time>
      </trkpt>
      <trkpt lat="45.56473" lon="7.819568">
        <ele>330.33011</ele>
        <time>2024-10-19T13:27:36.000Z</time>
      </trkpt>
      <trkpt lat="45.5647" lon="7.819557">
        <ele>330.6001</ele>
        <time>2024-10-19T13:27:39.000Z</time>
      </trkpt>
      <trkpt lat="45.56468" lon="7.819562">
        <ele>330.81012</ele>
        <time>2024-10-19T13:27:40.000Z</time>
      </trkpt>
      <trkpt lat="45.564652" lon="7.819557">
        <ele>330.94513</ele>
        <time>2024-10-19T13:27:42.000Z</time>
      </trkpt>
      <trkpt lat="45.564633" lon="7.819565">
        <ele>331.02509</ele>
        <time>2024-10-19T13:27:44.000Z</time>
      </trkpt>
      <trkpt lat="45.564628" lon="7.819603">
        <ele>331.14008</ele>
        <time>2024-10-19T13:27:47.000Z</time>
      </trkpt>
      <trkpt lat="45.564613" lon="7.819632">
        <ele>331.2901</ele>
        <time>2024-10-19T13:27:49.000Z</time>
      </trkpt>
      <trkpt lat="45.564597" lon="7.819653">
        <ele>331.43509</ele>
        <time>2024-10-19T13:27:52.000Z</time>
      </trkpt>
      <trkpt lat="45.564577" lon="7.81967">
        <ele>331.64008</ele>
        <time>2024-10-19T13:27:55.000Z</time>
      </trkpt>
      <trkpt lat="45.564572" lon="7.819703">
        <ele>331.95007</ele>
        <time>2024-10-19T13:27:59.000Z</time>
      </trkpt>
      <trkpt lat="45.56456" lon="7.819737">
        <ele>332.31506</ele>
        <time>2024-10-19T13:28:02.000Z</time>
      </trkpt>
      <trkpt lat="45.56454" lon="7.81974">
        <ele>332.7851</ele>
        <time>2024-10-19T13:28:05.000Z</time>
      </trkpt>
      <trkpt lat="45.564523" lon="7.81975">
        <ele>333.26007</ele>
        <time>2024-10-19T13:28:07.000Z</time>
      </trkpt>
      <trkpt lat="45.564513" lon="7.819778">
        <ele>333.7901</ele>
        <time>2024-10-19T13:28:10.000Z</time>
      </trkpt>
      <trkpt lat="45.564513" lon="7.819807">
        <ele>334.40009</ele>
        <time>2024-10-19T13:28:12.000Z</time>
      </trkpt>
      <trkpt lat="45.564507" lon="7.819842">
        <ele>335.02008</ele>
        <time>2024-10-19T13:28:15.000Z</time>
      </trkpt>
      <trkpt lat="45.564495" lon="7.81987">
        <ele>335.59006</ele>
        <time>2024-10-19T13:28:18.000Z</time>
      </trkpt>
      <trkpt lat="45.564497" lon="7.81991">
        <ele>336.09006</ele>
        <time>2024-10-19T13:28:20.000Z</time>
      </trkpt>
      <trkpt lat="45.564498" lon="7.819942">
        <ele>336.52008</ele>
        <time>2024-10-19T13:28:22.000Z</time>
      </trkpt>
      <trkpt lat="45.564497" lon="7.819985">
        <ele>336.89508</ele>
        <time>2024-10-19T13:28:25.000Z</time>
      </trkpt>
      <trkpt lat="45.564495" lon="7.820033">
        <ele>337.18506</ele>
        <time>2024-10-19T13:28:27.000Z</time>
      </trkpt>
      <trkpt lat="45.564495" lon="7.820067">
        <ele>337.43506</ele>
        <time>2024-10-19T13:28:28.000Z</time>
      </trkpt>
      <trkpt lat="45.564507" lon="7.820112">
        <ele>337.58505</ele>
        <time>2024-10-19T13:28:30.000Z</time>
      </trkpt>
      <trkpt lat="45.564507" lon="7.820138">
        <ele>337.60504</ele>
        <time>2024-10-19T13:28:32.000Z</time>
      </trkpt>
      <trkpt lat="45.564502" lon="7.820178">
        <ele>337.55008</ele>
        <time>2024-10-19T13:28:34.000Z</time>
      </trkpt>
      <trkpt lat="45.564487" lon="7.820203">
        <ele>337.38007</ele>
        <time>2024-10-19T13:28:37.000Z</time>
      </trkpt>
      <trkpt lat="45.564472" lon="7.820227">
        <ele>337.1651</ele>
        <time>2024-10-19T13:28:39.000Z</time>
      </trkpt>
      <trkpt lat="45.56446" lon="7.820252">
        <ele>336.95511</ele>
        <time>2024-10-19T13:28:41.000Z</time>
      </trkpt>
      <trkpt lat="45.564468" lon="7.820228">
        <ele>336.65509</ele>
        <time>2024-10-19T13:28:49.000Z</time>
      </trkpt>
      <trkpt lat="45.564448" lon="7.820237">
        <ele>336.27011</ele>
        <time>2024-10-19T13:28:55.000Z</time>
      </trkpt>
      <trkpt lat="45.564438" lon="7.820262">
        <ele>335.81512</ele>
        <time>2024-10-19T13:28:57.000Z</time>
      </trkpt>
      <trkpt lat="45.564427" lon="7.820292">
        <ele>335.2951</ele>
        <time>2024-10-19T13:28:59.000Z</time>
      </trkpt>
      <trkpt lat="45.564417" lon="7.820325">
        <ele>334.73007</ele>
        <time>2024-10-19T13:29:01.000Z</time>
      </trkpt>
      <trkpt lat="45.564395" lon="7.820355">
        <ele>334.11008</ele>
        <time>2024-10-19T13:29:03.000Z</time>
      </trkpt>
      <trkpt lat="45.564375" lon="7.82038">
        <ele>333.45508</ele>
        <time>2024-10-19T13:29:05.000Z</time>
      </trkpt>
      <trkpt lat="45.564358" lon="7.820398">
        <ele>332.78009</ele>
        <time>2024-10-19T13:29:07.000Z</time>
      </trkpt>
      <trkpt lat="45.564345" lon="7.820418">
        <ele>332.11508</ele>
        <time>2024-10-19T13:29:09.000Z</time>
      </trkpt>
      <trkpt lat="45.564328" lon="7.820445">
        <ele>331.4201</ele>
        <time>2024-10-19T13:29:11.000Z</time>
      </trkpt>
      <trkpt lat="45.56432" lon="7.820475">
        <ele>330.74008</ele>
        <time>2024-10-19T13:29:13.000Z</time>
      </trkpt>
      <trkpt lat="45.564312" lon="7.820508">
        <ele>330.09009</ele>
        <time>2024-10-19T13:29:15.000Z</time>
      </trkpt>
      <trkpt lat="45.564298" lon="7.820537">
        <ele>329.50009</ele>
        <time>2024-10-19T13:29:17.000Z</time>
      </trkpt>
      <trkpt lat="45.564278" lon="7.820562">
        <ele>328.95511</ele>
        <time>2024-10-19T13:29:19.000Z</time>
      </trkpt>
      <trkpt lat="45.564263" lon="7.820578">
        <ele>328.49008</ele>
        <time>2024-10-19T13:29:20.000Z</time>
      </trkpt>
      <trkpt lat="45.564253" lon="7.820613">
        <ele>328.12009</ele>
        <time>2024-10-19T13:29:22.000Z</time>
      </trkpt>
      <trkpt lat="45.564252" lon="7.820662">
        <ele>327.80508</ele>
        <time>2024-10-19T13:29:24.000Z</time>
      </trkpt>
      <trkpt lat="45.564247" lon="7.820692">
        <ele>327.56506</ele>
        <time>2024-10-19T13:29:25.000Z</time>
      </trkpt>
      <trkpt lat="45.564245" lon="7.820718">
        <ele>327.35004</ele>
        <time>2024-10-19T13:29:26.000Z</time>
      </trkpt>
      <trkpt lat="45.56423" lon="7.820757">
        <ele>327.16003</ele>
        <time>2024-10-19T13:29:28.000Z</time>
      </trkpt>
      <trkpt lat="45.564212" lon="7.82078">
        <ele>327.06503</ele>
        <time>2024-10-19T13:29:30.000Z</time>
      </trkpt>
      <trkpt lat="45.564207" lon="7.820805">
        <ele>327.08002</ele>
        <time>2024-10-19T13:29:32.000Z</time>
      </trkpt>
      <trkpt lat="45.564188" lon="7.820808">
        <ele>327.18503</ele>
        <time>2024-10-19T13:29:34.000Z</time>
      </trkpt>
      <trkpt lat="45.564182" lon="7.820837">
        <ele>327.25006</ele>
        <time>2024-10-19T13:29:38.000Z</time>
      </trkpt>
      <trkpt lat="45.564148" lon="7.820857">
        <ele>327.39505</ele>
        <time>2024-10-19T13:29:45.000Z</time>
      </trkpt>
      <trkpt lat="45.564115" lon="7.820837">
        <ele>327.56003</ele>
        <time>2024-10-19T13:29:47.000Z</time>
      </trkpt>
      <trkpt lat="45.564083" lon="7.820837">
        <ele>327.72504</ele>
        <time>2024-10-19T13:29:49.000Z</time>
      </trkpt>
      <trkpt lat="45.564055" lon="7.82085">
        <ele>327.89008</ele>
        <time>2024-10-19T13:29:51.000Z</time>
      </trkpt>
      <trkpt lat="45.564037" lon="7.820873">
        <ele>328.07507</ele>
        <time>2024-10-19T13:29:53.000Z</time>
      </trkpt>
      <trkpt lat="45.564005" lon="7.820883">
        <ele>328.27509</ele>
        <time>2024-10-19T13:29:55.000Z</time>
      </trkpt>
      <trkpt lat="45.563978" lon="7.820882">
        <ele>328.47507</ele>
        <time>2024-10-19T13:29:57.000Z</time>
      </trkpt>
      <trkpt lat="45.563948" lon="7.820863">
        <ele>328.69009</ele>
        <time>2024-10-19T13:29:59.000Z</time>
      </trkpt>
      <trkpt lat="45.563922" lon="7.820847">
        <ele>328.87009</ele>
        <time>2024-10-19T13:30:01.000Z</time>
      </trkpt>
      <trkpt lat="45.563893" lon="7.820837">
        <ele>329.01007</ele>
        <time>2024-10-19T13:30:03.000Z</time>
      </trkpt>
      <trkpt lat="45.563875" lon="7.820828">
        <ele>329.1651</ele>
        <time>2024-10-19T13:30:05.000Z</time>
      </trkpt>
      <trkpt lat="45.563845" lon="7.820817">
        <ele>329.30011</ele>
        <time>2024-10-19T13:30:07.000Z</time>
      </trkpt>
      <trkpt lat="45.563827" lon="7.820808">
        <ele>329.43011</ele>
        <time>2024-10-19T13:30:08.000Z</time>
      </trkpt>
      <trkpt lat="45.563807" lon="7.820805">
        <ele>329.55511</ele>
        <time>2024-10-19T13:30:09.000Z</time>
      </trkpt>
      <trkpt lat="45.563785" lon="7.820802">
        <ele>329.68011</ele>
        <time>2024-10-19T13:30:10.000Z</time>
      </trkpt>
      <trkpt lat="45.563758" lon="7.820802">
        <ele>329.80511</ele>
        <time>2024-10-19T13:30:12.000Z</time>
      </trkpt>
      <trkpt lat="45.56374" lon="7.82079">
        <ele>329.8801</ele>
        <time>2024-10-19T13:30:14.000Z</time>
      </trkpt>
      <trkpt lat="45.563715" lon="7.820792">
        <ele>329.8801</ele>
        <time>2024-10-19T13:30:16.000Z</time>
      </trkpt>
      <trkpt lat="45.563685" lon="7.820785">
        <ele>329.8201</ele>
        <time>2024-10-19T13:30:19.000Z</time>
      </trkpt>
      <trkpt lat="45.563657" lon="7.820767">
        <ele>329.76007</ele>
        <time>2024-10-19T13:30:21.000Z</time>
      </trkpt>
      <trkpt lat="45.563628" lon="7.82075">
        <ele>329.65509</ele>
        <time>2024-10-19T13:30:23.000Z</time>
      </trkpt>
      <trkpt lat="45.563602" lon="7.820738">
        <ele>329.51511</ele>
        <time>2024-10-19T13:30:25.000Z</time>
      </trkpt>
      <trkpt lat="45.563577" lon="7.820728">
        <ele>329.36511</ele>
        <time>2024-10-19T13:30:27.000Z</time>
      </trkpt>
      <trkpt lat="45.563553" lon="7.820725">
        <ele>329.22012</ele>
        <time>2024-10-19T13:30:29.000Z</time>
      </trkpt>
      <trkpt lat="45.56353" lon="7.82073">
        <ele>329.07013</ele>
        <time>2024-10-19T13:30:31.000Z</time>
      </trkpt>
      <trkpt lat="45.563503" lon="7.820728">
        <ele>328.98511</ele>
        <time>2024-10-19T13:30:33.000Z</time>
      </trkpt>
      <trkpt lat="45.563477" lon="7.820728">
        <ele>328.9101</ele>
        <time>2024-10-19T13:30:35.000Z</time>
      </trkpt>
      <trkpt lat="45.563458" lon="7.82072">
        <ele>328.7901</ele>
        <time>2024-10-19T13:30:38.000Z</time>
      </trkpt>
      <trkpt lat="45.563438" lon="7.820737">
        <ele>328.64008</ele>
        <time>2024-10-19T13:30:40.000Z</time>
      </trkpt>
      <trkpt lat="45.563422" lon="7.82077">
        <ele>328.45511</ele>
        <time>2024-10-19T13:30:42.000Z</time>
      </trkpt>
      <trkpt lat="45.56341" lon="7.820812">
        <ele>328.2301</ele>
        <time>2024-10-19T13:30:44.000Z</time>
      </trkpt>
      <trkpt lat="45.563392" lon="7.820855">
        <ele>328.0051</ele>
        <time>2024-10-19T13:30:46.000Z</time>
      </trkpt>
      <trkpt lat="45.563373" lon="7.820883">
        <ele>327.7901</ele>
        <time>2024-10-19T13:30:48.000Z</time>
      </trkpt>
      <trkpt lat="45.563363" lon="7.820913">
        <ele>327.58514</ele>
        <time>2024-10-19T13:30:50.000Z</time>
      </trkpt>
      <trkpt lat="45.563358" lon="7.820952">
        <ele>327.34515</ele>
        <time>2024-10-19T13:30:52.000Z</time>
      </trkpt>
      <trkpt lat="45.563358" lon="7.82099">
        <ele>327.07513</ele>
        <time>2024-10-19T13:30:54.000Z</time>
      </trkpt>
      <trkpt lat="45.563347" lon="7.821032">
        <ele>326.82513</ele>
        <time>2024-10-19T13:30:56.000Z</time>
      </trkpt>
      <trkpt lat="45.563342" lon="7.821072">
        <ele>326.57013</ele>
        <time>2024-10-19T13:30:58.000Z</time>
      </trkpt>
      <trkpt lat="45.56333" lon="7.821108">
        <ele>326.33014</ele>
        <time>2024-10-19T13:31:00.000Z</time>
      </trkpt>
      <trkpt lat="45.563318" lon="7.821138">
        <ele>326.12018</ele>
        <time>2024-10-19T13:31:02.000Z</time>
      </trkpt>
      <trkpt lat="45.563313" lon="7.821167">
        <ele>325.86017</ele>
        <time>2024-10-19T13:31:04.000Z</time>
      </trkpt>
      <trkpt lat="45.563305" lon="7.8212">
        <ele>325.61017</ele>
        <time>2024-10-19T13:31:06.000Z</time>
      </trkpt>
      <trkpt lat="45.563292" lon="7.821225">
        <ele>325.33014</ele>
        <time>2024-10-19T13:31:08.000Z</time>
      </trkpt>
      <trkpt lat="45.563278" lon="7.821263">
        <ele>325.01514</ele>
        <time>2024-10-19T13:31:10.000Z</time>
      </trkpt>
      <trkpt lat="45.56326" lon="7.821302">
        <ele>324.68011</ele>
        <time>2024-10-19T13:31:12.000Z</time>
      </trkpt>
      <trkpt lat="45.563247" lon="7.821345">
        <ele>324.30511</ele>
        <time>2024-10-19T13:31:14.000Z</time>
      </trkpt>
      <trkpt lat="45.56323" lon="7.821385">
        <ele>323.9201</ele>
        <time>2024-10-19T13:31:16.000Z</time>
      </trkpt>
      <trkpt lat="45.563205" lon="7.821423">
        <ele>323.56512</ele>
        <time>2024-10-19T13:31:18.000Z</time>
      </trkpt>
      <trkpt lat="45.563198" lon="7.82145">
        <ele>323.30011</ele>
        <time>2024-10-19T13:31:19.000Z</time>
      </trkpt>
      <trkpt lat="45.563188" lon="7.821475">
        <ele>323.14511</ele>
        <time>2024-10-19T13:31:20.000Z</time>
      </trkpt>
      <trkpt lat="45.563173" lon="7.821508">
        <ele>323.15512</ele>
        <time>2024-10-19T13:31:22.000Z</time>
      </trkpt>
      <trkpt lat="45.563158" lon="7.82154">
        <ele>323.24011</ele>
        <time>2024-10-19T13:31:24.000Z</time>
      </trkpt>
      <trkpt lat="45.563142" lon="7.821568">
        <ele>323.34509</ele>
        <time>2024-10-19T13:31:26.000Z</time>
      </trkpt>
      <trkpt lat="45.563133" lon="7.821605">
        <ele>323.44009</ele>
        <time>2024-10-19T13:31:28.000Z</time>
      </trkpt>
      <trkpt lat="45.563125" lon="7.821637">
        <ele>323.59509</ele>
        <time>2024-10-19T13:31:30.000Z</time>
      </trkpt>
      <trkpt lat="45.563113" lon="7.821665">
        <ele>323.7551</ele>
        <time>2024-10-19T13:31:33.000Z</time>
      </trkpt>
      <trkpt lat="45.5631" lon="7.82169">
        <ele>323.92511</ele>
        <time>2024-10-19T13:31:35.000Z</time>
      </trkpt>
      <trkpt lat="45.563092" lon="7.821725">
        <ele>324.08511</ele>
        <time>2024-10-19T13:31:38.000Z</time>
      </trkpt>
      <trkpt lat="45.563075" lon="7.821767">
        <ele>324.23511</ele>
        <time>2024-10-19T13:31:40.000Z</time>
      </trkpt>
      <trkpt lat="45.563065" lon="7.821793">
        <ele>324.3551</ele>
        <time>2024-10-19T13:31:41.000Z</time>
      </trkpt>
      <trkpt lat="45.56304" lon="7.821833">
        <ele>324.47009</ele>
        <time>2024-10-19T13:31:43.000Z</time>
      </trkpt>
      <trkpt lat="45.563027" lon="7.821858">
        <ele>324.57507</ele>
        <time>2024-10-19T13:31:44.000Z</time>
      </trkpt>
      <trkpt lat="45.563013" lon="7.82188">
        <ele>324.71506</ele>
        <time>2024-10-19T13:31:45.000Z</time>
      </trkpt>
      <trkpt lat="45.562993" lon="7.821917">
        <ele>324.87006</ele>
        <time>2024-10-19T13:31:47.000Z</time>
      </trkpt>
      <trkpt lat="45.562985" lon="7.821952">
        <ele>325.01508</ele>
        <time>2024-10-19T13:31:49.000Z</time>
      </trkpt>
      <trkpt lat="45.562963" lon="7.821978">
        <ele>325.11008</ele>
        <time>2024-10-19T13:31:51.000Z</time>
      </trkpt>
      <trkpt lat="45.562943" lon="7.822005">
        <ele>325.1651</ele>
        <time>2024-10-19T13:31:53.000Z</time>
      </trkpt>
      <trkpt lat="45.562922" lon="7.82203">
        <ele>325.19507</ele>
        <time>2024-10-19T13:31:55.000Z</time>
      </trkpt>
      <trkpt lat="45.5629" lon="7.822052">
        <ele>325.15009</ele>
        <time>2024-10-19T13:31:57.000Z</time>
      </trkpt>
      <trkpt lat="45.562877" lon="7.822085">
        <ele>325.02509</ele>
        <time>2024-10-19T13:31:59.000Z</time>
      </trkpt>
      <trkpt lat="45.562863" lon="7.822107">
        <ele>324.76007</ele>
        <time>2024-10-19T13:32:01.000Z</time>
      </trkpt>
      <trkpt lat="45.56286" lon="7.822145">
        <ele>324.46506</ele>
        <time>2024-10-19T13:32:03.000Z</time>
      </trkpt>
      <trkpt lat="45.562843" lon="7.822182">
        <ele>324.14508</ele>
        <time>2024-10-19T13:32:05.000Z</time>
      </trkpt>
      <trkpt lat="45.562837" lon="7.822223">
        <ele>323.87006</ele>
        <time>2024-10-19T13:32:07.000Z</time>
      </trkpt>
      <trkpt lat="45.562818" lon="7.822258">
        <ele>323.58005</ele>
        <time>2024-10-19T13:32:09.000Z</time>
      </trkpt>
      <trkpt lat="45.5628" lon="7.822288">
        <ele>323.29504</ele>
        <time>2024-10-19T13:32:11.000Z</time>
      </trkpt>
      <trkpt lat="45.56278" lon="7.822325">
        <ele>323.00504</ele>
        <time>2024-10-19T13:32:13.000Z</time>
      </trkpt>
      <trkpt lat="45.562758" lon="7.822363">
        <ele>322.75003</ele>
        <time>2024-10-19T13:32:15.000Z</time>
      </trkpt>
      <trkpt lat="45.562742" lon="7.8224">
        <ele>322.53503</ele>
        <time>2024-10-19T13:32:17.000Z</time>
      </trkpt>
      <trkpt lat="45.562732" lon="7.822435">
        <ele>322.36505</ele>
        <time>2024-10-19T13:32:19.000Z</time>
      </trkpt>
      <trkpt lat="45.562722" lon="7.822472">
        <ele>322.28006</ele>
        <time>2024-10-19T13:32:21.000Z</time>
      </trkpt>
      <trkpt lat="45.56271" lon="7.822492">
        <ele>322.24005</ele>
        <time>2024-10-19T13:32:22.000Z</time>
      </trkpt>
      <trkpt lat="45.562695" lon="7.822507">
        <ele>322.21008</ele>
        <time>2024-10-19T13:32:23.000Z</time>
      </trkpt>
      <trkpt lat="45.562685" lon="7.822528">
        <ele>322.22009</ele>
        <time>2024-10-19T13:32:24.000Z</time>
      </trkpt>
      <trkpt lat="45.562675" lon="7.822553">
        <ele>322.26508</ele>
        <time>2024-10-19T13:32:25.000Z</time>
      </trkpt>
      <trkpt lat="45.562652" lon="7.822595">
        <ele>322.34009</ele>
        <time>2024-10-19T13:32:27.000Z</time>
      </trkpt>
      <trkpt lat="45.562637" lon="7.822613">
        <ele>322.43509</ele>
        <time>2024-10-19T13:32:28.000Z</time>
      </trkpt>
      <trkpt lat="45.562622" lon="7.822647">
        <ele>322.56509</ele>
        <time>2024-10-19T13:32:30.000Z</time>
      </trkpt>
      <trkpt lat="45.562615" lon="7.822677">
        <ele>322.76508</ele>
        <time>2024-10-19T13:32:32.000Z</time>
      </trkpt>
      <trkpt lat="45.56261" lon="7.82271">
        <ele>323.01007</ele>
        <time>2024-10-19T13:32:34.000Z</time>
      </trkpt>
      <trkpt lat="45.56259" lon="7.822733">
        <ele>323.26007</ele>
        <time>2024-10-19T13:32:36.000Z</time>
      </trkpt>
      <trkpt lat="45.562572" lon="7.822755">
        <ele>323.46008</ele>
        <time>2024-10-19T13:32:38.000Z</time>
      </trkpt>
      <trkpt lat="45.562552" lon="7.82279">
        <ele>323.67511</ele>
        <time>2024-10-19T13:32:40.000Z</time>
      </trkpt>
      <trkpt lat="45.562532" lon="7.822822">
        <ele>323.8551</ele>
        <time>2024-10-19T13:32:42.000Z</time>
      </trkpt>
      <trkpt lat="45.562525" lon="7.822848">
        <ele>324.03009</ele>
        <time>2024-10-19T13:32:43.000Z</time>
      </trkpt>
      <trkpt lat="45.562508" lon="7.822883">
        <ele>324.24011</ele>
        <time>2024-10-19T13:32:45.000Z</time>
      </trkpt>
      <trkpt lat="45.562492" lon="7.822907">
        <ele>324.44513</ele>
        <time>2024-10-19T13:32:47.000Z</time>
      </trkpt>
      <trkpt lat="45.562467" lon="7.822928">
        <ele>324.60513</ele>
        <time>2024-10-19T13:32:49.000Z</time>
      </trkpt>
      <trkpt lat="45.562462" lon="7.822955">
        <ele>324.74011</ele>
        <time>2024-10-19T13:32:50.000Z</time>
      </trkpt>
      <trkpt lat="45.562453" lon="7.82298">
        <ele>324.86011</ele>
        <time>2024-10-19T13:32:51.000Z</time>
      </trkpt>
      <trkpt lat="45.562438" lon="7.823012">
        <ele>324.95511</ele>
        <time>2024-10-19T13:32:53.000Z</time>
      </trkpt>
      <trkpt lat="45.56243" lon="7.823048">
        <ele>325.01511</ele>
        <time>2024-10-19T13:32:55.000Z</time>
      </trkpt>
      <trkpt lat="45.562417" lon="7.823082">
        <ele>325.0351</ele>
        <time>2024-10-19T13:32:57.000Z</time>
      </trkpt>
      <trkpt lat="45.562402" lon="7.823108">
        <ele>324.98511</ele>
        <time>2024-10-19T13:32:59.000Z</time>
      </trkpt>
      <trkpt lat="45.562392" lon="7.823145">
        <ele>324.9101</ele>
        <time>2024-10-19T13:33:01.000Z</time>
      </trkpt>
      <trkpt lat="45.562383" lon="7.823178">
        <ele>324.80511</ele>
        <time>2024-10-19T13:33:03.000Z</time>
      </trkpt>
      <trkpt lat="45.56237" lon="7.823205">
        <ele>324.7251</ele>
        <time>2024-10-19T13:33:05.000Z</time>
      </trkpt>
      <trkpt lat="45.562357" lon="7.82324">
        <ele>324.67511</ele>
        <time>2024-10-19T13:33:07.000Z</time>
      </trkpt>
      <trkpt lat="45.562342" lon="7.823272">
        <ele>324.65009</ele>
        <time>2024-10-19T13:33:09.000Z</time>
      </trkpt>
      <trkpt lat="45.562315" lon="7.823303">
        <ele>324.58511</ele>
        <time>2024-10-19T13:33:11.000Z</time>
      </trkpt>
      <trkpt lat="45.562302" lon="7.823322">
        <ele>324.50012</ele>
        <time>2024-10-19T13:33:12.000Z</time>
      </trkpt>
      <trkpt lat="45.56229" lon="7.82336">
        <ele>324.41013</ele>
        <time>2024-10-19T13:33:14.000Z</time>
      </trkpt>
      <trkpt lat="45.56228" lon="7.82339">
        <ele>324.2951</ele>
        <time>2024-10-19T13:33:16.000Z</time>
      </trkpt>
      <trkpt lat="45.562267" lon="7.823422">
        <ele>324.17511</ele>
        <time>2024-10-19T13:33:18.000Z</time>
      </trkpt>
      <trkpt lat="45.562252" lon="7.823457">
        <ele>324.03009</ele>
        <time>2024-10-19T13:33:20.000Z</time>
      </trkpt>
      <trkpt lat="45.562238" lon="7.82349">
        <ele>323.8801</ele>
        <time>2024-10-19T13:33:22.000Z</time>
      </trkpt>
      <trkpt lat="45.562228" lon="7.823527">
        <ele>323.72012</ele>
        <time>2024-10-19T13:33:24.000Z</time>
      </trkpt>
      <trkpt lat="45.562215" lon="7.823558">
        <ele>323.57013</ele>
        <time>2024-10-19T13:33:26.000Z</time>
      </trkpt>
      <trkpt lat="45.562195" lon="7.823593">
        <ele>323.40512</ele>
        <time>2024-10-19T13:33:28.000Z</time>
      </trkpt>
      <trkpt lat="45.562185" lon="7.823622">
        <ele>323.24011</ele>
        <time>2024-10-19T13:33:29.000Z</time>
      </trkpt>
      <trkpt lat="45.562168" lon="7.823657">
        <ele>323.07513</ele>
        <time>2024-10-19T13:33:31.000Z</time>
      </trkpt>
      <trkpt lat="45.562143" lon="7.823678">
        <ele>322.9151</ele>
        <time>2024-10-19T13:33:33.000Z</time>
      </trkpt>
      <trkpt lat="45.562128" lon="7.823715">
        <ele>322.77509</ele>
        <time>2024-10-19T13:33:35.000Z</time>
      </trkpt>
      <trkpt lat="45.562103" lon="7.82375">
        <ele>322.64008</ele>
        <time>2024-10-19T13:33:37.000Z</time>
      </trkpt>
      <trkpt lat="45.56209" lon="7.823768">
        <ele>322.51508</ele>
        <time>2024-10-19T13:33:38.000Z</time>
      </trkpt>
      <trkpt lat="45.562073" lon="7.823802">
        <ele>322.39008</ele>
        <time>2024-10-19T13:33:40.000Z</time>
      </trkpt>
      <trkpt lat="45.562062" lon="7.823822">
        <ele>322.2601</ele>
        <time>2024-10-19T13:33:41.000Z</time>
      </trkpt>
      <trkpt lat="45.562043" lon="7.823857">
        <ele>322.1301</ele>
        <time>2024-10-19T13:33:43.000Z</time>
      </trkpt>
      <trkpt lat="45.562023" lon="7.823885">
        <ele>321.9501</ele>
        <time>2024-10-19T13:33:45.000Z</time>
      </trkpt>
      <trkpt lat="45.561998" lon="7.823905">
        <ele>321.80508</ele>
        <time>2024-10-19T13:33:47.000Z</time>
      </trkpt>
      <trkpt lat="45.561983" lon="7.82393">
        <ele>321.69507</ele>
        <time>2024-10-19T13:33:49.000Z</time>
      </trkpt>
      <trkpt lat="45.56197" lon="7.823965">
        <ele>321.62006</ele>
        <time>2024-10-19T13:33:51.000Z</time>
      </trkpt>
      <trkpt lat="45.561962" lon="7.82401">
        <ele>321.60507</ele>
        <time>2024-10-19T13:33:53.000Z</time>
      </trkpt>
      <trkpt lat="45.561952" lon="7.824053">
        <ele>321.68509</ele>
        <time>2024-10-19T13:33:55.000Z</time>
      </trkpt>
      <trkpt lat="45.561943" lon="7.824088">
        <ele>321.83508</ele>
        <time>2024-10-19T13:33:57.000Z</time>
      </trkpt>
      <trkpt lat="45.561933" lon="7.82411">
        <ele>321.95007</ele>
        <time>2024-10-19T13:33:59.000Z</time>
      </trkpt>
      <trkpt lat="45.561917" lon="7.824127">
        <ele>322.06506</ele>
        <time>2024-10-19T13:34:01.000Z</time>
      </trkpt>
      <trkpt lat="45.561902" lon="7.82416">
        <ele>322.20505</ele>
        <time>2024-10-19T13:34:03.000Z</time>
      </trkpt>
      <trkpt lat="45.561887" lon="7.824192">
        <ele>322.37006</ele>
        <time>2024-10-19T13:34:05.000Z</time>
      </trkpt>
      <trkpt lat="45.56187" lon="7.824223">
        <ele>322.52505</ele>
        <time>2024-10-19T13:34:07.000Z</time>
      </trkpt>
      <trkpt lat="45.561858" lon="7.82426">
        <ele>322.66003</ele>
        <time>2024-10-19T13:34:09.000Z</time>
      </trkpt>
      <trkpt lat="45.561847" lon="7.824292">
        <ele>322.80502</ele>
        <time>2024-10-19T13:34:11.000Z</time>
      </trkpt>
      <trkpt lat="45.561827" lon="7.824328">
        <ele>322.96503</ele>
        <time>2024-10-19T13:34:13.000Z</time>
      </trkpt>
      <trkpt lat="45.56181" lon="7.824368">
        <ele>323.19003</ele>
        <time>2024-10-19T13:34:15.000Z</time>
      </trkpt>
      <trkpt lat="45.561795" lon="7.824402">
        <ele>323.42505</ele>
        <time>2024-10-19T13:34:17.000Z</time>
      </trkpt>
      <trkpt lat="45.56178" lon="7.82444">
        <ele>323.70505</ele>
        <time>2024-10-19T13:34:19.000Z</time>
      </trkpt>
      <trkpt lat="45.56177" lon="7.824482">
        <ele>323.96503</ele>
        <time>2024-10-19T13:34:21.000Z</time>
      </trkpt>
      <trkpt lat="45.561755" lon="7.824517">
        <ele>324.18506</ele>
        <time>2024-10-19T13:34:23.000Z</time>
      </trkpt>
      <trkpt lat="45.561747" lon="7.824542">
        <ele>324.42508</ele>
        <time>2024-10-19T13:34:24.000Z</time>
      </trkpt>
      <trkpt lat="45.561732" lon="7.824577">
        <ele>324.71008</ele>
        <time>2024-10-19T13:34:26.000Z</time>
      </trkpt>
      <trkpt lat="45.561712" lon="7.824607">
        <ele>324.98007</ele>
        <time>2024-10-19T13:34:28.000Z</time>
      </trkpt>
      <trkpt lat="45.561695" lon="7.824643">
        <ele>325.24506</ele>
        <time>2024-10-19T13:34:30.000Z</time>
      </trkpt>
      <trkpt lat="45.56168" lon="7.824667">
        <ele>325.47006</ele>
        <time>2024-10-19T13:34:32.000Z</time>
      </trkpt>
      <trkpt lat="45.561663" lon="7.82471">
        <ele>325.56506</ele>
        <time>2024-10-19T13:34:34.000Z</time>
      </trkpt>
      <trkpt lat="45.56165" lon="7.824755">
        <ele>325.56006</ele>
        <time>2024-10-19T13:34:36.000Z</time>
      </trkpt>
      <trkpt lat="45.561633" lon="7.824783">
        <ele>325.55005</ele>
        <time>2024-10-19T13:34:38.000Z</time>
      </trkpt>
      <trkpt lat="45.561605" lon="7.824813">
        <ele>325.54504</ele>
        <time>2024-10-19T13:34:40.000Z</time>
      </trkpt>
      <trkpt lat="45.561593" lon="7.824833">
        <ele>325.52505</ele>
        <time>2024-10-19T13:34:41.000Z</time>
      </trkpt>
      <trkpt lat="45.561582" lon="7.824875">
        <ele>325.47003</ele>
        <time>2024-10-19T13:34:43.000Z</time>
      </trkpt>
      <trkpt lat="45.561575" lon="7.824917">
        <ele>325.39505</ele>
        <time>2024-10-19T13:34:45.000Z</time>
      </trkpt>
      <trkpt lat="45.561557" lon="7.824957">
        <ele>325.32004</ele>
        <time>2024-10-19T13:34:47.000Z</time>
      </trkpt>
      <trkpt lat="45.56154" lon="7.824995">
        <ele>325.25006</ele>
        <time>2024-10-19T13:34:49.000Z</time>
      </trkpt>
      <trkpt lat="45.561523" lon="7.82501">
        <ele>325.15005</ele>
        <time>2024-10-19T13:34:51.000Z</time>
      </trkpt>
      <trkpt lat="45.5615" lon="7.825038">
        <ele>325.03006</ele>
        <time>2024-10-19T13:34:53.000Z</time>
      </trkpt>
      <trkpt lat="45.561477" lon="7.825065">
        <ele>324.90506</ele>
        <time>2024-10-19T13:34:55.000Z</time>
      </trkpt>
      <trkpt lat="45.561452" lon="7.825087">
        <ele>324.74506</ele>
        <time>2024-10-19T13:34:57.000Z</time>
      </trkpt>
      <trkpt lat="45.56143" lon="7.825117">
        <ele>324.59003</ele>
        <time>2024-10-19T13:34:59.000Z</time>
      </trkpt>
      <trkpt lat="45.561417" lon="7.825148">
        <ele>324.42502</ele>
        <time>2024-10-19T13:35:01.000Z</time>
      </trkpt>
      <trkpt lat="45.561395" lon="7.825187">
        <ele>324.23001</ele>
        <time>2024-10-19T13:35:03.000Z</time>
      </trkpt>
      <trkpt lat="45.561387" lon="7.825223">
        <ele>323.95001</ele>
        <time>2024-10-19T13:35:05.000Z</time>
      </trkpt>
      <trkpt lat="45.561372" lon="7.825248">
        <ele>323.67499</ele>
        <time>2024-10-19T13:35:07.000Z</time>
      </trkpt>
      <trkpt lat="45.561363" lon="7.825283">
        <ele>323.41998</ele>
        <time>2024-10-19T13:35:09.000Z</time>
      </trkpt>
      <trkpt lat="45.561338" lon="7.825312">
        <ele>323.17499</ele>
        <time>2024-10-19T13:35:11.000Z</time>
      </trkpt>
      <trkpt lat="45.561323" lon="7.825328">
        <ele>322.98502</ele>
        <time>2024-10-19T13:35:12.000Z</time>
      </trkpt>
      <trkpt lat="45.56131" lon="7.825347">
        <ele>322.85504</ele>
        <time>2024-10-19T13:35:13.000Z</time>
      </trkpt>
      <trkpt lat="45.561288" lon="7.825372">
        <ele>322.76505</ele>
        <time>2024-10-19T13:35:15.000Z</time>
      </trkpt>
      <trkpt lat="45.56127" lon="7.825398">
        <ele>322.70004</ele>
        <time>2024-10-19T13:35:17.000Z</time>
      </trkpt>
      <trkpt lat="45.561253" lon="7.825438">
        <ele>322.69003</ele>
        <time>2024-10-19T13:35:19.000Z</time>
      </trkpt>
      <trkpt lat="45.561243" lon="7.825462">
        <ele>322.72003</ele>
        <time>2024-10-19T13:35:20.000Z</time>
      </trkpt>
      <trkpt lat="45.561232" lon="7.825482">
        <ele>322.79504</ele>
        <time>2024-10-19T13:35:21.000Z</time>
      </trkpt>
      <trkpt lat="45.561207" lon="7.825518">
        <ele>322.90506</ele>
        <time>2024-10-19T13:35:23.000Z</time>
      </trkpt>
      <trkpt lat="45.561185" lon="7.82554">
        <ele>323.01007</ele>
        <time>2024-10-19T13:35:25.000Z</time>
      </trkpt>
      <trkpt lat="45.561163" lon="7.825572">
        <ele>323.14508</ele>
        <time>2024-10-19T13:35:27.000Z</time>
      </trkpt>
      <trkpt lat="45.561143" lon="7.8256">
        <ele>323.27509</ele>
        <time>2024-10-19T13:35:29.000Z</time>
      </trkpt>
      <trkpt lat="45.561132" lon="7.825633">
        <ele>323.40509</ele>
        <time>2024-10-19T13:35:31.000Z</time>
      </trkpt>
      <trkpt lat="45.561123" lon="7.82568">
        <ele>323.55508</ele>
        <time>2024-10-19T13:35:33.000Z</time>
      </trkpt>
      <trkpt lat="45.561117" lon="7.82571">
        <ele>323.73007</ele>
        <time>2024-10-19T13:35:34.000Z</time>
      </trkpt>
      <trkpt lat="45.561102" lon="7.825743">
        <ele>323.96008</ele>
        <time>2024-10-19T13:35:36.000Z</time>
      </trkpt>
      <trkpt lat="45.561078" lon="7.825758">
        <ele>324.1601</ele>
        <time>2024-10-19T13:35:38.000Z</time>
      </trkpt>
      <trkpt lat="45.561062" lon="7.825793">
        <ele>324.40509</ele>
        <time>2024-10-19T13:35:40.000Z</time>
      </trkpt>
      <trkpt lat="45.561037" lon="7.825833">
        <ele>324.6601</ele>
        <time>2024-10-19T13:35:42.000Z</time>
      </trkpt>
      <trkpt lat="45.561017" lon="7.825863">
        <ele>324.9201</ele>
        <time>2024-10-19T13:35:44.000Z</time>
      </trkpt>
      <trkpt lat="45.560992" lon="7.82589">
        <ele>325.19009</ele>
        <time>2024-10-19T13:35:46.000Z</time>
      </trkpt>
      <trkpt lat="45.560972" lon="7.825923">
        <ele>325.48508</ele>
        <time>2024-10-19T13:35:48.000Z</time>
      </trkpt>
      <trkpt lat="45.560945" lon="7.825958">
        <ele>325.79507</ele>
        <time>2024-10-19T13:35:50.000Z</time>
      </trkpt>
      <trkpt lat="45.560927" lon="7.825978">
        <ele>326.08008</ele>
        <time>2024-10-19T13:35:52.000Z</time>
      </trkpt>
      <trkpt lat="45.560908" lon="7.826013">
        <ele>326.34506</ele>
        <time>2024-10-19T13:35:54.000Z</time>
      </trkpt>
      <trkpt lat="45.56089" lon="7.826047">
        <ele>326.54007</ele>
        <time>2024-10-19T13:35:56.000Z</time>
      </trkpt>
      <trkpt lat="45.56088" lon="7.826087">
        <ele>326.72507</ele>
        <time>2024-10-19T13:35:58.000Z</time>
      </trkpt>
      <trkpt lat="45.560865" lon="7.82612">
        <ele>326.86508</ele>
        <time>2024-10-19T13:36:00.000Z</time>
      </trkpt>
      <trkpt lat="45.560852" lon="7.826138">
        <ele>326.97009</ele>
        <time>2024-10-19T13:36:01.000Z</time>
      </trkpt>
      <trkpt lat="45.560828" lon="7.826167">
        <ele>327.0451</ele>
        <time>2024-10-19T13:36:03.000Z</time>
      </trkpt>
      <trkpt lat="45.560805" lon="7.826187">
        <ele>327.09009</ele>
        <time>2024-10-19T13:36:05.000Z</time>
      </trkpt>
      <trkpt lat="45.560788" lon="7.826215">
        <ele>327.12506</ele>
        <time>2024-10-19T13:36:07.000Z</time>
      </trkpt>
      <trkpt lat="45.560777" lon="7.826245">
        <ele>327.12506</ele>
        <time>2024-10-19T13:36:09.000Z</time>
      </trkpt>
      <trkpt lat="45.560763" lon="7.826287">
        <ele>327.14008</ele>
        <time>2024-10-19T13:36:11.000Z</time>
      </trkpt>
      <trkpt lat="45.56075" lon="7.82631">
        <ele>327.1601</ele>
        <time>2024-10-19T13:36:12.000Z</time>
      </trkpt>
      <trkpt lat="45.560725" lon="7.826342">
        <ele>327.13507</ele>
        <time>2024-10-19T13:36:14.000Z</time>
      </trkpt>
      <trkpt lat="45.560698" lon="7.826355">
        <ele>327.06009</ele>
        <time>2024-10-19T13:36:16.000Z</time>
      </trkpt>
      <trkpt lat="45.560677" lon="7.826382">
        <ele>326.8801</ele>
        <time>2024-10-19T13:36:18.000Z</time>
      </trkpt>
      <trkpt lat="45.56065" lon="7.826415">
        <ele>326.55511</ele>
        <time>2024-10-19T13:36:21.000Z</time>
      </trkpt>
      <trkpt lat="45.560638" lon="7.826435">
        <ele>326.1651</ele>
        <time>2024-10-19T13:36:22.000Z</time>
      </trkpt>
      <trkpt lat="45.560627" lon="7.826468">
        <ele>325.68509</ele>
        <time>2024-10-19T13:36:24.000Z</time>
      </trkpt>
      <trkpt lat="45.560618" lon="7.826492">
        <ele>325.14008</ele>
        <time>2024-10-19T13:36:26.000Z</time>
      </trkpt>
      <trkpt lat="45.56061" lon="7.826518">
        <ele>324.5751</ele>
        <time>2024-10-19T13:36:28.000Z</time>
      </trkpt>
      <trkpt lat="45.560595" lon="7.826547">
        <ele>324.02008</ele>
        <time>2024-10-19T13:36:30.000Z</time>
      </trkpt>
      <trkpt lat="45.56058" lon="7.826578">
        <ele>323.49509</ele>
        <time>2024-10-19T13:36:32.000Z</time>
      </trkpt>
      <trkpt lat="45.560573" lon="7.826605">
        <ele>323.02509</ele>
        <time>2024-10-19T13:36:33.000Z</time>
      </trkpt>
      <trkpt lat="45.560572" lon="7.826632">
        <ele>322.56509</ele>
        <time>2024-10-19T13:36:34.000Z</time>
      </trkpt>
      <trkpt lat="45.560563" lon="7.826655">
        <ele>322.13507</ele>
        <time>2024-10-19T13:36:36.000Z</time>
      </trkpt>
      <trkpt lat="45.560545" lon="7.82667">
        <ele>321.71506</ele>
        <time>2024-10-19T13:36:38.000Z</time>
      </trkpt>
      <trkpt lat="45.560528" lon="7.826692">
        <ele>321.34006</ele>
        <time>2024-10-19T13:36:40.000Z</time>
      </trkpt>
      <trkpt lat="45.560512" lon="7.826712">
        <ele>321.04007</ele>
        <time>2024-10-19T13:36:42.000Z</time>
      </trkpt>
      <trkpt lat="45.56049" lon="7.82674">
        <ele>320.80008</ele>
        <time>2024-10-19T13:36:44.000Z</time>
      </trkpt>
      <trkpt lat="45.560465" lon="7.826762">
        <ele>320.62006</ele>
        <time>2024-10-19T13:36:46.000Z</time>
      </trkpt>
      <trkpt lat="45.56044" lon="7.826792">
        <ele>320.45007</ele>
        <time>2024-10-19T13:36:48.000Z</time>
      </trkpt>
      <trkpt lat="45.560428" lon="7.826817">
        <ele>320.28006</ele>
        <time>2024-10-19T13:36:49.000Z</time>
      </trkpt>
      <trkpt lat="45.560422" lon="7.826843">
        <ele>320.14008</ele>
        <time>2024-10-19T13:36:50.000Z</time>
      </trkpt>
      <trkpt lat="45.560407" lon="7.826883">
        <ele>320.10007</ele>
        <time>2024-10-19T13:36:52.000Z</time>
      </trkpt>
      <trkpt lat="45.56039" lon="7.82691">
        <ele>320.17508</ele>
        <time>2024-10-19T13:36:54.000Z</time>
      </trkpt>
      <trkpt lat="45.560377" lon="7.826942">
        <ele>320.40009</ele>
        <time>2024-10-19T13:36:56.000Z</time>
      </trkpt>
      <trkpt lat="45.560363" lon="7.826972">
        <ele>320.6951</ele>
        <time>2024-10-19T13:36:58.000Z</time>
      </trkpt>
      <trkpt lat="45.560343" lon="7.827012">
        <ele>321.06009</ele>
        <time>2024-10-19T13:37:00.000Z</time>
      </trkpt>
      <trkpt lat="45.560323" lon="7.827047">
        <ele>321.46008</ele>
        <time>2024-10-19T13:37:02.000Z</time>
      </trkpt>
      <trkpt lat="45.560312" lon="7.827067">
        <ele>321.88507</ele>
        <time>2024-10-19T13:37:03.000Z</time>
      </trkpt>
      <trkpt lat="45.560287" lon="7.8271">
        <ele>322.35507</ele>
        <time>2024-10-19T13:37:05.000Z</time>
      </trkpt>
      <trkpt lat="45.560267" lon="7.827132">
        <ele>322.85507</ele>
        <time>2024-10-19T13:37:07.000Z</time>
      </trkpt>
      <trkpt lat="45.560238" lon="7.827157">
        <ele>323.34009</ele>
        <time>2024-10-19T13:37:09.000Z</time>
      </trkpt>
      <trkpt lat="45.560213" lon="7.827188">
        <ele>323.81509</ele>
        <time>2024-10-19T13:37:11.000Z</time>
      </trkpt>
      <trkpt lat="45.56019" lon="7.827208">
        <ele>324.28009</ele>
        <time>2024-10-19T13:37:13.000Z</time>
      </trkpt>
      <trkpt lat="45.560173" lon="7.82722">
        <ele>324.73508</ele>
        <time>2024-10-19T13:37:14.000Z</time>
      </trkpt>
      <trkpt lat="45.560158" lon="7.827235">
        <ele>325.17007</ele>
        <time>2024-10-19T13:37:15.000Z</time>
      </trkpt>
      <trkpt lat="45.560135" lon="7.827263">
        <ele>325.57507</ele>
        <time>2024-10-19T13:37:17.000Z</time>
      </trkpt>
      <trkpt lat="45.560117" lon="7.82728">
        <ele>325.95007</ele>
        <time>2024-10-19T13:37:19.000Z</time>
      </trkpt>
      <trkpt lat="45.560087" lon="7.827287">
        <ele>326.27509</ele>
        <time>2024-10-19T13:37:21.000Z</time>
      </trkpt>
      <trkpt lat="45.560062" lon="7.827312">
        <ele>326.55508</ele>
        <time>2024-10-19T13:37:23.000Z</time>
      </trkpt>
      <trkpt lat="45.560045" lon="7.827337">
        <ele>326.8201</ele>
        <time>2024-10-19T13:37:25.000Z</time>
      </trkpt>
      <trkpt lat="45.560028" lon="7.827357">
        <ele>327.11508</ele>
        <time>2024-10-19T13:37:27.000Z</time>
      </trkpt>
      <trkpt lat="45.560003" lon="7.827357">
        <ele>327.43509</ele>
        <time>2024-10-19T13:37:29.000Z</time>
      </trkpt>
      <trkpt lat="45.559972" lon="7.827352">
        <ele>327.69006</ele>
        <time>2024-10-19T13:37:31.000Z</time>
      </trkpt>
      <trkpt lat="45.559952" lon="7.827352">
        <ele>327.93506</ele>
        <time>2024-10-19T13:37:32.000Z</time>
      </trkpt>
      <trkpt lat="45.559932" lon="7.827355">
        <ele>328.15506</ele>
        <time>2024-10-19T13:37:33.000Z</time>
      </trkpt>
      <trkpt lat="45.559908" lon="7.827352">
        <ele>328.35504</ele>
        <time>2024-10-19T13:37:34.000Z</time>
      </trkpt>
      <trkpt lat="45.559882" lon="7.827357">
        <ele>328.56006</ele>
        <time>2024-10-19T13:37:36.000Z</time>
      </trkpt>
      <trkpt lat="45.55985" lon="7.827342">
        <ele>328.71506</ele>
        <time>2024-10-19T13:37:38.000Z</time>
      </trkpt>
      <trkpt lat="45.55982" lon="7.827328">
        <ele>328.81506</ele>
        <time>2024-10-19T13:37:40.000Z</time>
      </trkpt>
      <trkpt lat="45.559785" lon="7.827313">
        <ele>328.86005</ele>
        <time>2024-10-19T13:37:42.000Z</time>
      </trkpt>
      <trkpt lat="45.559767" lon="7.827303">
        <ele>328.90506</ele>
        <time>2024-10-19T13:37:43.000Z</time>
      </trkpt>
      <trkpt lat="45.559742" lon="7.827292">
        <ele>328.98004</ele>
        <time>2024-10-19T13:37:45.000Z</time>
      </trkpt>
      <trkpt lat="45.559723" lon="7.82728">
        <ele>329.02505</ele>
        <time>2024-10-19T13:37:47.000Z</time>
      </trkpt>
      <trkpt lat="45.559702" lon="7.82727">
        <ele>329.04504</ele>
        <time>2024-10-19T13:37:49.000Z</time>
      </trkpt>
      <trkpt lat="45.55968" lon="7.827272">
        <ele>329.09503</ele>
        <time>2024-10-19T13:37:51.000Z</time>
      </trkpt>
      <trkpt lat="45.559653" lon="7.827267">
        <ele>329.14505</ele>
        <time>2024-10-19T13:37:53.000Z</time>
      </trkpt>
      <trkpt lat="45.559625" lon="7.827257">
        <ele>329.14505</ele>
        <time>2024-10-19T13:37:55.000Z</time>
      </trkpt>
      <trkpt lat="45.559597" lon="7.827255">
        <ele>329.19003</ele>
        <time>2024-10-19T13:37:57.000Z</time>
      </trkpt>
      <trkpt lat="45.559577" lon="7.827252">
        <ele>329.26004</ele>
        <time>2024-10-19T13:37:59.000Z</time>
      </trkpt>
      <trkpt lat="45.559547" lon="7.827245">
        <ele>329.28503</ele>
        <time>2024-10-19T13:38:01.000Z</time>
      </trkpt>
      <trkpt lat="45.55952" lon="7.827248">
        <ele>329.25003</ele>
        <time>2024-10-19T13:38:03.000Z</time>
      </trkpt>
      <trkpt lat="45.559487" lon="7.827247">
        <ele>329.15503</ele>
        <time>2024-10-19T13:38:05.000Z</time>
      </trkpt>
      <trkpt lat="45.55945" lon="7.827247">
        <ele>329.07504</ele>
        <time>2024-10-19T13:38:07.000Z</time>
      </trkpt>
      <trkpt lat="45.559418" lon="7.827243">
        <ele>329.01007</ele>
        <time>2024-10-19T13:38:09.000Z</time>
      </trkpt>
      <trkpt lat="45.559398" lon="7.82724">
        <ele>328.98505</ele>
        <time>2024-10-19T13:38:10.000Z</time>
      </trkpt>
      <trkpt lat="45.559365" lon="7.827238">
        <ele>329.05008</ele>
        <time>2024-10-19T13:38:12.000Z</time>
      </trkpt>
      <trkpt lat="45.559347" lon="7.827245">
        <ele>329.16006</ele>
        <time>2024-10-19T13:38:14.000Z</time>
      </trkpt>
      <trkpt lat="45.559328" lon="7.827257">
        <ele>329.30005</ele>
        <time>2024-10-19T13:38:17.000Z</time>
      </trkpt>
      <trkpt lat="45.55931" lon="7.827268">
        <ele>329.45505</ele>
        <time>2024-10-19T13:38:19.000Z</time>
      </trkpt>
      <trkpt lat="45.559295" lon="7.827285">
        <ele>329.60007</ele>
        <time>2024-10-19T13:38:20.000Z</time>
      </trkpt>
      <trkpt lat="45.559282" lon="7.827312">
        <ele>329.72006</ele>
        <time>2024-10-19T13:38:22.000Z</time>
      </trkpt>
      <trkpt lat="45.559272" lon="7.827338">
        <ele>329.75507</ele>
        <time>2024-10-19T13:38:25.000Z</time>
      </trkpt>
      <trkpt lat="45.559253" lon="7.827357">
        <ele>329.83508</ele>
        <time>2024-10-19T13:38:27.000Z</time>
      </trkpt>
      <trkpt lat="45.55923" lon="7.827382">
        <ele>329.93509</ele>
        <time>2024-10-19T13:38:29.000Z</time>
      </trkpt>
      <trkpt lat="45.559218" lon="7.827408">
        <ele>330.0051</ele>
        <time>2024-10-19T13:38:31.000Z</time>
      </trkpt>
      <trkpt lat="45.559207" lon="7.82743">
        <ele>330.05011</ele>
        <time>2024-10-19T13:38:33.000Z</time>
      </trkpt>
      <trkpt lat="45.559195" lon="7.82745">
        <ele>330.15509</ele>
        <time>2024-10-19T13:38:35.000Z</time>
      </trkpt>
      <trkpt lat="45.559175" lon="7.82749">
        <ele>330.2951</ele>
        <time>2024-10-19T13:38:37.000Z</time>
      </trkpt>
      <trkpt lat="45.559152" lon="7.82752">
        <ele>330.46014</ele>
        <time>2024-10-19T13:38:39.000Z</time>
      </trkpt>
      <trkpt lat="45.559137" lon="7.82755">
        <ele>330.69513</ele>
        <time>2024-10-19T13:38:41.000Z</time>
      </trkpt>
      <trkpt lat="45.559132" lon="7.827587">
        <ele>330.98013</ele>
        <time>2024-10-19T13:38:43.000Z</time>
      </trkpt>
      <trkpt lat="45.559107" lon="7.827605">
        <ele>331.26514</ele>
        <time>2024-10-19T13:38:45.000Z</time>
      </trkpt>
      <trkpt lat="45.559085" lon="7.827628">
        <ele>331.56512</ele>
        <time>2024-10-19T13:38:47.000Z</time>
      </trkpt>
      <trkpt lat="45.559063" lon="7.827642">
        <ele>331.81512</ele>
        <time>2024-10-19T13:38:49.000Z</time>
      </trkpt>
      <trkpt lat="45.559042" lon="7.827667">
        <ele>332.00012</ele>
        <time>2024-10-19T13:38:51.000Z</time>
      </trkpt>
      <trkpt lat="45.559022" lon="7.827693">
        <ele>332.1351</ele>
        <time>2024-10-19T13:38:53.000Z</time>
      </trkpt>
      <trkpt lat="45.559012" lon="7.827722">
        <ele>332.24011</ele>
        <time>2024-10-19T13:38:55.000Z</time>
      </trkpt>
      <trkpt lat="45.558995" lon="7.827748">
        <ele>332.32513</ele>
        <time>2024-10-19T13:38:58.000Z</time>
      </trkpt>
      <trkpt lat="45.558978" lon="7.827762">
        <ele>332.39011</ele>
        <time>2024-10-19T13:39:00.000Z</time>
      </trkpt>
      <trkpt lat="45.558965" lon="7.827783">
        <ele>332.49011</ele>
        <time>2024-10-19T13:39:02.000Z</time>
      </trkpt>
      <trkpt lat="45.558942" lon="7.827802">
        <ele>332.61011</ele>
        <time>2024-10-19T13:39:04.000Z</time>
      </trkpt>
      <trkpt lat="45.55892" lon="7.827833">
        <ele>332.80511</ele>
        <time>2024-10-19T13:39:06.000Z</time>
      </trkpt>
      <trkpt lat="45.558902" lon="7.827857">
        <ele>333.0101</ele>
        <time>2024-10-19T13:39:07.000Z</time>
      </trkpt>
      <trkpt lat="45.55888" lon="7.827887">
        <ele>333.20514</ele>
        <time>2024-10-19T13:39:09.000Z</time>
      </trkpt>
      <trkpt lat="45.558858" lon="7.827915">
        <ele>333.40512</ele>
        <time>2024-10-19T13:39:11.000Z</time>
      </trkpt>
      <trkpt lat="45.558842" lon="7.827937">
        <ele>333.60513</ele>
        <time>2024-10-19T13:39:13.000Z</time>
      </trkpt>
      <trkpt lat="45.558835" lon="7.82798">
        <ele>333.7601</ele>
        <time>2024-10-19T13:39:15.000Z</time>
      </trkpt>
      <trkpt lat="45.558838" lon="7.828023">
        <ele>333.8801</ele>
        <time>2024-10-19T13:39:17.000Z</time>
      </trkpt>
      <trkpt lat="45.558843" lon="7.82806">
        <ele>333.99008</ele>
        <time>2024-10-19T13:39:19.000Z</time>
      </trkpt>
      <trkpt lat="45.558842" lon="7.82809">
        <ele>334.06509</ele>
        <time>2024-10-19T13:39:22.000Z</time>
      </trkpt>
      <trkpt lat="45.558838" lon="7.82812">
        <ele>334.08008</ele>
        <time>2024-10-19T13:39:24.000Z</time>
      </trkpt>
      <trkpt lat="45.558837" lon="7.828157">
        <ele>334.10007</ele>
        <time>2024-10-19T13:39:26.000Z</time>
      </trkpt>
      <trkpt lat="45.558842" lon="7.828195">
        <ele>334.14008</ele>
        <time>2024-10-19T13:39:28.000Z</time>
      </trkpt>
      <trkpt lat="45.558855" lon="7.82823">
        <ele>334.22006</ele>
        <time>2024-10-19T13:39:30.000Z</time>
      </trkpt>
      <trkpt lat="45.558852" lon="7.828258">
        <ele>334.29507</ele>
        <time>2024-10-19T13:39:32.000Z</time>
      </trkpt>
      <trkpt lat="45.558858" lon="7.828287">
        <ele>334.34009</ele>
        <time>2024-10-19T13:39:34.000Z</time>
      </trkpt>
      <trkpt lat="45.558865" lon="7.828322">
        <ele>334.37009</ele>
        <time>2024-10-19T13:39:36.000Z</time>
      </trkpt>
      <trkpt lat="45.558872" lon="7.82835">
        <ele>334.4201</ele>
        <time>2024-10-19T13:39:38.000Z</time>
      </trkpt>
      <trkpt lat="45.558878" lon="7.828385">
        <ele>334.5101</ele>
        <time>2024-10-19T13:39:40.000Z</time>
      </trkpt>
      <trkpt lat="45.558878" lon="7.828418">
        <ele>334.62009</ele>
        <time>2024-10-19T13:39:43.000Z</time>
      </trkpt>
      <trkpt lat="45.558883" lon="7.828457">
        <ele>334.77008</ele>
        <time>2024-10-19T13:39:45.000Z</time>
      </trkpt>
      <trkpt lat="45.558877" lon="7.828492">
        <ele>334.9151</ele>
        <time>2024-10-19T13:39:47.000Z</time>
      </trkpt>
      <trkpt lat="45.558872" lon="7.828528">
        <ele>335.02008</ele>
        <time>2024-10-19T13:39:50.000Z</time>
      </trkpt>
      <trkpt lat="45.558865" lon="7.828553">
        <ele>335.12506</ele>
        <time>2024-10-19T13:39:52.000Z</time>
      </trkpt>
      <trkpt lat="45.558852" lon="7.828582">
        <ele>335.25507</ele>
        <time>2024-10-19T13:39:54.000Z</time>
      </trkpt>
      <trkpt lat="45.558842" lon="7.828612">
        <ele>335.40005</ele>
        <time>2024-10-19T13:39:56.000Z</time>
      </trkpt>
      <trkpt lat="45.558838" lon="7.828648">
        <ele>335.55005</ele>
        <time>2024-10-19T13:39:58.000Z</time>
      </trkpt>
      <trkpt lat="45.558843" lon="7.828683">
        <ele>335.70004</ele>
        <time>2024-10-19T13:40:00.000Z</time>
      </trkpt>
      <trkpt lat="45.558852" lon="7.828728">
        <ele>335.85004</ele>
        <time>2024-10-19T13:40:02.000Z</time>
      </trkpt>
      <trkpt lat="45.558857" lon="7.828763">
        <ele>336.01508</ele>
        <time>2024-10-19T13:40:04.000Z</time>
      </trkpt>
      <trkpt lat="45.55887" lon="7.828798">
        <ele>336.19507</ele>
        <time>2024-10-19T13:40:06.000Z</time>
      </trkpt>
      <trkpt lat="45.558877" lon="7.828827">
        <ele>336.40009</ele>
        <time>2024-10-19T13:40:08.000Z</time>
      </trkpt>
      <trkpt lat="45.558878" lon="7.82886">
        <ele>336.61008</ele>
        <time>2024-10-19T13:40:11.000Z</time>
      </trkpt>
      <trkpt lat="45.558883" lon="7.828887">
        <ele>336.81506</ele>
        <time>2024-10-19T13:40:13.000Z</time>
      </trkpt>
      <trkpt lat="45.558887" lon="7.828925">
        <ele>337.04507</ele>
        <time>2024-10-19T13:40:15.000Z</time>
      </trkpt>
      <trkpt lat="45.558888" lon="7.828955">
        <ele>337.30505</ele>
        <time>2024-10-19T13:40:18.000Z</time>
      </trkpt>
      <trkpt lat="45.558895" lon="7.828993">
        <ele>337.56006</ele>
        <time>2024-10-19T13:40:21.000Z</time>
      </trkpt>
      <trkpt lat="45.5589" lon="7.829027">
        <ele>337.82004</ele>
        <time>2024-10-19T13:40:24.000Z</time>
      </trkpt>
      <trkpt lat="45.558903" lon="7.829057">
        <ele>338.05002</ele>
        <time>2024-10-19T13:40:26.000Z</time>
      </trkpt>
      <trkpt lat="45.55891" lon="7.82909">
        <ele>338.26505</ele>
        <time>2024-10-19T13:40:28.000Z</time>
      </trkpt>
      <trkpt lat="45.558915" lon="7.829127">
        <ele>338.44504</ele>
        <time>2024-10-19T13:40:30.000Z</time>
      </trkpt>
      <trkpt lat="45.558923" lon="7.829167">
        <ele>338.60004</ele>
        <time>2024-10-19T13:40:32.000Z</time>
      </trkpt>
      <trkpt lat="45.55892" lon="7.829207">
        <ele>338.83005</ele>
        <time>2024-10-19T13:40:34.000Z</time>
      </trkpt>
      <trkpt lat="45.558917" lon="7.829245">
        <ele>339.09506</ele>
        <time>2024-10-19T13:40:36.000Z</time>
      </trkpt>
      <trkpt lat="45.55892" lon="7.829287">
        <ele>339.35007</ele>
        <time>2024-10-19T13:40:38.000Z</time>
      </trkpt>
      <trkpt lat="45.55893" lon="7.829308">
        <ele>339.60007</ele>
        <time>2024-10-19T13:40:39.000Z</time>
      </trkpt>
      <trkpt lat="45.558943" lon="7.829338">
        <ele>339.87009</ele>
        <time>2024-10-19T13:40:41.000Z</time>
      </trkpt>
      <trkpt lat="45.558937" lon="7.829372">
        <ele>340.13507</ele>
        <time>2024-10-19T13:40:44.000Z</time>
      </trkpt>
      <trkpt lat="45.558942" lon="7.829405">
        <ele>340.38007</ele>
        <time>2024-10-19T13:40:46.000Z</time>
      </trkpt>
      <trkpt lat="45.558957" lon="7.829445">
        <ele>340.61008</ele>
        <time>2024-10-19T13:40:48.000Z</time>
      </trkpt>
      <trkpt lat="45.558963" lon="7.82949">
        <ele>340.85007</ele>
        <time>2024-10-19T13:40:50.000Z</time>
      </trkpt>
      <trkpt lat="45.558975" lon="7.829523">
        <ele>341.12506</ele>
        <time>2024-10-19T13:40:52.000Z</time>
      </trkpt>
      <trkpt lat="45.558985" lon="7.829547">
        <ele>341.44006</ele>
        <time>2024-10-19T13:40:54.000Z</time>
      </trkpt>
      <trkpt lat="45.558997" lon="7.829577">
        <ele>341.85007</ele>
        <time>2024-10-19T13:40:56.000Z</time>
      </trkpt>
      <trkpt lat="45.558983" lon="7.829603">
        <ele>342.2901</ele>
        <time>2024-10-19T13:40:58.000Z</time>
      </trkpt>
      <trkpt lat="45.558972" lon="7.829633">
        <ele>342.71509</ele>
        <time>2024-10-19T13:41:00.000Z</time>
      </trkpt>
      <trkpt lat="45.558965" lon="7.82967">
        <ele>343.14008</ele>
        <time>2024-10-19T13:41:02.000Z</time>
      </trkpt>
      <trkpt lat="45.558957" lon="7.829707">
        <ele>343.6001</ele>
        <time>2024-10-19T13:41:04.000Z</time>
      </trkpt>
      <trkpt lat="45.55894" lon="7.82973">
        <ele>344.08011</ele>
        <time>2024-10-19T13:41:06.000Z</time>
      </trkpt>
      <trkpt lat="45.55892" lon="7.829765">
        <ele>344.55511</ele>
        <time>2024-10-19T13:41:08.000Z</time>
      </trkpt>
      <trkpt lat="45.558903" lon="7.829797">
        <ele>345.0101</ele>
        <time>2024-10-19T13:41:10.000Z</time>
      </trkpt>
      <trkpt lat="45.55889" lon="7.829828">
        <ele>345.4751</ele>
        <time>2024-10-19T13:41:12.000Z</time>
      </trkpt>
      <trkpt lat="45.558882" lon="7.829857">
        <ele>345.93509</ele>
        <time>2024-10-19T13:41:15.000Z</time>
      </trkpt>
      <trkpt lat="45.558873" lon="7.829887">
        <ele>346.38507</ele>
        <time>2024-10-19T13:41:17.000Z</time>
      </trkpt>
      <trkpt lat="45.558867" lon="7.829922">
        <ele>346.8251</ele>
        <time>2024-10-19T13:41:20.000Z</time>
      </trkpt>
      <trkpt lat="45.55886" lon="7.82996">
        <ele>347.2551</ele>
        <time>2024-10-19T13:41:23.000Z</time>
      </trkpt>
      <trkpt lat="45.55885" lon="7.829992">
        <ele>347.71509</ele>
        <time>2024-10-19T13:41:25.000Z</time>
      </trkpt>
      <trkpt lat="45.558842" lon="7.830032">
        <ele>348.1701</ele>
        <time>2024-10-19T13:41:27.000Z</time>
      </trkpt>
      <trkpt lat="45.558833" lon="7.830063">
        <ele>348.6351</ele>
        <time>2024-10-19T13:41:29.000Z</time>
      </trkpt>
      <trkpt lat="45.558827" lon="7.830093">
        <ele>349.11011</ele>
        <time>2024-10-19T13:41:31.000Z</time>
      </trkpt>
      <trkpt lat="45.558825" lon="7.830132">
        <ele>349.58014</ele>
        <time>2024-10-19T13:41:33.000Z</time>
      </trkpt>
      <trkpt lat="45.558825" lon="7.830165">
        <ele>350.02512</ele>
        <time>2024-10-19T13:41:35.000Z</time>
      </trkpt>
      <trkpt lat="45.558827" lon="7.830202">
        <ele>350.44012</ele>
        <time>2024-10-19T13:41:37.000Z</time>
      </trkpt>
      <trkpt lat="45.558813" lon="7.83023">
        <ele>350.7601</ele>
        <time>2024-10-19T13:41:39.000Z</time>
      </trkpt>
      <trkpt lat="45.558803" lon="7.83027">
        <ele>351.06012</ele>
        <time>2024-10-19T13:41:41.000Z</time>
      </trkpt>
      <trkpt lat="45.558795" lon="7.830307">
        <ele>351.37012</ele>
        <time>2024-10-19T13:41:43.000Z</time>
      </trkpt>
      <trkpt lat="45.558792" lon="7.830337">
        <ele>351.68011</ele>
        <time>2024-10-19T13:41:45.000Z</time>
      </trkpt>
      <trkpt lat="45.558785" lon="7.83037">
        <ele>351.93512</ele>
        <time>2024-10-19T13:41:48.000Z</time>
      </trkpt>
      <trkpt lat="45.558768" lon="7.830387">
        <ele>352.15012</ele>
        <time>2024-10-19T13:41:50.000Z</time>
      </trkpt>
      <trkpt lat="45.558755" lon="7.830415">
        <ele>352.37012</ele>
        <time>2024-10-19T13:41:52.000Z</time>
      </trkpt>
      <trkpt lat="45.558752" lon="7.83045">
        <ele>352.59012</ele>
        <time>2024-10-19T13:41:54.000Z</time>
      </trkpt>
      <trkpt lat="45.558745" lon="7.830485">
        <ele>352.83014</ele>
        <time>2024-10-19T13:41:57.000Z</time>
      </trkpt>
      <trkpt lat="45.558732" lon="7.830522">
        <ele>353.04013</ele>
        <time>2024-10-19T13:41:59.000Z</time>
      </trkpt>
      <trkpt lat="45.55873" lon="7.830552">
        <ele>353.29514</ele>
        <time>2024-10-19T13:42:01.000Z</time>
      </trkpt>
      <trkpt lat="45.558728" lon="7.830583">
        <ele>353.58014</ele>
        <time>2024-10-19T13:42:04.000Z</time>
      </trkpt>
      <trkpt lat="45.558718" lon="7.830613">
        <ele>353.92511</ele>
        <time>2024-10-19T13:42:06.000Z</time>
      </trkpt>
      <trkpt lat="45.55871" lon="7.830637">
        <ele>354.22513</ele>
        <time>2024-10-19T13:42:08.000Z</time>
      </trkpt>
      <trkpt lat="45.558697" lon="7.83066">
        <ele>354.51511</ele>
        <time>2024-10-19T13:42:10.000Z</time>
      </trkpt>
      <trkpt lat="45.558687" lon="7.8307">
        <ele>354.81512</ele>
        <time>2024-10-19T13:42:12.000Z</time>
      </trkpt>
      <trkpt lat="45.558687" lon="7.830733">
        <ele>355.12009</ele>
        <time>2024-10-19T13:42:14.000Z</time>
      </trkpt>
      <trkpt lat="45.558678" lon="7.830767">
        <ele>355.40509</ele>
        <time>2024-10-19T13:42:17.000Z</time>
      </trkpt>
      <trkpt lat="45.558687" lon="7.830797">
        <ele>355.68008</ele>
        <time>2024-10-19T13:42:19.000Z</time>
      </trkpt>
      <trkpt lat="45.558687" lon="7.830825">
        <ele>355.94009</ele>
        <time>2024-10-19T13:42:21.000Z</time>
      </trkpt>
      <trkpt lat="45.55868" lon="7.830858">
        <ele>356.1951</ele>
        <time>2024-10-19T13:42:23.000Z</time>
      </trkpt>
      <trkpt lat="45.558668" lon="7.830878">
        <ele>356.4151</ele>
        <time>2024-10-19T13:42:25.000Z</time>
      </trkpt>
      <trkpt lat="45.55866" lon="7.830913">
        <ele>356.63007</ele>
        <time>2024-10-19T13:42:27.000Z</time>
      </trkpt>
      <trkpt lat="45.55865" lon="7.83096">
        <ele>356.84009</ele>
        <time>2024-10-19T13:42:29.000Z</time>
      </trkpt>
      <trkpt lat="45.558643" lon="7.831008">
        <ele>357.08508</ele>
        <time>2024-10-19T13:42:31.000Z</time>
      </trkpt>
      <trkpt lat="45.558662" lon="7.831005">
        <ele>357.39508</ele>
        <time>2024-10-19T13:42:34.000Z</time>
      </trkpt>
      <trkpt lat="45.558653" lon="7.830978">
        <ele>357.71506</ele>
        <time>2024-10-19T13:42:39.000Z</time>
      </trkpt>
      <trkpt lat="45.558645" lon="7.830955">
        <ele>358.08505</ele>
        <time>2024-10-19T13:42:42.000Z</time>
      </trkpt>
      <trkpt lat="45.558627" lon="7.830967">
        <ele>358.49506</ele>
        <time>2024-10-19T13:42:47.000Z</time>
      </trkpt>
      <trkpt lat="45.558608" lon="7.831002">
        <ele>358.91504</ele>
        <time>2024-10-19T13:42:49.000Z</time>
      </trkpt>
      <trkpt lat="45.558585" lon="7.83103">
        <ele>359.31503</ele>
        <time>2024-10-19T13:42:51.000Z</time>
      </trkpt>
      <trkpt lat="45.558577" lon="7.831067">
        <ele>359.70505</ele>
        <time>2024-10-19T13:42:53.000Z</time>
      </trkpt>
      <trkpt lat="45.558567" lon="7.831112">
        <ele>360.06506</ele>
        <time>2024-10-19T13:42:55.000Z</time>
      </trkpt>
      <trkpt lat="45.558565" lon="7.831143">
        <ele>360.48007</ele>
        <time>2024-10-19T13:42:57.000Z</time>
      </trkpt>
      <trkpt lat="45.558542" lon="7.831153">
        <ele>360.99008</ele>
        <time>2024-10-19T13:43:00.000Z</time>
      </trkpt>
      <trkpt lat="45.55853" lon="7.831177">
        <ele>361.51007</ele>
        <time>2024-10-19T13:43:02.000Z</time>
      </trkpt>
      <trkpt lat="45.558507" lon="7.831205">
        <ele>362.0351</ele>
        <time>2024-10-19T13:43:05.000Z</time>
      </trkpt>
      <trkpt lat="45.558488" lon="7.831215">
        <ele>362.59509</ele>
        <time>2024-10-19T13:43:06.000Z</time>
      </trkpt>
      <trkpt lat="45.558462" lon="7.831248">
        <ele>363.1701</ele>
        <time>2024-10-19T13:43:08.000Z</time>
      </trkpt>
      <trkpt lat="45.558453" lon="7.831272">
        <ele>363.74008</ele>
        <time>2024-10-19T13:43:09.000Z</time>
      </trkpt>
      <trkpt lat="45.558443" lon="7.831315">
        <ele>364.2901</ele>
        <time>2024-10-19T13:43:11.000Z</time>
      </trkpt>
      <trkpt lat="45.558433" lon="7.831362">
        <ele>364.85007</ele>
        <time>2024-10-19T13:43:13.000Z</time>
      </trkpt>
      <trkpt lat="45.558413" lon="7.831377">
        <ele>365.35507</ele>
        <time>2024-10-19T13:43:15.000Z</time>
      </trkpt>
      <trkpt lat="45.55838" lon="7.831393">
        <ele>365.81009</ele>
        <time>2024-10-19T13:43:17.000Z</time>
      </trkpt>
      <trkpt lat="45.55836" lon="7.831398">
        <ele>366.23007</ele>
        <time>2024-10-19T13:43:18.000Z</time>
      </trkpt>
      <trkpt lat="45.558337" lon="7.831408">
        <ele>366.60007</ele>
        <time>2024-10-19T13:43:20.000Z</time>
      </trkpt>
      <trkpt lat="45.558315" lon="7.831405">
        <ele>366.96506</ele>
        <time>2024-10-19T13:43:22.000Z</time>
      </trkpt>
      <trkpt lat="45.55829" lon="7.831408">
        <ele>367.26007</ele>
        <time>2024-10-19T13:43:24.000Z</time>
      </trkpt>
      <trkpt lat="45.55826" lon="7.831398">
        <ele>367.50009</ele>
        <time>2024-10-19T13:43:26.000Z</time>
      </trkpt>
      <trkpt lat="45.558225" lon="7.831387">
        <ele>367.72009</ele>
        <time>2024-10-19T13:43:28.000Z</time>
      </trkpt>
      <trkpt lat="45.5582" lon="7.831398">
        <ele>367.88007</ele>
        <time>2024-10-19T13:43:30.000Z</time>
      </trkpt>
      <trkpt lat="45.55817" lon="7.831415">
        <ele>368.00006</ele>
        <time>2024-10-19T13:43:32.000Z</time>
      </trkpt>
      <trkpt lat="45.55815" lon="7.831418">
        <ele>368.09506</ele>
        <time>2024-10-19T13:43:33.000Z</time>
      </trkpt>
      <trkpt lat="45.55813" lon="7.831428">
        <ele>368.14508</ele>
        <time>2024-10-19T13:43:34.000Z</time>
      </trkpt>
      <trkpt lat="45.558108" lon="7.831447">
        <ele>368.12506</ele>
        <time>2024-10-19T13:43:35.000Z</time>
      </trkpt>
      <trkpt lat="45.558097" lon="7.831472">
        <ele>368.06009</ele>
        <time>2024-10-19T13:43:36.000Z</time>
      </trkpt>
      <trkpt lat="45.558073" lon="7.831472">
        <ele>367.96008</ele>
        <time>2024-10-19T13:43:38.000Z</time>
      </trkpt>
      <trkpt lat="45.558047" lon="7.831483">
        <ele>367.87006</ele>
        <time>2024-10-19T13:43:40.000Z</time>
      </trkpt>
      <trkpt lat="45.558025" lon="7.831502">
        <ele>367.76007</ele>
        <time>2024-10-19T13:43:42.000Z</time>
      </trkpt>
      <trkpt lat="45.558007" lon="7.831517">
        <ele>367.62506</ele>
        <time>2024-10-19T13:43:44.000Z</time>
      </trkpt>
      <trkpt lat="45.557985" lon="7.831532">
        <ele>367.49005</ele>
        <time>2024-10-19T13:43:47.000Z</time>
      </trkpt>
      <trkpt lat="45.557967" lon="7.831535">
        <ele>367.30508</ele>
        <time>2024-10-19T13:43:54.000Z</time>
      </trkpt>
      <trkpt lat="45.557943" lon="7.831495">
        <ele>367.25507</ele>
        <time>2024-10-19T13:44:18.000Z</time>
      </trkpt>
      <trkpt lat="45.557925" lon="7.83148">
        <ele>367.2851</ele>
        <time>2024-10-19T13:44:19.000Z</time>
      </trkpt>
      <trkpt lat="45.557903" lon="7.831467">
        <ele>367.32507</ele>
        <time>2024-10-19T13:44:21.000Z</time>
      </trkpt>
      <trkpt lat="45.557887" lon="7.831457">
        <ele>367.36508</ele>
        <time>2024-10-19T13:44:23.000Z</time>
      </trkpt>
      <trkpt lat="45.55787" lon="7.831445">
        <ele>367.36011</ele>
        <time>2024-10-19T13:44:25.000Z</time>
      </trkpt>
      <trkpt lat="45.557853" lon="7.831425">
        <ele>367.37509</ele>
        <time>2024-10-19T13:44:28.000Z</time>
      </trkpt>
      <trkpt lat="45.557838" lon="7.831407">
        <ele>367.37509</ele>
        <time>2024-10-19T13:44:30.000Z</time>
      </trkpt>
      <trkpt lat="45.557823" lon="7.831392">
        <ele>367.37009</ele>
        <time>2024-10-19T13:44:31.000Z</time>
      </trkpt>
      <trkpt lat="45.557807" lon="7.831377">
        <ele>367.39508</ele>
        <time>2024-10-19T13:44:32.000Z</time>
      </trkpt>
      <trkpt lat="45.557788" lon="7.831362">
        <ele>367.44009</ele>
        <time>2024-10-19T13:44:33.000Z</time>
      </trkpt>
      <trkpt lat="45.557772" lon="7.831347">
        <ele>367.49509</ele>
        <time>2024-10-19T13:44:34.000Z</time>
      </trkpt>
      <trkpt lat="45.557752" lon="7.83132">
        <ele>367.55508</ele>
        <time>2024-10-19T13:44:36.000Z</time>
      </trkpt>
      <trkpt lat="45.557737" lon="7.831293">
        <ele>367.59006</ele>
        <time>2024-10-19T13:44:38.000Z</time>
      </trkpt>
      <trkpt lat="45.557717" lon="7.831265">
        <ele>367.67505</ele>
        <time>2024-10-19T13:44:40.000Z</time>
      </trkpt>
      <trkpt lat="45.557708" lon="7.831225">
        <ele>367.79007</ele>
        <time>2024-10-19T13:44:42.000Z</time>
      </trkpt>
      <trkpt lat="45.557693" lon="7.831193">
        <ele>367.88007</ele>
        <time>2024-10-19T13:44:44.000Z</time>
      </trkpt>
      <trkpt lat="45.557678" lon="7.831152">
        <ele>367.99509</ele>
        <time>2024-10-19T13:44:46.000Z</time>
      </trkpt>
      <trkpt lat="45.557658" lon="7.831122">
        <ele>368.11508</ele>
        <time>2024-10-19T13:44:48.000Z</time>
      </trkpt>
      <trkpt lat="45.557637" lon="7.831098">
        <ele>368.23511</ele>
        <time>2024-10-19T13:44:50.000Z</time>
      </trkpt>
      <trkpt lat="45.557617" lon="7.831068">
        <ele>368.36011</ele>
        <time>2024-10-19T13:44:52.000Z</time>
      </trkpt>
      <trkpt lat="45.557603" lon="7.831038">
        <ele>368.39011</ele>
        <time>2024-10-19T13:44:54.000Z</time>
      </trkpt>
      <trkpt lat="45.55759" lon="7.830992">
        <ele>368.39508</ele>
        <time>2024-10-19T13:44:56.000Z</time>
      </trkpt>
      <trkpt lat="45.55758" lon="7.830967">
        <ele>368.3801</ele>
        <time>2024-10-19T13:44:57.000Z</time>
      </trkpt>
      <trkpt lat="45.557573" lon="7.830942">
        <ele>368.37009</ele>
        <time>2024-10-19T13:44:58.000Z</time>
      </trkpt>
      <trkpt lat="45.557565" lon="7.830898">
        <ele>368.36008</ele>
        <time>2024-10-19T13:45:00.000Z</time>
      </trkpt>
      <trkpt lat="45.557558" lon="7.830855">
        <ele>368.35007</ele>
        <time>2024-10-19T13:45:02.000Z</time>
      </trkpt>
      <trkpt lat="45.557558" lon="7.830818">
        <ele>368.31006</ele>
        <time>2024-10-19T13:45:04.000Z</time>
      </trkpt>
      <trkpt lat="45.557557" lon="7.83078">
        <ele>368.20508</ele>
        <time>2024-10-19T13:45:06.000Z</time>
      </trkpt>
      <trkpt lat="45.557555" lon="7.830735">
        <ele>368.0451</ele>
        <time>2024-10-19T13:45:08.000Z</time>
      </trkpt>
      <trkpt lat="45.557553" lon="7.830693">
        <ele>367.8251</ele>
        <time>2024-10-19T13:45:10.000Z</time>
      </trkpt>
      <trkpt lat="45.557562" lon="7.830647">
        <ele>367.53009</ele>
        <time>2024-10-19T13:45:12.000Z</time>
      </trkpt>
      <trkpt lat="45.557565" lon="7.8306">
        <ele>367.18008</ele>
        <time>2024-10-19T13:45:14.000Z</time>
      </trkpt>
      <trkpt lat="45.557572" lon="7.83056">
        <ele>366.7951</ele>
        <time>2024-10-19T13:45:16.000Z</time>
      </trkpt>
      <trkpt lat="45.557573" lon="7.83052">
        <ele>366.34009</ele>
        <time>2024-10-19T13:45:18.000Z</time>
      </trkpt>
      <trkpt lat="45.557563" lon="7.83048">
        <ele>365.84009</ele>
        <time>2024-10-19T13:45:20.000Z</time>
      </trkpt>
      <trkpt lat="45.55755" lon="7.83046">
        <ele>365.33008</ele>
        <time>2024-10-19T13:45:21.000Z</time>
      </trkpt>
      <trkpt lat="45.55753" lon="7.830425">
        <ele>364.80508</ele>
        <time>2024-10-19T13:45:23.000Z</time>
      </trkpt>
      <trkpt lat="45.557502" lon="7.830397">
        <ele>364.26007</ele>
        <time>2024-10-19T13:45:25.000Z</time>
      </trkpt>
      <trkpt lat="45.557467" lon="7.8304">
        <ele>363.69507</ele>
        <time>2024-10-19T13:45:27.000Z</time>
      </trkpt>
      <trkpt lat="45.557447" lon="7.830398">
        <ele>363.17007</ele>
        <time>2024-10-19T13:45:28.000Z</time>
      </trkpt>
      <trkpt lat="45.557428" lon="7.830405">
        <ele>362.62506</ele>
        <time>2024-10-19T13:45:29.000Z</time>
      </trkpt>
      <trkpt lat="45.55741" lon="7.830408">
        <ele>362.05508</ele>
        <time>2024-10-19T13:45:30.000Z</time>
      </trkpt>
      <trkpt lat="45.557383" lon="7.83042">
        <ele>361.48508</ele>
        <time>2024-10-19T13:45:32.000Z</time>
      </trkpt>
      <trkpt lat="45.557358" lon="7.830417">
        <ele>360.9151</ele>
        <time>2024-10-19T13:45:34.000Z</time>
      </trkpt>
      <trkpt lat="45.557342" lon="7.830387">
        <ele>360.36508</ele>
        <time>2024-10-19T13:45:36.000Z</time>
      </trkpt>
      <trkpt lat="45.55732" lon="7.83035">
        <ele>359.81509</ele>
        <time>2024-10-19T13:45:38.000Z</time>
      </trkpt>
      <trkpt lat="45.557298" lon="7.830325">
        <ele>359.30011</ele>
        <time>2024-10-19T13:45:40.000Z</time>
      </trkpt>
      <trkpt lat="45.557275" lon="7.830292">
        <ele>358.81509</ele>
        <time>2024-10-19T13:45:42.000Z</time>
      </trkpt>
      <trkpt lat="45.557265" lon="7.830268">
        <ele>358.35007</ele>
        <time>2024-10-19T13:45:43.000Z</time>
      </trkpt>
      <trkpt lat="45.557252" lon="7.830233">
        <ele>357.90009</ele>
        <time>2024-10-19T13:45:45.000Z</time>
      </trkpt>
      <trkpt lat="45.557228" lon="7.830217">
        <ele>357.50507</ele>
        <time>2024-10-19T13:45:47.000Z</time>
      </trkpt>
      <trkpt lat="45.557208" lon="7.830217">
        <ele>357.1651</ele>
        <time>2024-10-19T13:45:48.000Z</time>
      </trkpt>
      <trkpt lat="45.55719" lon="7.830213">
        <ele>356.85507</ele>
        <time>2024-10-19T13:45:49.000Z</time>
      </trkpt>
      <trkpt lat="45.557158" lon="7.830218">
        <ele>356.5701</ele>
        <time>2024-10-19T13:45:51.000Z</time>
      </trkpt>
      <trkpt lat="45.557137" lon="7.830225">
        <ele>356.31009</ele>
        <time>2024-10-19T13:45:53.000Z</time>
      </trkpt>
      <trkpt lat="45.557118" lon="7.830227">
        <ele>356.05011</ele>
        <time>2024-10-19T13:45:54.000Z</time>
      </trkpt>
      <trkpt lat="45.557093" lon="7.830233">
        <ele>355.73007</ele>
        <time>2024-10-19T13:45:56.000Z</time>
      </trkpt>
      <trkpt lat="45.557073" lon="7.830247">
        <ele>355.41507</ele>
        <time>2024-10-19T13:45:58.000Z</time>
      </trkpt>
      <trkpt lat="45.557048" lon="7.83026">
        <ele>355.11005</ele>
        <time>2024-10-19T13:46:00.000Z</time>
      </trkpt>
      <trkpt lat="45.557018" lon="7.830275">
        <ele>354.77505</ele>
        <time>2024-10-19T13:46:02.000Z</time>
      </trkpt>
      <trkpt lat="45.556997" lon="7.830278">
        <ele>354.44504</ele>
        <time>2024-10-19T13:46:04.000Z</time>
      </trkpt>
      <trkpt lat="45.556968" lon="7.830285">
        <ele>354.10504</ele>
        <time>2024-10-19T13:46:06.000Z</time>
      </trkpt>
      <trkpt lat="45.556942" lon="7.830272">
        <ele>353.78006</ele>
        <time>2024-10-19T13:46:08.000Z</time>
      </trkpt>
      <trkpt lat="45.556927" lon="7.830253">
        <ele>353.45505</ele>
        <time>2024-10-19T13:46:09.000Z</time>
      </trkpt>
      <trkpt lat="45.55691" lon="7.830235">
        <ele>353.14008</ele>
        <time>2024-10-19T13:46:10.000Z</time>
      </trkpt>
      <trkpt lat="45.556895" lon="7.830217">
        <ele>352.84506</ele>
        <time>2024-10-19T13:46:11.000Z</time>
      </trkpt>
      <trkpt lat="45.556872" lon="7.830183">
        <ele>352.55508</ele>
        <time>2024-10-19T13:46:13.000Z</time>
      </trkpt>
      <trkpt lat="45.556855" lon="7.830145">
        <ele>352.33508</ele>
        <time>2024-10-19T13:46:15.000Z</time>
      </trkpt>
      <trkpt lat="45.556842" lon="7.830113">
        <ele>352.1951</ele>
        <time>2024-10-19T13:46:17.000Z</time>
      </trkpt>
      <trkpt lat="45.556833" lon="7.830072">
        <ele>352.0751</ele>
        <time>2024-10-19T13:46:19.000Z</time>
      </trkpt>
      <trkpt lat="45.556823" lon="7.83003">
        <ele>351.93512</ele>
        <time>2024-10-19T13:46:21.000Z</time>
      </trkpt>
      <trkpt lat="45.556802" lon="7.830007">
        <ele>351.77008</ele>
        <time>2024-10-19T13:46:23.000Z</time>
      </trkpt>
      <trkpt lat="45.556783" lon="7.829982">
        <ele>351.5751</ele>
        <time>2024-10-19T13:46:25.000Z</time>
      </trkpt>
      <trkpt lat="45.55676" lon="7.829955">
        <ele>351.3551</ele>
        <time>2024-10-19T13:46:27.000Z</time>
      </trkpt>
      <trkpt lat="45.556737" lon="7.829938">
        <ele>351.12012</ele>
        <time>2024-10-19T13:46:30.000Z</time>
      </trkpt>
      <trkpt lat="45.556712" lon="7.829917">
        <ele>350.87012</ele>
        <time>2024-10-19T13:46:32.000Z</time>
      </trkpt>
      <trkpt lat="45.556682" lon="7.829897">
        <ele>350.68011</ele>
        <time>2024-10-19T13:46:34.000Z</time>
      </trkpt>
      <trkpt lat="45.556658" lon="7.829877">
        <ele>350.53012</ele>
        <time>2024-10-19T13:46:36.000Z</time>
      </trkpt>
      <trkpt lat="45.556627" lon="7.82986">
        <ele>350.39514</ele>
        <time>2024-10-19T13:46:38.000Z</time>
      </trkpt>
      <trkpt lat="45.556603" lon="7.829858">
        <ele>350.32513</ele>
        <time>2024-10-19T13:46:40.000Z</time>
      </trkpt>
      <trkpt lat="45.556582" lon="7.829852">
        <ele>350.33514</ele>
        <time>2024-10-19T13:46:42.000Z</time>
      </trkpt>
      <trkpt lat="45.556565" lon="7.829837">
        <ele>350.45013</ele>
        <time>2024-10-19T13:46:44.000Z</time>
      </trkpt>
      <trkpt lat="45.556538" lon="7.829822">
        <ele>350.60513</ele>
        <time>2024-10-19T13:46:46.000Z</time>
      </trkpt>
      <trkpt lat="45.556515" lon="7.829812">
        <ele>350.80511</ele>
        <time>2024-10-19T13:46:48.000Z</time>
      </trkpt>
      <trkpt lat="45.556483" lon="7.829802">
        <ele>351.00012</ele>
        <time>2024-10-19T13:46:50.000Z</time>
      </trkpt>
      <trkpt lat="45.556463" lon="7.829802">
        <ele>351.19513</ele>
        <time>2024-10-19T13:46:51.000Z</time>
      </trkpt>
      <trkpt lat="45.556445" lon="7.829798">
        <ele>351.3851</ele>
        <time>2024-10-19T13:46:52.000Z</time>
      </trkpt>
      <trkpt lat="45.556417" lon="7.829787">
        <ele>351.5451</ele>
        <time>2024-10-19T13:46:54.000Z</time>
      </trkpt>
      <trkpt lat="45.556387" lon="7.829778">
        <ele>351.73007</ele>
        <time>2024-10-19T13:46:56.000Z</time>
      </trkpt>
      <trkpt lat="45.556353" lon="7.829758">
        <ele>351.95508</ele>
        <time>2024-10-19T13:46:58.000Z</time>
      </trkpt>
      <trkpt lat="45.556337" lon="7.829748">
        <ele>352.21008</ele>
        <time>2024-10-19T13:46:59.000Z</time>
      </trkpt>
      <trkpt lat="45.5563" lon="7.829738">
        <ele>352.4451</ele>
        <time>2024-10-19T13:47:01.000Z</time>
      </trkpt>
      <trkpt lat="45.556273" lon="7.829735">
        <ele>352.65009</ele>
        <time>2024-10-19T13:47:03.000Z</time>
      </trkpt>
      <trkpt lat="45.556252" lon="7.829743">
        <ele>352.86008</ele>
        <time>2024-10-19T13:47:05.000Z</time>
      </trkpt>
      <trkpt lat="45.556228" lon="7.829742">
        <ele>353.06009</ele>
        <time>2024-10-19T13:47:07.000Z</time>
      </trkpt>
      <trkpt lat="45.55621" lon="7.829747">
        <ele>353.23007</ele>
        <time>2024-10-19T13:47:10.000Z</time>
      </trkpt>
      <trkpt lat="45.5562" lon="7.829723">
        <ele>353.38007</ele>
        <time>2024-10-19T13:47:14.000Z</time>
      </trkpt>
      <trkpt lat="45.556167" lon="7.829748">
        <ele>353.65509</ele>
        <time>2024-10-19T13:47:45.000Z</time>
      </trkpt>
      <trkpt lat="45.556145" lon="7.829747">
        <ele>353.93509</ele>
        <time>2024-10-19T13:47:47.000Z</time>
      </trkpt>
      <trkpt lat="45.55612" lon="7.829738">
        <ele>354.20007</ele>
        <time>2024-10-19T13:47:49.000Z</time>
      </trkpt>
      <trkpt lat="45.556097" lon="7.829732">
        <ele>354.37009</ele>
        <time>2024-10-19T13:47:51.000Z</time>
      </trkpt>
      <trkpt lat="45.556075" lon="7.829723">
        <ele>354.40009</ele>
        <time>2024-10-19T13:47:53.000Z</time>
      </trkpt>
      <trkpt lat="45.556045" lon="7.829718">
        <ele>354.39508</ele>
        <time>2024-10-19T13:47:55.000Z</time>
      </trkpt>
      <trkpt lat="45.556018" lon="7.829712">
        <ele>354.37509</ele>
        <time>2024-10-19T13:47:57.000Z</time>
      </trkpt>
      <trkpt lat="45.555993" lon="7.829705">
        <ele>354.34009</ele>
        <time>2024-10-19T13:47:59.000Z</time>
      </trkpt>
      <trkpt lat="45.555967" lon="7.829685">
        <ele>354.2851</ele>
        <time>2024-10-19T13:48:01.000Z</time>
      </trkpt>
      <trkpt lat="45.555942" lon="7.829678">
        <ele>354.18011</ele>
        <time>2024-10-19T13:48:03.000Z</time>
      </trkpt>
      <trkpt lat="45.555912" lon="7.829662">
        <ele>354.07513</ele>
        <time>2024-10-19T13:48:05.000Z</time>
      </trkpt>
      <trkpt lat="45.555888" lon="7.829665">
        <ele>353.90512</ele>
        <time>2024-10-19T13:48:07.000Z</time>
      </trkpt>
      <trkpt lat="45.555862" lon="7.82966">
        <ele>353.69012</ele>
        <time>2024-10-19T13:48:09.000Z</time>
      </trkpt>
      <trkpt lat="45.555842" lon="7.829653">
        <ele>353.45511</ele>
        <time>2024-10-19T13:48:11.000Z</time>
      </trkpt>
      <trkpt lat="45.555817" lon="7.829643">
        <ele>353.24011</ele>
        <time>2024-10-19T13:48:13.000Z</time>
      </trkpt>
      <trkpt lat="45.555792" lon="7.829632">
        <ele>353.07013</ele>
        <time>2024-10-19T13:48:15.000Z</time>
      </trkpt>
      <trkpt lat="45.555773" lon="7.829628">
        <ele>352.93011</ele>
        <time>2024-10-19T13:48:17.000Z</time>
      </trkpt>
      <trkpt lat="45.555747" lon="7.829625">
        <ele>352.81012</ele>
        <time>2024-10-19T13:48:19.000Z</time>
      </trkpt>
      <trkpt lat="45.55572" lon="7.829625">
        <ele>352.73511</ele>
        <time>2024-10-19T13:48:21.000Z</time>
      </trkpt>
      <trkpt lat="45.555688" lon="7.829612">
        <ele>352.65509</ele>
        <time>2024-10-19T13:48:23.000Z</time>
      </trkpt>
      <trkpt lat="45.55566" lon="7.8296">
        <ele>352.43512</ele>
        <time>2024-10-19T13:48:25.000Z</time>
      </trkpt>
      <trkpt lat="45.55563" lon="7.82959">
        <ele>352.20511</ele>
        <time>2024-10-19T13:48:27.000Z</time>
      </trkpt>
      <trkpt lat="45.555598" lon="7.82957">
        <ele>352.00012</ele>
        <time>2024-10-19T13:48:29.000Z</time>
      </trkpt>
      <trkpt lat="45.555568" lon="7.829563">
        <ele>351.84012</ele>
        <time>2024-10-19T13:48:31.000Z</time>
      </trkpt>
      <trkpt lat="45.55555" lon="7.829558">
        <ele>351.75012</ele>
        <time>2024-10-19T13:48:32.000Z</time>
      </trkpt>
      <trkpt lat="45.55553" lon="7.829557">
        <ele>351.6651</ele>
        <time>2024-10-19T13:48:33.000Z</time>
      </trkpt>
      <trkpt lat="45.555498" lon="7.82957">
        <ele>351.6001</ele>
        <time>2024-10-19T13:48:35.000Z</time>
      </trkpt>
      <trkpt lat="45.555472" lon="7.82957">
        <ele>351.5751</ele>
        <time>2024-10-19T13:48:37.000Z</time>
      </trkpt>
      <trkpt lat="45.555448" lon="7.829563">
        <ele>351.59009</ele>
        <time>2024-10-19T13:48:39.000Z</time>
      </trkpt>
      <trkpt lat="45.555418" lon="7.82956">
        <ele>351.68509</ele>
        <time>2024-10-19T13:48:41.000Z</time>
      </trkpt>
      <trkpt lat="45.555398" lon="7.829548">
        <ele>351.77008</ele>
        <time>2024-10-19T13:48:43.000Z</time>
      </trkpt>
      <trkpt lat="45.555372" lon="7.82953">
        <ele>351.84006</ele>
        <time>2024-10-19T13:48:45.000Z</time>
      </trkpt>
      <trkpt lat="45.555335" lon="7.82951">
        <ele>351.92508</ele>
        <time>2024-10-19T13:48:47.000Z</time>
      </trkpt>
      <trkpt lat="45.555313" lon="7.829498">
        <ele>352.01508</ele>
        <time>2024-10-19T13:48:48.000Z</time>
      </trkpt>
      <trkpt lat="45.555278" lon="7.82948">
        <ele>352.10504</ele>
        <time>2024-10-19T13:48:50.000Z</time>
      </trkpt>
      <trkpt lat="45.55526" lon="7.829468">
        <ele>352.20004</ele>
        <time>2024-10-19T13:48:51.000Z</time>
      </trkpt>
      <trkpt lat="45.555242" lon="7.829462">
        <ele>352.30005</ele>
        <time>2024-10-19T13:48:52.000Z</time>
      </trkpt>
      <trkpt lat="45.555217" lon="7.829443">
        <ele>352.38007</ele>
        <time>2024-10-19T13:48:54.000Z</time>
      </trkpt>
      <trkpt lat="45.555197" lon="7.829418">
        <ele>352.45004</ele>
        <time>2024-10-19T13:48:56.000Z</time>
      </trkpt>
      <trkpt lat="45.555182" lon="7.8294">
        <ele>352.52505</ele>
        <time>2024-10-19T13:48:58.000Z</time>
      </trkpt>
      <trkpt lat="45.555165" lon="7.829385">
        <ele>352.59003</ele>
        <time>2024-10-19T13:49:00.000Z</time>
      </trkpt>
      <trkpt lat="45.555142" lon="7.82937">
        <ele>352.70502</ele>
        <time>2024-10-19T13:49:02.000Z</time>
      </trkpt>
      <trkpt lat="45.555125" lon="7.829343">
        <ele>352.82501</ele>
        <time>2024-10-19T13:49:04.000Z</time>
      </trkpt>
      <trkpt lat="45.555113" lon="7.829305">
        <ele>352.96503</ele>
        <time>2024-10-19T13:49:06.000Z</time>
      </trkpt>
      <trkpt lat="45.555108" lon="7.829262">
        <ele>353.125</ele>
        <time>2024-10-19T13:49:08.000Z</time>
      </trkpt>
      <trkpt lat="45.555088" lon="7.829223">
        <ele>353.31</ele>
        <time>2024-10-19T13:49:10.000Z</time>
      </trkpt>
      <trkpt lat="45.555075" lon="7.829202">
        <ele>353.42001</ele>
        <time>2024-10-19T13:49:11.000Z</time>
      </trkpt>
      <trkpt lat="45.555052" lon="7.829167">
        <ele>353.44501</ele>
        <time>2024-10-19T13:49:13.000Z</time>
      </trkpt>
      <trkpt lat="45.555037" lon="7.82914">
        <ele>353.435</ele>
        <time>2024-10-19T13:49:15.000Z</time>
      </trkpt>
      <trkpt lat="45.555023" lon="7.829107">
        <ele>353.41</ele>
        <time>2024-10-19T13:49:17.000Z</time>
      </trkpt>
      <trkpt lat="45.555005" lon="7.829077">
        <ele>353.38</ele>
        <time>2024-10-19T13:49:19.000Z</time>
      </trkpt>
      <trkpt lat="45.55499" lon="7.829058">
        <ele>353.39001</ele>
        <time>2024-10-19T13:49:28.000Z</time>
      </trkpt>
      <trkpt lat="45.55498" lon="7.829032">
        <ele>353.42499</ele>
        <time>2024-10-19T13:49:30.000Z</time>
      </trkpt>
      <trkpt lat="45.554953" lon="7.829007">
        <ele>353.505</ele>
        <time>2024-10-19T13:49:32.000Z</time>
      </trkpt>
      <trkpt lat="45.55493" lon="7.828983">
        <ele>353.63</ele>
        <time>2024-10-19T13:49:34.000Z</time>
      </trkpt>
      <trkpt lat="45.554907" lon="7.828963">
        <ele>353.76498</ele>
        <time>2024-10-19T13:49:36.000Z</time>
      </trkpt>
      <trkpt lat="45.554875" lon="7.82894">
        <ele>353.89499</ele>
        <time>2024-10-19T13:49:38.000Z</time>
      </trkpt>
      <trkpt lat="45.554853" lon="7.82893">
        <ele>354.04498</ele>
        <time>2024-10-19T13:49:40.000Z</time>
      </trkpt>
      <trkpt lat="45.554827" lon="7.828928">
        <ele>354.215</ele>
        <time>2024-10-19T13:49:42.000Z</time>
      </trkpt>
      <trkpt lat="45.554802" lon="7.82894">
        <ele>354.42999</ele>
        <time>2024-10-19T13:49:44.000Z</time>
      </trkpt>
      <trkpt lat="45.55478" lon="7.82895">
        <ele>354.69501</ele>
        <time>2024-10-19T13:49:46.000Z</time>
      </trkpt>
      <trkpt lat="45.554762" lon="7.828953">
        <ele>354.95001</ele>
        <time>2024-10-19T13:49:47.000Z</time>
      </trkpt>
      <trkpt lat="45.554733" lon="7.828947">
        <ele>355.19501</ele>
        <time>2024-10-19T13:49:49.000Z</time>
      </trkpt>
      <trkpt lat="45.554703" lon="7.828945">
        <ele>355.41003</ele>
        <time>2024-10-19T13:49:51.000Z</time>
      </trkpt>
      <trkpt lat="45.55467" lon="7.828935">
        <ele>355.59003</ele>
        <time>2024-10-19T13:49:53.000Z</time>
      </trkpt>
      <trkpt lat="45.554652" lon="7.828935">
        <ele>355.72003</ele>
        <time>2024-10-19T13:49:54.000Z</time>
      </trkpt>
      <trkpt lat="45.554622" lon="7.828935">
        <ele>355.85004</ele>
        <time>2024-10-19T13:49:56.000Z</time>
      </trkpt>
      <trkpt lat="45.554595" lon="7.828947">
        <ele>356.04007</ele>
        <time>2024-10-19T13:49:58.000Z</time>
      </trkpt>
      <trkpt lat="45.554572" lon="7.828945">
        <ele>356.24506</ele>
        <time>2024-10-19T13:50:00.000Z</time>
      </trkpt>
      <trkpt lat="45.554553" lon="7.828958">
        <ele>356.43509</ele>
        <time>2024-10-19T13:50:02.000Z</time>
      </trkpt>
      <trkpt lat="45.554533" lon="7.82898">
        <ele>356.6001</ele>
        <time>2024-10-19T13:50:05.000Z</time>
      </trkpt>
      <trkpt lat="45.55451" lon="7.829007">
        <ele>356.7001</ele>
        <time>2024-10-19T13:50:07.000Z</time>
      </trkpt>
      <trkpt lat="45.55449" lon="7.829047">
        <ele>356.7601</ele>
        <time>2024-10-19T13:50:09.000Z</time>
      </trkpt>
      <trkpt lat="45.554475" lon="7.829083">
        <ele>356.7601</ele>
        <time>2024-10-19T13:50:11.000Z</time>
      </trkpt>
      <trkpt lat="45.554462" lon="7.829125">
        <ele>356.75009</ele>
        <time>2024-10-19T13:50:13.000Z</time>
      </trkpt>
      <trkpt lat="45.554447" lon="7.829167">
        <ele>356.76511</ele>
        <time>2024-10-19T13:50:15.000Z</time>
      </trkpt>
      <trkpt lat="45.554438" lon="7.829195">
        <ele>356.7901</ele>
        <time>2024-10-19T13:50:17.000Z</time>
      </trkpt>
      <trkpt lat="45.554423" lon="7.829223">
        <ele>356.82513</ele>
        <time>2024-10-19T13:50:19.000Z</time>
      </trkpt>
      <trkpt lat="45.554403" lon="7.829257">
        <ele>356.80511</ele>
        <time>2024-10-19T13:50:21.000Z</time>
      </trkpt>
      <trkpt lat="45.554378" lon="7.829282">
        <ele>356.72513</ele>
        <time>2024-10-19T13:50:23.000Z</time>
      </trkpt>
      <trkpt lat="45.55436" lon="7.82928">
        <ele>356.58014</ele>
        <time>2024-10-19T13:50:29.000Z</time>
      </trkpt>
      <trkpt lat="45.554355" lon="7.829312">
        <ele>356.34015</ele>
        <time>2024-10-19T13:51:24.000Z</time>
      </trkpt>
      <trkpt lat="45.554345" lon="7.829343">
        <ele>356.07513</ele>
        <time>2024-10-19T13:51:26.000Z</time>
      </trkpt>
      <trkpt lat="45.554315" lon="7.829375">
        <ele>355.78015</ele>
        <time>2024-10-19T13:51:28.000Z</time>
      </trkpt>
      <trkpt lat="45.554297" lon="7.82939">
        <ele>355.46515</ele>
        <time>2024-10-19T13:51:30.000Z</time>
      </trkpt>
      <trkpt lat="45.55428" lon="7.829402">
        <ele>355.14514</ele>
        <time>2024-10-19T13:51:32.000Z</time>
      </trkpt>
      <trkpt lat="45.554268" lon="7.829425">
        <ele>354.84015</ele>
        <time>2024-10-19T13:51:35.000Z</time>
      </trkpt>
      <trkpt lat="45.554267" lon="7.829397">
        <ele>354.63013</ele>
        <time>2024-10-19T13:51:46.000Z</time>
      </trkpt>
      <trkpt lat="45.55424" lon="7.82941">
        <ele>354.39514</ele>
        <time>2024-10-19T13:51:49.000Z</time>
      </trkpt>
      <trkpt lat="45.554223" lon="7.829423">
        <ele>354.16513</ele>
        <time>2024-10-19T13:51:50.000Z</time>
      </trkpt>
      <trkpt lat="45.554205" lon="7.829432">
        <ele>353.98013</ele>
        <time>2024-10-19T13:51:51.000Z</time>
      </trkpt>
      <trkpt lat="45.554178" lon="7.829428">
        <ele>353.86514</ele>
        <time>2024-10-19T13:51:53.000Z</time>
      </trkpt>
      <trkpt lat="45.554157" lon="7.829427">
        <ele>353.77515</ele>
        <time>2024-10-19T13:51:55.000Z</time>
      </trkpt>
      <trkpt lat="45.55413" lon="7.829443">
        <ele>353.75015</ele>
        <time>2024-10-19T13:51:57.000Z</time>
      </trkpt>
      <trkpt lat="45.554107" lon="7.82945">
        <ele>353.73016</ele>
        <time>2024-10-19T13:51:59.000Z</time>
      </trkpt>
      <trkpt lat="45.554085" lon="7.829437">
        <ele>353.71014</ele>
        <time>2024-10-19T13:52:01.000Z</time>
      </trkpt>
      <trkpt lat="45.554062" lon="7.829437">
        <ele>353.70013</ele>
        <time>2024-10-19T13:52:03.000Z</time>
      </trkpt>
      <trkpt lat="45.55404" lon="7.829437">
        <ele>353.71515</ele>
        <time>2024-10-19T13:52:05.000Z</time>
      </trkpt>
      <trkpt lat="45.554018" lon="7.829435">
        <ele>353.82013</ele>
        <time>2024-10-19T13:52:07.000Z</time>
      </trkpt>
      <trkpt lat="45.553992" lon="7.829427">
        <ele>353.95514</ele>
        <time>2024-10-19T13:52:09.000Z</time>
      </trkpt>
      <trkpt lat="45.553965" lon="7.829422">
        <ele>354.11511</ele>
        <time>2024-10-19T13:52:11.000Z</time>
      </trkpt>
      <trkpt lat="45.553945" lon="7.829417">
        <ele>354.33511</ele>
        <time>2024-10-19T13:52:13.000Z</time>
      </trkpt>
      <trkpt lat="45.553925" lon="7.829395">
        <ele>354.56012</ele>
        <time>2024-10-19T13:52:15.000Z</time>
      </trkpt>
      <trkpt lat="45.553903" lon="7.82937">
        <ele>354.7951</ele>
        <time>2024-10-19T13:52:17.000Z</time>
      </trkpt>
      <trkpt lat="45.553885" lon="7.829355">
        <ele>355.09009</ele>
        <time>2024-10-19T13:52:21.000Z</time>
      </trkpt>
      <trkpt lat="45.553868" lon="7.82934">
        <ele>355.36011</ele>
        <time>2024-10-19T13:52:27.000Z</time>
      </trkpt>
      <trkpt lat="45.553892" lon="7.829342">
        <ele>355.65009</ele>
        <time>2024-10-19T13:52:36.000Z</time>
      </trkpt>
      <trkpt lat="45.55387" lon="7.829355">
        <ele>355.84009</ele>
        <time>2024-10-19T13:52:39.000Z</time>
      </trkpt>
      <trkpt lat="45.553845" lon="7.829348">
        <ele>356.0401</ele>
        <time>2024-10-19T13:52:41.000Z</time>
      </trkpt>
      <trkpt lat="45.553827" lon="7.829348">
        <ele>356.24509</ele>
        <time>2024-10-19T13:52:44.000Z</time>
      </trkpt>
      <trkpt lat="45.553805" lon="7.829355">
        <ele>356.50009</ele>
        <time>2024-10-19T13:52:51.000Z</time>
      </trkpt>
      <trkpt lat="45.553785" lon="7.829345">
        <ele>356.81509</ele>
        <time>2024-10-19T13:52:54.000Z</time>
      </trkpt>
      <trkpt lat="45.553762" lon="7.829333">
        <ele>357.15009</ele>
        <time>2024-10-19T13:52:57.000Z</time>
      </trkpt>
      <trkpt lat="45.553733" lon="7.82933">
        <ele>357.48007</ele>
        <time>2024-10-19T13:53:00.000Z</time>
      </trkpt>
      <trkpt lat="45.553715" lon="7.829325">
        <ele>357.77008</ele>
        <time>2024-10-19T13:53:01.000Z</time>
      </trkpt>
      <trkpt lat="45.553685" lon="7.829317">
        <ele>358.05508</ele>
        <time>2024-10-19T13:53:03.000Z</time>
      </trkpt>
      <trkpt lat="45.553655" lon="7.82931">
        <ele>358.33008</ele>
        <time>2024-10-19T13:53:05.000Z</time>
      </trkpt>
      <trkpt lat="45.553635" lon="7.829305">
        <ele>358.57507</ele>
        <time>2024-10-19T13:53:06.000Z</time>
      </trkpt>
      <trkpt lat="45.553608" lon="7.829287">
        <ele>358.76007</ele>
        <time>2024-10-19T13:53:08.000Z</time>
      </trkpt>
      <trkpt lat="45.553588" lon="7.82925">
        <ele>358.88007</ele>
        <time>2024-10-19T13:53:10.000Z</time>
      </trkpt>
      <trkpt lat="45.553562" lon="7.82923">
        <ele>358.98508</ele>
        <time>2024-10-19T13:53:12.000Z</time>
      </trkpt>
      <trkpt lat="45.553545" lon="7.82921">
        <ele>359.13007</ele>
        <time>2024-10-19T13:53:14.000Z</time>
      </trkpt>
      <trkpt lat="45.55352" lon="7.829198">
        <ele>359.23505</ele>
        <time>2024-10-19T13:53:19.000Z</time>
      </trkpt>
      <trkpt lat="45.553505" lon="7.829173">
        <ele>359.35504</ele>
        <time>2024-10-19T13:53:21.000Z</time>
      </trkpt>
      <trkpt lat="45.55348" lon="7.829158">
        <ele>359.47504</ele>
        <time>2024-10-19T13:53:23.000Z</time>
      </trkpt>
      <trkpt lat="45.55346" lon="7.829147">
        <ele>359.66504</ele>
        <time>2024-10-19T13:53:25.000Z</time>
      </trkpt>
      <trkpt lat="45.553433" lon="7.829118">
        <ele>359.90005</ele>
        <time>2024-10-19T13:53:27.000Z</time>
      </trkpt>
      <trkpt lat="45.553412" lon="7.829107">
        <ele>360.19507</ele>
        <time>2024-10-19T13:53:29.000Z</time>
      </trkpt>
      <trkpt lat="45.553393" lon="7.829098">
        <ele>360.51007</ele>
        <time>2024-10-19T13:53:31.000Z</time>
      </trkpt>
      <trkpt lat="45.553372" lon="7.829103">
        <ele>360.71506</ele>
        <time>2024-10-19T13:53:42.000Z</time>
      </trkpt>
      <trkpt lat="45.55335" lon="7.829098">
        <ele>360.81006</ele>
        <time>2024-10-19T13:53:45.000Z</time>
      </trkpt>
      <trkpt lat="45.553333" lon="7.829088">
        <ele>360.79007</ele>
        <time>2024-10-19T13:53:46.000Z</time>
      </trkpt>
      <trkpt lat="45.553303" lon="7.829073">
        <ele>360.70007</ele>
        <time>2024-10-19T13:53:48.000Z</time>
      </trkpt>
      <trkpt lat="45.553287" lon="7.82906">
        <ele>360.57007</ele>
        <time>2024-10-19T13:53:50.000Z</time>
      </trkpt>
      <trkpt lat="45.553287" lon="7.829032">
        <ele>360.48505</ele>
        <time>2024-10-19T13:53:55.000Z</time>
      </trkpt>
      <trkpt lat="45.553265" lon="7.829047">
        <ele>360.48505</ele>
        <time>2024-10-19T13:54:09.000Z</time>
      </trkpt>
      <trkpt lat="45.553227" lon="7.82904">
        <ele>360.47006</ele>
        <time>2024-10-19T13:54:11.000Z</time>
      </trkpt>
      <trkpt lat="45.553195" lon="7.829033">
        <ele>360.49506</ele>
        <time>2024-10-19T13:54:13.000Z</time>
      </trkpt>
      <trkpt lat="45.553163" lon="7.829022">
        <ele>360.56009</ele>
        <time>2024-10-19T13:54:15.000Z</time>
      </trkpt>
      <trkpt lat="45.553132" lon="7.829022">
        <ele>360.61505</ele>
        <time>2024-10-19T13:54:17.000Z</time>
      </trkpt>
      <trkpt lat="45.553113" lon="7.829025">
        <ele>360.66006</ele>
        <time>2024-10-19T13:54:18.000Z</time>
      </trkpt>
      <trkpt lat="45.553095" lon="7.829025">
        <ele>360.66006</ele>
        <time>2024-10-19T13:54:19.000Z</time>
      </trkpt>
      <trkpt lat="45.55306" lon="7.829037">
        <ele>360.63007</ele>
        <time>2024-10-19T13:54:21.000Z</time>
      </trkpt>
      <trkpt lat="45.553042" lon="7.829043">
        <ele>360.5701</ele>
        <time>2024-10-19T13:54:22.000Z</time>
      </trkpt>
      <trkpt lat="45.553018" lon="7.829062">
        <ele>360.43011</ele>
        <time>2024-10-19T13:54:24.000Z</time>
      </trkpt>
      <trkpt lat="45.552992" lon="7.829077">
        <ele>360.27008</ele>
        <time>2024-10-19T13:54:26.000Z</time>
      </trkpt>
      <trkpt lat="45.552965" lon="7.829088">
        <ele>360.02509</ele>
        <time>2024-10-19T13:54:28.000Z</time>
      </trkpt>
      <trkpt lat="45.552938" lon="7.829087">
        <ele>359.64008</ele>
        <time>2024-10-19T13:54:30.000Z</time>
      </trkpt>
      <trkpt lat="45.552912" lon="7.829083">
        <ele>359.20508</ele>
        <time>2024-10-19T13:54:32.000Z</time>
      </trkpt>
      <trkpt lat="45.552878" lon="7.82908">
        <ele>358.81506</ele>
        <time>2024-10-19T13:54:34.000Z</time>
      </trkpt>
      <trkpt lat="45.55285" lon="7.82909">
        <ele>358.45007</ele>
        <time>2024-10-19T13:54:36.000Z</time>
      </trkpt>
      <trkpt lat="45.552822" lon="7.829103">
        <ele>358.10007</ele>
        <time>2024-10-19T13:54:38.000Z</time>
      </trkpt>
      <trkpt lat="45.5528" lon="7.829115">
        <ele>357.83505</ele>
        <time>2024-10-19T13:54:40.000Z</time>
      </trkpt>
      <trkpt lat="45.552777" lon="7.829133">
        <ele>357.55008</ele>
        <time>2024-10-19T13:54:42.000Z</time>
      </trkpt>
      <trkpt lat="45.552752" lon="7.829132">
        <ele>357.21506</ele>
        <time>2024-10-19T13:54:44.000Z</time>
      </trkpt>
      <trkpt lat="45.55272" lon="7.82914">
        <ele>356.75507</ele>
        <time>2024-10-19T13:54:46.000Z</time>
      </trkpt>
      <trkpt lat="45.55269" lon="7.829153">
        <ele>356.33008</ele>
        <time>2024-10-19T13:54:48.000Z</time>
      </trkpt>
      <trkpt lat="45.552667" lon="7.82916">
        <ele>355.87009</ele>
        <time>2024-10-19T13:54:50.000Z</time>
      </trkpt>
      <trkpt lat="45.552643" lon="7.829172">
        <ele>355.40509</ele>
        <time>2024-10-19T13:54:52.000Z</time>
      </trkpt>
      <trkpt lat="45.552623" lon="7.829162">
        <ele>355.02008</ele>
        <time>2024-10-19T13:54:55.000Z</time>
      </trkpt>
      <trkpt lat="45.552598" lon="7.829168">
        <ele>354.65509</ele>
        <time>2024-10-19T13:54:58.000Z</time>
      </trkpt>
      <trkpt lat="45.552582" lon="7.82919">
        <ele>354.30511</ele>
        <time>2024-10-19T13:55:00.000Z</time>
      </trkpt>
      <trkpt lat="45.552553" lon="7.82921">
        <ele>354.06509</ele>
        <time>2024-10-19T13:55:02.000Z</time>
      </trkpt>
      <trkpt lat="45.552523" lon="7.82923">
        <ele>353.90009</ele>
        <time>2024-10-19T13:55:04.000Z</time>
      </trkpt>
      <trkpt lat="45.552507" lon="7.82925">
        <ele>353.81006</ele>
        <time>2024-10-19T13:55:05.000Z</time>
      </trkpt>
      <trkpt lat="45.552485" lon="7.82927">
        <ele>353.75507</ele>
        <time>2024-10-19T13:55:07.000Z</time>
      </trkpt>
      <trkpt lat="45.55246" lon="7.829282">
        <ele>353.74005</ele>
        <time>2024-10-19T13:55:09.000Z</time>
      </trkpt>
      <trkpt lat="45.55243" lon="7.829302">
        <ele>353.82507</ele>
        <time>2024-10-19T13:55:11.000Z</time>
      </trkpt>
      <trkpt lat="45.552402" lon="7.829325">
        <ele>353.98508</ele>
        <time>2024-10-19T13:55:13.000Z</time>
      </trkpt>
      <trkpt lat="45.552372" lon="7.829342">
        <ele>354.21509</ele>
        <time>2024-10-19T13:55:15.000Z</time>
      </trkpt>
      <trkpt lat="45.552342" lon="7.829362">
        <ele>354.48007</ele>
        <time>2024-10-19T13:55:17.000Z</time>
      </trkpt>
      <trkpt lat="45.552318" lon="7.829383">
        <ele>354.76508</ele>
        <time>2024-10-19T13:55:19.000Z</time>
      </trkpt>
      <trkpt lat="45.552295" lon="7.829398">
        <ele>355.04507</ele>
        <time>2024-10-19T13:55:21.000Z</time>
      </trkpt>
      <trkpt lat="45.552268" lon="7.829412">
        <ele>355.37006</ele>
        <time>2024-10-19T13:55:23.000Z</time>
      </trkpt>
      <trkpt lat="45.552245" lon="7.829428">
        <ele>355.73007</ele>
        <time>2024-10-19T13:55:25.000Z</time>
      </trkpt>
      <trkpt lat="45.55222" lon="7.829447">
        <ele>356.13507</ele>
        <time>2024-10-19T13:55:27.000Z</time>
      </trkpt>
      <trkpt lat="45.552188" lon="7.829457">
        <ele>356.54504</ele>
        <time>2024-10-19T13:55:29.000Z</time>
      </trkpt>
      <trkpt lat="45.552157" lon="7.829472">
        <ele>356.99506</ele>
        <time>2024-10-19T13:55:31.000Z</time>
      </trkpt>
      <trkpt lat="45.552133" lon="7.829492">
        <ele>357.46005</ele>
        <time>2024-10-19T13:55:33.000Z</time>
      </trkpt>
      <trkpt lat="45.552105" lon="7.829512">
        <ele>357.90506</ele>
        <time>2024-10-19T13:55:35.000Z</time>
      </trkpt>
      <trkpt lat="45.552078" lon="7.829522">
        <ele>358.30505</ele>
        <time>2024-10-19T13:55:37.000Z</time>
      </trkpt>
      <trkpt lat="45.552053" lon="7.829547">
        <ele>358.68506</ele>
        <time>2024-10-19T13:55:39.000Z</time>
      </trkpt>
      <trkpt lat="45.552025" lon="7.829573">
        <ele>359.00507</ele>
        <time>2024-10-19T13:55:41.000Z</time>
      </trkpt>
      <trkpt lat="45.552007" lon="7.829587">
        <ele>359.30008</ele>
        <time>2024-10-19T13:55:43.000Z</time>
      </trkpt>
      <trkpt lat="45.551977" lon="7.829613">
        <ele>359.61008</ele>
        <time>2024-10-19T13:55:45.000Z</time>
      </trkpt>
      <trkpt lat="45.551952" lon="7.829632">
        <ele>359.90009</ele>
        <time>2024-10-19T13:55:47.000Z</time>
      </trkpt>
      <trkpt lat="45.551927" lon="7.829647">
        <ele>360.19009</ele>
        <time>2024-10-19T13:55:49.000Z</time>
      </trkpt>
      <trkpt lat="45.551897" lon="7.829665">
        <ele>360.47507</ele>
        <time>2024-10-19T13:55:51.000Z</time>
      </trkpt>
      <trkpt lat="45.551863" lon="7.829672">
        <ele>360.70508</ele>
        <time>2024-10-19T13:55:53.000Z</time>
      </trkpt>
      <trkpt lat="45.551845" lon="7.829675">
        <ele>360.9151</ele>
        <time>2024-10-19T13:55:55.000Z</time>
      </trkpt>
      <trkpt lat="45.551823" lon="7.829677">
        <ele>361.06009</ele>
        <time>2024-10-19T13:55:59.000Z</time>
      </trkpt>
      <trkpt lat="45.551797" lon="7.829682">
        <ele>361.15509</ele>
        <time>2024-10-19T13:56:01.000Z</time>
      </trkpt>
      <trkpt lat="45.55177" lon="7.82969">
        <ele>361.19012</ele>
        <time>2024-10-19T13:56:03.000Z</time>
      </trkpt>
      <trkpt lat="45.551743" lon="7.829697">
        <ele>361.1601</ele>
        <time>2024-10-19T13:56:05.000Z</time>
      </trkpt>
      <trkpt lat="45.551715" lon="7.829708">
        <ele>361.08011</ele>
        <time>2024-10-19T13:56:07.000Z</time>
      </trkpt>
      <trkpt lat="45.551685" lon="7.82971">
        <ele>360.96011</ele>
        <time>2024-10-19T13:56:09.000Z</time>
      </trkpt>
      <trkpt lat="45.551663" lon="7.829722">
        <ele>360.82013</ele>
        <time>2024-10-19T13:56:12.000Z</time>
      </trkpt>
      <trkpt lat="45.551645" lon="7.829722">
        <ele>360.64511</ele>
        <time>2024-10-19T13:56:14.000Z</time>
      </trkpt>
      <trkpt lat="45.551625" lon="7.829723">
        <ele>360.47012</ele>
        <time>2024-10-19T13:56:16.000Z</time>
      </trkpt>
      <trkpt lat="45.551603" lon="7.829727">
        <ele>360.30511</ele>
        <time>2024-10-19T13:56:18.000Z</time>
      </trkpt>
      <trkpt lat="45.551575" lon="7.82975">
        <ele>360.20514</ele>
        <time>2024-10-19T13:56:20.000Z</time>
      </trkpt>
      <trkpt lat="45.55156" lon="7.829765">
        <ele>360.12012</ele>
        <time>2024-10-19T13:56:21.000Z</time>
      </trkpt>
      <trkpt lat="45.551532" lon="7.829782">
        <ele>360.04013</ele>
        <time>2024-10-19T13:56:23.000Z</time>
      </trkpt>
      <trkpt lat="45.551503" lon="7.829797">
        <ele>359.91013</ele>
        <time>2024-10-19T13:56:25.000Z</time>
      </trkpt>
      <trkpt lat="45.551482" lon="7.829808">
        <ele>359.71014</ele>
        <time>2024-10-19T13:56:27.000Z</time>
      </trkpt>
      <trkpt lat="45.55146" lon="7.82983">
        <ele>359.51013</ele>
        <time>2024-10-19T13:56:29.000Z</time>
      </trkpt>
      <trkpt lat="45.551442" lon="7.82985">
        <ele>359.32013</ele>
        <time>2024-10-19T13:56:31.000Z</time>
      </trkpt>
      <trkpt lat="45.551423" lon="7.829873">
        <ele>359.15012</ele>
        <time>2024-10-19T13:56:33.000Z</time>
      </trkpt>
      <trkpt lat="45.55141" lon="7.8299">
        <ele>359.01511</ele>
        <time>2024-10-19T13:56:35.000Z</time>
      </trkpt>
      <trkpt lat="45.551388" lon="7.829927">
        <ele>358.89011</ele>
        <time>2024-10-19T13:56:37.000Z</time>
      </trkpt>
      <trkpt lat="45.55137" lon="7.829947">
        <ele>358.85513</ele>
        <time>2024-10-19T13:56:39.000Z</time>
      </trkpt>
      <trkpt lat="45.551352" lon="7.829968">
        <ele>358.90512</ele>
        <time>2024-10-19T13:56:41.000Z</time>
      </trkpt>
      <trkpt lat="45.551335" lon="7.829995">
        <ele>359.10013</ele>
        <time>2024-10-19T13:56:44.000Z</time>
      </trkpt>
      <trkpt lat="45.551313" lon="7.830012">
        <ele>359.38013</ele>
        <time>2024-10-19T13:56:46.000Z</time>
      </trkpt>
      <trkpt lat="45.551293" lon="7.830022">
        <ele>359.71014</ele>
        <time>2024-10-19T13:56:48.000Z</time>
      </trkpt>
      <trkpt lat="45.551268" lon="7.830043">
        <ele>360.07513</ele>
        <time>2024-10-19T13:56:50.000Z</time>
      </trkpt>
      <trkpt lat="45.55124" lon="7.830078">
        <ele>360.42514</ele>
        <time>2024-10-19T13:56:52.000Z</time>
      </trkpt>
      <trkpt lat="45.551223" lon="7.83011">
        <ele>360.80515</ele>
        <time>2024-10-19T13:56:54.000Z</time>
      </trkpt>
      <trkpt lat="45.551203" lon="7.830115">
        <ele>361.17014</ele>
        <time>2024-10-19T13:56:56.000Z</time>
      </trkpt>
      <trkpt lat="45.551183" lon="7.830142">
        <ele>361.48514</ele>
        <time>2024-10-19T13:56:59.000Z</time>
      </trkpt>
      <trkpt lat="45.551163" lon="7.83016">
        <ele>361.79013</ele>
        <time>2024-10-19T13:57:01.000Z</time>
      </trkpt>
      <trkpt lat="45.551143" lon="7.830185">
        <ele>362.10516</ele>
        <time>2024-10-19T13:57:03.000Z</time>
      </trkpt>
      <trkpt lat="45.551115" lon="7.830212">
        <ele>362.41013</ele>
        <time>2024-10-19T13:57:05.000Z</time>
      </trkpt>
      <trkpt lat="45.551092" lon="7.830228">
        <ele>362.73514</ele>
        <time>2024-10-19T13:57:07.000Z</time>
      </trkpt>
      <trkpt lat="45.551073" lon="7.83025">
        <ele>363.08014</ele>
        <time>2024-10-19T13:57:09.000Z</time>
      </trkpt>
      <trkpt lat="45.551055" lon="7.830267">
        <ele>363.42511</ele>
        <time>2024-10-19T13:57:11.000Z</time>
      </trkpt>
      <trkpt lat="45.551037" lon="7.830265">
        <ele>363.79013</ele>
        <time>2024-10-19T13:57:13.000Z</time>
      </trkpt>
      <trkpt lat="45.551018" lon="7.830268">
        <ele>364.16513</ele>
        <time>2024-10-19T13:57:16.000Z</time>
      </trkpt>
      <trkpt lat="45.550993" lon="7.830263">
        <ele>364.54013</ele>
        <time>2024-10-19T13:57:19.000Z</time>
      </trkpt>
      <trkpt lat="45.550975" lon="7.830253">
        <ele>364.90512</ele>
        <time>2024-10-19T13:57:21.000Z</time>
      </trkpt>
      <trkpt lat="45.550952" lon="7.83025">
        <ele>365.20514</ele>
        <time>2024-10-19T13:57:23.000Z</time>
      </trkpt>
      <trkpt lat="45.55093" lon="7.830233">
        <ele>365.47012</ele>
        <time>2024-10-19T13:57:25.000Z</time>
      </trkpt>
      <trkpt lat="45.550903" lon="7.830228">
        <ele>365.62512</ele>
        <time>2024-10-19T13:57:27.000Z</time>
      </trkpt>
      <trkpt lat="45.55088" lon="7.830223">
        <ele>365.7601</ele>
        <time>2024-10-19T13:57:29.000Z</time>
      </trkpt>
      <trkpt lat="45.550848" lon="7.83023">
        <ele>365.9151</ele>
        <time>2024-10-19T13:57:31.000Z</time>
      </trkpt>
      <trkpt lat="45.550822" lon="7.830237">
        <ele>366.06512</ele>
        <time>2024-10-19T13:57:33.000Z</time>
      </trkpt>
      <trkpt lat="45.550803" lon="7.830228">
        <ele>366.24512</ele>
        <time>2024-10-19T13:57:34.000Z</time>
      </trkpt>
      <trkpt lat="45.550783" lon="7.830222">
        <ele>366.4101</ele>
        <time>2024-10-19T13:57:35.000Z</time>
      </trkpt>
      <trkpt lat="45.550753" lon="7.830223">
        <ele>366.57513</ele>
        <time>2024-10-19T13:57:37.000Z</time>
      </trkpt>
      <trkpt lat="45.550727" lon="7.830233">
        <ele>366.77011</ele>
        <time>2024-10-19T13:57:39.000Z</time>
      </trkpt>
      <trkpt lat="45.550698" lon="7.830233">
        <ele>366.93011</ele>
        <time>2024-10-19T13:57:41.000Z</time>
      </trkpt>
      <trkpt lat="45.55067" lon="7.830245">
        <ele>367.08011</ele>
        <time>2024-10-19T13:57:43.000Z</time>
      </trkpt>
      <trkpt lat="45.55065" lon="7.830242">
        <ele>367.24011</ele>
        <time>2024-10-19T13:57:44.000Z</time>
      </trkpt>
      <trkpt lat="45.55062" lon="7.830252">
        <ele>367.40009</ele>
        <time>2024-10-19T13:57:46.000Z</time>
      </trkpt>
      <trkpt lat="45.5506" lon="7.830277">
        <ele>367.55511</ele>
        <time>2024-10-19T13:57:48.000Z</time>
      </trkpt>
      <trkpt lat="45.550568" lon="7.830292">
        <ele>367.67511</ele>
        <time>2024-10-19T13:57:50.000Z</time>
      </trkpt>
      <trkpt lat="45.550537" lon="7.830295">
        <ele>367.72009</ele>
        <time>2024-10-19T13:57:52.000Z</time>
      </trkpt>
      <trkpt lat="45.550513" lon="7.830298">
        <ele>367.6951</ele>
        <time>2024-10-19T13:57:53.000Z</time>
      </trkpt>
      <trkpt lat="45.550488" lon="7.830305">
        <ele>367.62509</ele>
        <time>2024-10-19T13:57:54.000Z</time>
      </trkpt>
      <trkpt lat="45.55047" lon="7.830308">
        <ele>367.53009</ele>
        <time>2024-10-19T13:57:55.000Z</time>
      </trkpt>
      <trkpt lat="45.55045" lon="7.830315">
        <ele>367.45511</ele>
        <time>2024-10-19T13:57:56.000Z</time>
      </trkpt>
      <trkpt lat="45.550432" lon="7.830325">
        <ele>367.3551</ele>
        <time>2024-10-19T13:57:57.000Z</time>
      </trkpt>
      <trkpt lat="45.550405" lon="7.830343">
        <ele>367.22009</ele>
        <time>2024-10-19T13:57:59.000Z</time>
      </trkpt>
      <trkpt lat="45.550387" lon="7.830355">
        <ele>367.05011</ele>
        <time>2024-10-19T13:58:00.000Z</time>
      </trkpt>
      <trkpt lat="45.550368" lon="7.83036">
        <ele>366.83508</ele>
        <time>2024-10-19T13:58:01.000Z</time>
      </trkpt>
      <trkpt lat="45.550342" lon="7.830357">
        <ele>366.56009</ele>
        <time>2024-10-19T13:58:03.000Z</time>
      </trkpt>
      <trkpt lat="45.550317" lon="7.830358">
        <ele>366.23508</ele>
        <time>2024-10-19T13:58:05.000Z</time>
      </trkpt>
      <trkpt lat="45.550293" lon="7.830368">
        <ele>365.87506</ele>
        <time>2024-10-19T13:58:07.000Z</time>
      </trkpt>
      <trkpt lat="45.550265" lon="7.830372">
        <ele>365.45505</ele>
        <time>2024-10-19T13:58:09.000Z</time>
      </trkpt>
      <trkpt lat="45.550238" lon="7.830377">
        <ele>365.02008</ele>
        <time>2024-10-19T13:58:11.000Z</time>
      </trkpt>
      <trkpt lat="45.550208" lon="7.830385">
        <ele>364.58008</ele>
        <time>2024-10-19T13:58:13.000Z</time>
      </trkpt>
      <trkpt lat="45.55019" lon="7.830385">
        <ele>364.16006</ele>
        <time>2024-10-19T13:58:14.000Z</time>
      </trkpt>
      <trkpt lat="45.55016" lon="7.830392">
        <ele>363.74506</ele>
        <time>2024-10-19T13:58:16.000Z</time>
      </trkpt>
      <trkpt lat="45.550133" lon="7.830392">
        <ele>363.30508</ele>
        <time>2024-10-19T13:58:18.000Z</time>
      </trkpt>
      <trkpt lat="45.550115" lon="7.830385">
        <ele>362.88007</ele>
        <time>2024-10-19T13:58:19.000Z</time>
      </trkpt>
      <trkpt lat="45.550085" lon="7.830375">
        <ele>362.46509</ele>
        <time>2024-10-19T13:58:21.000Z</time>
      </trkpt>
      <trkpt lat="45.550052" lon="7.830392">
        <ele>362.11508</ele>
        <time>2024-10-19T13:58:23.000Z</time>
      </trkpt>
      <trkpt lat="45.550022" lon="7.830407">
        <ele>361.81009</ele>
        <time>2024-10-19T13:58:25.000Z</time>
      </trkpt>
      <trkpt lat="45.549998" lon="7.830435">
        <ele>361.58508</ele>
        <time>2024-10-19T13:58:27.000Z</time>
      </trkpt>
      <trkpt lat="45.549972" lon="7.830442">
        <ele>361.35507</ele>
        <time>2024-10-19T13:58:29.000Z</time>
      </trkpt>
      <trkpt lat="45.549947" lon="7.83047">
        <ele>361.09506</ele>
        <time>2024-10-19T13:58:31.000Z</time>
      </trkpt>
      <trkpt lat="45.549928" lon="7.830503">
        <ele>360.85507</ele>
        <time>2024-10-19T13:58:33.000Z</time>
      </trkpt>
      <trkpt lat="45.549912" lon="7.83052">
        <ele>360.64508</ele>
        <time>2024-10-19T13:58:35.000Z</time>
      </trkpt>
      <trkpt lat="45.549895" lon="7.83053">
        <ele>360.48508</ele>
        <time>2024-10-19T13:58:37.000Z</time>
      </trkpt>
      <trkpt lat="45.549867" lon="7.830547">
        <ele>360.31009</ele>
        <time>2024-10-19T13:58:39.000Z</time>
      </trkpt>
      <trkpt lat="45.54985" lon="7.830562">
        <ele>360.14508</ele>
        <time>2024-10-19T13:58:41.000Z</time>
      </trkpt>
      <trkpt lat="45.549827" lon="7.83059">
        <ele>360.01007</ele>
        <time>2024-10-19T13:58:43.000Z</time>
      </trkpt>
      <trkpt lat="45.549802" lon="7.83062">
        <ele>359.89508</ele>
        <time>2024-10-19T13:58:45.000Z</time>
      </trkpt>
      <trkpt lat="45.549778" lon="7.83065">
        <ele>359.86008</ele>
        <time>2024-10-19T13:58:47.000Z</time>
      </trkpt>
      <trkpt lat="45.549757" lon="7.830677">
        <ele>359.87506</ele>
        <time>2024-10-19T13:58:49.000Z</time>
      </trkpt>
      <trkpt lat="45.549743" lon="7.830703">
        <ele>359.96005</ele>
        <time>2024-10-19T13:58:51.000Z</time>
      </trkpt>
      <trkpt lat="45.549722" lon="7.830702">
        <ele>360.09006</ele>
        <time>2024-10-19T13:58:53.000Z</time>
      </trkpt>
      <trkpt lat="45.549702" lon="7.830712">
        <ele>360.30505</ele>
        <time>2024-10-19T13:58:57.000Z</time>
      </trkpt>
      <trkpt lat="45.549677" lon="7.830733">
        <ele>360.57504</ele>
        <time>2024-10-19T13:58:59.000Z</time>
      </trkpt>
      <trkpt lat="45.54965" lon="7.830763">
        <ele>360.86505</ele>
        <time>2024-10-19T13:59:01.000Z</time>
      </trkpt>
      <trkpt lat="45.549633" lon="7.830805">
        <ele>361.14005</ele>
        <time>2024-10-19T13:59:03.000Z</time>
      </trkpt>
      <trkpt lat="45.549612" lon="7.830835">
        <ele>361.34503</ele>
        <time>2024-10-19T13:59:05.000Z</time>
      </trkpt>
      <trkpt lat="45.549587" lon="7.830842">
        <ele>361.44504</ele>
        <time>2024-10-19T13:59:08.000Z</time>
      </trkpt>
      <trkpt lat="45.549568" lon="7.830818">
        <ele>361.48505</ele>
        <time>2024-10-19T13:59:10.000Z</time>
      </trkpt>
      <trkpt lat="45.54954" lon="7.830793">
        <ele>361.57004</ele>
        <time>2024-10-19T13:59:12.000Z</time>
      </trkpt>
      <trkpt lat="45.549522" lon="7.830782">
        <ele>361.70505</ele>
        <time>2024-10-19T13:59:13.000Z</time>
      </trkpt>
      <trkpt lat="45.549503" lon="7.83077">
        <ele>361.84503</ele>
        <time>2024-10-19T13:59:15.000Z</time>
      </trkpt>
      <trkpt lat="45.549482" lon="7.830773">
        <ele>362.03003</ele>
        <time>2024-10-19T13:59:17.000Z</time>
      </trkpt>
      <trkpt lat="45.549453" lon="7.830778">
        <ele>362.19003</ele>
        <time>2024-10-19T13:59:19.000Z</time>
      </trkpt>
      <trkpt lat="45.54943" lon="7.830793">
        <ele>362.38507</ele>
        <time>2024-10-19T13:59:21.000Z</time>
      </trkpt>
      <trkpt lat="45.549395" lon="7.830788">
        <ele>362.65506</ele>
        <time>2024-10-19T13:59:23.000Z</time>
      </trkpt>
      <trkpt lat="45.549367" lon="7.830787">
        <ele>362.90005</ele>
        <time>2024-10-19T13:59:25.000Z</time>
      </trkpt>
      <trkpt lat="45.549337" lon="7.830803">
        <ele>363.08005</ele>
        <time>2024-10-19T13:59:29.000Z</time>
      </trkpt>
      <trkpt lat="45.549313" lon="7.83081">
        <ele>363.17004</ele>
        <time>2024-10-19T13:59:31.000Z</time>
      </trkpt>
      <trkpt lat="45.549287" lon="7.830785">
        <ele>363.21503</ele>
        <time>2024-10-19T13:59:32.000Z</time>
      </trkpt>
      <trkpt lat="45.549267" lon="7.830782">
        <ele>363.25507</ele>
        <time>2024-10-19T13:59:33.000Z</time>
      </trkpt>
      <trkpt lat="45.549243" lon="7.830787">
        <ele>363.25006</ele>
        <time>2024-10-19T13:59:34.000Z</time>
      </trkpt>
      <trkpt lat="45.549223" lon="7.830807">
        <ele>363.18506</ele>
        <time>2024-10-19T13:59:35.000Z</time>
      </trkpt>
      <trkpt lat="45.549195" lon="7.830828">
        <ele>363.11005</ele>
        <time>2024-10-19T13:59:37.000Z</time>
      </trkpt>
      <trkpt lat="45.549172" lon="7.830843">
        <ele>363.00006</ele>
        <time>2024-10-19T13:59:39.000Z</time>
      </trkpt>
      <trkpt lat="45.549147" lon="7.830875">
        <ele>362.89008</ele>
        <time>2024-10-19T13:59:42.000Z</time>
      </trkpt>
      <trkpt lat="45.549103" lon="7.830922">
        <ele>362.79007</ele>
        <time>2024-10-19T13:59:44.000Z</time>
      </trkpt>
      <trkpt lat="45.549088" lon="7.830978">
        <ele>362.74506</ele>
        <time>2024-10-19T13:59:45.000Z</time>
      </trkpt>
      <trkpt lat="45.54908" lon="7.831005">
        <ele>362.68008</ele>
        <time>2024-10-19T13:59:46.000Z</time>
      </trkpt>
      <trkpt lat="45.54906" lon="7.831027">
        <ele>362.55008</ele>
        <time>2024-10-19T13:59:47.000Z</time>
      </trkpt>
      <trkpt lat="45.549037" lon="7.831033">
        <ele>362.36005</ele>
        <time>2024-10-19T13:59:48.000Z</time>
      </trkpt>
      <trkpt lat="45.549025" lon="7.831065">
        <ele>362.06506</ele>
        <time>2024-10-19T13:59:50.000Z</time>
      </trkpt>
      <trkpt lat="45.549012" lon="7.831088">
        <ele>361.68008</ele>
        <time>2024-10-19T13:59:51.000Z</time>
      </trkpt>
      <trkpt lat="45.54899" lon="7.83112">
        <ele>361.26007</ele>
        <time>2024-10-19T13:59:53.000Z</time>
      </trkpt>
      <trkpt lat="45.548962" lon="7.831158">
        <ele>360.77008</ele>
        <time>2024-10-19T13:59:55.000Z</time>
      </trkpt>
      <trkpt lat="45.548938" lon="7.831167">
        <ele>360.25006</ele>
        <time>2024-10-19T13:59:56.000Z</time>
      </trkpt>
      <trkpt lat="45.548907" lon="7.831182">
        <ele>359.74008</ele>
        <time>2024-10-19T13:59:58.000Z</time>
      </trkpt>
      <trkpt lat="45.548882" lon="7.83121">
        <ele>359.26007</ele>
        <time>2024-10-19T14:00:00.000Z</time>
      </trkpt>
      <trkpt lat="45.548857" lon="7.831233">
        <ele>358.80011</ele>
        <time>2024-10-19T14:00:02.000Z</time>
      </trkpt>
      <trkpt lat="45.548838" lon="7.831238">
        <ele>358.33511</ele>
        <time>2024-10-19T14:00:04.000Z</time>
      </trkpt>
      <trkpt lat="45.54885" lon="7.83128">
        <ele>357.77509</ele>
        <time>2024-10-19T14:00:06.000Z</time>
      </trkpt>
      <trkpt lat="45.548858" lon="7.831303">
        <ele>357.19513</ele>
        <time>2024-10-19T14:00:08.000Z</time>
      </trkpt>
      <trkpt lat="45.548873" lon="7.831343">
        <ele>356.59512</ele>
        <time>2024-10-19T14:00:11.000Z</time>
      </trkpt>
      <trkpt lat="45.548852" lon="7.831305">
        <ele>355.95514</ele>
        <time>2024-10-19T14:00:14.000Z</time>
      </trkpt>
      <trkpt lat="45.548842" lon="7.831278">
        <ele>355.33511</ele>
        <time>2024-10-19T14:00:18.000Z</time>
      </trkpt>
      <trkpt lat="45.548832" lon="7.831237">
        <ele>354.72513</ele>
        <time>2024-10-19T14:00:20.000Z</time>
      </trkpt>
      <trkpt lat="45.548815" lon="7.831217">
        <ele>354.15012</ele>
        <time>2024-10-19T14:00:21.000Z</time>
      </trkpt>
      <trkpt lat="45.548798" lon="7.831198">
        <ele>353.61014</ele>
        <time>2024-10-19T14:00:22.000Z</time>
      </trkpt>
      <trkpt lat="45.54877" lon="7.831188">
        <ele>353.09515</ele>
        <time>2024-10-19T14:00:24.000Z</time>
      </trkpt>
      <trkpt lat="45.548725" lon="7.83116">
        <ele>352.66013</ele>
        <time>2024-10-19T14:00:26.000Z</time>
      </trkpt>
      <trkpt lat="45.548703" lon="7.831153">
        <ele>352.29514</ele>
        <time>2024-10-19T14:00:27.000Z</time>
      </trkpt>
      <trkpt lat="45.548698" lon="7.831202">
        <ele>351.99014</ele>
        <time>2024-10-19T14:00:29.000Z</time>
      </trkpt>
      <trkpt lat="45.548708" lon="7.831262">
        <ele>351.80011</ele>
        <time>2024-10-19T14:00:31.000Z</time>
      </trkpt>
      <trkpt lat="45.548712" lon="7.831295">
        <ele>351.67511</ele>
        <time>2024-10-19T14:00:32.000Z</time>
      </trkpt>
      <trkpt lat="45.548722" lon="7.831322">
        <ele>351.66513</ele>
        <time>2024-10-19T14:00:33.000Z</time>
      </trkpt>
      <trkpt lat="45.548725" lon="7.831365">
        <ele>351.81012</ele>
        <time>2024-10-19T14:00:35.000Z</time>
        <name>Caffè Statuto, Settimo Vittone</name>
        <extensions>
          <oa:locType>tourGap</oa:locType>
          <oa:address>{
  &quot;title&quot; : &quot;Caffè Statuto, Settimo Vittone&quot;
}</oa:address>
        </extensions>
      </trkpt>
      <trkpt lat="45.548777" lon="7.831353">
        <ele>352.00513</ele>
        <time>2024-10-19T14:04:50.000Z</time>
        <name>Caffè Statuto, Settimo Vittone</name>
        <extensions>
          <oa:address>{
  &quot;title&quot; : &quot;Caffè Statuto, Settimo Vittone&quot;
}</oa:address>
        </extensions>
      </trkpt>
      <trkpt lat="45.548763" lon="7.83133">
        <ele>352.19012</ele>
        <time>2024-10-19T14:04:53.000Z</time>
      </trkpt>
      <trkpt lat="45.548743" lon="7.83135">
        <ele>352.47012</ele>
        <time>2024-10-19T14:04:55.000Z</time>
      </trkpt>
      <trkpt lat="45.548727" lon="7.831377">
        <ele>352.85013</ele>
        <time>2024-10-19T14:04:57.000Z</time>
      </trkpt>
      <trkpt lat="45.54871" lon="7.831415">
        <ele>353.34015</ele>
        <time>2024-10-19T14:05:00.000Z</time>
      </trkpt>
      <trkpt lat="45.548693" lon="7.831442">
        <ele>353.85513</ele>
        <time>2024-10-19T14:05:02.000Z</time>
      </trkpt>
      <trkpt lat="45.548678" lon="7.831463">
        <ele>354.33014</ele>
        <time>2024-10-19T14:05:06.000Z</time>
      </trkpt>
      <trkpt lat="45.548695" lon="7.831485">
        <ele>354.81512</ele>
        <time>2024-10-19T14:05:08.000Z</time>
      </trkpt>
      <trkpt lat="45.548708" lon="7.831515">
        <ele>355.27512</ele>
        <time>2024-10-19T14:05:11.000Z</time>
      </trkpt>
      <trkpt lat="45.548707" lon="7.831545">
        <ele>355.74512</ele>
        <time>2024-10-19T14:05:13.000Z</time>
      </trkpt>
      <trkpt lat="45.548702" lon="7.831582">
        <ele>356.18011</ele>
        <time>2024-10-19T14:05:15.000Z</time>
      </trkpt>
      <trkpt lat="45.548718" lon="7.831607">
        <ele>356.6001</ele>
        <time>2024-10-19T14:05:17.000Z</time>
      </trkpt>
      <trkpt lat="45.548733" lon="7.83163">
        <ele>357.01007</ele>
        <time>2024-10-19T14:05:19.000Z</time>
      </trkpt>
      <trkpt lat="45.54876" lon="7.831663">
        <ele>357.42511</ele>
        <time>2024-10-19T14:05:21.000Z</time>
      </trkpt>
      <trkpt lat="45.548782" lon="7.831687">
        <ele>357.84509</ele>
        <time>2024-10-19T14:05:23.000Z</time>
      </trkpt>
      <trkpt lat="45.5488" lon="7.83171">
        <ele>358.3201</ele>
        <time>2024-10-19T14:05:25.000Z</time>
      </trkpt>
      <trkpt lat="45.548813" lon="7.831692">
        <ele>358.8501</ele>
        <time>2024-10-19T14:05:30.000Z</time>
      </trkpt>
      <trkpt lat="45.54883" lon="7.831713">
        <ele>359.40509</ele>
        <time>2024-10-19T14:05:34.000Z</time>
      </trkpt>
      <trkpt lat="45.548852" lon="7.831752">
        <ele>359.94009</ele>
        <time>2024-10-19T14:05:36.000Z</time>
      </trkpt>
      <trkpt lat="45.54886" lon="7.83178">
        <ele>360.33011</ele>
        <time>2024-10-19T14:05:37.000Z</time>
      </trkpt>
      <trkpt lat="45.548868" lon="7.831815">
        <ele>360.6951</ele>
        <time>2024-10-19T14:05:39.000Z</time>
      </trkpt>
      <trkpt lat="45.548872" lon="7.831852">
        <ele>361.10507</ele>
        <time>2024-10-19T14:05:41.000Z</time>
      </trkpt>
      <trkpt lat="45.548875" lon="7.831885">
        <ele>361.46509</ele>
        <time>2024-10-19T14:05:43.000Z</time>
      </trkpt>
      <trkpt lat="45.548888" lon="7.831903">
        <ele>361.75507</ele>
        <time>2024-10-19T14:05:45.000Z</time>
      </trkpt>
      <trkpt lat="45.548893" lon="7.831938">
        <ele>362.00006</ele>
        <time>2024-10-19T14:05:48.000Z</time>
      </trkpt>
      <trkpt lat="45.548905" lon="7.831975">
        <ele>362.28009</ele>
        <time>2024-10-19T14:05:51.000Z</time>
      </trkpt>
      <trkpt lat="45.548915" lon="7.832">
        <ele>362.62006</ele>
        <time>2024-10-19T14:05:52.000Z</time>
      </trkpt>
      <trkpt lat="45.548918" lon="7.832035">
        <ele>362.98007</ele>
        <time>2024-10-19T14:05:54.000Z</time>
      </trkpt>
      <trkpt lat="45.548902" lon="7.832058">
        <ele>363.32507</ele>
        <time>2024-10-19T14:06:01.000Z</time>
      </trkpt>
      <trkpt lat="45.548883" lon="7.832067">
        <ele>363.73508</ele>
        <time>2024-10-19T14:06:04.000Z</time>
      </trkpt>
      <trkpt lat="45.54891" lon="7.832077">
        <ele>364.27008</ele>
        <time>2024-10-19T14:06:10.000Z</time>
      </trkpt>
      <trkpt lat="45.548937" lon="7.832062">
        <ele>364.8501</ele>
        <time>2024-10-19T14:06:12.000Z</time>
      </trkpt>
      <trkpt lat="45.548957" lon="7.832055">
        <ele>365.4501</ele>
        <time>2024-10-19T14:06:13.000Z</time>
      </trkpt>
      <trkpt lat="45.548983" lon="7.832055">
        <ele>366.00507</ele>
        <time>2024-10-19T14:06:15.000Z</time>
      </trkpt>
      <trkpt lat="45.549013" lon="7.832053">
        <ele>366.52008</ele>
        <time>2024-10-19T14:06:17.000Z</time>
      </trkpt>
      <trkpt lat="45.549045" lon="7.832052">
        <ele>366.98508</ele>
        <time>2024-10-19T14:06:19.000Z</time>
      </trkpt>
      <trkpt lat="45.549062" lon="7.832038">
        <ele>367.31509</ele>
        <time>2024-10-19T14:06:21.000Z</time>
      </trkpt>
      <trkpt lat="45.54908" lon="7.832035">
        <ele>367.59009</ele>
        <time>2024-10-19T14:06:23.000Z</time>
      </trkpt>
      <trkpt lat="45.549103" lon="7.832082">
        <ele>367.81509</ele>
        <time>2024-10-19T14:06:25.000Z</time>
      </trkpt>
      <trkpt lat="45.549113" lon="7.832107">
        <ele>368.03009</ele>
        <time>2024-10-19T14:06:26.000Z</time>
      </trkpt>
      <trkpt lat="45.549135" lon="7.832147">
        <ele>368.20508</ele>
        <time>2024-10-19T14:06:28.000Z</time>
      </trkpt>
      <trkpt lat="45.54915" lon="7.832168">
        <ele>368.38007</ele>
        <time>2024-10-19T14:06:29.000Z</time>
      </trkpt>
      <trkpt lat="45.549157" lon="7.832193">
        <ele>368.56009</ele>
        <time>2024-10-19T14:06:30.000Z</time>
      </trkpt>
      <trkpt lat="45.549172" lon="7.832225">
        <ele>368.74008</ele>
        <time>2024-10-19T14:06:32.000Z</time>
      </trkpt>
      <trkpt lat="45.549192" lon="7.83225">
        <ele>368.9151</ele>
        <time>2024-10-19T14:06:34.000Z</time>
      </trkpt>
      <trkpt lat="45.549218" lon="7.832272">
        <ele>369.06009</ele>
        <time>2024-10-19T14:06:36.000Z</time>
      </trkpt>
      <trkpt lat="45.549235" lon="7.832295">
        <ele>369.17508</ele>
        <time>2024-10-19T14:06:38.000Z</time>
      </trkpt>
      <trkpt lat="45.549245" lon="7.832322">
        <ele>369.28009</ele>
        <time>2024-10-19T14:06:40.000Z</time>
      </trkpt>
      <trkpt lat="45.549255" lon="7.83235">
        <ele>369.4201</ele>
        <time>2024-10-19T14:06:42.000Z</time>
      </trkpt>
      <trkpt lat="45.549265" lon="7.832373">
        <ele>369.51007</ele>
        <time>2024-10-19T14:06:44.000Z</time>
      </trkpt>
      <trkpt lat="45.549275" lon="7.832403">
        <ele>369.49509</ele>
        <time>2024-10-19T14:06:47.000Z</time>
      </trkpt>
      <trkpt lat="45.549295" lon="7.832433">
        <ele>369.44009</ele>
        <time>2024-10-19T14:06:49.000Z</time>
      </trkpt>
      <trkpt lat="45.54931" lon="7.832453">
        <ele>369.36508</ele>
        <time>2024-10-19T14:06:51.000Z</time>
      </trkpt>
      <trkpt lat="45.549325" lon="7.832468">
        <ele>369.2951</ele>
        <time>2024-10-19T14:06:53.000Z</time>
      </trkpt>
      <trkpt lat="45.549335" lon="7.832498">
        <ele>369.21509</ele>
        <time>2024-10-19T14:06:55.000Z</time>
      </trkpt>
      <trkpt lat="45.54935" lon="7.832522">
        <ele>369.1301</ele>
        <time>2024-10-19T14:06:57.000Z</time>
      </trkpt>
      <trkpt lat="45.549363" lon="7.83254">
        <ele>369.0401</ele>
        <time>2024-10-19T14:06:59.000Z</time>
      </trkpt>
      <trkpt lat="45.549383" lon="7.83255">
        <ele>368.94009</ele>
        <time>2024-10-19T14:07:01.000Z</time>
      </trkpt>
      <trkpt lat="45.549402" lon="7.832583">
        <ele>368.8551</ele>
        <time>2024-10-19T14:07:03.000Z</time>
      </trkpt>
      <trkpt lat="45.549417" lon="7.832612">
        <ele>368.7951</ele>
        <time>2024-10-19T14:07:05.000Z</time>
      </trkpt>
      <trkpt lat="45.549433" lon="7.83263">
        <ele>368.76511</ele>
        <time>2024-10-19T14:07:07.000Z</time>
      </trkpt>
      <trkpt lat="45.549448" lon="7.832645">
        <ele>368.76511</ele>
        <time>2024-10-19T14:07:09.000Z</time>
      </trkpt>
      <trkpt lat="45.549465" lon="7.832665">
        <ele>368.7551</ele>
        <time>2024-10-19T14:07:12.000Z</time>
      </trkpt>
      <trkpt lat="45.54948" lon="7.832682">
        <ele>368.74008</ele>
        <time>2024-10-19T14:07:14.000Z</time>
      </trkpt>
      <trkpt lat="45.549492" lon="7.832713">
        <ele>368.70508</ele>
        <time>2024-10-19T14:07:17.000Z</time>
      </trkpt>
      <trkpt lat="45.549508" lon="7.832735">
        <ele>368.64508</ele>
        <time>2024-10-19T14:07:19.000Z</time>
      </trkpt>
      <trkpt lat="45.549523" lon="7.832763">
        <ele>368.56509</ele>
        <time>2024-10-19T14:07:21.000Z</time>
      </trkpt>
      <trkpt lat="45.549533" lon="7.832785">
        <ele>368.48007</ele>
        <time>2024-10-19T14:07:22.000Z</time>
      </trkpt>
      <trkpt lat="45.54954" lon="7.832818">
        <ele>368.39508</ele>
        <time>2024-10-19T14:07:23.000Z</time>
      </trkpt>
      <trkpt lat="45.54954" lon="7.832858">
        <ele>368.30508</ele>
        <time>2024-10-19T14:07:24.000Z</time>
      </trkpt>
      <trkpt lat="45.549543" lon="7.83289">
        <ele>368.23505</ele>
        <time>2024-10-19T14:07:25.000Z</time>
      </trkpt>
      <trkpt lat="45.549555" lon="7.83291">
        <ele>368.17505</ele>
        <time>2024-10-19T14:07:28.000Z</time>
      </trkpt>
      <trkpt lat="45.549575" lon="7.832903">
        <ele>368.11005</ele>
        <time>2024-10-19T14:07:30.000Z</time>
      </trkpt>
      <trkpt lat="45.549608" lon="7.832922">
        <ele>368.11005</ele>
        <time>2024-10-19T14:07:32.000Z</time>
      </trkpt>
      <trkpt lat="45.549623" lon="7.832937">
        <ele>368.20004</ele>
        <time>2024-10-19T14:07:34.000Z</time>
      </trkpt>
      <trkpt lat="45.549648" lon="7.832937">
        <ele>368.33005</ele>
        <time>2024-10-19T14:07:35.000Z</time>
      </trkpt>
      <trkpt lat="45.54967" lon="7.832935">
        <ele>368.49005</ele>
        <time>2024-10-19T14:07:36.000Z</time>
      </trkpt>
      <trkpt lat="45.5497" lon="7.832938">
        <ele>368.73004</ele>
        <time>2024-10-19T14:07:38.000Z</time>
      </trkpt>
      <trkpt lat="45.549723" lon="7.832955">
        <ele>369.04004</ele>
        <time>2024-10-19T14:07:40.000Z</time>
      </trkpt>
      <trkpt lat="45.549747" lon="7.83298">
        <ele>369.40503</ele>
        <time>2024-10-19T14:07:42.000Z</time>
      </trkpt>
      <trkpt lat="45.549767" lon="7.833002">
        <ele>369.84003</ele>
        <time>2024-10-19T14:07:44.000Z</time>
      </trkpt>
      <trkpt lat="45.549792" lon="7.833025">
        <ele>370.33502</ele>
        <time>2024-10-19T14:07:46.000Z</time>
      </trkpt>
      <trkpt lat="45.54981" lon="7.833033">
        <ele>370.85504</ele>
        <time>2024-10-19T14:07:47.000Z</time>
      </trkpt>
      <trkpt lat="45.549828" lon="7.833057">
        <ele>371.46002</ele>
        <time>2024-10-19T14:07:49.000Z</time>
      </trkpt>
      <trkpt lat="45.549843" lon="7.833082">
        <ele>372.14005</ele>
        <time>2024-10-19T14:07:51.000Z</time>
      </trkpt>
      <trkpt lat="45.549868" lon="7.833087">
        <ele>372.88007</ele>
        <time>2024-10-19T14:07:53.000Z</time>
      </trkpt>
      <trkpt lat="45.549892" lon="7.833083">
        <ele>373.68005</ele>
        <time>2024-10-19T14:07:55.000Z</time>
      </trkpt>
      <trkpt lat="45.549912" lon="7.833097">
        <ele>374.50507</ele>
        <time>2024-10-19T14:07:57.000Z</time>
      </trkpt>
      <trkpt lat="45.549925" lon="7.833118">
        <ele>375.34006</ele>
        <time>2024-10-19T14:07:59.000Z</time>
      </trkpt>
      <trkpt lat="45.549933" lon="7.833142">
        <ele>376.16507</ele>
        <time>2024-10-19T14:08:01.000Z</time>
      </trkpt>
      <trkpt lat="45.549935" lon="7.833183">
        <ele>376.98007</ele>
        <time>2024-10-19T14:08:03.000Z</time>
      </trkpt>
      <trkpt lat="45.549945" lon="7.833218">
        <ele>377.76007</ele>
        <time>2024-10-19T14:08:05.000Z</time>
      </trkpt>
      <trkpt lat="45.549953" lon="7.833247">
        <ele>378.53009</ele>
        <time>2024-10-19T14:08:07.000Z</time>
      </trkpt>
      <trkpt lat="45.549972" lon="7.83326">
        <ele>379.20508</ele>
        <time>2024-10-19T14:08:10.000Z</time>
      </trkpt>
      <trkpt lat="45.549978" lon="7.833298">
        <ele>379.80508</ele>
        <time>2024-10-19T14:08:13.000Z</time>
      </trkpt>
      <trkpt lat="45.54998" lon="7.833338">
        <ele>380.40509</ele>
        <time>2024-10-19T14:08:15.000Z</time>
      </trkpt>
      <trkpt lat="45.549983" lon="7.833368">
        <ele>381.00507</ele>
        <time>2024-10-19T14:08:16.000Z</time>
      </trkpt>
      <trkpt lat="45.549983" lon="7.833395">
        <ele>381.56009</ele>
        <time>2024-10-19T14:08:17.000Z</time>
      </trkpt>
      <trkpt lat="45.549983" lon="7.833432">
        <ele>382.1001</ele>
        <time>2024-10-19T14:08:20.000Z</time>
      </trkpt>
      <trkpt lat="45.549988" lon="7.83346">
        <ele>382.59509</ele>
        <time>2024-10-19T14:08:22.000Z</time>
      </trkpt>
      <trkpt lat="45.549992" lon="7.833488">
        <ele>383.02509</ele>
        <time>2024-10-19T14:08:26.000Z</time>
      </trkpt>
      <trkpt lat="45.550005" lon="7.833512">
        <ele>383.36511</ele>
        <time>2024-10-19T14:08:29.000Z</time>
      </trkpt>
      <trkpt lat="45.550033" lon="7.833503">
        <ele>383.64511</ele>
        <time>2024-10-19T14:08:32.000Z</time>
      </trkpt>
      <trkpt lat="45.550052" lon="7.833502">
        <ele>383.85013</ele>
        <time>2024-10-19T14:08:34.000Z</time>
      </trkpt>
      <trkpt lat="45.55007" lon="7.833507">
        <ele>384.0401</ele>
        <time>2024-10-19T14:08:39.000Z</time>
      </trkpt>
      <trkpt lat="45.55011" lon="7.83352">
        <ele>384.11511</ele>
        <time>2024-10-19T14:09:00.000Z</time>
      </trkpt>
      <trkpt lat="45.550127" lon="7.833538">
        <ele>384.15009</ele>
        <time>2024-10-19T14:09:02.000Z</time>
      </trkpt>
      <trkpt lat="45.550152" lon="7.833557">
        <ele>384.1701</ele>
        <time>2024-10-19T14:09:04.000Z</time>
      </trkpt>
      <trkpt lat="45.550167" lon="7.833573">
        <ele>384.19009</ele>
        <time>2024-10-19T14:09:05.000Z</time>
      </trkpt>
      <trkpt lat="45.550185" lon="7.833598">
        <ele>384.20007</ele>
        <time>2024-10-19T14:09:07.000Z</time>
      </trkpt>
      <trkpt lat="45.550202" lon="7.833618">
        <ele>384.18506</ele>
        <time>2024-10-19T14:09:09.000Z</time>
      </trkpt>
      <trkpt lat="45.550212" lon="7.833647">
        <ele>384.18506</ele>
        <time>2024-10-19T14:09:13.000Z</time>
      </trkpt>
      <trkpt lat="45.550248" lon="7.833672">
        <ele>384.31506</ele>
        <time>2024-10-19T14:09:24.000Z</time>
      </trkpt>
      <trkpt lat="45.550265" lon="7.833685">
        <ele>384.46506</ele>
        <time>2024-10-19T14:09:28.000Z</time>
      </trkpt>
      <trkpt lat="45.550283" lon="7.833705">
        <ele>384.58505</ele>
        <time>2024-10-19T14:09:32.000Z</time>
      </trkpt>
      <trkpt lat="45.550298" lon="7.833738">
        <ele>384.69003</ele>
        <time>2024-10-19T14:09:35.000Z</time>
      </trkpt>
      <trkpt lat="45.550315" lon="7.83375">
        <ele>384.78503</ele>
        <time>2024-10-19T14:09:37.000Z</time>
      </trkpt>
      <trkpt lat="45.550342" lon="7.833765">
        <ele>384.84503</ele>
        <time>2024-10-19T14:09:40.000Z</time>
      </trkpt>
      <trkpt lat="45.550357" lon="7.833783">
        <ele>384.87003</ele>
        <time>2024-10-19T14:09:46.000Z</time>
      </trkpt>
      <trkpt lat="45.550377" lon="7.83381">
        <ele>384.86502</ele>
        <time>2024-10-19T14:09:48.000Z</time>
      </trkpt>
      <trkpt lat="45.550395" lon="7.833833">
        <ele>384.86002</ele>
        <time>2024-10-19T14:09:50.000Z</time>
      </trkpt>
      <trkpt lat="45.550415" lon="7.833848">
        <ele>384.875</ele>
        <time>2024-10-19T14:09:52.000Z</time>
      </trkpt>
      <trkpt lat="45.550437" lon="7.833855">
        <ele>384.94501</ele>
        <time>2024-10-19T14:09:54.000Z</time>
      </trkpt>
      <trkpt lat="45.550457" lon="7.833865">
        <ele>385.01498</ele>
        <time>2024-10-19T14:09:56.000Z</time>
      </trkpt>
      <trkpt lat="45.550477" lon="7.833883">
        <ele>385.06</ele>
        <time>2024-10-19T14:09:58.000Z</time>
      </trkpt>
      <trkpt lat="45.550497" lon="7.833897">
        <ele>385.17999</ele>
        <time>2024-10-19T14:10:00.000Z</time>
      </trkpt>
      <trkpt lat="45.550518" lon="7.83391">
        <ele>385.32001</ele>
        <time>2024-10-19T14:10:02.000Z</time>
      </trkpt>
      <trkpt lat="45.550538" lon="7.833928">
        <ele>385.53003</ele>
        <time>2024-10-19T14:10:05.000Z</time>
      </trkpt>
      <trkpt lat="45.550558" lon="7.833952">
        <ele>385.76501</ele>
        <time>2024-10-19T14:10:07.000Z</time>
      </trkpt>
      <trkpt lat="45.550577" lon="7.833967">
        <ele>386.07501</ele>
        <time>2024-10-19T14:10:09.000Z</time>
      </trkpt>
      <trkpt lat="45.550598" lon="7.833982">
        <ele>386.52502</ele>
        <time>2024-10-19T14:10:11.000Z</time>
      </trkpt>
      <trkpt lat="45.55062" lon="7.833997">
        <ele>387.08502</ele>
        <time>2024-10-19T14:10:13.000Z</time>
      </trkpt>
      <trkpt lat="45.550642" lon="7.834013">
        <ele>387.62503</ele>
        <time>2024-10-19T14:10:15.000Z</time>
      </trkpt>
      <trkpt lat="45.550653" lon="7.834033">
        <ele>388.21002</ele>
        <time>2024-10-19T14:10:16.000Z</time>
      </trkpt>
      <trkpt lat="45.55067" lon="7.834067">
        <ele>388.85504</ele>
        <time>2024-10-19T14:10:18.000Z</time>
      </trkpt>
      <trkpt lat="45.550697" lon="7.834087">
        <ele>389.53006</ele>
        <time>2024-10-19T14:10:20.000Z</time>
      </trkpt>
      <trkpt lat="45.550715" lon="7.834105">
        <ele>390.21506</ele>
        <time>2024-10-19T14:10:22.000Z</time>
      </trkpt>
      <trkpt lat="45.550737" lon="7.834127">
        <ele>390.93008</ele>
        <time>2024-10-19T14:10:25.000Z</time>
      </trkpt>
      <trkpt lat="45.550757" lon="7.834148">
        <ele>391.66006</ele>
        <time>2024-10-19T14:10:28.000Z</time>
      </trkpt>
      <trkpt lat="45.550767" lon="7.834183">
        <ele>392.42007</ele>
        <time>2024-10-19T14:10:30.000Z</time>
      </trkpt>
      <trkpt lat="45.550788" lon="7.834215">
        <ele>393.18506</ele>
        <time>2024-10-19T14:10:32.000Z</time>
      </trkpt>
      <trkpt lat="45.5508" lon="7.834238">
        <ele>393.96506</ele>
        <time>2024-10-19T14:10:34.000Z</time>
      </trkpt>
      <trkpt lat="45.550817" lon="7.83427">
        <ele>394.81009</ele>
        <time>2024-10-19T14:10:36.000Z</time>
      </trkpt>
      <trkpt lat="45.550823" lon="7.834307">
        <ele>395.72009</ele>
        <time>2024-10-19T14:10:38.000Z</time>
      </trkpt>
      <trkpt lat="45.550832" lon="7.834338">
        <ele>396.64508</ele>
        <time>2024-10-19T14:10:40.000Z</time>
      </trkpt>
      <trkpt lat="45.550843" lon="7.834363">
        <ele>397.6001</ele>
        <time>2024-10-19T14:10:42.000Z</time>
      </trkpt>
      <trkpt lat="45.550848" lon="7.834392">
        <ele>398.58008</ele>
        <time>2024-10-19T14:10:44.000Z</time>
      </trkpt>
      <trkpt lat="45.550852" lon="7.834427">
        <ele>399.5351</ele>
        <time>2024-10-19T14:10:46.000Z</time>
      </trkpt>
      <trkpt lat="45.550847" lon="7.834453">
        <ele>400.5051</ele>
        <time>2024-10-19T14:10:49.000Z</time>
      </trkpt>
      <trkpt lat="45.550852" lon="7.834478">
        <ele>401.4451</ele>
        <time>2024-10-19T14:10:51.000Z</time>
      </trkpt>
      <trkpt lat="45.550855" lon="7.834505">
        <ele>402.25009</ele>
        <time>2024-10-19T14:10:54.000Z</time>
      </trkpt>
      <trkpt lat="45.550857" lon="7.834538">
        <ele>402.9751</ele>
        <time>2024-10-19T14:10:56.000Z</time>
      </trkpt>
      <trkpt lat="45.550858" lon="7.834568">
        <ele>403.62009</ele>
        <time>2024-10-19T14:10:58.000Z</time>
      </trkpt>
      <trkpt lat="45.550868" lon="7.834595">
        <ele>404.25507</ele>
        <time>2024-10-19T14:11:01.000Z</time>
      </trkpt>
      <trkpt lat="45.55088" lon="7.834627">
        <ele>404.88007</ele>
        <time>2024-10-19T14:11:04.000Z</time>
      </trkpt>
      <trkpt lat="45.550892" lon="7.834657">
        <ele>405.50507</ele>
        <time>2024-10-19T14:11:06.000Z</time>
      </trkpt>
      <trkpt lat="45.550895" lon="7.834693">
        <ele>406.13507</ele>
        <time>2024-10-19T14:11:09.000Z</time>
      </trkpt>
      <trkpt lat="45.550903" lon="7.834727">
        <ele>406.74008</ele>
        <time>2024-10-19T14:11:11.000Z</time>
      </trkpt>
      <trkpt lat="45.550902" lon="7.834755">
        <ele>407.28009</ele>
        <time>2024-10-19T14:11:14.000Z</time>
      </trkpt>
      <trkpt lat="45.550902" lon="7.834787">
        <ele>407.77509</ele>
        <time>2024-10-19T14:11:16.000Z</time>
      </trkpt>
      <trkpt lat="45.5509" lon="7.834815">
        <ele>408.26511</ele>
        <time>2024-10-19T14:11:18.000Z</time>
      </trkpt>
      <trkpt lat="45.550905" lon="7.834843">
        <ele>408.74011</ele>
        <time>2024-10-19T14:11:20.000Z</time>
      </trkpt>
      <trkpt lat="45.550915" lon="7.834868">
        <ele>409.1701</ele>
        <time>2024-10-19T14:11:22.000Z</time>
      </trkpt>
      <trkpt lat="45.550932" lon="7.8349">
        <ele>409.56509</ele>
        <time>2024-10-19T14:11:24.000Z</time>
      </trkpt>
      <trkpt lat="45.550943" lon="7.834937">
        <ele>409.9501</ele>
        <time>2024-10-19T14:11:26.000Z</time>
      </trkpt>
      <trkpt lat="45.550955" lon="7.834958">
        <ele>410.34009</ele>
        <time>2024-10-19T14:11:29.000Z</time>
      </trkpt>
      <trkpt lat="45.550967" lon="7.834993">
        <ele>410.7001</ele>
        <time>2024-10-19T14:11:31.000Z</time>
      </trkpt>
      <trkpt lat="45.55095" lon="7.835018">
        <ele>410.98007</ele>
        <time>2024-10-19T14:11:33.000Z</time>
      </trkpt>
      <trkpt lat="45.550932" lon="7.83504">
        <ele>411.20508</ele>
        <time>2024-10-19T14:11:36.000Z</time>
      </trkpt>
      <trkpt lat="45.550912" lon="7.835052">
        <ele>411.38507</ele>
        <time>2024-10-19T14:11:38.000Z</time>
      </trkpt>
      <trkpt lat="45.550897" lon="7.835037">
        <ele>411.72006</ele>
        <time>2024-10-19T14:11:46.000Z</time>
      </trkpt>
    </trkseg>
  </trk>
</gpx>